<?xml version='1.0' encoding='UTF-8'?><gpx version="1.1" creator="JPX - https://github.com/jenetics/jpx" xmlns="http://www.topografix.com/GPX/1/1"><trk><trkseg><trkpt lat="46.180235544226186" lon="12.976025872241065"><ele>226.0</ele><time>2026-04-26T10:50:52.001Z</time></trkpt><trkpt lat="46.18030850380056" lon="12.97590622864936"><ele>226.0</ele><time>2026-04-26T10:50:53.001Z</time></trkpt><trkpt lat="46.18036122321443" lon="12.975770249262691"><ele>226.0</ele><time>2026-04-26T10:50:54.001Z</time></trkpt><trkpt lat="46.18040674599961" lon="12.97559800458977"><ele>226.0</ele><time>2026-04-26T10:50:55.001Z</time></trkpt><trkpt lat="46.18045904737278" lon="12.975420817039938"><ele>224.5</ele><time>2026-04-26T10:50:56.001Z</time></trkpt><trkpt lat="46.180515472593434" lon="12.975233046546723"><ele>223.0</ele><time>2026-04-26T10:50:57.001Z</time></trkpt><trkpt lat="46.18057460060975" lon="12.975042737958162"><ele>221.5</ele><time>2026-04-26T10:50:58.001Z</time></trkpt><trkpt lat="46.18064556381531" lon="12.974848830626316"><ele>220.0</ele><time>2026-04-26T10:50:59.001Z</time></trkpt><trkpt lat="46.18073045498896" lon="12.974660174209532"><ele>219.33333333333331</ele><time>2026-04-26T10:51:00.001Z</time></trkpt><trkpt lat="46.18083223665063" lon="12.974500688627524"><ele>218.66666666666669</ele><time>2026-04-26T10:51:01.001Z</time></trkpt><trkpt lat="46.18094815517269" lon="12.974363150651905"><ele>218.0</ele><time>2026-04-26T10:51:02.001Z</time></trkpt><trkpt lat="46.1810740027183" lon="12.97421195421705"><ele>217.66666666666669</ele><time>2026-04-26T10:51:03.001Z</time></trkpt><trkpt lat="46.18118860991535" lon="12.97403187497118"><ele>217.33333333333331</ele><time>2026-04-26T10:51:04.001Z</time></trkpt><trkpt lat="46.18128780173245" lon="12.973859097221538"><ele>217.0</ele><time>2026-04-26T10:51:05.001Z</time></trkpt><trkpt lat="46.18138435599014" lon="12.973689721319824"><ele>217.0</ele><time>2026-04-26T10:51:06.001Z</time></trkpt><trkpt lat="46.18147196696695" lon="12.973542704636689"><ele>217.0</ele><time>2026-04-26T10:51:07.001Z</time></trkpt><trkpt lat="46.18155919420791" lon="12.973418044103491"><ele>217.0</ele><time>2026-04-26T10:51:08.001Z</time></trkpt><trkpt lat="46.181641548516666" lon="12.973300620557199"><ele>217.0</ele><time>2026-04-26T10:51:09.001Z</time></trkpt><trkpt lat="46.181729875812245" lon="12.97320811601539"><ele>217.0</ele><time>2026-04-26T10:51:10.001Z</time></trkpt><trkpt lat="46.18182638057836" lon="12.973094748338966"><ele>217.0</ele><time>2026-04-26T10:51:11.001Z</time></trkpt><trkpt lat="46.181949500112346" lon="12.972985338083118"><ele>217.0</ele><time>2026-04-26T10:51:12.001Z</time></trkpt><trkpt lat="46.18207601342452" lon="12.972836900525921"><ele>217.0</ele><time>2026-04-26T10:51:13.001Z</time></trkpt><trkpt lat="46.18221111057872" lon="12.972675610049938"><ele>217.0</ele><time>2026-04-26T10:51:14.001Z</time></trkpt><trkpt lat="46.18233576510404" lon="12.972530083443806"><ele>217.0</ele><time>2026-04-26T10:51:15.001Z</time></trkpt><trkpt lat="46.18244897895864" lon="12.972393797093298"><ele>217.0</ele><time>2026-04-26T10:51:16.001Z</time></trkpt><trkpt lat="46.18254591153598" lon="12.972281710653636"><ele>217.0</ele><time>2026-04-26T10:51:17.001Z</time></trkpt><trkpt lat="46.18264914468041" lon="12.972192366418037"><ele>217.0</ele><time>2026-04-26T10:51:18.001Z</time></trkpt><trkpt lat="46.18276220686295" lon="12.972171960143575"><ele>217.0</ele><time>2026-04-26T10:51:18.999Z</time></trkpt><trkpt lat="46.18286961084687" lon="12.972175763851526"><ele>217.0</ele><time>2026-04-26T10:51:19.999Z</time></trkpt><trkpt lat="46.18295362878125" lon="12.972295495970423"><ele>217.0</ele><time>2026-04-26T10:51:20.999Z</time></trkpt><trkpt lat="46.18300116177051" lon="12.97246124552305"><ele>218.0</ele><time>2026-04-26T10:51:21.999Z</time></trkpt><trkpt lat="46.18302038380473" lon="12.972685932164843"><ele>219.0</ele><time>2026-04-26T10:51:22.999Z</time></trkpt><trkpt lat="46.183045639400355" lon="12.972927500608082"><ele>220.0</ele><time>2026-04-26T10:51:23.999Z</time></trkpt><trkpt lat="46.183085040063666" lon="12.973113875880014"><ele>220.0</ele><time>2026-04-26T10:51:24.999Z</time></trkpt><trkpt lat="46.18315513222413" lon="12.973241153765397"><ele>220.0</ele><time>2026-04-26T10:51:25.999Z</time></trkpt><trkpt lat="46.18325432548008" lon="12.973319241813378"><ele>220.0</ele><time>2026-04-26T10:51:26.999Z</time></trkpt><trkpt lat="46.183360232650614" lon="12.973317906466775"><ele>220.0</ele><time>2026-04-26T10:51:27.999Z</time></trkpt><trkpt lat="46.183461318396915" lon="12.973247167868593"><ele>220.0</ele><time>2026-04-26T10:51:28.999Z</time></trkpt><trkpt lat="46.18358099086504" lon="12.973148448851743"><ele>218.5</ele><time>2026-04-26T10:51:29.999Z</time></trkpt><trkpt lat="46.183668596040995" lon="12.97307215376933"><ele>217.0</ele><time>2026-04-26T10:51:30.999Z</time></trkpt><trkpt lat="46.18373052104565" lon="12.972955802633326"><ele>215.5</ele><time>2026-04-26T10:51:31.999Z</time></trkpt><trkpt lat="46.18373781151308" lon="12.972781220574662"><ele>214.0</ele><time>2026-04-26T10:51:33Z</time></trkpt><trkpt lat="46.18369074263595" lon="12.97259871770192"><ele>212.33333333333331</ele><time>2026-04-26T10:51:34Z</time></trkpt><trkpt lat="46.18363887806185" lon="12.972392273146268"><ele>210.66666666666669</ele><time>2026-04-26T10:51:35Z</time></trkpt><trkpt lat="46.183613601660745" lon="12.972177434299397"><ele>209.0</ele><time>2026-04-26T10:51:36Z</time></trkpt><trkpt lat="46.18361092364047" lon="12.97193844204124"><ele>209.0</ele><time>2026-04-26T10:51:37Z</time></trkpt><trkpt lat="46.18362059971967" lon="12.971694746297901"><ele>209.0</ele><time>2026-04-26T10:51:38Z</time></trkpt><trkpt lat="46.183609787678776" lon="12.971454610505326"><ele>209.0</ele><time>2026-04-26T10:51:39Z</time></trkpt><trkpt lat="46.18356386738318" lon="12.971217538249746"><ele>209.33333333333334</ele><time>2026-04-26T10:51:40Z</time></trkpt><trkpt lat="46.183472625464326" lon="12.970992235942838"><ele>209.66666666666669</ele><time>2026-04-26T10:51:41Z</time></trkpt><trkpt lat="46.18336852532499" lon="12.970772346655004"><ele>210.0</ele><time>2026-04-26T10:51:42Z</time></trkpt><trkpt lat="46.183312053238716" lon="12.970539434425806"><ele>210.0</ele><time>2026-04-26T10:51:43Z</time></trkpt><trkpt lat="46.18323833321403" lon="12.970315819997374"><ele>210.0</ele><time>2026-04-26T10:51:44Z</time></trkpt><trkpt lat="46.18321222091316" lon="12.970064439426446"><ele>210.0</ele><time>2026-04-26T10:51:45Z</time></trkpt><trkpt lat="46.183192679065165" lon="12.969841621306141"><ele>212.0</ele><time>2026-04-26T10:51:46Z</time></trkpt><trkpt lat="46.183173528800474" lon="12.969631306784542"><ele>214.0</ele><time>2026-04-26T10:51:47Z</time></trkpt><trkpt lat="46.18321542039529" lon="12.969413369245009"><ele>216.0</ele><time>2026-04-26T10:51:48Z</time></trkpt><trkpt lat="46.18322959455501" lon="12.969175101849833"><ele>216.0</ele><time>2026-04-26T10:51:49Z</time></trkpt><trkpt lat="46.18325746053311" lon="12.968939365523044"><ele>216.0</ele><time>2026-04-26T10:51:50Z</time></trkpt><trkpt lat="46.18329184082149" lon="12.968697258016398"><ele>216.0</ele><time>2026-04-26T10:51:51Z</time></trkpt><trkpt lat="46.18331379705169" lon="12.968454574101703"><ele>215.66666666666669</ele><time>2026-04-26T10:51:52Z</time></trkpt><trkpt lat="46.18333606609945" lon="12.968216891482314"><ele>215.33333333333334</ele><time>2026-04-26T10:51:53Z</time></trkpt><trkpt lat="46.183351396473526" lon="12.967983913223476"><ele>215.0</ele><time>2026-04-26T10:51:54Z</time></trkpt><trkpt lat="46.18335088374691" lon="12.96775599264279"><ele>215.0</ele><time>2026-04-26T10:51:55Z</time></trkpt><trkpt lat="46.183344774293936" lon="12.967539957308562"><ele>215.0</ele><time>2026-04-26T10:51:56Z</time></trkpt><trkpt lat="46.18334340145076" lon="12.967336165401424"><ele>215.0</ele><time>2026-04-26T10:51:57Z</time></trkpt><trkpt lat="46.18332952979903" lon="12.967151722198704"><ele>215.0</ele><time>2026-04-26T10:51:58Z</time></trkpt><trkpt lat="46.1833231918004" lon="12.96699473636934"><ele>214.5</ele><time>2026-04-26T10:51:59Z</time></trkpt><trkpt lat="46.18334374761985" lon="12.966836518734915"><ele>214.0</ele><time>2026-04-26T10:52:00Z</time></trkpt><trkpt lat="46.18339042841798" lon="12.966670134013867"><ele>213.5</ele><time>2026-04-26T10:52:01Z</time></trkpt><trkpt lat="46.183462651740584" lon="12.966514425695044"><ele>213.0</ele><time>2026-04-26T10:52:02Z</time></trkpt><trkpt lat="46.183559513894224" lon="12.966367711204805"><ele>212.5</ele><time>2026-04-26T10:52:03Z</time></trkpt><trkpt lat="46.18366417432377" lon="12.966239946986589"><ele>212.0</ele><time>2026-04-26T10:52:04Z</time></trkpt><trkpt lat="46.18376847406785" lon="12.966101653809064"><ele>211.5</ele><time>2026-04-26T10:52:05Z</time></trkpt><trkpt lat="46.183886160426724" lon="12.965959811623812"><ele>211.0</ele><time>2026-04-26T10:52:06Z</time></trkpt><trkpt lat="46.183993670476525" lon="12.965796313930975"><ele>211.25</ele><time>2026-04-26T10:52:07Z</time></trkpt><trkpt lat="46.18408969159794" lon="12.965614902178299"><ele>211.5</ele><time>2026-04-26T10:52:08Z</time></trkpt><trkpt lat="46.184166420470376" lon="12.96543408599404"><ele>211.75</ele><time>2026-04-26T10:52:09Z</time></trkpt><trkpt lat="46.18423511247831" lon="12.965253761648045"><ele>212.0</ele><time>2026-04-26T10:52:10Z</time></trkpt><trkpt lat="46.18428471297938" lon="12.965058474591455"><ele>210.66666666666669</ele><time>2026-04-26T10:52:11Z</time></trkpt><trkpt lat="46.1843250955398" lon="12.964855293613136"><ele>209.33333333333331</ele><time>2026-04-26T10:52:12Z</time></trkpt><trkpt lat="46.18436080333473" lon="12.964632140036755"><ele>208.0</ele><time>2026-04-26T10:52:13Z</time></trkpt><trkpt lat="46.1844023973783" lon="12.964408386638354"><ele>208.25</ele><time>2026-04-26T10:52:14Z</time></trkpt><trkpt lat="46.18444624484197" lon="12.964183724720646"><ele>208.5</ele><time>2026-04-26T10:52:15Z</time></trkpt><trkpt lat="46.18448700812546" lon="12.963983472313114"><ele>208.75</ele><time>2026-04-26T10:52:16Z</time></trkpt><trkpt lat="46.184513527418865" lon="12.963800046822614"><ele>209.0</ele><time>2026-04-26T10:52:17Z</time></trkpt><trkpt lat="46.18452586251526" lon="12.963630885061951"><ele>209.0</ele><time>2026-04-26T10:52:18Z</time></trkpt><trkpt lat="46.184511767122125" lon="12.963458843113704"><ele>209.0</ele><time>2026-04-26T10:52:19Z</time></trkpt><trkpt lat="46.18446548208863" lon="12.963297628093581"><ele>209.0</ele><time>2026-04-26T10:52:20Z</time></trkpt><trkpt lat="46.18438470425156" lon="12.963148589631832"><ele>209.0</ele><time>2026-04-26T10:52:21Z</time></trkpt><trkpt lat="46.18428543429639" lon="12.963007007777414"><ele>209.0</ele><time>2026-04-26T10:52:22Z</time></trkpt><trkpt lat="46.18419286685276" lon="12.962859077640655"><ele>209.0</ele><time>2026-04-26T10:52:23Z</time></trkpt><trkpt lat="46.18410778670292" lon="12.962686788082346"><ele>209.0</ele><time>2026-04-26T10:52:24Z</time></trkpt><trkpt lat="46.1840060911413" lon="12.962553615007309"><ele>209.0</ele><time>2026-04-26T10:52:25Z</time></trkpt><trkpt lat="46.18391645994992" lon="12.962394438670918"><ele>207.75</ele><time>2026-04-26T10:52:26Z</time></trkpt><trkpt lat="46.18381903280804" lon="12.962237950085845"><ele>206.5</ele><time>2026-04-26T10:52:27Z</time></trkpt><trkpt lat="46.18373795208429" lon="12.962066731110694"><ele>205.25</ele><time>2026-04-26T10:52:28Z</time></trkpt><trkpt lat="46.183647540583365" lon="12.961915154344567"><ele>204.0</ele><time>2026-04-26T10:52:29Z</time></trkpt><trkpt lat="46.18355775834542" lon="12.961764632632615"><ele>204.0</ele><time>2026-04-26T10:52:30Z</time></trkpt><trkpt lat="46.18346542400216" lon="12.961614069675905"><ele>204.0</ele><time>2026-04-26T10:52:31Z</time></trkpt><trkpt lat="46.183370045119624" lon="12.961458831842489"><ele>204.0</ele><time>2026-04-26T10:52:32Z</time></trkpt><trkpt lat="46.183260954834154" lon="12.96131541311952"><ele>204.0</ele><time>2026-04-26T10:52:33Z</time></trkpt><trkpt lat="46.18315160154541" lon="12.961172021515795"><ele>200.0</ele><time>2026-04-26T10:52:34Z</time></trkpt><trkpt lat="46.183021575028704" lon="12.96106257057195"><ele>196.0</ele><time>2026-04-26T10:52:35Z</time></trkpt><trkpt lat="46.1828734512864" lon="12.961004681722432"><ele>192.0</ele><time>2026-04-26T10:52:36Z</time></trkpt><trkpt lat="46.18271691236748" lon="12.960995911322966"><ele>192.0</ele><time>2026-04-26T10:52:37Z</time></trkpt><trkpt lat="46.1825794599743" lon="12.96100189000251"><ele>192.0</ele><time>2026-04-26T10:52:38Z</time></trkpt><trkpt lat="46.182447390270035" lon="12.960987674596682"><ele>192.0</ele><time>2026-04-26T10:52:39Z</time></trkpt><trkpt lat="46.182333406273166" lon="12.960939166528874"><ele>192.0</ele><time>2026-04-26T10:52:40Z</time></trkpt><trkpt lat="46.18225341624679" lon="12.96084167588386"><ele>191.0</ele><time>2026-04-26T10:52:41Z</time></trkpt><trkpt lat="46.18221028150429" lon="12.960695467007016"><ele>190.0</ele><time>2026-04-26T10:52:42Z</time></trkpt><trkpt lat="46.18221229010983" lon="12.960522260775694"><ele>189.0</ele><time>2026-04-26T10:52:43Z</time></trkpt><trkpt lat="46.18226840811277" lon="12.960373804307597"><ele>188.0</ele><time>2026-04-26T10:52:44Z</time></trkpt><trkpt lat="46.18236770612393" lon="12.960259073867258"><ele>190.75</ele><time>2026-04-26T10:52:45Z</time></trkpt><trkpt lat="46.18248599030333" lon="12.960218841908395"><ele>193.5</ele><time>2026-04-26T10:52:46Z</time></trkpt><trkpt lat="46.18262520701137" lon="12.960200892838214"><ele>196.25</ele><time>2026-04-26T10:52:47Z</time></trkpt><trkpt lat="46.18274291936224" lon="12.960157840001543"><ele>199.0</ele><time>2026-04-26T10:52:48Z</time></trkpt><trkpt lat="46.182843269731926" lon="12.960073624591331"><ele>198.5</ele><time>2026-04-26T10:52:49Z</time></trkpt><trkpt lat="46.182916022941946" lon="12.95993412318052"><ele>198.0</ele><time>2026-04-26T10:52:50Z</time></trkpt><trkpt lat="46.18293735135956" lon="12.95976305494944"><ele>197.5</ele><time>2026-04-26T10:52:51Z</time></trkpt><trkpt lat="46.18290319608543" lon="12.959586790083467"><ele>197.0</ele><time>2026-04-26T10:52:52Z</time></trkpt><trkpt lat="46.18281839726836" lon="12.959443568195038"><ele>197.0</ele><time>2026-04-26T10:52:53Z</time></trkpt><trkpt lat="46.18270448903776" lon="12.95936691220698"><ele>197.0</ele><time>2026-04-26T10:52:54Z</time></trkpt><trkpt lat="46.1825604183814" lon="12.959338148948"><ele>197.0</ele><time>2026-04-26T10:52:55Z</time></trkpt><trkpt lat="46.1824075696414" lon="12.959370161325959"><ele>197.0</ele><time>2026-04-26T10:52:56Z</time></trkpt><trkpt lat="46.18224613625416" lon="12.959442247838831"><ele>195.0</ele><time>2026-04-26T10:52:57Z</time></trkpt><trkpt lat="46.18206484914155" lon="12.959546783005623"><ele>193.0</ele><time>2026-04-26T10:52:58Z</time></trkpt><trkpt lat="46.18189619111486" lon="12.959635359684535"><ele>191.0</ele><time>2026-04-26T10:52:59Z</time></trkpt><trkpt lat="46.18171719419541" lon="12.959723509191317"><ele>191.0</ele><time>2026-04-26T10:53:00Z</time></trkpt><trkpt lat="46.18153273452171" lon="12.959816957341648"><ele>191.0</ele><time>2026-04-26T10:53:01Z</time></trkpt><trkpt lat="46.18136119346631" lon="12.9599144233162"><ele>191.0</ele><time>2026-04-26T10:53:02Z</time></trkpt><trkpt lat="46.1811945801009" lon="12.960026722636142"><ele>188.0</ele><time>2026-04-26T10:53:03Z</time></trkpt><trkpt lat="46.18103605948626" lon="12.96014128161345"><ele>185.0</ele><time>2026-04-26T10:53:04Z</time></trkpt><trkpt lat="46.180897320839776" lon="12.960246806850739"><ele>182.0</ele><time>2026-04-26T10:53:05Z</time></trkpt><trkpt lat="46.18077903054823" lon="12.96033499658575"><ele>178.6</ele><time>2026-04-26T10:53:06Z</time></trkpt><trkpt lat="46.18067420777057" lon="12.96041512003864"><ele>175.2</ele><time>2026-04-26T10:53:07Z</time></trkpt><trkpt lat="46.18056520867833" lon="12.96043197639847"><ele>171.8</ele><time>2026-04-26T10:53:08Z</time></trkpt><trkpt lat="46.18046759702845" lon="12.960378633195118"><ele>168.4</ele><time>2026-04-26T10:53:09Z</time></trkpt><trkpt lat="46.1803829386579" lon="12.96027808663269"><ele>165.0</ele><time>2026-04-26T10:53:10Z</time></trkpt><trkpt lat="46.18034129733217" lon="12.960138040255698"><ele>165.5</ele><time>2026-04-26T10:53:11Z</time></trkpt><trkpt lat="46.1803402077423" lon="12.959980369412584"><ele>166.0</ele><time>2026-04-26T10:53:12Z</time></trkpt><trkpt lat="46.18037574742589" lon="12.959815394167899"><ele>166.5</ele><time>2026-04-26T10:53:13.001Z</time></trkpt><trkpt lat="46.18048545434691" lon="12.959706874266049"><ele>167.0</ele><time>2026-04-26T10:53:14.001Z</time></trkpt><trkpt lat="46.180637875695105" lon="12.959643441610964"><ele>171.0</ele><time>2026-04-26T10:53:15.001Z</time></trkpt><trkpt lat="46.180811543311904" lon="12.959577074214113"><ele>175.0</ele><time>2026-04-26T10:53:16.001Z</time></trkpt><trkpt lat="46.18099460221495" lon="12.95950769454789"><ele>179.0</ele><time>2026-04-26T10:53:17.001Z</time></trkpt><trkpt lat="46.18117245643439" lon="12.95942057354875"><ele>179.0</ele><time>2026-04-26T10:53:18.001Z</time></trkpt><trkpt lat="46.18136616308069" lon="12.959319369687266"><ele>179.0</ele><time>2026-04-26T10:53:19.001Z</time></trkpt><trkpt lat="46.18155363161373" lon="12.959205935585658"><ele>179.0</ele><time>2026-04-26T10:53:20.001Z</time></trkpt><trkpt lat="46.181748246631145" lon="12.959128608427184"><ele>178.33333333333331</ele><time>2026-04-26T10:53:21.001Z</time></trkpt><trkpt lat="46.18193231080188" lon="12.959029218407045"><ele>177.66666666666666</ele><time>2026-04-26T10:53:22.001Z</time></trkpt><trkpt lat="46.18209293536813" lon="12.958948284996302"><ele>177.0</ele><time>2026-04-26T10:53:23.001Z</time></trkpt><trkpt lat="46.1822541828662" lon="12.95890159812027"><ele>178.25</ele><time>2026-04-26T10:53:24.001Z</time></trkpt><trkpt lat="46.18241624550346" lon="12.958908968382401"><ele>179.5</ele><time>2026-04-26T10:53:25Z</time></trkpt><trkpt lat="46.18256196044091" lon="12.95897050386163"><ele>180.75</ele><time>2026-04-26T10:53:26Z</time></trkpt><trkpt lat="46.18267843934116" lon="12.959020988663775"><ele>182.0</ele><time>2026-04-26T10:53:27Z</time></trkpt><trkpt lat="46.18278024215871" lon="12.959034223065768"><ele>182.0</ele><time>2026-04-26T10:53:28Z</time></trkpt><trkpt lat="46.18288434552142" lon="12.958959333015533"><ele>182.0</ele><time>2026-04-26T10:53:29Z</time></trkpt><trkpt lat="46.183010878291306" lon="12.958858549682331"><ele>182.0</ele><time>2026-04-26T10:53:30Z</time></trkpt><trkpt lat="46.183130490189534" lon="12.958764109600013"><ele>182.0</ele><time>2026-04-26T10:53:31Z</time></trkpt><trkpt lat="46.183259381398436" lon="12.958744965557006"><ele>179.33333333333331</ele><time>2026-04-26T10:53:32Z</time></trkpt><trkpt lat="46.18340854940786" lon="12.958795344122047"><ele>176.66666666666666</ele><time>2026-04-26T10:53:33Z</time></trkpt><trkpt lat="46.18356633079637" lon="12.95885490179112"><ele>174.0</ele><time>2026-04-26T10:53:34Z</time></trkpt><trkpt lat="46.183740740700586" lon="12.95889327129302"><ele>174.0</ele><time>2026-04-26T10:53:35Z</time></trkpt><trkpt lat="46.18390492363906" lon="12.958924302923435"><ele>174.0</ele><time>2026-04-26T10:53:36Z</time></trkpt><trkpt lat="46.184057606534694" lon="12.958933730627576"><ele>174.0</ele><time>2026-04-26T10:53:37Z</time></trkpt><trkpt lat="46.18420417557935" lon="12.958887347183278"><ele>175.33333333333334</ele><time>2026-04-26T10:53:38Z</time></trkpt><trkpt lat="46.18435374344543" lon="12.958804468500283"><ele>176.66666666666669</ele><time>2026-04-26T10:53:39Z</time></trkpt><trkpt lat="46.18451793831033" lon="12.95874016514085"><ele>178.0</ele><time>2026-04-26T10:53:40Z</time></trkpt><trkpt lat="46.18467421196893" lon="12.958727724198022"><ele>178.0</ele><time>2026-04-26T10:53:41Z</time></trkpt><trkpt lat="46.18479211629955" lon="12.958684641327054"><ele>178.0</ele><time>2026-04-26T10:53:42Z</time></trkpt><trkpt lat="46.184880292814114" lon="12.958610170208388"><ele>178.0</ele><time>2026-04-26T10:53:43Z</time></trkpt><trkpt lat="46.184953030713466" lon="12.958486606346952"><ele>178.0</ele><time>2026-04-26T10:53:44Z</time></trkpt><trkpt lat="46.18498960685291" lon="12.958356516197657"><ele>178.0</ele><time>2026-04-26T10:53:45Z</time></trkpt><trkpt lat="46.18497953551269" lon="12.958215821099978"><ele>172.5</ele><time>2026-04-26T10:53:46Z</time></trkpt><trkpt lat="46.18494449149086" lon="12.95805765981656"><ele>167.0</ele><time>2026-04-26T10:53:47Z</time></trkpt><trkpt lat="46.18490033913111" lon="12.95787698399301"><ele>161.5</ele><time>2026-04-26T10:53:48Z</time></trkpt><trkpt lat="46.18486215942667" lon="12.95768676039702"><ele>156.0</ele><time>2026-04-26T10:53:49Z</time></trkpt><trkpt lat="46.184828736712745" lon="12.957483292845142"><ele>149.0</ele><time>2026-04-26T10:53:50Z</time></trkpt><trkpt lat="46.18479295028024" lon="12.957273078257998"><ele>142.0</ele><time>2026-04-26T10:53:51Z</time></trkpt><trkpt lat="46.18475570135424" lon="12.95706158774503"><ele>135.0</ele><time>2026-04-26T10:53:52Z</time></trkpt><trkpt lat="46.18471931914657" lon="12.956850453565215"><ele>138.5</ele><time>2026-04-26T10:53:53Z</time></trkpt><trkpt lat="46.184681865299694" lon="12.956637605527952"><ele>142.0</ele><time>2026-04-26T10:53:54Z</time></trkpt><trkpt lat="46.18464413535535" lon="12.956427938196764"><ele>145.5</ele><time>2026-04-26T10:53:55Z</time></trkpt><trkpt lat="46.18460906644672" lon="12.956244166242776"><ele>149.0</ele><time>2026-04-26T10:53:56Z</time></trkpt><trkpt lat="46.1845798502092" lon="12.956084757029327"><ele>149.0</ele><time>2026-04-26T10:53:57Z</time></trkpt><trkpt lat="46.1845517470556" lon="12.955951000119947"><ele>149.0</ele><time>2026-04-26T10:53:58Z</time></trkpt><trkpt lat="46.184493459650774" lon="12.955854692434452"><ele>149.0</ele><time>2026-04-26T10:53:59Z</time></trkpt><trkpt lat="46.1844011307122" lon="12.9557844954916"><ele>149.0</ele><time>2026-04-26T10:54:00Z</time></trkpt><trkpt lat="46.18427115129855" lon="12.955728827090985"><ele>149.0</ele><time>2026-04-26T10:54:01Z</time></trkpt><trkpt lat="46.184125948757725" lon="12.95566540908504"><ele>148.66666666666666</ele><time>2026-04-26T10:54:02Z</time></trkpt><trkpt lat="46.18396225873841" lon="12.955570288808747"><ele>148.33333333333334</ele><time>2026-04-26T10:54:03Z</time></trkpt><trkpt lat="46.18381623646138" lon="12.9554728936765"><ele>148.0</ele><time>2026-04-26T10:54:04Z</time></trkpt><trkpt lat="46.18367639067756" lon="12.955371658873565"><ele>148.0</ele><time>2026-04-26T10:54:05Z</time></trkpt><trkpt lat="46.18356545061213" lon="12.955200360515903"><ele>148.0</ele><time>2026-04-26T10:54:06Z</time></trkpt><trkpt lat="46.183480333976455" lon="12.955028720521181"><ele>148.0</ele><time>2026-04-26T10:54:07Z</time></trkpt><trkpt lat="46.18337313955536" lon="12.954893945126626"><ele>147.66666666666669</ele><time>2026-04-26T10:54:08Z</time></trkpt><trkpt lat="46.183237691694146" lon="12.954797686422948"><ele>147.33333333333334</ele><time>2026-04-26T10:54:09Z</time></trkpt><trkpt lat="46.18307596278813" lon="12.954717542722625"><ele>147.0</ele><time>2026-04-26T10:54:10Z</time></trkpt><trkpt lat="46.18292336326857" lon="12.954615160748414"><ele>147.0</ele><time>2026-04-26T10:54:11Z</time></trkpt><trkpt lat="46.18279261500351" lon="12.95452342120583"><ele>147.0</ele><time>2026-04-26T10:54:12Z</time></trkpt><trkpt lat="46.18266633214912" lon="12.954477910108665"><ele>147.0</ele><time>2026-04-26T10:54:13Z</time></trkpt><trkpt lat="46.18255555192085" lon="12.954406726773337"><ele>147.0</ele><time>2026-04-26T10:54:14Z</time></trkpt><trkpt lat="46.182455662248756" lon="12.95433052986332"><ele>151.8</ele><time>2026-04-26T10:54:15Z</time></trkpt><trkpt lat="46.18241512016855" lon="12.95415743413198"><ele>156.6</ele><time>2026-04-26T10:54:16Z</time></trkpt><trkpt lat="46.18241705360739" lon="12.954004850182766"><ele>161.4</ele><time>2026-04-26T10:54:17Z</time></trkpt><trkpt lat="46.18246937700073" lon="12.9538798402803"><ele>166.20000000000002</ele><time>2026-04-26T10:54:18Z</time></trkpt><trkpt lat="46.18256241073491" lon="12.953785338406083"><ele>171.0</ele><time>2026-04-26T10:54:19Z</time></trkpt><trkpt lat="46.18269568213224" lon="12.953699787207812"><ele>171.0</ele><time>2026-04-26T10:54:20Z</time></trkpt><trkpt lat="46.18284097632436" lon="12.953573008254054"><ele>171.0</ele><time>2026-04-26T10:54:21Z</time></trkpt><trkpt lat="46.183001390485" lon="12.953464242575468"><ele>171.0</ele><time>2026-04-26T10:54:22Z</time></trkpt><trkpt lat="46.18314557360135" lon="12.95334375620653"><ele>174.0</ele><time>2026-04-26T10:54:23Z</time></trkpt><trkpt lat="46.18327175425556" lon="12.953189294283888"><ele>177.0</ele><time>2026-04-26T10:54:24Z</time></trkpt><trkpt lat="46.18338843056321" lon="12.95304822819525"><ele>180.0</ele><time>2026-04-26T10:54:25Z</time></trkpt><trkpt lat="46.18348716567781" lon="12.95294338370894"><ele>183.0</ele><time>2026-04-26T10:54:26Z</time></trkpt><trkpt lat="46.1835660083971" lon="12.952821821280743"><ele>183.0</ele><time>2026-04-26T10:54:27Z</time></trkpt><trkpt lat="46.18359851883963" lon="12.952693598547816"><ele>183.0</ele><time>2026-04-26T10:54:28Z</time></trkpt><trkpt lat="46.183577849865046" lon="12.952542420064582"><ele>183.0</ele><time>2026-04-26T10:54:29Z</time></trkpt><trkpt lat="46.18351553598441" lon="12.952389220099603"><ele>183.0</ele><time>2026-04-26T10:54:30Z</time></trkpt><trkpt lat="46.183460096080395" lon="12.952196928792858"><ele>179.25</ele><time>2026-04-26T10:54:31Z</time></trkpt><trkpt lat="46.1833975335742" lon="12.952020517728876"><ele>175.5</ele><time>2026-04-26T10:54:32Z</time></trkpt><trkpt lat="46.18333886385387" lon="12.95187479963635"><ele>171.75</ele><time>2026-04-26T10:54:33Z</time></trkpt><trkpt lat="46.183235936969055" lon="12.951795261866776"><ele>168.0</ele><time>2026-04-26T10:54:34Z</time></trkpt><trkpt lat="46.183117641068435" lon="12.951783563522646"><ele>166.33333333333334</ele><time>2026-04-26T10:54:35Z</time></trkpt><trkpt lat="46.182974712178066" lon="12.951825786420793"><ele>164.66666666666669</ele><time>2026-04-26T10:54:36Z</time></trkpt><trkpt lat="46.18281015157673" lon="12.95184425575568"><ele>163.0</ele><time>2026-04-26T10:54:37Z</time></trkpt><trkpt lat="46.18265035860576" lon="12.951899867456799"><ele>163.0</ele><time>2026-04-26T10:54:38Z</time></trkpt><trkpt lat="46.18251464977984" lon="12.951908539024181"><ele>163.0</ele><time>2026-04-26T10:54:39Z</time></trkpt><trkpt lat="46.18239289956501" lon="12.951919405440652"><ele>163.0</ele><time>2026-04-26T10:54:40Z</time></trkpt><trkpt lat="46.18228631050424" lon="12.951890230209433"><ele>163.0</ele><time>2026-04-26T10:54:41Z</time></trkpt><trkpt lat="46.18219292813483" lon="12.951800563092489"><ele>165.8</ele><time>2026-04-26T10:54:42Z</time></trkpt><trkpt lat="46.18214837312274" lon="12.951656961795205"><ele>168.60000000000002</ele><time>2026-04-26T10:54:43Z</time></trkpt><trkpt lat="46.182153588078755" lon="12.951494970294767"><ele>171.39999999999998</ele><time>2026-04-26T10:54:44Z</time></trkpt><trkpt lat="46.182187278773974" lon="12.951341816322637"><ele>174.2</ele><time>2026-04-26T10:54:45Z</time></trkpt><trkpt lat="46.182280680660995" lon="12.951241764277883"><ele>177.0</ele><time>2026-04-26T10:54:46Z</time></trkpt><trkpt lat="46.18240865845236" lon="12.951219772514177"><ele>178.33333333333334</ele><time>2026-04-26T10:54:47Z</time></trkpt><trkpt lat="46.18255463939441" lon="12.95114876042934"><ele>179.66666666666669</ele><time>2026-04-26T10:54:48Z</time></trkpt><trkpt lat="46.182718930792426" lon="12.951073915366692"><ele>181.0</ele><time>2026-04-26T10:54:49Z</time></trkpt><trkpt lat="46.18289333384234" lon="12.950990504518035"><ele>181.0</ele><time>2026-04-26T10:54:50Z</time></trkpt><trkpt lat="46.1830525793367" lon="12.950917776252"><ele>181.0</ele><time>2026-04-26T10:54:51Z</time></trkpt><trkpt lat="46.18322223433091" lon="12.95083602233121"><ele>181.0</ele><time>2026-04-26T10:54:52Z</time></trkpt><trkpt lat="46.18339092280873" lon="12.950737291893436"><ele>183.66666666666669</ele><time>2026-04-26T10:54:53Z</time></trkpt><trkpt lat="46.18355178274486" lon="12.950592143695937"><ele>186.33333333333334</ele><time>2026-04-26T10:54:54Z</time></trkpt><trkpt lat="46.18370639951976" lon="12.950470236876331"><ele>189.0</ele><time>2026-04-26T10:54:55Z</time></trkpt><trkpt lat="46.18383673770198" lon="12.950356131837651"><ele>189.0</ele><time>2026-04-26T10:54:56Z</time></trkpt><trkpt lat="46.18395657522575" lon="12.95024146488152"><ele>189.0</ele><time>2026-04-26T10:54:57.001Z</time></trkpt><trkpt lat="46.18405528171301" lon="12.950080535526615"><ele>189.0</ele><time>2026-04-26T10:54:58.001Z</time></trkpt><trkpt lat="46.18413390598186" lon="12.949889276535078"><ele>189.0</ele><time>2026-04-26T10:54:59.001Z</time></trkpt><trkpt lat="46.18419343549028" lon="12.949684394644402"><ele>190.0</ele><time>2026-04-26T10:55:00.001Z</time></trkpt><trkpt lat="46.18422855531763" lon="12.949474682172536"><ele>191.0</ele><time>2026-04-26T10:55:01.001Z</time></trkpt><trkpt lat="46.184252140013385" lon="12.949308032594447"><ele>192.0</ele><time>2026-04-26T10:55:02.001Z</time></trkpt><trkpt lat="46.18426970354808" lon="12.949172833298473"><ele>193.0</ele><time>2026-04-26T10:55:03.001Z</time></trkpt><trkpt lat="46.184329538893905" lon="12.94907449318116"><ele>193.8</ele><time>2026-04-26T10:55:04.001Z</time></trkpt><trkpt lat="46.1843844312191" lon="12.94897393539466"><ele>194.60000000000002</ele><time>2026-04-26T10:55:05.001Z</time></trkpt><trkpt lat="46.18445535255849" lon="12.94885715794872"><ele>195.39999999999998</ele><time>2026-04-26T10:55:06.001Z</time></trkpt><trkpt lat="46.18454214175181" lon="12.948787000867855"><ele>196.2</ele><time>2026-04-26T10:55:07.001Z</time></trkpt><trkpt lat="46.18464539293937" lon="12.948733794196489"><ele>197.0</ele><time>2026-04-26T10:55:08.001Z</time></trkpt><trkpt lat="46.184775946672865" lon="12.948709206693117"><ele>197.0</ele><time>2026-04-26T10:55:09.001Z</time></trkpt><trkpt lat="46.18492045037331" lon="12.948710285708625"><ele>197.0</ele><time>2026-04-26T10:55:10.001Z</time></trkpt><trkpt lat="46.18507620627319" lon="12.948710143021698"><ele>197.0</ele><time>2026-04-26T10:55:11.001Z</time></trkpt><trkpt lat="46.185229031894146" lon="12.948700395301785"><ele>197.0</ele><time>2026-04-26T10:55:12.001Z</time></trkpt><trkpt lat="46.185355347916285" lon="12.948691719743573"><ele>197.0</ele><time>2026-04-26T10:55:13.001Z</time></trkpt><trkpt lat="46.18546927146172" lon="12.948708215345011"><ele>197.0</ele><time>2026-04-26T10:55:14.001Z</time></trkpt><trkpt lat="46.185570701234816" lon="12.948767070506944"><ele>197.0</ele><time>2026-04-26T10:55:15.001Z</time></trkpt><trkpt lat="46.18565754397083" lon="12.948849812140288"><ele>196.0</ele><time>2026-04-26T10:55:16.001Z</time></trkpt><trkpt lat="46.18572627592127" lon="12.94895441698849"><ele>195.0</ele><time>2026-04-26T10:55:17.001Z</time></trkpt><trkpt lat="46.185795096706386" lon="12.94901228785291"><ele>194.0</ele><time>2026-04-26T10:55:18.001Z</time></trkpt><trkpt lat="46.185869835094216" lon="12.948981479905457"><ele>193.0</ele><time>2026-04-26T10:55:19.001Z</time></trkpt><trkpt lat="46.18592795534309" lon="12.948888220951593"><ele>192.0</ele><time>2026-04-26T10:55:20.001Z</time></trkpt><trkpt lat="46.18595489140644" lon="12.94872164834943"><ele>192.0</ele><time>2026-04-26T10:55:21.001Z</time></trkpt><trkpt lat="46.18599644347861" lon="12.948521947935737"><ele>192.0</ele><time>2026-04-26T10:55:22.001Z</time></trkpt><trkpt lat="46.186033777587355" lon="12.948290513480488"><ele>192.0</ele><time>2026-04-26T10:55:23.001Z</time></trkpt><trkpt lat="46.186079408352704" lon="12.948044464483075"><ele>195.33333333333331</ele><time>2026-04-26T10:55:24.001Z</time></trkpt><trkpt lat="46.18615602208632" lon="12.947772104240405"><ele>198.66666666666666</ele><time>2026-04-26T10:55:25.001Z</time></trkpt><trkpt lat="46.18623719017249" lon="12.947518430322859"><ele>202.0</ele><time>2026-04-26T10:55:26.001Z</time></trkpt><trkpt lat="46.18631386050685" lon="12.947273326095466"><ele>204.5</ele><time>2026-04-26T10:55:27.001Z</time></trkpt><trkpt lat="46.18637949220468" lon="12.947063809103383"><ele>207.0</ele><time>2026-04-26T10:55:28.001Z</time></trkpt><trkpt lat="46.18644983251656" lon="12.946876239042513"><ele>209.5</ele><time>2026-04-26T10:55:29.001Z</time></trkpt><trkpt lat="46.18652236610908" lon="12.946733667405129"><ele>212.0</ele><time>2026-04-26T10:55:30.001Z</time></trkpt><trkpt lat="46.18661631090317" lon="12.946643851400184"><ele>205.25</ele><time>2026-04-26T10:55:31Z</time></trkpt><trkpt lat="46.186727292360935" lon="12.946599031908788"><ele>198.5</ele><time>2026-04-26T10:55:32Z</time></trkpt><trkpt lat="46.18685313777211" lon="12.946606379188253"><ele>191.75</ele><time>2026-04-26T10:55:33Z</time></trkpt><trkpt lat="46.186978630869156" lon="12.946671532351708"><ele>185.0</ele><time>2026-04-26T10:55:34Z</time></trkpt><trkpt lat="46.18708468916283" lon="12.946794550831877"><ele>183.33333333333331</ele><time>2026-04-26T10:55:35Z</time></trkpt><trkpt lat="46.18721478556043" lon="12.946931003241914"><ele>181.66666666666666</ele><time>2026-04-26T10:55:36Z</time></trkpt><trkpt lat="46.18730334895423" lon="12.947202603128476"><ele>180.0</ele><time>2026-04-26T10:55:37Z</time></trkpt><trkpt lat="46.18740033650254" lon="12.947489687810151"><ele>178.0</ele><time>2026-04-26T10:55:38Z</time></trkpt><trkpt lat="46.18749591354167" lon="12.947784889715933"><ele>176.0</ele><time>2026-04-26T10:55:39Z</time></trkpt><trkpt lat="46.187568844338536" lon="12.948095243514546"><ele>179.5</ele><time>2026-04-26T10:55:40Z</time></trkpt><trkpt lat="46.187677058526056" lon="12.948387609674185"><ele>183.0</ele><time>2026-04-26T10:55:41Z</time></trkpt><trkpt lat="46.18778335925206" lon="12.948674806573317"><ele>183.0</ele><time>2026-04-26T10:55:42Z</time></trkpt><trkpt lat="46.187890348318426" lon="12.948959013919389"><ele>183.0</ele><time>2026-04-26T10:55:43Z</time></trkpt><trkpt lat="46.18800053791609" lon="12.949246825579058"><ele>183.66666666666666</ele><time>2026-04-26T10:55:44Z</time></trkpt><trkpt lat="46.188120776513664" lon="12.949490822832843"><ele>184.33333333333331</ele><time>2026-04-26T10:55:45Z</time></trkpt><trkpt lat="46.188242071770595" lon="12.949748264197327"><ele>185.0</ele><time>2026-04-26T10:55:46Z</time></trkpt><trkpt lat="46.188383191659014" lon="12.949974890418886"><ele>186.33333333333331</ele><time>2026-04-26T10:55:47Z</time></trkpt><trkpt lat="46.18855247515667" lon="12.950175352326909"><ele>187.66666666666666</ele><time>2026-04-26T10:55:48Z</time></trkpt><trkpt lat="46.18873746369863" lon="12.950357906597683"><ele>189.0</ele><time>2026-04-26T10:55:49Z</time></trkpt><trkpt lat="46.18890361951895" lon="12.950519441645564"><ele>186.5</ele><time>2026-04-26T10:55:50Z</time></trkpt><trkpt lat="46.18903595879279" lon="12.950663164036623"><ele>184.0</ele><time>2026-04-26T10:55:51Z</time></trkpt><trkpt lat="46.18915269075485" lon="12.950759353605678"><ele>181.5</ele><time>2026-04-26T10:55:52Z</time></trkpt><trkpt lat="46.189262223289575" lon="12.950869567582936"><ele>179.0</ele><time>2026-04-26T10:55:53Z</time></trkpt><trkpt lat="46.18939525932935" lon="12.95094096611112"><ele>179.0</ele><time>2026-04-26T10:55:54Z</time></trkpt><trkpt lat="46.18955994282083" lon="12.950924785079659"><ele>179.0</ele><time>2026-04-26T10:55:55Z</time></trkpt><trkpt lat="46.18973326959961" lon="12.950858120013375"><ele>179.0</ele><time>2026-04-26T10:55:56Z</time></trkpt><trkpt lat="46.18991328808871" lon="12.950741568693225"><ele>176.0</ele><time>2026-04-26T10:55:57Z</time></trkpt><trkpt lat="46.19010409985631" lon="12.950678770722265"><ele>173.0</ele><time>2026-04-26T10:55:58Z</time></trkpt><trkpt lat="46.19026749912012" lon="12.950614918159333"><ele>170.0</ele><time>2026-04-26T10:55:59Z</time></trkpt><trkpt lat="46.19042303541321" lon="12.950555908019782"><ele>170.0</ele><time>2026-04-26T10:56:00Z</time></trkpt><trkpt lat="46.190579557579284" lon="12.950503337535324"><ele>170.0</ele><time>2026-04-26T10:56:01Z</time></trkpt><trkpt lat="46.190723410569014" lon="12.950499105110424"><ele>170.0</ele><time>2026-04-26T10:56:02Z</time></trkpt><trkpt lat="46.190852399781214" lon="12.950588230619065"><ele>170.0</ele><time>2026-04-26T10:56:03Z</time></trkpt><trkpt lat="46.19096861816019" lon="12.95074021508865"><ele>165.33333333333331</ele><time>2026-04-26T10:56:04Z</time></trkpt><trkpt lat="46.19110150236483" lon="12.950932000189024"><ele>160.66666666666666</ele><time>2026-04-26T10:56:05Z</time></trkpt><trkpt lat="46.191239188296166" lon="12.951106612406392"><ele>156.0</ele><time>2026-04-26T10:56:06Z</time></trkpt><trkpt lat="46.19137363794731" lon="12.951231310527508"><ele>158.66666666666666</ele><time>2026-04-26T10:56:07Z</time></trkpt><trkpt lat="46.19151580927935" lon="12.951308857539761"><ele>161.33333333333331</ele><time>2026-04-26T10:56:08Z</time></trkpt><trkpt lat="46.19169225487592" lon="12.95135267019458"><ele>164.0</ele><time>2026-04-26T10:56:09Z</time></trkpt><trkpt lat="46.19187874005855" lon="12.951399252074125"><ele>164.0</ele><time>2026-04-26T10:56:10Z</time></trkpt><trkpt lat="46.192072557503785" lon="12.951465445474145"><ele>164.0</ele><time>2026-04-26T10:56:11Z</time></trkpt><trkpt lat="46.192280427146066" lon="12.951544711041072"><ele>164.0</ele><time>2026-04-26T10:56:12Z</time></trkpt><trkpt lat="46.1924840767539" lon="12.951616588744928"><ele>164.66666666666666</ele><time>2026-04-26T10:56:13Z</time></trkpt><trkpt lat="46.1926747680844" lon="12.951688141071548"><ele>165.33333333333334</ele><time>2026-04-26T10:56:14Z</time></trkpt><trkpt lat="46.19288084766046" lon="12.951755321700865"><ele>166.0</ele><time>2026-04-26T10:56:15Z</time></trkpt><trkpt lat="46.19309232934062" lon="12.951826452871313"><ele>166.5</ele><time>2026-04-26T10:56:16Z</time></trkpt><trkpt lat="46.1933095458954" lon="12.951906759061995"><ele>167.0</ele><time>2026-04-26T10:56:17Z</time></trkpt><trkpt lat="46.193534353960416" lon="12.951984706280541"><ele>167.0</ele><time>2026-04-26T10:56:18Z</time></trkpt><trkpt lat="46.19375816736243" lon="12.952058713952528"><ele>167.0</ele><time>2026-04-26T10:56:19Z</time></trkpt><trkpt lat="46.19398281103665" lon="12.952160471125975"><ele>167.0</ele><time>2026-04-26T10:56:20Z</time></trkpt><trkpt lat="46.19420849575144" lon="12.952239424173639"><ele>167.0</ele><time>2026-04-26T10:56:21Z</time></trkpt><trkpt lat="46.1944333193741" lon="12.952293823231953"><ele>167.0</ele><time>2026-04-26T10:56:22Z</time></trkpt><trkpt lat="46.194641424832504" lon="12.952367258264584"><ele>167.0</ele><time>2026-04-26T10:56:23Z</time></trkpt><trkpt lat="46.19483192014251" lon="12.952437872832565"><ele>167.0</ele><time>2026-04-26T10:56:24Z</time></trkpt><trkpt lat="46.19501261003025" lon="12.952504566529118"><ele>163.33333333333331</ele><time>2026-04-26T10:56:25Z</time></trkpt><trkpt lat="46.19518459868786" lon="12.952568093265356"><ele>159.66666666666666</ele><time>2026-04-26T10:56:26Z</time></trkpt><trkpt lat="46.19534596152662" lon="12.952620023175246"><ele>156.0</ele><time>2026-04-26T10:56:27Z</time></trkpt><trkpt lat="46.19551082251364" lon="12.95263300153107"><ele>154.33333333333334</ele><time>2026-04-26T10:56:28Z</time></trkpt><trkpt lat="46.195686284215945" lon="12.952599662517759"><ele>152.66666666666669</ele><time>2026-04-26T10:56:29Z</time></trkpt><trkpt lat="46.1958644184955" lon="12.952477382469956"><ele>151.0</ele><time>2026-04-26T10:56:30Z</time></trkpt><trkpt lat="46.19603430687417" lon="12.952321286779028"><ele>151.0</ele><time>2026-04-26T10:56:31Z</time></trkpt><trkpt lat="46.19620399273507" lon="12.95212726558116"><ele>151.0</ele><time>2026-04-26T10:56:32Z</time></trkpt><trkpt lat="46.196367302345585" lon="12.951956477435502"><ele>151.0</ele><time>2026-04-26T10:56:33Z</time></trkpt><trkpt lat="46.19653515166433" lon="12.95178894028549"><ele>156.33333333333334</ele><time>2026-04-26T10:56:34Z</time></trkpt><trkpt lat="46.19672256765265" lon="12.951621974525562"><ele>161.66666666666666</ele><time>2026-04-26T10:56:35Z</time></trkpt><trkpt lat="46.196898114605325" lon="12.951462013343965"><ele>167.0</ele><time>2026-04-26T10:56:36Z</time></trkpt><trkpt lat="46.19706140197155" lon="12.951308390003456"><ele>167.0</ele><time>2026-04-26T10:56:37Z</time></trkpt><trkpt lat="46.19722633719577" lon="12.951154275431112"><ele>167.0</ele><time>2026-04-26T10:56:38.001Z</time></trkpt><trkpt lat="46.197376061923265" lon="12.950971114133848"><ele>167.0</ele><time>2026-04-26T10:56:39.001Z</time></trkpt><trkpt lat="46.197531081368155" lon="12.950760794788927"><ele>165.66666666666666</ele><time>2026-04-26T10:56:40.001Z</time></trkpt><trkpt lat="46.19766996807538" lon="12.950570279700152"><ele>164.33333333333334</ele><time>2026-04-26T10:56:41.001Z</time></trkpt><trkpt lat="46.197787009436134" lon="12.95040879536027"><ele>163.0</ele><time>2026-04-26T10:56:42.001Z</time></trkpt><trkpt lat="46.19789209783596" lon="12.950277295258049"><ele>163.0</ele><time>2026-04-26T10:56:43.001Z</time></trkpt><trkpt lat="46.198001205412865" lon="12.950187613036011"><ele>163.0</ele><time>2026-04-26T10:56:44.001Z</time></trkpt><trkpt lat="46.19812393295866" lon="12.95015240162305"><ele>163.0</ele><time>2026-04-26T10:56:45.001Z</time></trkpt><trkpt lat="46.19827934842922" lon="12.950117501666824"><ele>163.0</ele><time>2026-04-26T10:56:46.001Z</time></trkpt><trkpt lat="46.19843383193774" lon="12.950055597030612"><ele>161.0</ele><time>2026-04-26T10:56:47.001Z</time></trkpt><trkpt lat="46.198579032420675" lon="12.950011729374596"><ele>159.0</ele><time>2026-04-26T10:56:48.001Z</time></trkpt><trkpt lat="46.198696505624476" lon="12.949897607547152"><ele>157.0</ele><time>2026-04-26T10:56:49.001Z</time></trkpt><trkpt lat="46.19880370309836" lon="12.949719873896859"><ele>157.0</ele><time>2026-04-26T10:56:50.001Z</time></trkpt><trkpt lat="46.19889098520793" lon="12.949489144156548"><ele>157.0</ele><time>2026-04-26T10:56:51.001Z</time></trkpt><trkpt lat="46.19898874247224" lon="12.9493145548133"><ele>157.0</ele><time>2026-04-26T10:56:52.001Z</time></trkpt><trkpt lat="46.19907505193335" lon="12.94917052391417"><ele>156.66666666666669</ele><time>2026-04-26T10:56:53.001Z</time></trkpt><trkpt lat="46.19919105547957" lon="12.949090476433605"><ele>156.33333333333334</ele><time>2026-04-26T10:56:54.001Z</time></trkpt><trkpt lat="46.19935099193461" lon="12.949005691980085"><ele>156.0</ele><time>2026-04-26T10:56:55.001Z</time></trkpt><trkpt lat="46.19953431735687" lon="12.948910038859934"><ele>156.0</ele><time>2026-04-26T10:56:56.001Z</time></trkpt><trkpt lat="46.1997302031826" lon="12.948807832089516"><ele>156.0</ele><time>2026-04-26T10:56:57.001Z</time></trkpt><trkpt lat="46.19991556385268" lon="12.948710788122233"><ele>156.0</ele><time>2026-04-26T10:56:58.001Z</time></trkpt><trkpt lat="46.20011229184909" lon="12.94860707372995"><ele>156.0</ele><time>2026-04-26T10:56:59.001Z</time></trkpt><trkpt lat="46.20031889297866" lon="12.94849815419208"><ele>156.0</ele><time>2026-04-26T10:57:00.001Z</time></trkpt><trkpt lat="46.200530715218676" lon="12.948386481900483"><ele>156.0</ele><time>2026-04-26T10:57:01.001Z</time></trkpt><trkpt lat="46.2007409087964" lon="12.948275478195484"><ele>156.33333333333334</ele><time>2026-04-26T10:57:02.001Z</time></trkpt><trkpt lat="46.20094174386103" lon="12.948168728582802"><ele>156.66666666666669</ele><time>2026-04-26T10:57:03.001Z</time></trkpt><trkpt lat="46.201145426125024" lon="12.948063780537025"><ele>157.0</ele><time>2026-04-26T10:57:04.001Z</time></trkpt><trkpt lat="46.20135391756551" lon="12.947956628730045"><ele>164.5</ele><time>2026-04-26T10:57:05.001Z</time></trkpt><trkpt lat="46.201562770138885" lon="12.947829155153746"><ele>172.0</ele><time>2026-04-26T10:57:06.001Z</time></trkpt><trkpt lat="46.20178264028566" lon="12.94776091326633"><ele>172.0</ele><time>2026-04-26T10:57:07.001Z</time></trkpt><trkpt lat="46.20200634528835" lon="12.94772097344195"><ele>172.0</ele><time>2026-04-26T10:57:08.001Z</time></trkpt><trkpt lat="46.20221170844971" lon="12.947685853325314"><ele>172.0</ele><time>2026-04-26T10:57:09.001Z</time></trkpt><trkpt lat="46.20239649594936" lon="12.947686855725888"><ele>176.66666666666669</ele><time>2026-04-26T10:57:10.001Z</time></trkpt><trkpt lat="46.20256179870387" lon="12.947685929686434"><ele>181.33333333333334</ele><time>2026-04-26T10:57:11.001Z</time></trkpt><trkpt lat="46.202718502911445" lon="12.947726591475238"><ele>186.0</ele><time>2026-04-26T10:57:12.001Z</time></trkpt><trkpt lat="46.20287462695318" lon="12.947731747858894"><ele>186.0</ele><time>2026-04-26T10:57:13.001Z</time></trkpt><trkpt lat="46.20302457707614" lon="12.947684947344397"><ele>186.0</ele><time>2026-04-26T10:57:14.001Z</time></trkpt><trkpt lat="46.203149131864734" lon="12.947568663793502"><ele>186.0</ele><time>2026-04-26T10:57:15.001Z</time></trkpt><trkpt lat="46.20323643652932" lon="12.947431145061408"><ele>186.0</ele><time>2026-04-26T10:57:16.001Z</time></trkpt><trkpt lat="46.20332655388829" lon="12.947343241987681"><ele>186.0</ele><time>2026-04-26T10:57:17.001Z</time></trkpt><trkpt lat="46.203414529032884" lon="12.947361770018656"><ele>186.0</ele><time>2026-04-26T10:57:18.001Z</time></trkpt><trkpt lat="46.203475346618475" lon="12.947470540386348"><ele>186.0</ele><time>2026-04-26T10:57:19.001Z</time></trkpt><trkpt lat="46.203509555710546" lon="12.947633114675273"><ele>186.0</ele><time>2026-04-26T10:57:20.001Z</time></trkpt><trkpt lat="46.20352714726874" lon="12.94785148863342"><ele>186.0</ele><time>2026-04-26T10:57:21.001Z</time></trkpt><trkpt lat="46.203539912361926" lon="12.948089333082402"><ele>186.0</ele><time>2026-04-26T10:57:22.001Z</time></trkpt><trkpt lat="46.2035643534119" lon="12.948273541925124"><ele>186.0</ele><time>2026-04-26T10:57:23.001Z</time></trkpt><trkpt lat="46.20361808741095" lon="12.948423703870308"><ele>186.0</ele><time>2026-04-26T10:57:24.001Z</time></trkpt><trkpt lat="46.203715257531954" lon="12.948557578679795"><ele>185.66666666666666</ele><time>2026-04-26T10:57:25.001Z</time></trkpt><trkpt lat="46.203875392319446" lon="12.948617425135073"><ele>185.33333333333331</ele><time>2026-04-26T10:57:26.001Z</time></trkpt><trkpt lat="46.20406755463111" lon="12.948654490028376"><ele>185.0</ele><time>2026-04-26T10:57:27.001Z</time></trkpt><trkpt lat="46.20426876778297" lon="12.948746512181275"><ele>185.0</ele><time>2026-04-26T10:57:28.001Z</time></trkpt><trkpt lat="46.204448646494924" lon="12.948833172470263"><ele>185.0</ele><time>2026-04-26T10:57:29.001Z</time></trkpt><trkpt lat="46.204633212261406" lon="12.94892383381497"><ele>185.0</ele><time>2026-04-26T10:57:30.001Z</time></trkpt><trkpt lat="46.20480557850748" lon="12.949006379853266"><ele>184.33333333333331</ele><time>2026-04-26T10:57:31.001Z</time></trkpt><trkpt lat="46.20499633074561" lon="12.949075972725678"><ele>183.66666666666666</ele><time>2026-04-26T10:57:32.001Z</time></trkpt><trkpt lat="46.20520267510923" lon="12.949113531959366"><ele>183.0</ele><time>2026-04-26T10:57:33.001Z</time></trkpt><trkpt lat="46.205420011369746" lon="12.949116459020859"><ele>183.0</ele><time>2026-04-26T10:57:34.001Z</time></trkpt><trkpt lat="46.20564600277023" lon="12.949108860169718"><ele>183.0</ele><time>2026-04-26T10:57:35.001Z</time></trkpt><trkpt lat="46.205856462494516" lon="12.949097924380489"><ele>183.0</ele><time>2026-04-26T10:57:36.001Z</time></trkpt><trkpt lat="46.20605174907573" lon="12.949110241294074"><ele>179.0</ele><time>2026-04-26T10:57:37Z</time></trkpt><trkpt lat="46.20622633353742" lon="12.949116351907046"><ele>175.0</ele><time>2026-04-26T10:57:38Z</time></trkpt><trkpt lat="46.20636710402873" lon="12.949182748183746"><ele>171.0</ele><time>2026-04-26T10:57:39Z</time></trkpt><trkpt lat="46.20649994303144" lon="12.949314322012595"><ele>165.66666666666666</ele><time>2026-04-26T10:57:40Z</time></trkpt><trkpt lat="46.206603265498785" lon="12.949533120056785"><ele>160.33333333333331</ele><time>2026-04-26T10:57:41Z</time></trkpt><trkpt lat="46.2066969380095" lon="12.949800929151998"><ele>155.0</ele><time>2026-04-26T10:57:42Z</time></trkpt><trkpt lat="46.20680209331143" lon="12.950076860410725"><ele>153.66666666666666</ele><time>2026-04-26T10:57:43Z</time></trkpt><trkpt lat="46.20689665837648" lon="12.9503389967884"><ele>152.33333333333334</ele><time>2026-04-26T10:57:44Z</time></trkpt><trkpt lat="46.20698590102401" lon="12.950576041087189"><ele>151.0</ele><time>2026-04-26T10:57:45Z</time></trkpt><trkpt lat="46.20707430717124" lon="12.95080955260433"><ele>151.0</ele><time>2026-04-26T10:57:46Z</time></trkpt><trkpt lat="46.20715304838368" lon="12.951043250988596"><ele>151.0</ele><time>2026-04-26T10:57:47Z</time></trkpt><trkpt lat="46.207236573603055" lon="12.95126270938836"><ele>151.0</ele><time>2026-04-26T10:57:48Z</time></trkpt><trkpt lat="46.20733751157952" lon="12.95146624203531"><ele>151.0</ele><time>2026-04-26T10:57:49Z</time></trkpt><trkpt lat="46.20745630122729" lon="12.951650057887818"><ele>151.0</ele><time>2026-04-26T10:57:50Z</time></trkpt><trkpt lat="46.20758414197968" lon="12.951818177184897"><ele>151.0</ele><time>2026-04-26T10:57:51Z</time></trkpt><trkpt lat="46.2077140361304" lon="12.951974294038678"><ele>149.0</ele><time>2026-04-26T10:57:52Z</time></trkpt><trkpt lat="46.207853081122245" lon="12.952103389786297"><ele>147.0</ele><time>2026-04-26T10:57:53Z</time></trkpt><trkpt lat="46.20799592880929" lon="12.952211320847749"><ele>145.0</ele><time>2026-04-26T10:57:54Z</time></trkpt><trkpt lat="46.2081518409583" lon="12.952299589510584"><ele>145.33333333333334</ele><time>2026-04-26T10:57:55Z</time></trkpt><trkpt lat="46.208313074625366" lon="12.952370328854855"><ele>145.66666666666666</ele><time>2026-04-26T10:57:56Z</time></trkpt><trkpt lat="46.20847768430906" lon="12.952427963892058"><ele>146.0</ele><time>2026-04-26T10:57:57Z</time></trkpt><trkpt lat="46.20863878219435" lon="12.952490137847638"><ele>145.33333333333331</ele><time>2026-04-26T10:57:58Z</time></trkpt><trkpt lat="46.20880056671024" lon="12.952558053744252"><ele>144.66666666666666</ele><time>2026-04-26T10:57:59Z</time></trkpt><trkpt lat="46.20895765527159" lon="12.952625637800327"><ele>144.0</ele><time>2026-04-26T10:58:00Z</time></trkpt><trkpt lat="46.20911845045999" lon="12.952700281056675"><ele>145.33333333333334</ele><time>2026-04-26T10:58:01Z</time></trkpt><trkpt lat="46.209290189643255" lon="12.952785180873276"><ele>146.66666666666669</ele><time>2026-04-26T10:58:02Z</time></trkpt><trkpt lat="46.20944691541746" lon="12.952896709573016"><ele>148.0</ele><time>2026-04-26T10:58:03Z</time></trkpt><trkpt lat="46.209601013443084" lon="12.953026616094096"><ele>148.0</ele><time>2026-04-26T10:58:04Z</time></trkpt><trkpt lat="46.209748008168816" lon="12.953174122764315"><ele>148.0</ele><time>2026-04-26T10:58:05Z</time></trkpt><trkpt lat="46.20988686652621" lon="12.953335494458752"><ele>148.0</ele><time>2026-04-26T10:58:06Z</time></trkpt><trkpt lat="46.210014825962915" lon="12.953511479878607"><ele>147.33333333333334</ele><time>2026-04-26T10:58:07Z</time></trkpt><trkpt lat="46.21013793523352" lon="12.95368945079727"><ele>146.66666666666666</ele><time>2026-04-26T10:58:08Z</time></trkpt><trkpt lat="46.21025720972567" lon="12.953861368471886"><ele>146.0</ele><time>2026-04-26T10:58:09Z</time></trkpt><trkpt lat="46.21037715853241" lon="12.95403619365837"><ele>146.0</ele><time>2026-04-26T10:58:10Z</time></trkpt><trkpt lat="46.21049708552615" lon="12.954208396483818"><ele>146.0</ele><time>2026-04-26T10:58:11Z</time></trkpt><trkpt lat="46.210612830958894" lon="12.954374376446822"><ele>146.0</ele><time>2026-04-26T10:58:12Z</time></trkpt><trkpt lat="46.21072952752903" lon="12.95454008063581"><ele>147.0</ele><time>2026-04-26T10:58:13Z</time></trkpt><trkpt lat="46.2108492982109" lon="12.954704920201673"><ele>148.0</ele><time>2026-04-26T10:58:14Z</time></trkpt><trkpt lat="46.21097294088408" lon="12.954875092684862"><ele>149.0</ele><time>2026-04-26T10:58:15Z</time></trkpt><trkpt lat="46.211096252764214" lon="12.955046160086075"><ele>149.25</ele><time>2026-04-26T10:58:16Z</time></trkpt><trkpt lat="46.211198758145834" lon="12.955223807380095"><ele>149.5</ele><time>2026-04-26T10:58:17Z</time></trkpt><trkpt lat="46.21130626287908" lon="12.955341947596567"><ele>149.75</ele><time>2026-04-26T10:58:18Z</time></trkpt><trkpt lat="46.21138492018789" lon="12.955451635580056"><ele>150.0</ele><time>2026-04-26T10:58:19Z</time></trkpt><trkpt lat="46.211467648025824" lon="12.955538653112239"><ele>150.75</ele><time>2026-04-26T10:58:20Z</time></trkpt><trkpt lat="46.21156765602981" lon="12.955614009400268"><ele>151.5</ele><time>2026-04-26T10:58:21Z</time></trkpt><trkpt lat="46.211690794608444" lon="12.955670428311029"><ele>152.25</ele><time>2026-04-26T10:58:22Z</time></trkpt><trkpt lat="46.21183325377947" lon="12.955705826187861"><ele>153.0</ele><time>2026-04-26T10:58:23Z</time></trkpt><trkpt lat="46.21198676837057" lon="12.955700000416087"><ele>153.0</ele><time>2026-04-26T10:58:24Z</time></trkpt><trkpt lat="46.212155599116976" lon="12.955656951442025"><ele>153.0</ele><time>2026-04-26T10:58:25Z</time></trkpt><trkpt lat="46.212300572780215" lon="12.955584929896913"><ele>153.0</ele><time>2026-04-26T10:58:26Z</time></trkpt><trkpt lat="46.21244989320124" lon="12.955523838756642"><ele>154.0</ele><time>2026-04-26T10:58:27Z</time></trkpt><trkpt lat="46.21261140857141" lon="12.955454657550966"><ele>155.0</ele><time>2026-04-26T10:58:28Z</time></trkpt><trkpt lat="46.21278133582732" lon="12.955379650742582"><ele>156.0</ele><time>2026-04-26T10:58:29Z</time></trkpt><trkpt lat="46.21295836211148" lon="12.955302116906333"><ele>156.0</ele><time>2026-04-26T10:58:30Z</time></trkpt><trkpt lat="46.21314101479812" lon="12.955227628757411"><ele>156.0</ele><time>2026-04-26T10:58:31Z</time></trkpt><trkpt lat="46.21331906105518" lon="12.955168339918501"><ele>156.0</ele><time>2026-04-26T10:58:32Z</time></trkpt><trkpt lat="46.21348292280716" lon="12.955079239309194"><ele>156.33333333333334</ele><time>2026-04-26T10:58:33Z</time></trkpt><trkpt lat="46.213657606680165" lon="12.955013753754388"><ele>156.66666666666669</ele><time>2026-04-26T10:58:34Z</time></trkpt><trkpt lat="46.21383319706863" lon="12.954940161399161"><ele>157.0</ele><time>2026-04-26T10:58:35Z</time></trkpt><trkpt lat="46.21401075772435" lon="12.954866861000395"><ele>157.0</ele><time>2026-04-26T10:58:36Z</time></trkpt><trkpt lat="46.214193786306836" lon="12.954795103626132"><ele>157.0</ele><time>2026-04-26T10:58:37Z</time></trkpt><trkpt lat="46.2143817096481" lon="12.954722315363727"><ele>157.0</ele><time>2026-04-26T10:58:38Z</time></trkpt><trkpt lat="46.21457136688844" lon="12.954643918278034"><ele>157.0</ele><time>2026-04-26T10:58:39Z</time></trkpt><trkpt lat="46.214758380232645" lon="12.954563207900879"><ele>157.0</ele><time>2026-04-26T10:58:40.001Z</time></trkpt><trkpt lat="46.214942953267155" lon="12.954481779427756"><ele>157.0</ele><time>2026-04-26T10:58:41.001Z</time></trkpt><trkpt lat="46.215130585868124" lon="12.954430931893787"><ele>157.0</ele><time>2026-04-26T10:58:42.001Z</time></trkpt><trkpt lat="46.21530419263988" lon="12.954359508546966"><ele>157.0</ele><time>2026-04-26T10:58:43.001Z</time></trkpt><trkpt lat="46.21546427586386" lon="12.954272586736455"><ele>157.0</ele><time>2026-04-26T10:58:44.001Z</time></trkpt><trkpt lat="46.21563481705468" lon="12.954263342945454"><ele>157.0</ele><time>2026-04-26T10:58:45.001Z</time></trkpt><trkpt lat="46.21580529136951" lon="12.954275820349805"><ele>157.0</ele><time>2026-04-26T10:58:46.001Z</time></trkpt><trkpt lat="46.21598716706224" lon="12.954289670466755"><ele>157.0</ele><time>2026-04-26T10:58:47.001Z</time></trkpt><trkpt lat="46.21616940144064" lon="12.95432680359328"><ele>157.0</ele><time>2026-04-26T10:58:48.001Z</time></trkpt><trkpt lat="46.21634381187468" lon="12.954345362181941"><ele>157.0</ele><time>2026-04-26T10:58:49.001Z</time></trkpt><trkpt lat="46.21651859580155" lon="12.954328598004297"><ele>157.0</ele><time>2026-04-26T10:58:50.001Z</time></trkpt><trkpt lat="46.21669636867335" lon="12.954287635370031"><ele>157.33333333333334</ele><time>2026-04-26T10:58:51.001Z</time></trkpt><trkpt lat="46.216881526998094" lon="12.954270842006538"><ele>157.66666666666666</ele><time>2026-04-26T10:58:52.001Z</time></trkpt><trkpt lat="46.21706559825197" lon="12.954233397679383"><ele>158.0</ele><time>2026-04-26T10:58:53.001Z</time></trkpt><trkpt lat="46.21724066797747" lon="12.95419631671933"><ele>161.66666666666666</ele><time>2026-04-26T10:58:54.001Z</time></trkpt><trkpt lat="46.21741502982101" lon="12.954137280250542"><ele>165.33333333333334</ele><time>2026-04-26T10:58:55.001Z</time></trkpt><trkpt lat="46.21758298996333" lon="12.954101950968932"><ele>169.0</ele><time>2026-04-26T10:58:56.001Z</time></trkpt><trkpt lat="46.217744520214715" lon="12.95407637154475"><ele>169.0</ele><time>2026-04-26T10:58:57.001Z</time></trkpt><trkpt lat="46.21791558159544" lon="12.954068891604006"><ele>169.0</ele><time>2026-04-26T10:58:58.001Z</time></trkpt><trkpt lat="46.218090400616575" lon="12.954081435128868"><ele>169.0</ele><time>2026-04-26T10:58:59.001Z</time></trkpt><trkpt lat="46.21826739734307" lon="12.954090051745176"><ele>167.66666666666669</ele><time>2026-04-26T10:59:00.001Z</time></trkpt><trkpt lat="46.21844703804271" lon="12.954075032982985"><ele>166.33333333333334</ele><time>2026-04-26T10:59:01.001Z</time></trkpt><trkpt lat="46.218629028455986" lon="12.954060173753755"><ele>165.0</ele><time>2026-04-26T10:59:02.001Z</time></trkpt><trkpt lat="46.21881282059652" lon="12.954051943524581"><ele>165.33333333333334</ele><time>2026-04-26T10:59:03.001Z</time></trkpt><trkpt lat="46.21899243014388" lon="12.95403914375156"><ele>165.66666666666669</ele><time>2026-04-26T10:59:04.001Z</time></trkpt><trkpt lat="46.219165653099544" lon="12.954024025634734"><ele>166.0</ele><time>2026-04-26T10:59:05.001Z</time></trkpt><trkpt lat="46.219326756551204" lon="12.954009488799125"><ele>166.0</ele><time>2026-04-26T10:59:06.001Z</time></trkpt><trkpt lat="46.21947130354859" lon="12.95399532605134"><ele>166.0</ele><time>2026-04-26T10:59:07.001Z</time></trkpt><trkpt lat="46.21961520073286" lon="12.95396244254751"><ele>166.0</ele><time>2026-04-26T10:59:08.001Z</time></trkpt><trkpt lat="46.21975352904826" lon="12.95390143288347"><ele>166.0</ele><time>2026-04-26T10:59:09.001Z</time></trkpt><trkpt lat="46.21987902503511" lon="12.953837531679321"><ele>167.5</ele><time>2026-04-26T10:59:10.001Z</time></trkpt><trkpt lat="46.219983429023955" lon="12.953750557380255"><ele>169.0</ele><time>2026-04-26T10:59:11.001Z</time></trkpt><trkpt lat="46.220095506499064" lon="12.953666711039402"><ele>170.5</ele><time>2026-04-26T10:59:12.001Z</time></trkpt><trkpt lat="46.22021140985136" lon="12.95359242182566"><ele>172.0</ele><time>2026-04-26T10:59:13.001Z</time></trkpt><trkpt lat="46.220334111011795" lon="12.953544667006522"><ele>172.0</ele><time>2026-04-26T10:59:14.001Z</time></trkpt><trkpt lat="46.22045221520399" lon="12.953538056850837"><ele>172.0</ele><time>2026-04-26T10:59:15.001Z</time></trkpt><trkpt lat="46.22055545080721" lon="12.95366143560202"><ele>172.0</ele><time>2026-04-26T10:59:16.001Z</time></trkpt><trkpt lat="46.22067314895216" lon="12.95379538616966"><ele>172.0</ele><time>2026-04-26T10:59:17.001Z</time></trkpt><trkpt lat="46.22078954226227" lon="12.953953425825713"><ele>170.66666666666669</ele><time>2026-04-26T10:59:18.001Z</time></trkpt><trkpt lat="46.22091175203758" lon="12.954094504446239"><ele>169.33333333333334</ele><time>2026-04-26T10:59:19.001Z</time></trkpt><trkpt lat="46.22103077911654" lon="12.954238509664686"><ele>168.0</ele><time>2026-04-26T10:59:20.001Z</time></trkpt><trkpt lat="46.22115685715027" lon="12.954392168086521"><ele>168.0</ele><time>2026-04-26T10:59:21.001Z</time></trkpt><trkpt lat="46.22129303349662" lon="12.954546898157824"><ele>168.0</ele><time>2026-04-26T10:59:22.001Z</time></trkpt><trkpt lat="46.22143696726182" lon="12.954693921337826"><ele>168.0</ele><time>2026-04-26T10:59:23.001Z</time></trkpt><trkpt lat="46.22159415575229" lon="12.954828215453544"><ele>169.0</ele><time>2026-04-26T10:59:24.001Z</time></trkpt><trkpt lat="46.22175545601578" lon="12.954954511844923"><ele>170.0</ele><time>2026-04-26T10:59:25.001Z</time></trkpt><trkpt lat="46.22191464820947" lon="12.955070203013754"><ele>171.0</ele><time>2026-04-26T10:59:26.001Z</time></trkpt><trkpt lat="46.22208172145155" lon="12.95518925658239"><ele>169.33333333333334</ele><time>2026-04-26T10:59:27.001Z</time></trkpt><trkpt lat="46.2222481213333" lon="12.955309768863748"><ele>167.66666666666669</ele><time>2026-04-26T10:59:28.001Z</time></trkpt><trkpt lat="46.222418656723754" lon="12.955433583261614"><ele>166.0</ele><time>2026-04-26T10:59:29.001Z</time></trkpt><trkpt lat="46.22258586463792" lon="12.955556901157497"><ele>166.0</ele><time>2026-04-26T10:59:30.001Z</time></trkpt><trkpt lat="46.22275663358173" lon="12.955674149402979"><ele>166.0</ele><time>2026-04-26T10:59:31.001Z</time></trkpt><trkpt lat="46.22293184746422" lon="12.955767088445041"><ele>166.0</ele><time>2026-04-26T10:59:32.001Z</time></trkpt><trkpt lat="46.22311854592283" lon="12.955841806258487"><ele>164.0</ele><time>2026-04-26T10:59:33.001Z</time></trkpt><trkpt lat="46.22330664270623" lon="12.955921287576427"><ele>162.0</ele><time>2026-04-26T10:59:34.001Z</time></trkpt><trkpt lat="46.223492594963325" lon="12.95600764421167"><ele>160.0</ele><time>2026-04-26T10:59:35.001Z</time></trkpt><trkpt lat="46.22366355812098" lon="12.956084198786316"><ele>160.0</ele><time>2026-04-26T10:59:36.001Z</time></trkpt><trkpt lat="46.22382421991153" lon="12.956155710243857"><ele>160.0</ele><time>2026-04-26T10:59:37.001Z</time></trkpt><trkpt lat="46.223975294444585" lon="12.956227505434622"><ele>160.0</ele><time>2026-04-26T10:59:38.001Z</time></trkpt><trkpt lat="46.224120997290186" lon="12.956339092005432"><ele>161.0</ele><time>2026-04-26T10:59:39.001Z</time></trkpt><trkpt lat="46.22427987224406" lon="12.956466624389673"><ele>162.0</ele><time>2026-04-26T10:59:40.001Z</time></trkpt><trkpt lat="46.22444806763364" lon="12.956601147186877"><ele>163.0</ele><time>2026-04-26T10:59:41.001Z</time></trkpt><trkpt lat="46.22461424394906" lon="12.956762452127977"><ele>163.0</ele><time>2026-04-26T10:59:42.001Z</time></trkpt><trkpt lat="46.22477955525489" lon="12.956922583894633"><ele>163.0</ele><time>2026-04-26T10:59:43Z</time></trkpt><trkpt lat="46.22493505621199" lon="12.957072010766174"><ele>163.0</ele><time>2026-04-26T10:59:44Z</time></trkpt><trkpt lat="46.22509136271592" lon="12.957215284444446"><ele>162.66666666666669</ele><time>2026-04-26T10:59:45Z</time></trkpt><trkpt lat="46.225251436963354" lon="12.957361200002351"><ele>162.33333333333334</ele><time>2026-04-26T10:59:46Z</time></trkpt><trkpt lat="46.22541161485905" lon="12.957512920293535"><ele>162.0</ele><time>2026-04-26T10:59:47Z</time></trkpt><trkpt lat="46.22557042060544" lon="12.957668757871632"><ele>163.66666666666666</ele><time>2026-04-26T10:59:48Z</time></trkpt><trkpt lat="46.225729451941184" lon="12.957818570815098"><ele>165.33333333333331</ele><time>2026-04-26T10:59:49Z</time></trkpt><trkpt lat="46.22588048108162" lon="12.95796650060612"><ele>167.0</ele><time>2026-04-26T10:59:50Z</time></trkpt><trkpt lat="46.22603538274122" lon="12.958111757366964"><ele>167.0</ele><time>2026-04-26T10:59:51Z</time></trkpt><trkpt lat="46.22619950821981" lon="12.9582357543051"><ele>167.0</ele><time>2026-04-26T10:59:52Z</time></trkpt><trkpt lat="46.226374609873545" lon="12.958326207945207"><ele>167.0</ele><time>2026-04-26T10:59:53Z</time></trkpt><trkpt lat="46.22654524638735" lon="12.958380205568803"><ele>166.66666666666666</ele><time>2026-04-26T10:59:54Z</time></trkpt><trkpt lat="46.22670633506647" lon="12.958374394392465"><ele>166.33333333333334</ele><time>2026-04-26T10:59:55Z</time></trkpt><trkpt lat="46.226874340163334" lon="12.958299563181395"><ele>166.0</ele><time>2026-04-26T10:59:56Z</time></trkpt><trkpt lat="46.22704175626584" lon="12.958182195689254"><ele>167.33333333333334</ele><time>2026-04-26T10:59:57Z</time></trkpt><trkpt lat="46.227211029923865" lon="12.95805027365864"><ele>168.66666666666666</ele><time>2026-04-26T10:59:58Z</time></trkpt><trkpt lat="46.227397340998216" lon="12.957939822463645"><ele>170.0</ele><time>2026-04-26T10:59:59Z</time></trkpt><trkpt lat="46.227566191017246" lon="12.957821423868516"><ele>172.66666666666666</ele><time>2026-04-26T11:00:00Z</time></trkpt><trkpt lat="46.22773916807453" lon="12.957750432193118"><ele>175.33333333333334</ele><time>2026-04-26T11:00:01Z</time></trkpt><trkpt lat="46.227920248253" lon="12.957753569334242"><ele>178.0</ele><time>2026-04-26T11:00:02Z</time></trkpt><trkpt lat="46.228107996943784" lon="12.95776947219568"><ele>180.66666666666669</ele><time>2026-04-26T11:00:03Z</time></trkpt><trkpt lat="46.228302873327436" lon="12.957786299270287"><ele>183.33333333333334</ele><time>2026-04-26T11:00:04Z</time></trkpt><trkpt lat="46.22849698374451" lon="12.957774668749959"><ele>186.0</ele><time>2026-04-26T11:00:05Z</time></trkpt><trkpt lat="46.228685080461545" lon="12.957749697034254"><ele>186.0</ele><time>2026-04-26T11:00:06Z</time></trkpt><trkpt lat="46.22886814406069" lon="12.957681828092449"><ele>186.0</ele><time>2026-04-26T11:00:07Z</time></trkpt><trkpt lat="46.22902067344795" lon="12.957624836916645"><ele>186.0</ele><time>2026-04-26T11:00:08Z</time></trkpt><trkpt lat="46.22915087373087" lon="12.957606103033152"><ele>189.5</ele><time>2026-04-26T11:00:09Z</time></trkpt><trkpt lat="46.229254764051085" lon="12.95763530258429"><ele>193.0</ele><time>2026-04-26T11:00:10Z</time></trkpt><trkpt lat="46.22934027473591" lon="12.95771766713067"><ele>196.5</ele><time>2026-04-26T11:00:11Z</time></trkpt><trkpt lat="46.229422498084766" lon="12.957856867394206"><ele>200.0</ele><time>2026-04-26T11:00:12Z</time></trkpt><trkpt lat="46.22952389261945" lon="12.958031208193322"><ele>200.0</ele><time>2026-04-26T11:00:13Z</time></trkpt><trkpt lat="46.229662560975136" lon="12.958249793831756"><ele>200.0</ele><time>2026-04-26T11:00:14Z</time></trkpt><trkpt lat="46.22976290175566" lon="12.958443621260509"><ele>200.0</ele><time>2026-04-26T11:00:15Z</time></trkpt><trkpt lat="46.22988295189157" lon="12.95875518496084"><ele>202.5</ele><time>2026-04-26T11:00:16Z</time></trkpt><trkpt lat="46.229938887895976" lon="12.959017460175918"><ele>205.0</ele><time>2026-04-26T11:00:17Z</time></trkpt><trkpt lat="46.22997987849205" lon="12.959408467783822"><ele>205.0</ele><time>2026-04-26T11:00:18Z</time></trkpt><trkpt lat="46.230019347086774" lon="12.959702581415995"><ele>205.0</ele><time>2026-04-26T11:00:19Z</time></trkpt><trkpt lat="46.23004517162352" lon="12.959898213726373"><ele>205.0</ele><time>2026-04-26T11:00:20Z</time></trkpt><trkpt lat="46.23007034030191" lon="12.960051924002398"><ele>204.99999999999997</ele><time>2026-04-26T11:00:21Z</time></trkpt><trkpt lat="46.23010972482199" lon="12.960151666325993"><ele>205.0</ele><time>2026-04-26T11:00:22Z</time></trkpt><trkpt lat="46.230153610937734" lon="12.960226989922393"><ele>205.0</ele><time>2026-04-26T11:00:23Z</time></trkpt><trkpt lat="46.2302365053016" lon="12.960259701666496"><ele>205.0</ele><time>2026-04-26T11:00:24Z</time></trkpt><trkpt lat="46.23032394904556" lon="12.960197575563543"><ele>204.99999999999997</ele><time>2026-04-26T11:00:25Z</time></trkpt><trkpt lat="46.23037608144933" lon="12.960076931749292"><ele>205.0</ele><time>2026-04-26T11:00:26Z</time></trkpt><trkpt lat="46.230368477784324" lon="12.959899668933916"><ele>205.0</ele><time>2026-04-26T11:00:27Z</time></trkpt><trkpt lat="46.230334651656676" lon="12.959717562616946"><ele>205.0</ele><time>2026-04-26T11:00:28Z</time></trkpt><trkpt lat="46.23030306827328" lon="12.959501521647937"><ele>205.0</ele><time>2026-04-26T11:00:29Z</time></trkpt><trkpt lat="46.23028921004698" lon="12.959299507327772"><ele>205.0</ele><time>2026-04-26T11:00:30Z</time></trkpt><trkpt lat="46.23027226300159" lon="12.959096609931708"><ele>206.4</ele><time>2026-04-26T11:00:31Z</time></trkpt><trkpt lat="46.23026117643919" lon="12.958934971750534"><ele>207.8</ele><time>2026-04-26T11:00:32Z</time></trkpt><trkpt lat="46.2302510652733" lon="12.958781797718034"><ele>209.2</ele><time>2026-04-26T11:00:33Z</time></trkpt><trkpt lat="46.230241710783545" lon="12.958638977839511"><ele>210.6</ele><time>2026-04-26T11:00:34Z</time></trkpt><trkpt lat="46.23025518123253" lon="12.958496982719268"><ele>212.0</ele><time>2026-04-26T11:00:35Z</time></trkpt><trkpt lat="46.230318326954716" lon="12.958392050312733"><ele>212.50000000000003</ele><time>2026-04-26T11:00:36Z</time></trkpt><trkpt lat="46.23035148318626" lon="12.958306746914552"><ele>213.0</ele><time>2026-04-26T11:00:37Z</time></trkpt><trkpt lat="46.230390653838974" lon="12.958207632786403"><ele>213.5</ele><time>2026-04-26T11:00:38Z</time></trkpt><trkpt lat="46.230422296436736" lon="12.958127566662304"><ele>214.0</ele><time>2026-04-26T11:00:39Z</time></trkpt><trkpt lat="46.23048158127784" lon="12.957987037592266"><ele>214.50000000000003</ele><time>2026-04-26T11:00:41Z</time></trkpt><trkpt lat="46.230589689410934" lon="12.957946034121688"><ele>215.0</ele><time>2026-04-26T11:00:43Z</time></trkpt><trkpt lat="46.23065303336954" lon="12.957974581148484"><ele>215.00000000000003</ele><time>2026-04-26T11:00:44Z</time></trkpt><trkpt lat="46.23067938054547" lon="12.95808043158187"><ele>215.0</ele><time>2026-04-26T11:00:45Z</time></trkpt><trkpt lat="46.23067507083877" lon="12.95818699771294"><ele>215.0</ele><time>2026-04-26T11:00:46Z</time></trkpt><trkpt lat="46.23061305654794" lon="12.958258210075655"><ele>215.0</ele><time>2026-04-26T11:00:47Z</time></trkpt><trkpt lat="46.23057780923595" lon="12.958337244722433"><ele>215.00000000000003</ele><time>2026-04-26T11:00:48Z</time></trkpt><trkpt lat="46.230531441293174" lon="12.958449314245923"><ele>215.0</ele><time>2026-04-26T11:00:49Z</time></trkpt><trkpt lat="46.230490623036644" lon="12.958556744262175"><ele>214.57142857142856</ele><time>2026-04-26T11:00:50Z</time></trkpt><trkpt lat="46.230456721946545" lon="12.958650592053093"><ele>214.14285714285717</ele><time>2026-04-26T11:00:51Z</time></trkpt><trkpt lat="46.230435145356154" lon="12.95876005713012"><ele>213.71428571428572</ele><time>2026-04-26T11:00:52Z</time></trkpt><trkpt lat="46.23042800069422" lon="12.958875405618512"><ele>213.28571428571428</ele><time>2026-04-26T11:00:53Z</time></trkpt><trkpt lat="46.230446838675405" lon="12.958969779194307"><ele>212.85714285714283</ele><time>2026-04-26T11:00:54Z</time></trkpt><trkpt lat="46.23046932354128" lon="12.959068465220351"><ele>212.42857142857144</ele><time>2026-04-26T11:00:55Z</time></trkpt><trkpt lat="46.230511982988304" lon="12.959137181851967"><ele>212.0</ele><time>2026-04-26T11:00:56Z</time></trkpt><trkpt lat="46.230607696381014" lon="12.959230868885294"><ele>214.14285714285717</ele><time>2026-04-26T11:00:58.001Z</time></trkpt><trkpt lat="46.230664758511786" lon="12.959287503007062"><ele>216.28571428571428</ele><time>2026-04-26T11:00:59.001Z</time></trkpt><trkpt lat="46.23071648198036" lon="12.959349862476383"><ele>218.42857142857144</ele><time>2026-04-26T11:01:00.001Z</time></trkpt><trkpt lat="46.23076831573036" lon="12.959410993308918"><ele>220.57142857142858</ele><time>2026-04-26T11:01:01.001Z</time></trkpt><trkpt lat="46.23082602024943" lon="12.959485670055846"><ele>222.71428571428572</ele><time>2026-04-26T11:01:02.001Z</time></trkpt><trkpt lat="46.23088464884894" lon="12.959560198266674"><ele>224.85714285714286</ele><time>2026-04-26T11:01:03.001Z</time></trkpt><trkpt lat="46.230952613815816" lon="12.959623023418759"><ele>227.0</ele><time>2026-04-26T11:01:04.001Z</time></trkpt><trkpt lat="46.23102884798193" lon="12.959614112644452"><ele>227.0</ele><time>2026-04-26T11:01:05.001Z</time></trkpt><trkpt lat="46.23110317186915" lon="12.959540086663358"><ele>227.0</ele><time>2026-04-26T11:01:06.001Z</time></trkpt><trkpt lat="46.231145421367444" lon="12.959435551927747"><ele>227.0</ele><time>2026-04-26T11:01:07.001Z</time></trkpt><trkpt lat="46.23114318514387" lon="12.959301214744546"><ele>227.0</ele><time>2026-04-26T11:01:08.001Z</time></trkpt><trkpt lat="46.23110889261533" lon="12.959130763392016"><ele>227.0</ele><time>2026-04-26T11:01:09.001Z</time></trkpt><trkpt lat="46.23110889152261" lon="12.958916560988689"><ele>229.33333333333334</ele><time>2026-04-26T11:01:10.001Z</time></trkpt><trkpt lat="46.23110439646585" lon="12.958672766905583"><ele>231.66666666666669</ele><time>2026-04-26T11:01:11.001Z</time></trkpt><trkpt lat="46.23110107519048" lon="12.958432255274476"><ele>234.0</ele><time>2026-04-26T11:01:12.001Z</time></trkpt><trkpt lat="46.23109853198138" lon="12.958193224647406"><ele>234.0</ele><time>2026-04-26T11:01:13.001Z</time></trkpt><trkpt lat="46.23109543146375" lon="12.958004904367623"><ele>234.0</ele><time>2026-04-26T11:01:14.001Z</time></trkpt><trkpt lat="46.23111937725792" lon="12.957868740648397"><ele>234.0</ele><time>2026-04-26T11:01:15.001Z</time></trkpt><trkpt lat="46.231205893064796" lon="12.957773721288937"><ele>234.0</ele><time>2026-04-26T11:01:16.001Z</time></trkpt><trkpt lat="46.23127805141961" lon="12.95761468148225"><ele>234.0</ele><time>2026-04-26T11:01:17.001Z</time></trkpt><trkpt lat="46.23136838162936" lon="12.95746612147547"><ele>234.0</ele><time>2026-04-26T11:01:18.001Z</time></trkpt><trkpt lat="46.23141183365389" lon="12.957257018104174"><ele>234.0</ele><time>2026-04-26T11:01:19.001Z</time></trkpt><trkpt lat="46.231412282841156" lon="12.957052968366447"><ele>234.0</ele><time>2026-04-26T11:01:20.001Z</time></trkpt><trkpt lat="46.23139947641124" lon="12.956905445951312"><ele>234.0</ele><time>2026-04-26T11:01:21.001Z</time></trkpt><trkpt lat="46.231409047992486" lon="12.956813500559791"><ele>234.0</ele><time>2026-04-26T11:01:22.001Z</time></trkpt><trkpt lat="46.231466800040444" lon="12.95675998139589"><ele>234.0</ele><time>2026-04-26T11:01:23.001Z</time></trkpt><trkpt lat="46.2315465770824" lon="12.956781270881725"><ele>234.0</ele><time>2026-04-26T11:01:24.001Z</time></trkpt><trkpt lat="46.23159431644081" lon="12.95688676868484"><ele>234.0</ele><time>2026-04-26T11:01:25.001Z</time></trkpt><trkpt lat="46.23158364571727" lon="12.957016948480641"><ele>234.0</ele><time>2026-04-26T11:01:26.001Z</time></trkpt><trkpt lat="46.23149817676235" lon="12.957161218568203"><ele>234.0</ele><time>2026-04-26T11:01:27.001Z</time></trkpt><trkpt lat="46.2314432127265" lon="12.957359194659995"><ele>234.0</ele><time>2026-04-26T11:01:28.001Z</time></trkpt><trkpt lat="46.23143507810002" lon="12.957587823781848"><ele>234.0</ele><time>2026-04-26T11:01:29.001Z</time></trkpt><trkpt lat="46.23143976370307" lon="12.957840953239874"><ele>234.0</ele><time>2026-04-26T11:01:30.001Z</time></trkpt><trkpt lat="46.23145059767397" lon="12.958111937938927"><ele>234.0</ele><time>2026-04-26T11:01:31.001Z</time></trkpt><trkpt lat="46.23148923426406" lon="12.958401096012466"><ele>234.0</ele><time>2026-04-26T11:01:32.001Z</time></trkpt><trkpt lat="46.231538874079284" lon="12.9586706539232"><ele>239.75</ele><time>2026-04-26T11:01:33.001Z</time></trkpt><trkpt lat="46.231576010135115" lon="12.958904309178772"><ele>245.5</ele><time>2026-04-26T11:01:34.001Z</time></trkpt><trkpt lat="46.23159722490198" lon="12.959113422024236"><ele>251.25</ele><time>2026-04-26T11:01:35.001Z</time></trkpt><trkpt lat="46.23160584940766" lon="12.959269124148074"><ele>257.0</ele><time>2026-04-26T11:01:36.001Z</time></trkpt><trkpt lat="46.23161951895184" lon="12.959367938161867"><ele>257.0</ele><time>2026-04-26T11:01:37.001Z</time></trkpt><trkpt lat="46.23167983958544" lon="12.959446279261199"><ele>257.0</ele><time>2026-04-26T11:01:38.001Z</time></trkpt><trkpt lat="46.23176214152257" lon="12.95946366160378"><ele>257.0</ele><time>2026-04-26T11:01:39.001Z</time></trkpt><trkpt lat="46.23184518469437" lon="12.959408294470327"><ele>257.0</ele><time>2026-04-26T11:01:40.001Z</time></trkpt><trkpt lat="46.23189461664358" lon="12.95929934333659"><ele>257.0</ele><time>2026-04-26T11:01:41.001Z</time></trkpt><trkpt lat="46.231888644265176" lon="12.95915392461531"><ele>257.0</ele><time>2026-04-26T11:01:42.001Z</time></trkpt><trkpt lat="46.23185266878267" lon="12.958961614999627"><ele>258.0</ele><time>2026-04-26T11:01:43.001Z</time></trkpt><trkpt lat="46.23182539264077" lon="12.958716512269591"><ele>259.0</ele><time>2026-04-26T11:01:44.001Z</time></trkpt><trkpt lat="46.23179683658746" lon="12.958475571360971"><ele>260.0</ele><time>2026-04-26T11:01:45.001Z</time></trkpt><trkpt lat="46.23177100151158" lon="12.958226327585109"><ele>261.0</ele><time>2026-04-26T11:01:46.001Z</time></trkpt><trkpt lat="46.23174436935737" lon="12.957978063070772"><ele>262.0</ele><time>2026-04-26T11:01:47.001Z</time></trkpt><trkpt lat="46.231726471636826" lon="12.957787167416992"><ele>263.0</ele><time>2026-04-26T11:01:48.001Z</time></trkpt><trkpt lat="46.23173619951964" lon="12.95766478801713"><ele>264.0</ele><time>2026-04-26T11:01:49Z</time></trkpt><trkpt lat="46.23176858920505" lon="12.957533554914846"><ele>264.0</ele><time>2026-04-26T11:01:51Z</time></trkpt><trkpt lat="46.231858598836546" lon="12.957525498042287"><ele>264.0</ele><time>2026-04-26T11:01:52Z</time></trkpt><trkpt lat="46.23192945810754" lon="12.957601676769533"><ele>264.0</ele><time>2026-04-26T11:01:53Z</time></trkpt><trkpt lat="46.2319646355238" lon="12.957735679029284"><ele>264.0</ele><time>2026-04-26T11:01:54Z</time></trkpt><trkpt lat="46.23196919425229" lon="12.95794155951052"><ele>264.0</ele><time>2026-04-26T11:01:55Z</time></trkpt><trkpt lat="46.23201413758007" lon="12.958163907500778"><ele>262.6666666666667</ele><time>2026-04-26T11:01:56Z</time></trkpt><trkpt lat="46.23205180204017" lon="12.958399099721392"><ele>261.33333333333337</ele><time>2026-04-26T11:01:57Z</time></trkpt><trkpt lat="46.2320940679035" lon="12.958634927269697"><ele>260.0</ele><time>2026-04-26T11:01:58Z</time></trkpt><trkpt lat="46.23212667276934" lon="12.958887019086127"><ele>260.0</ele><time>2026-04-26T11:01:59Z</time></trkpt><trkpt lat="46.232173934597604" lon="12.959100284848365"><ele>260.0</ele><time>2026-04-26T11:02:00Z</time></trkpt><trkpt lat="46.232226994315106" lon="12.959261780102858"><ele>260.0</ele><time>2026-04-26T11:02:01Z</time></trkpt><trkpt lat="46.232290557000354" lon="12.959381824791654"><ele>260.0</ele><time>2026-04-26T11:02:02Z</time></trkpt><trkpt lat="46.2324068659275" lon="12.95946212151838"><ele>266.75</ele><time>2026-04-26T11:02:03Z</time></trkpt><trkpt lat="46.23253393011684" lon="12.95956105823728"><ele>273.5</ele><time>2026-04-26T11:02:04Z</time></trkpt><trkpt lat="46.232663240249096" lon="12.959667757801316"><ele>280.25</ele><time>2026-04-26T11:02:05Z</time></trkpt><trkpt lat="46.232794836001" lon="12.959751453342228"><ele>287.0</ele><time>2026-04-26T11:02:06Z</time></trkpt><trkpt lat="46.23288769538029" lon="12.95980343242131"><ele>287.0</ele><time>2026-04-26T11:02:07Z</time></trkpt><trkpt lat="46.23296156355633" lon="12.959798368402947"><ele>287.0</ele><time>2026-04-26T11:02:08Z</time></trkpt><trkpt lat="46.23302107827925" lon="12.959720059038322"><ele>287.0</ele><time>2026-04-26T11:02:09Z</time></trkpt><trkpt lat="46.23304910371719" lon="12.959590878879263"><ele>287.0</ele><time>2026-04-26T11:02:10Z</time></trkpt><trkpt lat="46.23302102000787" lon="12.959455665418178"><ele>287.0</ele><time>2026-04-26T11:02:11Z</time></trkpt><trkpt lat="46.232933861506076" lon="12.959343890273809"><ele>287.0</ele><time>2026-04-26T11:02:12Z</time></trkpt><trkpt lat="46.232803431767216" lon="12.959234817176542"><ele>287.0</ele><time>2026-04-26T11:02:13Z</time></trkpt><trkpt lat="46.23268440808257" lon="12.959095284481265"><ele>287.0</ele><time>2026-04-26T11:02:14Z</time></trkpt><trkpt lat="46.23261344449073" lon="12.95893865656788"><ele>287.0</ele><time>2026-04-26T11:02:15Z</time></trkpt><trkpt lat="46.23260700326143" lon="12.958747162060302"><ele>287.6666666666667</ele><time>2026-04-26T11:02:16Z</time></trkpt><trkpt lat="46.23260460092696" lon="12.958539219356053"><ele>288.3333333333333</ele><time>2026-04-26T11:02:17Z</time></trkpt><trkpt lat="46.23258736432708" lon="12.958306990933387"><ele>289.0</ele><time>2026-04-26T11:02:18Z</time></trkpt><trkpt lat="46.23257690959409" lon="12.958077187874368"><ele>290.2</ele><time>2026-04-26T11:02:19Z</time></trkpt><trkpt lat="46.23253961524176" lon="12.95788224883242"><ele>291.4</ele><time>2026-04-26T11:02:20Z</time></trkpt><trkpt lat="46.23249888166515" lon="12.957713686147871"><ele>292.6</ele><time>2026-04-26T11:02:21Z</time></trkpt><trkpt lat="46.23247245778856" lon="12.957585991386415"><ele>293.8</ele><time>2026-04-26T11:02:22Z</time></trkpt><trkpt lat="46.23246562138113" lon="12.957487000920588"><ele>295.0</ele><time>2026-04-26T11:02:23Z</time></trkpt><trkpt lat="46.23250926870911" lon="12.957399870378703"><ele>295.0</ele><time>2026-04-26T11:02:24Z</time></trkpt><trkpt lat="46.23259234657231" lon="12.957379719740866"><ele>295.0</ele><time>2026-04-26T11:02:25Z</time></trkpt><trkpt lat="46.23267545121239" lon="12.957440005893261"><ele>295.0</ele><time>2026-04-26T11:02:26Z</time></trkpt><trkpt lat="46.23269290454816" lon="12.957564295214166"><ele>295.0</ele><time>2026-04-26T11:02:27Z</time></trkpt><trkpt lat="46.232655853881994" lon="12.957705832244622"><ele>295.0</ele><time>2026-04-26T11:02:28Z</time></trkpt><trkpt lat="46.23269126285379" lon="12.957851503455712"><ele>295.0</ele><time>2026-04-26T11:02:29Z</time></trkpt><trkpt lat="46.23273471738537" lon="12.958032957592136"><ele>295.0</ele><time>2026-04-26T11:02:30Z</time></trkpt><trkpt lat="46.23280020426015" lon="12.958241941649094"><ele>295.0</ele><time>2026-04-26T11:02:31Z</time></trkpt><trkpt lat="46.232851506513924" lon="12.958432042856852"><ele>295.0</ele><time>2026-04-26T11:02:32Z</time></trkpt><trkpt lat="46.23288965844854" lon="12.958588195711037"><ele>293.5</ele><time>2026-04-26T11:02:33Z</time></trkpt><trkpt lat="46.23293176622433" lon="12.958723352757715"><ele>292.0</ele><time>2026-04-26T11:02:34Z</time></trkpt><trkpt lat="46.23301148455989" lon="12.958805807296471"><ele>290.5</ele><time>2026-04-26T11:02:35Z</time></trkpt><trkpt lat="46.23313198316064" lon="12.958851172894121"><ele>289.0</ele><time>2026-04-26T11:02:36Z</time></trkpt><trkpt lat="46.23326801125521" lon="12.958877885203801"><ele>293.0</ele><time>2026-04-26T11:02:37Z</time></trkpt><trkpt lat="46.23338975032823" lon="12.958946768393732"><ele>297.0</ele><time>2026-04-26T11:02:38Z</time></trkpt><trkpt lat="46.23345676418607" lon="12.959038836723627"><ele>301.0</ele><time>2026-04-26T11:02:39Z</time></trkpt><trkpt lat="46.23349259619515" lon="12.959166584896876"><ele>305.0</ele><time>2026-04-26T11:02:40Z</time></trkpt><trkpt lat="46.23351048822902" lon="12.9593219344625"><ele>309.0</ele><time>2026-04-26T11:02:41Z</time></trkpt><trkpt lat="46.23352665529242" lon="12.9595335021825"><ele>309.0</ele><time>2026-04-26T11:02:42Z</time></trkpt><trkpt lat="46.23354420022436" lon="12.959763107694021"><ele>309.0</ele><time>2026-04-26T11:02:43Z</time></trkpt><trkpt lat="46.233601291873335" lon="12.960010280240366"><ele>309.0</ele><time>2026-04-26T11:02:44Z</time></trkpt><trkpt lat="46.23361520285423" lon="12.960250376636388"><ele>311.0</ele><time>2026-04-26T11:02:45Z</time></trkpt><trkpt lat="46.233636040278206" lon="12.960476181933293"><ele>313.0</ele><time>2026-04-26T11:02:46Z</time></trkpt><trkpt lat="46.23365131613696" lon="12.960709087449343"><ele>315.0</ele><time>2026-04-26T11:02:47Z</time></trkpt><trkpt lat="46.233635732528725" lon="12.960914692531476"><ele>315.2</ele><time>2026-04-26T11:02:48Z</time></trkpt><trkpt lat="46.23365511313256" lon="12.961064684836487"><ele>315.4</ele><time>2026-04-26T11:02:49Z</time></trkpt><trkpt lat="46.23369355435862" lon="12.961184651492632"><ele>315.6</ele><time>2026-04-26T11:02:50Z</time></trkpt><trkpt lat="46.233730953525274" lon="12.961309639370402"><ele>315.8</ele><time>2026-04-26T11:02:51Z</time></trkpt><trkpt lat="46.23384652803827" lon="12.96137065679258"><ele>316.0</ele><time>2026-04-26T11:02:52Z</time></trkpt><trkpt lat="46.233993910580274" lon="12.961414128004924"><ele>316.75</ele><time>2026-04-26T11:02:53Z</time></trkpt><trkpt lat="46.23410579218767" lon="12.96147814770623"><ele>317.5</ele><time>2026-04-26T11:02:54Z</time></trkpt><trkpt lat="46.23419447601391" lon="12.961657207806372"><ele>318.25</ele><time>2026-04-26T11:02:55Z</time></trkpt><trkpt lat="46.23421581091762" lon="12.961831863482299"><ele>319.0</ele><time>2026-04-26T11:02:56Z</time></trkpt><trkpt lat="46.23427183493569" lon="12.962034362562255"><ele>319.0</ele><time>2026-04-26T11:02:57Z</time></trkpt><trkpt lat="46.234345923843065" lon="12.96224733257894"><ele>319.0</ele><time>2026-04-26T11:02:58Z</time></trkpt><trkpt lat="46.2343987317084" lon="12.962488344936544"><ele>319.0</ele><time>2026-04-26T11:02:59Z</time></trkpt><trkpt lat="46.234466672307434" lon="12.962730949421577"><ele>316.0</ele><time>2026-04-26T11:03:00Z</time></trkpt><trkpt lat="46.2345316440054" lon="12.962961959877749"><ele>313.0</ele><time>2026-04-26T11:03:01Z</time></trkpt><trkpt lat="46.234595563801335" lon="12.963189230240731"><ele>310.0</ele><time>2026-04-26T11:03:02Z</time></trkpt><trkpt lat="46.23465466004308" lon="12.963399350181781"><ele>308.3333333333333</ele><time>2026-04-26T11:03:03Z</time></trkpt><trkpt lat="46.23471614725164" lon="12.963623214603269"><ele>306.6666666666667</ele><time>2026-04-26T11:03:04Z</time></trkpt><trkpt lat="46.23477638153545" lon="12.963848405544065"><ele>305.0</ele><time>2026-04-26T11:03:05.001Z</time></trkpt><trkpt lat="46.23484497205598" lon="12.96405216100553"><ele>307.33333333333337</ele><time>2026-04-26T11:03:06.001Z</time></trkpt><trkpt lat="46.234939273379155" lon="12.964241809802614"><ele>309.6666666666667</ele><time>2026-04-26T11:03:07.001Z</time></trkpt><trkpt lat="46.235030829333205" lon="12.964442396078118"><ele>312.0</ele><time>2026-04-26T11:03:08.001Z</time></trkpt><trkpt lat="46.23511510036496" lon="12.964616334378334"><ele>312.0</ele><time>2026-04-26T11:03:09.001Z</time></trkpt><trkpt lat="46.23519055268663" lon="12.964783576949788"><ele>312.0</ele><time>2026-04-26T11:03:10.001Z</time></trkpt><trkpt lat="46.2352907675179" lon="12.964933926478134"><ele>312.0</ele><time>2026-04-26T11:03:11.001Z</time></trkpt><trkpt lat="46.235420407200195" lon="12.965059683106277"><ele>312.0</ele><time>2026-04-26T11:03:12.001Z</time></trkpt><trkpt lat="46.23554212649723" lon="12.965204615496885"><ele>310.3333333333333</ele><time>2026-04-26T11:03:13.001Z</time></trkpt><trkpt lat="46.23560443860879" lon="12.96542527008925"><ele>308.66666666666663</ele><time>2026-04-26T11:03:14.001Z</time></trkpt><trkpt lat="46.23568872107602" lon="12.96563856977666"><ele>307.0</ele><time>2026-04-26T11:03:15.001Z</time></trkpt><trkpt lat="46.235766117390284" lon="12.965871764831144"><ele>315.0</ele><time>2026-04-26T11:03:16.001Z</time></trkpt><trkpt lat="46.23584709890391" lon="12.966110275394403"><ele>323.0</ele><time>2026-04-26T11:03:17.001Z</time></trkpt><trkpt lat="46.235930549901404" lon="12.966346980133727"><ele>331.0</ele><time>2026-04-26T11:03:18.001Z</time></trkpt><trkpt lat="46.23599632591345" lon="12.966573565193984"><ele>329.66666666666663</ele><time>2026-04-26T11:03:19.001Z</time></trkpt><trkpt lat="46.23603850716198" lon="12.966801026275887"><ele>328.3333333333333</ele><time>2026-04-26T11:03:20.001Z</time></trkpt><trkpt lat="46.236066597170364" lon="12.967037077855133"><ele>327.0</ele><time>2026-04-26T11:03:21.001Z</time></trkpt><trkpt lat="46.23608260688292" lon="12.967251419592833"><ele>327.0</ele><time>2026-04-26T11:03:22.001Z</time></trkpt><trkpt lat="46.236074122052315" lon="12.967467502615243"><ele>327.0</ele><time>2026-04-26T11:03:23.001Z</time></trkpt><trkpt lat="46.23607395323777" lon="12.967683033677307"><ele>327.0</ele><time>2026-04-26T11:03:24.001Z</time></trkpt><trkpt lat="46.236075213322565" lon="12.967916951444474"><ele>324.6666666666667</ele><time>2026-04-26T11:03:25.001Z</time></trkpt><trkpt lat="46.23606710961036" lon="12.968155501272538"><ele>322.33333333333337</ele><time>2026-04-26T11:03:26.001Z</time></trkpt><trkpt lat="46.23608177365889" lon="12.968407849103414"><ele>320.0</ele><time>2026-04-26T11:03:27.001Z</time></trkpt><trkpt lat="46.23608045343373" lon="12.968676281990966"><ele>320.0</ele><time>2026-04-26T11:03:28.001Z</time></trkpt><trkpt lat="46.236081466254454" lon="12.968959437374174"><ele>320.0</ele><time>2026-04-26T11:03:29.001Z</time></trkpt><trkpt lat="46.23608224031856" lon="12.969229682135792"><ele>320.0</ele><time>2026-04-26T11:03:30.001Z</time></trkpt><trkpt lat="46.236079301685486" lon="12.969491125656434"><ele>319.6666666666667</ele><time>2026-04-26T11:03:31.001Z</time></trkpt><trkpt lat="46.23610065711348" lon="12.96975842352162"><ele>319.3333333333333</ele><time>2026-04-26T11:03:32.001Z</time></trkpt><trkpt lat="46.23614845190659" lon="12.970014116523016"><ele>319.0</ele><time>2026-04-26T11:03:33.001Z</time></trkpt><trkpt lat="46.2362250217818" lon="12.970255954575789"><ele>318.3333333333333</ele><time>2026-04-26T11:03:34.001Z</time></trkpt><trkpt lat="46.23633275543302" lon="12.970488340545"><ele>317.6666666666667</ele><time>2026-04-26T11:03:35.001Z</time></trkpt><trkpt lat="46.23647116000808" lon="12.970692212500838"><ele>317.0</ele><time>2026-04-26T11:03:36.001Z</time></trkpt><trkpt lat="46.236632748326834" lon="12.970867858446837"><ele>316.6666666666667</ele><time>2026-04-26T11:03:37.001Z</time></trkpt><trkpt lat="46.23681250211974" lon="12.971000737236633"><ele>316.3333333333333</ele><time>2026-04-26T11:03:38.001Z</time></trkpt><trkpt lat="46.23701136191437" lon="12.97108400242233"><ele>316.0</ele><time>2026-04-26T11:03:39.001Z</time></trkpt><trkpt lat="46.23721502605526" lon="12.971165198045336"><ele>319.0</ele><time>2026-04-26T11:03:40.001Z</time></trkpt><trkpt lat="46.23741275670689" lon="12.97123905038999"><ele>322.0</ele><time>2026-04-26T11:03:41.001Z</time></trkpt><trkpt lat="46.23759326501198" lon="12.97130493901727"><ele>325.0</ele><time>2026-04-26T11:03:42.001Z</time></trkpt><trkpt lat="46.23776887434285" lon="12.971370174874183"><ele>325.0</ele><time>2026-04-26T11:03:43.001Z</time></trkpt><trkpt lat="46.237941916360896" lon="12.97144013183131"><ele>325.0</ele><time>2026-04-26T11:03:44.001Z</time></trkpt><trkpt lat="46.23810743219832" lon="12.971510358120499"><ele>325.0</ele><time>2026-04-26T11:03:45.001Z</time></trkpt><trkpt lat="46.238268446833075" lon="12.971580281517898"><ele>330.66666666666663</ele><time>2026-04-26T11:03:46.001Z</time></trkpt><trkpt lat="46.23843660462471" lon="12.971654470882093"><ele>336.3333333333333</ele><time>2026-04-26T11:03:47.001Z</time></trkpt><trkpt lat="46.23861135749916" lon="12.971731328276848"><ele>342.0</ele><time>2026-04-26T11:03:48.001Z</time></trkpt><trkpt lat="46.23875902009867" lon="12.971794187577032"><ele>328.0</ele><time>2026-04-26T11:03:49.001Z</time></trkpt><trkpt lat="46.23889749426048" lon="12.971854792717743"><ele>314.0</ele><time>2026-04-26T11:03:50.023Z</time></trkpt><trkpt lat="46.23904718627988" lon="12.971923023174943"><ele>300.0</ele><time>2026-04-26T11:03:51.014Z</time></trkpt><trkpt lat="46.23921339595062" lon="12.971977216657143"><ele>300.0</ele><time>2026-04-26T11:03:52.016Z</time></trkpt><trkpt lat="46.23937525645586" lon="12.972020806405204"><ele>300.0</ele><time>2026-04-26T11:03:53.02Z</time></trkpt><trkpt lat="46.2395402847511" lon="12.972059291000756"><ele>300.0</ele><time>2026-04-26T11:03:54.022Z</time></trkpt><trkpt lat="46.2410354800953" lon="12.972872955736678"><ele>294.0</ele><time>2026-04-26T11:04:03.001Z</time></trkpt><trkpt lat="46.241176984034944" lon="12.972953064734918"><ele>288.0</ele><time>2026-04-26T11:04:04.001Z</time></trkpt><trkpt lat="46.24140974351501" lon="12.972929783174665"><ele>282.0</ele><time>2026-04-26T11:04:05.001Z</time></trkpt><trkpt lat="46.2415225599703" lon="12.972919678242656"><ele>282.0</ele><time>2026-04-26T11:04:06.001Z</time></trkpt><trkpt lat="46.241639358170126" lon="12.9728868752296"><ele>282.0</ele><time>2026-04-26T11:04:07.001Z</time></trkpt><trkpt lat="46.24171566676305" lon="12.972789801403781"><ele>282.0</ele><time>2026-04-26T11:04:08Z</time></trkpt><trkpt lat="46.24180205013584" lon="12.97257515984097"><ele>282.0</ele><time>2026-04-26T11:04:09Z</time></trkpt><trkpt lat="46.241875168204274" lon="12.97234136795252"><ele>297.6666666666667</ele><time>2026-04-26T11:04:10Z</time></trkpt><trkpt lat="46.24188944300609" lon="12.972101627065642"><ele>313.33333333333337</ele><time>2026-04-26T11:04:11Z</time></trkpt><trkpt lat="46.24188421125637" lon="12.971884024604831"><ele>329.0</ele><time>2026-04-26T11:04:12Z</time></trkpt><trkpt lat="46.241928635840004" lon="12.971674825176933"><ele>348.6666666666667</ele><time>2026-04-26T11:04:13Z</time></trkpt><trkpt lat="46.24199921093877" lon="12.971473400158215"><ele>368.33333333333337</ele><time>2026-04-26T11:04:14Z</time></trkpt><trkpt lat="46.242090742977474" lon="12.971259922223416"><ele>388.0</ele><time>2026-04-26T11:04:15Z</time></trkpt><trkpt lat="46.24219188837106" lon="12.971052871709018"><ele>382.0</ele><time>2026-04-26T11:04:16Z</time></trkpt><trkpt lat="46.24231365243716" lon="12.970913078949371"><ele>376.0</ele><time>2026-04-26T11:04:17Z</time></trkpt><trkpt lat="46.242419014676734" lon="12.970840357725287"><ele>370.0</ele><time>2026-04-26T11:04:18Z</time></trkpt><trkpt lat="46.242596792887525" lon="12.970803432966365"><ele>370.0</ele><time>2026-04-26T11:04:20Z</time></trkpt><trkpt lat="46.2429176699729" lon="12.970820717319285"><ele>370.0</ele><time>2026-04-26T11:04:22Z</time></trkpt><trkpt lat="46.24314158166741" lon="12.970788630225652"><ele>357.0</ele><time>2026-04-26T11:04:23Z</time></trkpt><trkpt lat="46.24325116554074" lon="12.970702270913396"><ele>344.0</ele><time>2026-04-26T11:04:24Z</time></trkpt><trkpt lat="46.24340193448148" lon="12.970604810547428"><ele>331.0</ele><time>2026-04-26T11:04:25Z</time></trkpt><trkpt lat="46.24357328598866" lon="12.97049008154405"><ele>331.0</ele><time>2026-04-26T11:04:26Z</time></trkpt><trkpt lat="46.24371194086747" lon="12.970398316016153"><ele>331.0</ele><time>2026-04-26T11:04:27Z</time></trkpt><trkpt lat="46.243846794227146" lon="12.97030772364232"><ele>331.0</ele><time>2026-04-26T11:04:28Z</time></trkpt><trkpt lat="46.24398213448564" lon="12.970215281292946"><ele>322.0</ele><time>2026-04-26T11:04:29Z</time></trkpt><trkpt lat="46.244115472252005" lon="12.97012629307242"><ele>313.0</ele><time>2026-04-26T11:04:30.013Z</time></trkpt><trkpt lat="46.2442305557083" lon="12.970066328250642"><ele>304.0</ele><time>2026-04-26T11:04:31.014Z</time></trkpt><trkpt lat="46.2443359926815" lon="12.970037130489056"><ele>295.0</ele><time>2026-04-26T11:04:32Z</time></trkpt><trkpt lat="46.244486170362364" lon="12.970183069242548"><ele>295.0</ele><time>2026-04-26T11:04:34Z</time></trkpt><trkpt lat="46.24470410519985" lon="12.970212317143687"><ele>295.0</ele><time>2026-04-26T11:04:35Z</time></trkpt><trkpt lat="46.244858257042665" lon="12.970157059986375"><ele>295.0</ele><time>2026-04-26T11:04:36Z</time></trkpt><trkpt lat="46.24496464646077" lon="12.970046723664122"><ele>308.66666666666663</ele><time>2026-04-26T11:04:37Z</time></trkpt><trkpt lat="46.24507738147455" lon="12.969940578434567"><ele>322.3333333333333</ele><time>2026-04-26T11:04:38Z</time></trkpt><trkpt lat="46.24523036894008" lon="12.969830036592613"><ele>336.0</ele><time>2026-04-26T11:04:39Z</time></trkpt><trkpt lat="46.24538802843187" lon="12.969735271343726"><ele>336.0</ele><time>2026-04-26T11:04:40Z</time></trkpt><trkpt lat="46.24553578489132" lon="12.96966788658557"><ele>336.0</ele><time>2026-04-26T11:04:41Z</time></trkpt><trkpt lat="46.245685077051895" lon="12.969599801358918"><ele>336.0</ele><time>2026-04-26T11:04:42Z</time></trkpt><trkpt lat="46.24583317926184" lon="12.969530468346592"><ele>336.0</ele><time>2026-04-26T11:04:43Z</time></trkpt><trkpt lat="46.24598069897592" lon="12.969460648950912"><ele>336.0</ele><time>2026-04-26T11:04:44.012Z</time></trkpt><trkpt lat="46.24613622066698" lon="12.9693870421451"><ele>336.0</ele><time>2026-04-26T11:04:45.012Z</time></trkpt><trkpt lat="46.24629358068442" lon="12.969316831817144"><ele>336.0</ele><time>2026-04-26T11:04:46.013Z</time></trkpt><trkpt lat="46.246432622079794" lon="12.969275052995691"><ele>336.0</ele><time>2026-04-26T11:04:47.014Z</time></trkpt><trkpt lat="46.24789883386926" lon="12.969172932219662"><ele>336.0</ele><time>2026-04-26T11:04:57Z</time></trkpt><trkpt lat="46.248048475610915" lon="12.969161008720272"><ele>336.0</ele><time>2026-04-26T11:04:58Z</time></trkpt><trkpt lat="46.24797118540821" lon="12.969969285794695"><ele>322.6666666666667</ele><time>2026-04-26T11:04:59Z</time></trkpt><trkpt lat="46.248094252223844" lon="12.970037892802685"><ele>309.33333333333337</ele><time>2026-04-26T11:05:00Z</time></trkpt><trkpt lat="46.24828756561911" lon="12.96997219045932"><ele>296.0</ele><time>2026-04-26T11:05:01Z</time></trkpt><trkpt lat="46.248458139166004" lon="12.970098010054935"><ele>296.0</ele><time>2026-04-26T11:05:02Z</time></trkpt><trkpt lat="46.24859820345917" lon="12.97013382529369"><ele>296.0</ele><time>2026-04-26T11:05:03Z</time></trkpt><trkpt lat="46.248720191382645" lon="12.970205812703032"><ele>296.0</ele><time>2026-04-26T11:05:04Z</time></trkpt><trkpt lat="46.24882658141139" lon="12.970292491330099"><ele>296.0</ele><time>2026-04-26T11:05:05Z</time></trkpt><trkpt lat="46.248947436716804" lon="12.970385967264104"><ele>321.0</ele><time>2026-04-26T11:05:06.014Z</time></trkpt><trkpt lat="46.2501725927426" lon="12.971395812940756"><ele>321.0</ele><time>2026-04-26T11:05:16Z</time></trkpt><trkpt lat="46.250247359789405" lon="12.971557108566566"><ele>321.0</ele><time>2026-04-26T11:05:17Z</time></trkpt><trkpt lat="46.25031402232277" lon="12.971737493695658"><ele>321.0</ele><time>2026-04-26T11:05:18Z</time></trkpt><trkpt lat="46.25041727528076" lon="12.971860317270622"><ele>321.0</ele><time>2026-04-26T11:05:19Z</time></trkpt><trkpt lat="46.2505257074252" lon="12.971962607378924"><ele>319.5</ele><time>2026-04-26T11:05:20Z</time></trkpt><trkpt lat="46.250739033500544" lon="12.972133686216663"><ele>318.0</ele><time>2026-04-26T11:05:21Z</time></trkpt><trkpt lat="46.250941865407555" lon="12.972277374517798"><ele>318.0</ele><time>2026-04-26T11:05:22Z</time></trkpt><trkpt lat="46.25108557845146" lon="12.972393811848285"><ele>318.0</ele><time>2026-04-26T11:05:23Z</time></trkpt><trkpt lat="46.25128999067907" lon="12.972550520334895"><ele>318.0</ele><time>2026-04-26T11:05:24Z</time></trkpt><trkpt lat="46.25141730475093" lon="12.972780893564135"><ele>320.6666666666667</ele><time>2026-04-26T11:05:25Z</time></trkpt><trkpt lat="46.25154250580088" lon="12.972985517499765"><ele>323.33333333333337</ele><time>2026-04-26T11:05:26Z</time></trkpt><trkpt lat="46.2516616311469" lon="12.973186904979755"><ele>326.0</ele><time>2026-04-26T11:05:27Z</time></trkpt><trkpt lat="46.25180506680983" lon="12.973349393017582"><ele>310.6666666666667</ele><time>2026-04-26T11:05:28Z</time></trkpt><trkpt lat="46.25194534793239" lon="12.973460305517161"><ele>295.3333333333333</ele><time>2026-04-26T11:05:29Z</time></trkpt><trkpt lat="46.25209453924823" lon="12.973576838583101"><ele>280.0</ele><time>2026-04-26T11:05:30Z</time></trkpt><trkpt lat="46.25221812221232" lon="12.973780046942563"><ele>286.3333333333333</ele><time>2026-04-26T11:05:31Z</time></trkpt><trkpt lat="46.252363217400834" lon="12.973997177600234"><ele>292.6666666666667</ele><time>2026-04-26T11:05:32Z</time></trkpt><trkpt lat="46.25251040477235" lon="12.974169713194955"><ele>299.0</ele><time>2026-04-26T11:05:33Z</time></trkpt><trkpt lat="46.25262605499758" lon="12.974379498305876"><ele>299.0</ele><time>2026-04-26T11:05:34Z</time></trkpt><trkpt lat="46.25274061739408" lon="12.974588350471713"><ele>299.0</ele><time>2026-04-26T11:05:35Z</time></trkpt><trkpt lat="46.25288126628483" lon="12.974771668193279"><ele>299.0</ele><time>2026-04-26T11:05:36Z</time></trkpt><trkpt lat="46.253018343342205" lon="12.974927989985026"><ele>295.0</ele><time>2026-04-26T11:05:37Z</time></trkpt><trkpt lat="46.25321305348378" lon="12.975042355221532"><ele>291.0</ele><time>2026-04-26T11:05:38Z</time></trkpt><trkpt lat="46.25341167050805" lon="12.975146877725908"><ele>287.0</ele><time>2026-04-26T11:05:39Z</time></trkpt><trkpt lat="46.25360758176807" lon="12.975209707251706"><ele>287.0</ele><time>2026-04-26T11:05:40Z</time></trkpt><trkpt lat="46.25381402608936" lon="12.975259156666189"><ele>287.0</ele><time>2026-04-26T11:05:41Z</time></trkpt><trkpt lat="46.254020497187064" lon="12.975307507131742"><ele>287.0</ele><time>2026-04-26T11:05:42Z</time></trkpt><trkpt lat="46.25421938009086" lon="12.97535374243115"><ele>293.6666666666667</ele><time>2026-04-26T11:05:43Z</time></trkpt><trkpt lat="46.25438755001753" lon="12.975368432949647"><ele>300.3333333333333</ele><time>2026-04-26T11:05:44Z</time></trkpt><trkpt lat="46.25455261754024" lon="12.975399713855467"><ele>307.0</ele><time>2026-04-26T11:05:45.001Z</time></trkpt><trkpt lat="46.2547213475607" lon="12.975366814330336"><ele>309.3333333333333</ele><time>2026-04-26T11:05:46.001Z</time></trkpt><trkpt lat="46.25489670143816" lon="12.975347542775976"><ele>311.6666666666667</ele><time>2026-04-26T11:05:47.001Z</time></trkpt><trkpt lat="46.25505454220032" lon="12.975317652554509"><ele>314.0</ele><time>2026-04-26T11:05:48.001Z</time></trkpt><trkpt lat="46.255196252195184" lon="12.975364506910736"><ele>314.0</ele><time>2026-04-26T11:05:49.001Z</time></trkpt><trkpt lat="46.25530761801025" lon="12.975403334064174"><ele>314.0</ele><time>2026-04-26T11:05:50.001Z</time></trkpt><trkpt lat="46.25541138204596" lon="12.975373302374848"><ele>314.0</ele><time>2026-04-26T11:05:51.001Z</time></trkpt><trkpt lat="46.25547866208128" lon="12.975253716677742"><ele>314.0</ele><time>2026-04-26T11:05:52.001Z</time></trkpt><trkpt lat="46.25552189325505" lon="12.975059048213053"><ele>318.0</ele><time>2026-04-26T11:05:53.001Z</time></trkpt><trkpt lat="46.255550263654776" lon="12.974823805479343"><ele>322.0</ele><time>2026-04-26T11:05:54.001Z</time></trkpt><trkpt lat="46.25564817272254" lon="12.974638715481365"><ele>326.0</ele><time>2026-04-26T11:05:55.001Z</time></trkpt><trkpt lat="46.255796902687514" lon="12.974599332119439"><ele>326.0</ele><time>2026-04-26T11:05:56.001Z</time></trkpt><trkpt lat="46.25594155217958" lon="12.97460997445103"><ele>326.0</ele><time>2026-04-26T11:05:57.001Z</time></trkpt><trkpt lat="46.25612296596456" lon="12.974589871239603"><ele>326.0</ele><time>2026-04-26T11:05:58.001Z</time></trkpt><trkpt lat="46.256314824056" lon="12.974577997973551"><ele>317.6666666666667</ele><time>2026-04-26T11:05:59.001Z</time></trkpt><trkpt lat="46.25649922879644" lon="12.974524676842224"><ele>309.3333333333333</ele><time>2026-04-26T11:06:00.001Z</time></trkpt><trkpt lat="46.25669912181147" lon="12.974473817785615"><ele>301.0</ele><time>2026-04-26T11:06:01.001Z</time></trkpt><trkpt lat="46.25690079315606" lon="12.974463266221646"><ele>301.0</ele><time>2026-04-26T11:06:02.001Z</time></trkpt><trkpt lat="46.25710864855921" lon="12.974436702561281"><ele>301.0</ele><time>2026-04-26T11:06:03.001Z</time></trkpt><trkpt lat="46.257321214545634" lon="12.974364773912892"><ele>301.0</ele><time>2026-04-26T11:06:04.001Z</time></trkpt><trkpt lat="46.25752727754841" lon="12.974279251985434"><ele>298.0</ele><time>2026-04-26T11:06:05.001Z</time></trkpt><trkpt lat="46.25772102508584" lon="12.974194533415305"><ele>295.0</ele><time>2026-04-26T11:06:06.001Z</time></trkpt><trkpt lat="46.25789650273501" lon="12.97414198228976"><ele>292.0</ele><time>2026-04-26T11:06:07.001Z</time></trkpt><trkpt lat="46.2580474023263" lon="12.974160313589039"><ele>293.0</ele><time>2026-04-26T11:06:08.001Z</time></trkpt><trkpt lat="46.25816356850926" lon="12.97424119065261"><ele>294.0</ele><time>2026-04-26T11:06:09.001Z</time></trkpt><trkpt lat="46.258288280649" lon="12.974344545346995"><ele>295.0</ele><time>2026-04-26T11:06:10.001Z</time></trkpt><trkpt lat="46.25842257638387" lon="12.974415514636556"><ele>296.0</ele><time>2026-04-26T11:06:11.001Z</time></trkpt><trkpt lat="46.25860902562277" lon="12.97443599078266"><ele>296.0</ele><time>2026-04-26T11:06:12.001Z</time></trkpt><trkpt lat="46.25879234144276" lon="12.97438442017481"><ele>296.0</ele><time>2026-04-26T11:06:13.001Z</time></trkpt><trkpt lat="46.25895524806086" lon="12.974304086805766"><ele>296.0</ele><time>2026-04-26T11:06:14Z</time></trkpt><trkpt lat="46.25907037181191" lon="12.974217349406596"><ele>300.6666666666667</ele><time>2026-04-26T11:06:15Z</time></trkpt><trkpt lat="46.25915918441243" lon="12.974075054434884"><ele>305.3333333333333</ele><time>2026-04-26T11:06:16Z</time></trkpt><trkpt lat="46.25920735043172" lon="12.973875241588626"><ele>310.0</ele><time>2026-04-26T11:06:17Z</time></trkpt><trkpt lat="46.25920903652396" lon="12.973617676089564"><ele>310.0</ele><time>2026-04-26T11:06:18Z</time></trkpt><trkpt lat="46.259206015936456" lon="12.973361897321094"><ele>310.0</ele><time>2026-04-26T11:06:19Z</time></trkpt><trkpt lat="46.259178792385086" lon="12.973097086993656"><ele>310.0</ele><time>2026-04-26T11:06:20Z</time></trkpt><trkpt lat="46.259090613103034" lon="12.972838087071151"><ele>314.0</ele><time>2026-04-26T11:06:21Z</time></trkpt><trkpt lat="46.25902782637816" lon="12.97254236898397"><ele>318.0</ele><time>2026-04-26T11:06:22Z</time></trkpt><trkpt lat="46.259023884556306" lon="12.972230629754042"><ele>322.0</ele><time>2026-04-26T11:06:23Z</time></trkpt><trkpt lat="46.25898821290991" lon="12.971913701177789"><ele>368.0</ele><time>2026-04-26T11:06:24Z</time></trkpt><trkpt lat="46.258921188312165" lon="12.971569051088414"><ele>414.0</ele><time>2026-04-26T11:06:25Z</time></trkpt><trkpt lat="46.25886309117517" lon="12.971279190528811"><ele>414.0</ele><time>2026-04-26T11:06:26Z</time></trkpt><trkpt lat="46.25881711156307" lon="12.97099988654145"><ele>414.0</ele><time>2026-04-26T11:06:27Z</time></trkpt><trkpt lat="46.25879528654634" lon="12.970736484408468"><ele>414.0</ele><time>2026-04-26T11:06:28Z</time></trkpt><trkpt lat="46.2587765417573" lon="12.970518959817127"><ele>410.33333333333337</ele><time>2026-04-26T11:06:29Z</time></trkpt><trkpt lat="46.25876608252614" lon="12.970288113584285"><ele>406.6666666666667</ele><time>2026-04-26T11:06:30Z</time></trkpt><trkpt lat="46.25876241760677" lon="12.97002124899256"><ele>403.0</ele><time>2026-04-26T11:06:31Z</time></trkpt><trkpt lat="46.258821961982065" lon="12.969751199044541"><ele>399.33333333333337</ele><time>2026-04-26T11:06:32Z</time></trkpt><trkpt lat="46.258869560849924" lon="12.969478105869959"><ele>395.66666666666663</ele><time>2026-04-26T11:06:33Z</time></trkpt><trkpt lat="46.25884399954544" lon="12.969206576933926"><ele>392.0</ele><time>2026-04-26T11:06:34Z</time></trkpt><trkpt lat="46.258820149503016" lon="12.96892237967852"><ele>390.0</ele><time>2026-04-26T11:06:35Z</time></trkpt><trkpt lat="46.25884218920847" lon="12.968668470905401"><ele>388.0</ele><time>2026-04-26T11:06:36Z</time></trkpt><trkpt lat="46.25886287876939" lon="12.96846250785218"><ele>386.0</ele><time>2026-04-26T11:06:37Z</time></trkpt><trkpt lat="46.258886351609526" lon="12.96827278831259"><ele>365.0</ele><time>2026-04-26T11:06:38Z</time></trkpt><trkpt lat="46.25896793427248" lon="12.968093064473882"><ele>344.0</ele><time>2026-04-26T11:06:39Z</time></trkpt><trkpt lat="46.25910204911537" lon="12.967908641607893"><ele>323.0</ele><time>2026-04-26T11:06:40Z</time></trkpt><trkpt lat="46.25926160538556" lon="12.967735565181645"><ele>323.0</ele><time>2026-04-26T11:06:41Z</time></trkpt><trkpt lat="46.259393881149265" lon="12.967551102163775"><ele>323.0</ele><time>2026-04-26T11:06:42Z</time></trkpt><trkpt lat="46.25950255618224" lon="12.967297895016495"><ele>323.0</ele><time>2026-04-26T11:06:43Z</time></trkpt><trkpt lat="46.259633422974005" lon="12.967063567802208"><ele>322.0</ele><time>2026-04-26T11:06:44Z</time></trkpt><trkpt lat="46.2597642492636" lon="12.966860131553933"><ele>321.0</ele><time>2026-04-26T11:06:45Z</time></trkpt><trkpt lat="46.25985460668683" lon="12.966641558922685"><ele>320.0</ele><time>2026-04-26T11:06:46Z</time></trkpt><trkpt lat="46.25992712683263" lon="12.966414473056785"><ele>320.0</ele><time>2026-04-26T11:06:47Z</time></trkpt><trkpt lat="46.259972948918744" lon="12.96616786708368"><ele>320.0</ele><time>2026-04-26T11:06:48Z</time></trkpt><trkpt lat="46.260048987045465" lon="12.965945886364675"><ele>320.0</ele><time>2026-04-26T11:06:49Z</time></trkpt><trkpt lat="46.260171750078776" lon="12.96572443945748"><ele>323.0</ele><time>2026-04-26T11:06:50Z</time></trkpt><trkpt lat="46.26029297979956" lon="12.965515439045632"><ele>326.0</ele><time>2026-04-26T11:06:51Z</time></trkpt><trkpt lat="46.26039663775039" lon="12.965313804448721"><ele>329.0</ele><time>2026-04-26T11:06:52Z</time></trkpt><trkpt lat="46.260475680295414" lon="12.965107248265438"><ele>332.0</ele><time>2026-04-26T11:06:53Z</time></trkpt><trkpt lat="46.260522056200394" lon="12.964873472235979"><ele>335.0</ele><time>2026-04-26T11:06:54Z</time></trkpt><trkpt lat="46.26054404699859" lon="12.964620348867301"><ele>338.0</ele><time>2026-04-26T11:06:55Z</time></trkpt><trkpt lat="46.26051557568439" lon="12.964316736312316"><ele>340.6666666666667</ele><time>2026-04-26T11:06:56Z</time></trkpt><trkpt lat="46.26048289853209" lon="12.964034738737556"><ele>343.3333333333333</ele><time>2026-04-26T11:06:57Z</time></trkpt><trkpt lat="46.26045733686491" lon="12.963676802556854"><ele>346.0</ele><time>2026-04-26T11:06:58Z</time></trkpt><trkpt lat="46.2604527437708" lon="12.963362391352767"><ele>346.0</ele><time>2026-04-26T11:06:59Z</time></trkpt><trkpt lat="46.26044019338441" lon="12.963032908173874"><ele>346.0</ele><time>2026-04-26T11:07:00Z</time></trkpt><trkpt lat="46.26043746734647" lon="12.962690983712035"><ele>344.5</ele><time>2026-04-26T11:07:01Z</time></trkpt><trkpt lat="46.260441820373" lon="12.962340064137868"><ele>343.0</ele><time>2026-04-26T11:07:02Z</time></trkpt><trkpt lat="46.26044559976434" lon="12.962004409983418"><ele>346.5</ele><time>2026-04-26T11:07:03Z</time></trkpt><trkpt lat="46.26045235138208" lon="12.96166402182311"><ele>350.0</ele><time>2026-04-26T11:07:04Z</time></trkpt><trkpt lat="46.26046085370426" lon="12.961322950696085"><ele>350.0</ele><time>2026-04-26T11:07:05Z</time></trkpt><trkpt lat="46.2604815924679" lon="12.961006608526306"><ele>350.0</ele><time>2026-04-26T11:07:06Z</time></trkpt><trkpt lat="46.26047629461936" lon="12.96073064629968"><ele>350.0</ele><time>2026-04-26T11:07:07Z</time></trkpt><trkpt lat="46.2604954559278" lon="12.960464111780318"><ele>350.0</ele><time>2026-04-26T11:07:08Z</time></trkpt><trkpt lat="46.2605706276177" lon="12.960169389081955"><ele>350.0</ele><time>2026-04-26T11:07:09Z</time></trkpt><trkpt lat="46.260606626942774" lon="12.959848001777612"><ele>350.0</ele><time>2026-04-26T11:07:10Z</time></trkpt><trkpt lat="46.26064597018563" lon="12.959533559099734"><ele>337.6666666666667</ele><time>2026-04-26T11:07:11Z</time></trkpt><trkpt lat="46.260688079904405" lon="12.959240292412574"><ele>325.3333333333333</ele><time>2026-04-26T11:07:12Z</time></trkpt><trkpt lat="46.260740487851734" lon="12.958979090774355"><ele>313.0</ele><time>2026-04-26T11:07:13Z</time></trkpt><trkpt lat="46.260821634055944" lon="12.958722067094781"><ele>313.0</ele><time>2026-04-26T11:07:14Z</time></trkpt><trkpt lat="46.26091944333547" lon="12.958481331458987"><ele>313.0</ele><time>2026-04-26T11:07:15Z</time></trkpt><trkpt lat="46.26103622510201" lon="12.95824687115112"><ele>313.0</ele><time>2026-04-26T11:07:16Z</time></trkpt><trkpt lat="46.26114665373908" lon="12.957989546963978"><ele>317.0</ele><time>2026-04-26T11:07:17Z</time></trkpt><trkpt lat="46.261265803132446" lon="12.95774951079583"><ele>321.0</ele><time>2026-04-26T11:07:18Z</time></trkpt><trkpt lat="46.26135958996268" lon="12.957490153489852"><ele>325.0</ele><time>2026-04-26T11:07:19Z</time></trkpt><trkpt lat="46.26143656138313" lon="12.957188231620789"><ele>322.66666666666663</ele><time>2026-04-26T11:07:20Z</time></trkpt><trkpt lat="46.26152817863727" lon="12.956910821965977"><ele>320.3333333333333</ele><time>2026-04-26T11:07:21Z</time></trkpt><trkpt lat="46.261626073065145" lon="12.956669848486417"><ele>318.0</ele><time>2026-04-26T11:07:22Z</time></trkpt><trkpt lat="46.26174770631758" lon="12.956475990570322"><ele>318.0</ele><time>2026-04-26T11:07:23Z</time></trkpt><trkpt lat="46.261882861925166" lon="12.956285290739183"><ele>318.0</ele><time>2026-04-26T11:07:24Z</time></trkpt><trkpt lat="46.261997818151315" lon="12.956077185442123"><ele>318.0</ele><time>2026-04-26T11:07:25Z</time></trkpt><trkpt lat="46.26209440774463" lon="12.955843742532887"><ele>324.0</ele><time>2026-04-26T11:07:26Z</time></trkpt><trkpt lat="46.2621725983732" lon="12.955635932758755"><ele>330.0</ele><time>2026-04-26T11:07:27Z</time></trkpt><trkpt lat="46.262253190691986" lon="12.955414020426401"><ele>336.0</ele><time>2026-04-26T11:07:28Z</time></trkpt><trkpt lat="46.262333212326524" lon="12.955186228364841"><ele>327.6666666666667</ele><time>2026-04-26T11:07:29Z</time></trkpt><trkpt lat="46.26238036493951" lon="12.954957678192478"><ele>319.33333333333337</ele><time>2026-04-26T11:07:30Z</time></trkpt><trkpt lat="46.2624220860822" lon="12.954716172232612"><ele>311.0</ele><time>2026-04-26T11:07:31Z</time></trkpt><trkpt lat="46.26245602342359" lon="12.954488484940468"><ele>311.0</ele><time>2026-04-26T11:07:32Z</time></trkpt><trkpt lat="46.26248756802622" lon="12.95427444950117"><ele>311.0</ele><time>2026-04-26T11:07:33Z</time></trkpt><trkpt lat="46.26252135994882" lon="12.954078170514089"><ele>311.0</ele><time>2026-04-26T11:07:34Z</time></trkpt><trkpt lat="46.2625600782394" lon="12.953905148519375"><ele>311.0</ele><time>2026-04-26T11:07:35Z</time></trkpt><trkpt lat="46.26262900027871" lon="12.953766297626364"><ele>309.0</ele><time>2026-04-26T11:07:36Z</time></trkpt><trkpt lat="46.262729450129214" lon="12.953660853877997"><ele>307.0</ele><time>2026-04-26T11:07:37Z</time></trkpt><trkpt lat="46.26287072219213" lon="12.953598660987677"><ele>305.0</ele><time>2026-04-26T11:07:38Z</time></trkpt><trkpt lat="46.26300508805147" lon="12.95351508166688"><ele>303.0</ele><time>2026-04-26T11:07:39Z</time></trkpt><trkpt lat="46.2631572050001" lon="12.953418951835411"><ele>307.3333333333333</ele><time>2026-04-26T11:07:40.001Z</time></trkpt><trkpt lat="46.263322523838305" lon="12.953308923133447"><ele>311.66666666666663</ele><time>2026-04-26T11:07:41.001Z</time></trkpt><trkpt lat="46.26348624828416" lon="12.953206198441862"><ele>316.0</ele><time>2026-04-26T11:07:42.001Z</time></trkpt><trkpt lat="46.26365651907007" lon="12.953142729734076"><ele>316.0</ele><time>2026-04-26T11:07:43.001Z</time></trkpt><trkpt lat="46.26384095451397" lon="12.953177605595531"><ele>316.0</ele><time>2026-04-26T11:07:44.001Z</time></trkpt><trkpt lat="46.26404641870978" lon="12.953196607807131"><ele>316.0</ele><time>2026-04-26T11:07:45.001Z</time></trkpt><trkpt lat="46.264240999636904" lon="12.95322273850688"><ele>314.66666666666663</ele><time>2026-04-26T11:07:46.001Z</time></trkpt><trkpt lat="46.264429449077966" lon="12.953286671503534"><ele>313.3333333333333</ele><time>2026-04-26T11:07:47.001Z</time></trkpt><trkpt lat="46.26462963009756" lon="12.953366649232699"><ele>312.0</ele><time>2026-04-26T11:07:48.001Z</time></trkpt><trkpt lat="46.264831824144764" lon="12.953457727114673"><ele>307.0</ele><time>2026-04-26T11:07:49.001Z</time></trkpt><trkpt lat="46.26500007426978" lon="12.953570591458693"><ele>302.0</ele><time>2026-04-26T11:07:50.001Z</time></trkpt><trkpt lat="46.26515568358351" lon="12.953740105401446"><ele>297.0</ele><time>2026-04-26T11:07:51.001Z</time></trkpt><trkpt lat="46.26530831221407" lon="12.953952684389744"><ele>297.0</ele><time>2026-04-26T11:07:52.001Z</time></trkpt><trkpt lat="46.26546729910513" lon="12.954166511363846"><ele>297.0</ele><time>2026-04-26T11:07:53.001Z</time></trkpt><trkpt lat="46.26562155599668" lon="12.954374776992683"><ele>297.0</ele><time>2026-04-26T11:07:54.001Z</time></trkpt><trkpt lat="46.26576819002346" lon="12.954572807993552"><ele>297.3333333333333</ele><time>2026-04-26T11:07:55.001Z</time></trkpt><trkpt lat="46.2659104284615" lon="12.954765769071374"><ele>297.66666666666663</ele><time>2026-04-26T11:07:56.001Z</time></trkpt><trkpt lat="46.26605236032141" lon="12.954978768884569"><ele>298.0</ele><time>2026-04-26T11:07:57.001Z</time></trkpt><trkpt lat="46.266156043256736" lon="12.955207695893584"><ele>298.0</ele><time>2026-04-26T11:07:58.001Z</time></trkpt><trkpt lat="46.26626432680179" lon="12.955415819555556"><ele>298.0</ele><time>2026-04-26T11:07:59.001Z</time></trkpt><trkpt lat="46.26639406789571" lon="12.955589250031592"><ele>298.0</ele><time>2026-04-26T11:08:00.001Z</time></trkpt><trkpt lat="46.266533085599264" lon="12.955759964561183"><ele>300.0</ele><time>2026-04-26T11:08:01.001Z</time></trkpt><trkpt lat="46.266701727895885" lon="12.955876255906743"><ele>302.0</ele><time>2026-04-26T11:08:02.001Z</time></trkpt><trkpt lat="46.26687845646588" lon="12.955932157711592"><ele>304.0</ele><time>2026-04-26T11:08:03.001Z</time></trkpt><trkpt lat="46.267080114850486" lon="12.955873992826518"><ele>305.66666666666663</ele><time>2026-04-26T11:08:04.001Z</time></trkpt><trkpt lat="46.26728667917038" lon="12.955829735275989"><ele>307.3333333333333</ele><time>2026-04-26T11:08:05.001Z</time></trkpt><trkpt lat="46.26749323950219" lon="12.955799964178045"><ele>309.0</ele><time>2026-04-26T11:08:06.001Z</time></trkpt><trkpt lat="46.267702508310485" lon="12.955757951020804"><ele>309.0</ele><time>2026-04-26T11:08:07.001Z</time></trkpt><trkpt lat="46.267897331931685" lon="12.955701453872816"><ele>309.0</ele><time>2026-04-26T11:08:08.001Z</time></trkpt><trkpt lat="46.26807088629127" lon="12.955632462116506"><ele>309.0</ele><time>2026-04-26T11:08:09.001Z</time></trkpt><trkpt lat="46.268230567283105" lon="12.95557605241542"><ele>307.75</ele><time>2026-04-26T11:08:10.001Z</time></trkpt><trkpt lat="46.26837427548573" lon="12.955512342505385"><ele>306.5</ele><time>2026-04-26T11:08:11.001Z</time></trkpt><trkpt lat="46.26849062563753" lon="12.955449536852164"><ele>305.25</ele><time>2026-04-26T11:08:12.001Z</time></trkpt><trkpt lat="46.26859525736095" lon="12.95531236489267"><ele>304.0</ele><time>2026-04-26T11:08:13.001Z</time></trkpt><trkpt lat="46.26868865930904" lon="12.955090368143441"><ele>307.3333333333333</ele><time>2026-04-26T11:08:14.001Z</time></trkpt><trkpt lat="46.26876967548852" lon="12.954824116909087"><ele>310.6666666666667</ele><time>2026-04-26T11:08:15.001Z</time></trkpt><trkpt lat="46.26889127634048" lon="12.954594867332306"><ele>314.0</ele><time>2026-04-26T11:08:16.001Z</time></trkpt><trkpt lat="46.2689614051868" lon="12.954376401565751"><ele>315.0</ele><time>2026-04-26T11:08:17.001Z</time></trkpt><trkpt lat="46.26904941130623" lon="12.954202804707762"><ele>316.0</ele><time>2026-04-26T11:08:18.001Z</time></trkpt><trkpt lat="46.269106181057204" lon="12.954011768440223"><ele>317.0</ele><time>2026-04-26T11:08:19.001Z</time></trkpt><trkpt lat="46.269157782647156" lon="12.953865373484389"><ele>318.0</ele><time>2026-04-26T11:08:20Z</time></trkpt><trkpt lat="46.269241093229574" lon="12.953785721214388"><ele>318.0</ele><time>2026-04-26T11:08:21Z</time></trkpt><trkpt lat="46.26937052757989" lon="12.953771154135914"><ele>318.0</ele><time>2026-04-26T11:08:22Z</time></trkpt><trkpt lat="46.269527183678804" lon="12.953710988509837"><ele>318.0</ele><time>2026-04-26T11:08:23Z</time></trkpt><trkpt lat="46.26965711746859" lon="12.953621229942206"><ele>318.0</ele><time>2026-04-26T11:08:24Z</time></trkpt><trkpt lat="46.26977034286549" lon="12.953494959853588"><ele>319.75</ele><time>2026-04-26T11:08:25Z</time></trkpt><trkpt lat="46.269833064963144" lon="12.95331820377563"><ele>321.5</ele><time>2026-04-26T11:08:26Z</time></trkpt><trkpt lat="46.26983877561222" lon="12.953120448182881"><ele>323.25</ele><time>2026-04-26T11:08:27Z</time></trkpt><trkpt lat="46.269786508062246" lon="12.952919048894632"><ele>325.0</ele><time>2026-04-26T11:08:28Z</time></trkpt><trkpt lat="46.26971222688176" lon="12.952670504202624"><ele>322.66666666666663</ele><time>2026-04-26T11:08:29Z</time></trkpt><trkpt lat="46.26967461849155" lon="12.952389919326354"><ele>320.3333333333333</ele><time>2026-04-26T11:08:30Z</time></trkpt><trkpt lat="46.26964565978056" lon="12.952113784313044"><ele>318.0</ele><time>2026-04-26T11:08:31Z</time></trkpt><trkpt lat="46.26959996742519" lon="12.951835104349485"><ele>316.6666666666667</ele><time>2026-04-26T11:08:32Z</time></trkpt><trkpt lat="46.26954147050984" lon="12.951534584657924"><ele>315.33333333333337</ele><time>2026-04-26T11:08:33Z</time></trkpt><trkpt lat="46.26950269877379" lon="12.951220550648605"><ele>314.0</ele><time>2026-04-26T11:08:34Z</time></trkpt><trkpt lat="46.26946829728995" lon="12.950925815798788"><ele>312.33333333333337</ele><time>2026-04-26T11:08:35Z</time></trkpt><trkpt lat="46.2694542493997" lon="12.950660233596176"><ele>310.6666666666667</ele><time>2026-04-26T11:08:36Z</time></trkpt><trkpt lat="46.2694226758444" lon="12.950428315193486"><ele>309.0</ele><time>2026-04-26T11:08:37Z</time></trkpt><trkpt lat="46.26941861828752" lon="12.950235300438225"><ele>309.0</ele><time>2026-04-26T11:08:38Z</time></trkpt><trkpt lat="46.269467169239235" lon="12.95005961571478"><ele>309.0</ele><time>2026-04-26T11:08:39Z</time></trkpt><trkpt lat="46.26956152019854" lon="12.949898808291797"><ele>309.0</ele><time>2026-04-26T11:08:40Z</time></trkpt><trkpt lat="46.26965760145763" lon="12.94965239509602"><ele>307.6666666666667</ele><time>2026-04-26T11:08:41Z</time></trkpt><trkpt lat="46.26977295579269" lon="12.949396163634624"><ele>306.33333333333337</ele><time>2026-04-26T11:08:42Z</time></trkpt><trkpt lat="46.269878757269794" lon="12.949123575106634"><ele>305.0</ele><time>2026-04-26T11:08:43Z</time></trkpt><trkpt lat="46.26999845410604" lon="12.94891857309459"><ele>308.5</ele><time>2026-04-26T11:08:44Z</time></trkpt><trkpt lat="46.27005244075337" lon="12.948686091924728"><ele>312.0</ele><time>2026-04-26T11:08:45Z</time></trkpt><trkpt lat="46.2701069848757" lon="12.948504795327066"><ele>315.5</ele><time>2026-04-26T11:08:46Z</time></trkpt><trkpt lat="46.27016290022039" lon="12.948353220302547"><ele>319.0</ele><time>2026-04-26T11:08:47Z</time></trkpt><trkpt lat="46.270274403616824" lon="12.948266320477018"><ele>319.0</ele><time>2026-04-26T11:08:48Z</time></trkpt><trkpt lat="46.27041193891852" lon="12.948226361554525"><ele>319.0</ele><time>2026-04-26T11:08:49Z</time></trkpt><trkpt lat="46.27056475143658" lon="12.948117323463531"><ele>319.0</ele><time>2026-04-26T11:08:50Z</time></trkpt><trkpt lat="46.270717611162645" lon="12.947996309920203"><ele>323.3333333333333</ele><time>2026-04-26T11:08:51Z</time></trkpt><trkpt lat="46.270837551789086" lon="12.947834564836242"><ele>327.6666666666667</ele><time>2026-04-26T11:08:52Z</time></trkpt><trkpt lat="46.27092243612435" lon="12.947626294552236"><ele>332.0</ele><time>2026-04-26T11:08:53Z</time></trkpt><trkpt lat="46.27100023206202" lon="12.947376978039587"><ele>332.0</ele><time>2026-04-26T11:08:54Z</time></trkpt><trkpt lat="46.27109018280039" lon="12.947107532915307"><ele>332.0</ele><time>2026-04-26T11:08:55Z</time></trkpt><trkpt lat="46.27117900090271" lon="12.946881126618171"><ele>332.0</ele><time>2026-04-26T11:08:56Z</time></trkpt><trkpt lat="46.271252823498045" lon="12.94668538076774"><ele>336.33333333333337</ele><time>2026-04-26T11:08:57Z</time></trkpt><trkpt lat="46.27130023036636" lon="12.946500979348299"><ele>340.6666666666667</ele><time>2026-04-26T11:08:58Z</time></trkpt><trkpt lat="46.27129195335748" lon="12.94628792620525"><ele>345.0</ele><time>2026-04-26T11:08:59Z</time></trkpt><trkpt lat="46.27122944349248" lon="12.946054575091317"><ele>346.0</ele><time>2026-04-26T11:09:00Z</time></trkpt><trkpt lat="46.271155041856645" lon="12.945823653271768"><ele>347.0</ele><time>2026-04-26T11:09:01Z</time></trkpt><trkpt lat="46.27111745349061" lon="12.945621268824302"><ele>348.0</ele><time>2026-04-26T11:09:02Z</time></trkpt><trkpt lat="46.27111428634992" lon="12.945441995344975"><ele>349.0</ele><time>2026-04-26T11:09:03Z</time></trkpt><trkpt lat="46.27119147239061" lon="12.94524582349588"><ele>349.0</ele><time>2026-04-26T11:09:04Z</time></trkpt><trkpt lat="46.27125751243816" lon="12.945081642764405"><ele>349.0</ele><time>2026-04-26T11:09:05Z</time></trkpt><trkpt lat="46.27134229161091" lon="12.944953538552996"><ele>349.0</ele><time>2026-04-26T11:09:06Z</time></trkpt><trkpt lat="46.27151591303402" lon="12.944896475625265"><ele>349.0</ele><time>2026-04-26T11:09:07Z</time></trkpt><trkpt lat="46.271694691613845" lon="12.944787845101017"><ele>343.0</ele><time>2026-04-26T11:09:08Z</time></trkpt><trkpt lat="46.27186415706374" lon="12.9446698574083"><ele>337.0</ele><time>2026-04-26T11:09:09Z</time></trkpt><trkpt lat="46.2720373769755" lon="12.944550771112285"><ele>331.0</ele><time>2026-04-26T11:09:10Z</time></trkpt><trkpt lat="46.27220213943619" lon="12.944453060765305"><ele>336.3333333333333</ele><time>2026-04-26T11:09:11Z</time></trkpt><trkpt lat="46.27232561923845" lon="12.944351609528944"><ele>341.6666666666667</ele><time>2026-04-26T11:09:12Z</time></trkpt><trkpt lat="46.272447404278296" lon="12.94423980167314"><ele>347.0</ele><time>2026-04-26T11:09:13Z</time></trkpt><trkpt lat="46.27259737303283" lon="12.944099716367765"><ele>349.33333333333337</ele><time>2026-04-26T11:09:14Z</time></trkpt><trkpt lat="46.27274237751239" lon="12.943967012312738"><ele>351.6666666666667</ele><time>2026-04-26T11:09:15Z</time></trkpt><trkpt lat="46.272892900381436" lon="12.9438292580705"><ele>354.0</ele><time>2026-04-26T11:09:16Z</time></trkpt><trkpt lat="46.27304853957534" lon="12.943686041581946"><ele>357.6666666666667</ele><time>2026-04-26T11:09:17Z</time></trkpt><trkpt lat="46.27321014668151" lon="12.943528126610905"><ele>361.33333333333337</ele><time>2026-04-26T11:09:18Z</time></trkpt><trkpt lat="46.27334863962585" lon="12.94342304071547"><ele>365.0</ele><time>2026-04-26T11:09:19Z</time></trkpt><trkpt lat="46.2734490190653" lon="12.943249604279192"><ele>365.0</ele><time>2026-04-26T11:09:20Z</time></trkpt><trkpt lat="46.2735395222351" lon="12.942981424972036"><ele>365.0</ele><time>2026-04-26T11:09:21Z</time></trkpt><trkpt lat="46.27365346395237" lon="12.942752037051948"><ele>365.0</ele><time>2026-04-26T11:09:22Z</time></trkpt><trkpt lat="46.2737567969779" lon="12.942514563011933"><ele>370.6666666666667</ele><time>2026-04-26T11:09:23Z</time></trkpt><trkpt lat="46.27381714212466" lon="12.942293966936797"><ele>376.3333333333333</ele><time>2026-04-26T11:09:24Z</time></trkpt><trkpt lat="46.27396104586495" lon="12.942120039133249"><ele>382.0</ele><time>2026-04-26T11:09:25Z</time></trkpt><trkpt lat="46.27404455925794" lon="12.94198563111125"><ele>372.75</ele><time>2026-04-26T11:09:26Z</time></trkpt><trkpt lat="46.274101565549586" lon="12.941800147896254"><ele>363.5</ele><time>2026-04-26T11:09:27Z</time></trkpt><trkpt lat="46.27415180777292" lon="12.941586634571479"><ele>354.25</ele><time>2026-04-26T11:09:28Z</time></trkpt><trkpt lat="46.27414392799383" lon="12.941370126390094"><ele>345.0</ele><time>2026-04-26T11:09:29Z</time></trkpt><trkpt lat="46.27408360770191" lon="12.9411577687137"><ele>345.0</ele><time>2026-04-26T11:09:30Z</time></trkpt><trkpt lat="46.27408269608545" lon="12.94097947591678"><ele>345.0</ele><time>2026-04-26T11:09:31Z</time></trkpt><trkpt lat="46.274128541716074" lon="12.94083359039456"><ele>345.0</ele><time>2026-04-26T11:09:32Z</time></trkpt><trkpt lat="46.274194687461474" lon="12.940685664915229"><ele>345.0</ele><time>2026-04-26T11:09:33Z</time></trkpt><trkpt lat="46.2743209585068" lon="12.940565963676784"><ele>348.0</ele><time>2026-04-26T11:09:34Z</time></trkpt><trkpt lat="46.27447878042228" lon="12.940396228753128"><ele>351.0</ele><time>2026-04-26T11:09:35Z</time></trkpt><trkpt lat="46.27464699732955" lon="12.940219292305887"><ele>354.0</ele><time>2026-04-26T11:09:36Z</time></trkpt><trkpt lat="46.27481383380847" lon="12.940036076828715"><ele>354.0</ele><time>2026-04-26T11:09:37Z</time></trkpt><trkpt lat="46.274995066001374" lon="12.939889618954105"><ele>354.0</ele><time>2026-04-26T11:09:38Z</time></trkpt><trkpt lat="46.27518662255688" lon="12.939763370067888"><ele>354.0</ele><time>2026-04-26T11:09:39Z</time></trkpt><trkpt lat="46.27537330930185" lon="12.939640096982895"><ele>354.0</ele><time>2026-04-26T11:09:40Z</time></trkpt><trkpt lat="46.275525718189186" lon="12.93951066379817"><ele>354.0</ele><time>2026-04-26T11:09:41Z</time></trkpt><trkpt lat="46.27564362655146" lon="12.93942644503224"><ele>354.0</ele><time>2026-04-26T11:09:42Z</time></trkpt><trkpt lat="46.275755713068776" lon="12.939242261893076"><ele>356.0</ele><time>2026-04-26T11:09:43Z</time></trkpt><trkpt lat="46.275887600227954" lon="12.93907811295884"><ele>358.0</ele><time>2026-04-26T11:09:44Z</time></trkpt><trkpt lat="46.27602096301132" lon="12.938904087194784"><ele>360.0</ele><time>2026-04-26T11:09:45Z</time></trkpt><trkpt lat="46.27616762703291" lon="12.938712704407244"><ele>360.0</ele><time>2026-04-26T11:09:46Z</time></trkpt><trkpt lat="46.2762895126923" lon="12.938531921913437"><ele>360.0</ele><time>2026-04-26T11:09:47Z</time></trkpt><trkpt lat="46.27642273724557" lon="12.938408260177292"><ele>360.0</ele><time>2026-04-26T11:09:48Z</time></trkpt><trkpt lat="46.27651501578471" lon="12.93826131946081"><ele>358.3333333333333</ele><time>2026-04-26T11:09:49Z</time></trkpt><trkpt lat="46.27663445246807" lon="12.938151576405895"><ele>356.66666666666663</ele><time>2026-04-26T11:09:50Z</time></trkpt><trkpt lat="46.27678454402366" lon="12.938086524076208"><ele>355.0</ele><time>2026-04-26T11:09:51Z</time></trkpt><trkpt lat="46.27695796807274" lon="12.93804160681042"><ele>355.0</ele><time>2026-04-26T11:09:52.001Z</time></trkpt><trkpt lat="46.27716777472239" lon="12.938045706067799"><ele>355.0</ele><time>2026-04-26T11:09:53.001Z</time></trkpt><trkpt lat="46.27735919180861" lon="12.938007206451553"><ele>355.0</ele><time>2026-04-26T11:09:54.001Z</time></trkpt><trkpt lat="46.27755098027991" lon="12.937979781163516"><ele>355.0</ele><time>2026-04-26T11:09:55.001Z</time></trkpt><trkpt lat="46.27774923054784" lon="12.937946047121555"><ele>355.0</ele><time>2026-04-26T11:09:56.001Z</time></trkpt><trkpt lat="46.27796249844683" lon="12.937931067886245"><ele>355.0</ele><time>2026-04-26T11:09:57.001Z</time></trkpt><trkpt lat="46.27816891270165" lon="12.937894627027003"><ele>356.66666666666663</ele><time>2026-04-26T11:09:58.001Z</time></trkpt><trkpt lat="46.278362802178194" lon="12.937850227023043"><ele>358.3333333333333</ele><time>2026-04-26T11:09:59.001Z</time></trkpt><trkpt lat="46.278541751862136" lon="12.937819861664464"><ele>360.0</ele><time>2026-04-26T11:10:00.001Z</time></trkpt><trkpt lat="46.27872491674386" lon="12.937795749986563"><ele>360.0</ele><time>2026-04-26T11:10:01.001Z</time></trkpt><trkpt lat="46.27890137121939" lon="12.93776827658114"><ele>360.0</ele><time>2026-04-26T11:10:02.001Z</time></trkpt><trkpt lat="46.27907973722709" lon="12.937740158330676"><ele>360.0</ele><time>2026-04-26T11:10:03.001Z</time></trkpt><trkpt lat="46.27923636794006" lon="12.937693298928824"><ele>359.6666666666667</ele><time>2026-04-26T11:10:04.001Z</time></trkpt><trkpt lat="46.27939096957633" lon="12.937654400038975"><ele>359.33333333333337</ele><time>2026-04-26T11:10:05.001Z</time></trkpt><trkpt lat="46.279536833502675" lon="12.937554187419298"><ele>359.0</ele><time>2026-04-26T11:10:06.001Z</time></trkpt><trkpt lat="46.27966311065212" lon="12.937386335761436"><ele>358.0</ele><time>2026-04-26T11:10:07.001Z</time></trkpt><trkpt lat="46.279749464652035" lon="12.937193977363592"><ele>357.0</ele><time>2026-04-26T11:10:08.001Z</time></trkpt><trkpt lat="46.27980216719471" lon="12.936918831870342"><ele>356.0</ele><time>2026-04-26T11:10:09.001Z</time></trkpt><trkpt lat="46.27982038188835" lon="12.936670141423185"><ele>352.0</ele><time>2026-04-26T11:10:10.001Z</time></trkpt><trkpt lat="46.279858312675174" lon="12.936420074193158"><ele>348.0</ele><time>2026-04-26T11:10:11.001Z</time></trkpt><trkpt lat="46.279946394761886" lon="12.9362164655313"><ele>344.0</ele><time>2026-04-26T11:10:12.001Z</time></trkpt><trkpt lat="46.28005479976015" lon="12.93603934255455"><ele>344.0</ele><time>2026-04-26T11:10:13.001Z</time></trkpt><trkpt lat="46.28016531426687" lon="12.935891642358238"><ele>344.0</ele><time>2026-04-26T11:10:14.001Z</time></trkpt><trkpt lat="46.28030096099005" lon="12.93579197973796"><ele>344.0</ele><time>2026-04-26T11:10:15.001Z</time></trkpt><trkpt lat="46.28045624167186" lon="12.935728497497674"><ele>343.6666666666667</ele><time>2026-04-26T11:10:16.001Z</time></trkpt><trkpt lat="46.28064453780845" lon="12.93565666255265"><ele>343.3333333333333</ele><time>2026-04-26T11:10:17.001Z</time></trkpt><trkpt lat="46.2808535662762" lon="12.935573494556175"><ele>343.0</ele><time>2026-04-26T11:10:18.001Z</time></trkpt><trkpt lat="46.28102847582469" lon="12.935483586451214"><ele>343.0</ele><time>2026-04-26T11:10:19.001Z</time></trkpt><trkpt lat="46.28120196791655" lon="12.935344929706114"><ele>343.0</ele><time>2026-04-26T11:10:20.001Z</time></trkpt><trkpt lat="46.28138411771778" lon="12.935205072377249"><ele>343.0</ele><time>2026-04-26T11:10:21.001Z</time></trkpt><trkpt lat="46.2815843644166" lon="12.935105076728727"><ele>342.66666666666663</ele><time>2026-04-26T11:10:22.001Z</time></trkpt><trkpt lat="46.28177236721527" lon="12.935024897750976"><ele>342.3333333333333</ele><time>2026-04-26T11:10:23.001Z</time></trkpt><trkpt lat="46.28197484715616" lon="12.934980761812074"><ele>342.0</ele><time>2026-04-26T11:10:24.001Z</time></trkpt><trkpt lat="46.28216736993361" lon="12.934966307747821"><ele>342.0</ele><time>2026-04-26T11:10:25.001Z</time></trkpt><trkpt lat="46.28231026624" lon="12.934966857055162"><ele>342.0</ele><time>2026-04-26T11:10:26Z</time></trkpt><trkpt lat="46.28244955275349" lon="12.935001764621378"><ele>342.0</ele><time>2026-04-26T11:10:27Z</time></trkpt><trkpt lat="46.28262026356516" lon="12.935092625875013"><ele>346.6666666666667</ele><time>2026-04-26T11:10:28Z</time></trkpt><trkpt lat="46.28274235283583" lon="12.93523998916233"><ele>351.33333333333337</ele><time>2026-04-26T11:10:29Z</time></trkpt><trkpt lat="46.28284440579717" lon="12.935453901507882"><ele>356.0</ele><time>2026-04-26T11:10:30Z</time></trkpt><trkpt lat="46.28292282588171" lon="12.935662915196822"><ele>356.0</ele><time>2026-04-26T11:10:31Z</time></trkpt><trkpt lat="46.28300616759958" lon="12.935826845620365"><ele>356.0</ele><time>2026-04-26T11:10:32Z</time></trkpt><trkpt lat="46.283131751399786" lon="12.935965436180517"><ele>356.0</ele><time>2026-04-26T11:10:33Z</time></trkpt><trkpt lat="46.28327001657456" lon="12.936054450874227"><ele>353.33333333333337</ele><time>2026-04-26T11:10:34Z</time></trkpt><trkpt lat="46.28343577476457" lon="12.93608161253211"><ele>350.6666666666667</ele><time>2026-04-26T11:10:35Z</time></trkpt><trkpt lat="46.28362237443962" lon="12.936117563097437"><ele>348.0</ele><time>2026-04-26T11:10:36Z</time></trkpt><trkpt lat="46.2838181224815" lon="12.93614918304443"><ele>348.0</ele><time>2026-04-26T11:10:37Z</time></trkpt><trkpt lat="46.284041793181245" lon="12.936168160670938"><ele>348.0</ele><time>2026-04-26T11:10:38Z</time></trkpt><trkpt lat="46.28426437736016" lon="12.936219171366437"><ele>348.0</ele><time>2026-04-26T11:10:39Z</time></trkpt><trkpt lat="46.28448250376042" lon="12.936232904180844"><ele>348.0</ele><time>2026-04-26T11:10:40Z</time></trkpt><trkpt lat="46.284727356914956" lon="12.93622787360304"><ele>348.0</ele><time>2026-04-26T11:10:41Z</time></trkpt><trkpt lat="46.28498608313199" lon="12.936210549031454"><ele>349.5</ele><time>2026-04-26T11:10:42Z</time></trkpt><trkpt lat="46.28524050849988" lon="12.936155641453587"><ele>351.0</ele><time>2026-04-26T11:10:43Z</time></trkpt><trkpt lat="46.28547113434469" lon="12.936104457690522"><ele>357.6666666666667</ele><time>2026-04-26T11:10:44Z</time></trkpt><trkpt lat="46.28570039663911" lon="12.936052558209186"><ele>364.33333333333337</ele><time>2026-04-26T11:10:45Z</time></trkpt><trkpt lat="46.28590323883391" lon="12.936002470020567"><ele>371.0</ele><time>2026-04-26T11:10:46Z</time></trkpt><trkpt lat="46.28611548536726" lon="12.935936987717376"><ele>370.0</ele><time>2026-04-26T11:10:47Z</time></trkpt><trkpt lat="46.28633064663065" lon="12.93583573037523"><ele>369.0</ele><time>2026-04-26T11:10:48Z</time></trkpt><trkpt lat="46.28654154290407" lon="12.935699410687889"><ele>369.0</ele><time>2026-04-26T11:10:49Z</time></trkpt><trkpt lat="46.2867443324197" lon="12.935536250907097"><ele>369.0</ele><time>2026-04-26T11:10:50Z</time></trkpt><trkpt lat="46.28695114996721" lon="12.93537246613831"><ele>369.0</ele><time>2026-04-26T11:10:51Z</time></trkpt><trkpt lat="46.28714302709945" lon="12.935223228343174"><ele>369.0</ele><time>2026-04-26T11:10:52Z</time></trkpt><trkpt lat="46.287305686365016" lon="12.935093899347336"><ele>369.0</ele><time>2026-04-26T11:10:53Z</time></trkpt><trkpt lat="46.28744210330221" lon="12.934974563970334"><ele>368.0</ele><time>2026-04-26T11:10:54Z</time></trkpt><trkpt lat="46.28754799647789" lon="12.934832878028258"><ele>367.0</ele><time>2026-04-26T11:10:55Z</time></trkpt><trkpt lat="46.287601293551056" lon="12.934617657021125"><ele>366.0</ele><time>2026-04-26T11:10:56Z</time></trkpt><trkpt lat="46.28763338216627" lon="12.934382553340269"><ele>365.6666666666667</ele><time>2026-04-26T11:10:57Z</time></trkpt><trkpt lat="46.287722718575715" lon="12.934172552827558"><ele>365.33333333333337</ele><time>2026-04-26T11:10:58Z</time></trkpt><trkpt lat="46.28784683164259" lon="12.933968948996911"><ele>365.0</ele><time>2026-04-26T11:10:59Z</time></trkpt><trkpt lat="46.287976903903925" lon="12.933728373268744"><ele>366.33333333333337</ele><time>2026-04-26T11:11:00Z</time></trkpt><trkpt lat="46.288126281275126" lon="12.933486197754627"><ele>367.6666666666667</ele><time>2026-04-26T11:11:01Z</time></trkpt><trkpt lat="46.28827195457404" lon="12.933263068598187"><ele>369.0</ele><time>2026-04-26T11:11:02Z</time></trkpt><trkpt lat="46.28839193777865" lon="12.933064929277375"><ele>369.0</ele><time>2026-04-26T11:11:03Z</time></trkpt><trkpt lat="46.288485735475305" lon="12.93287548760319"><ele>369.0</ele><time>2026-04-26T11:11:04Z</time></trkpt><trkpt lat="46.28858589157695" lon="12.932735675318812"><ele>369.0</ele><time>2026-04-26T11:11:05Z</time></trkpt><trkpt lat="46.28869795246067" lon="12.932686851804403"><ele>369.0</ele><time>2026-04-26T11:11:06Z</time></trkpt><trkpt lat="46.28884364408485" lon="12.93273264952663"><ele>374.66666666666663</ele><time>2026-04-26T11:11:07Z</time></trkpt><trkpt lat="46.28902402192514" lon="12.932766258559226"><ele>380.3333333333333</ele><time>2026-04-26T11:11:08Z</time></trkpt><trkpt lat="46.2892346218805" lon="12.932841226347328"><ele>386.0</ele><time>2026-04-26T11:11:09Z</time></trkpt><trkpt lat="46.28945197167951" lon="12.932889239374315"><ele>386.0</ele><time>2026-04-26T11:11:10Z</time></trkpt><trkpt lat="46.28966591359205" lon="12.932967130818803"><ele>386.0</ele><time>2026-04-26T11:11:11Z</time></trkpt><trkpt lat="46.28986780256343" lon="12.933041476667416"><ele>386.0</ele><time>2026-04-26T11:11:12Z</time></trkpt><trkpt lat="46.29008160888777" lon="12.933114842492541"><ele>383.0</ele><time>2026-04-26T11:11:13Z</time></trkpt><trkpt lat="46.290299604299676" lon="12.933184202015932"><ele>380.0</ele><time>2026-04-26T11:11:14Z</time></trkpt><trkpt lat="46.29052194309921" lon="12.933255025751214"><ele>378.33333333333337</ele><time>2026-04-26T11:11:15Z</time></trkpt><trkpt lat="46.29072681216119" lon="12.93334235217395"><ele>376.6666666666667</ele><time>2026-04-26T11:11:16Z</time></trkpt><trkpt lat="46.29092169250651" lon="12.933401358164222"><ele>375.0</ele><time>2026-04-26T11:11:17Z</time></trkpt><trkpt lat="46.29110046095685" lon="12.933480520255653"><ele>378.33333333333337</ele><time>2026-04-26T11:11:18Z</time></trkpt><trkpt lat="46.29127302540801" lon="12.93362446643298"><ele>381.6666666666667</ele><time>2026-04-26T11:11:19Z</time></trkpt><trkpt lat="46.291461909674354" lon="12.933751406823713"><ele>385.0</ele><time>2026-04-26T11:11:20Z</time></trkpt><trkpt lat="46.29164450881593" lon="12.933940403757427"><ele>385.0</ele><time>2026-04-26T11:11:21Z</time></trkpt><trkpt lat="46.29184268020489" lon="12.93412030789307"><ele>385.0</ele><time>2026-04-26T11:11:22Z</time></trkpt><trkpt lat="46.29202984052267" lon="12.934295779451656"><ele>386.6666666666667</ele><time>2026-04-26T11:11:23Z</time></trkpt><trkpt lat="46.292205863357964" lon="12.934457146634482"><ele>388.33333333333337</ele><time>2026-04-26T11:11:24Z</time></trkpt><trkpt lat="46.29239777392904" lon="12.93463522233202"><ele>390.0</ele><time>2026-04-26T11:11:25Z</time></trkpt><trkpt lat="46.29258598373371" lon="12.934809981777986"><ele>390.0</ele><time>2026-04-26T11:11:26Z</time></trkpt><trkpt lat="46.292766382845535" lon="12.934969101004295"><ele>390.0</ele><time>2026-04-26T11:11:27Z</time></trkpt><trkpt lat="46.29290934727114" lon="12.935129008664083"><ele>390.0</ele><time>2026-04-26T11:11:28Z</time></trkpt><trkpt lat="46.293043948040534" lon="12.93527496351909"><ele>389.5</ele><time>2026-04-26T11:11:29Z</time></trkpt><trkpt lat="46.29316169081625" lon="12.935398263052456"><ele>389.0</ele><time>2026-04-26T11:11:30Z</time></trkpt><trkpt lat="46.29327186834391" lon="12.935485561614495"><ele>388.5</ele><time>2026-04-26T11:11:31Z</time></trkpt><trkpt lat="46.29342253830956" lon="12.935532400017946"><ele>388.0</ele><time>2026-04-26T11:11:32Z</time></trkpt><trkpt lat="46.29354213277107" lon="12.935502386040719"><ele>388.0</ele><time>2026-04-26T11:11:33Z</time></trkpt><trkpt lat="46.29365684848986" lon="12.935402663885755"><ele>388.0</ele><time>2026-04-26T11:11:34Z</time></trkpt><trkpt lat="46.29376034153866" lon="12.935231668841286"><ele>388.0</ele><time>2026-04-26T11:11:35Z</time></trkpt><trkpt lat="46.293889358949905" lon="12.93502469991126"><ele>385.6666666666667</ele><time>2026-04-26T11:11:36Z</time></trkpt><trkpt lat="46.29402747366541" lon="12.934798675798904"><ele>383.33333333333337</ele><time>2026-04-26T11:11:37Z</time></trkpt><trkpt lat="46.294162590537574" lon="12.93457755762838"><ele>381.0</ele><time>2026-04-26T11:11:38Z</time></trkpt><trkpt lat="46.29428711280012" lon="12.934373777522442"><ele>386.66666666666663</ele><time>2026-04-26T11:11:39Z</time></trkpt><trkpt lat="46.29441281782788" lon="12.934176379957876"><ele>392.3333333333333</ele><time>2026-04-26T11:11:40Z</time></trkpt><trkpt lat="46.294551699879804" lon="12.934028439127761"><ele>398.0</ele><time>2026-04-26T11:11:41Z</time></trkpt><trkpt lat="46.2947385634131" lon="12.933928391616758"><ele>391.3333333333333</ele><time>2026-04-26T11:11:42Z</time></trkpt><trkpt lat="46.29495202046878" lon="12.93386943584988"><ele>384.66666666666663</ele><time>2026-04-26T11:11:43Z</time></trkpt><trkpt lat="46.29517477010873" lon="12.93379371838881"><ele>378.0</ele><time>2026-04-26T11:11:44Z</time></trkpt><trkpt lat="46.29538348705827" lon="12.933735337840716"><ele>377.0</ele><time>2026-04-26T11:11:45Z</time></trkpt><trkpt lat="46.29560441640555" lon="12.933676419537317"><ele>376.0</ele><time>2026-04-26T11:11:46Z</time></trkpt><trkpt lat="46.2958222143556" lon="12.933619582268607"><ele>375.0</ele><time>2026-04-26T11:11:47Z</time></trkpt><trkpt lat="46.29604441798791" lon="12.933565143849394"><ele>375.0</ele><time>2026-04-26T11:11:48Z</time></trkpt><trkpt lat="46.29625981751863" lon="12.933512234349017"><ele>375.0</ele><time>2026-04-26T11:11:49Z</time></trkpt><trkpt lat="46.29645714465197" lon="12.933467487180996"><ele>375.0</ele><time>2026-04-26T11:11:50Z</time></trkpt><trkpt lat="46.29664946862823" lon="12.93342144786107"><ele>376.0</ele><time>2026-04-26T11:11:51Z</time></trkpt><trkpt lat="46.29683703155869" lon="12.933348609883183"><ele>377.0</ele><time>2026-04-26T11:11:52Z</time></trkpt><trkpt lat="46.29703041386068" lon="12.933210363352046"><ele>378.0</ele><time>2026-04-26T11:11:53Z</time></trkpt><trkpt lat="46.297222593817445" lon="12.933045911543095"><ele>375.0</ele><time>2026-04-26T11:11:54Z</time></trkpt><trkpt lat="46.2974313211402" lon="12.932870574301171"><ele>372.0</ele><time>2026-04-26T11:11:55Z</time></trkpt><trkpt lat="46.29764418690565" lon="12.932699840788043"><ele>370.0</ele><time>2026-04-26T11:11:56Z</time></trkpt><trkpt lat="46.29784816186612" lon="12.932508084180068"><ele>368.0</ele><time>2026-04-26T11:11:57Z</time></trkpt><trkpt lat="46.29804286782609" lon="12.932334630128926"><ele>366.6666666666667</ele><time>2026-04-26T11:11:58Z</time></trkpt><trkpt lat="46.298234527873305" lon="12.932166046418489"><ele>365.3333333333333</ele><time>2026-04-26T11:11:59Z</time></trkpt><trkpt lat="46.29842576954544" lon="12.932000460057166"><ele>364.0</ele><time>2026-04-26T11:12:00Z</time></trkpt><trkpt lat="46.298617949564424" lon="12.931851099248403"><ele>364.0</ele><time>2026-04-26T11:12:01Z</time></trkpt><trkpt lat="46.29881456050208" lon="12.931731378335618"><ele>364.0</ele><time>2026-04-26T11:12:02Z</time></trkpt><trkpt lat="46.29901207914297" lon="12.931655875251513"><ele>364.0</ele><time>2026-04-26T11:12:03Z</time></trkpt><trkpt lat="46.29921551476683" lon="12.931592900508468"><ele>364.3333333333333</ele><time>2026-04-26T11:12:04Z</time></trkpt><trkpt lat="46.299416389640896" lon="12.931512971614616"><ele>364.6666666666667</ele><time>2026-04-26T11:12:05Z</time></trkpt><trkpt lat="46.29961989557299" lon="12.931459532180678"><ele>365.0</ele><time>2026-04-26T11:12:06Z</time></trkpt><trkpt lat="46.299821513912775" lon="12.931397581589103"><ele>365.0</ele><time>2026-04-26T11:12:07Z</time></trkpt><trkpt lat="46.30002354424802" lon="12.931356047318737"><ele>365.0</ele><time>2026-04-26T11:12:08Z</time></trkpt><trkpt lat="46.300224141385456" lon="12.93129501822904"><ele>365.0</ele><time>2026-04-26T11:12:09Z</time></trkpt><trkpt lat="46.30042080644822" lon="12.9312118630009"><ele>367.6666666666667</ele><time>2026-04-26T11:12:10Z</time></trkpt><trkpt lat="46.300615825609306" lon="12.931131102604779"><ele>370.3333333333333</ele><time>2026-04-26T11:12:11Z</time></trkpt><trkpt lat="46.30081879282508" lon="12.931070739070371"><ele>373.0</ele><time>2026-04-26T11:12:12Z</time></trkpt><trkpt lat="46.301027723722044" lon="12.931036935475953"><ele>373.0</ele><time>2026-04-26T11:12:13Z</time></trkpt><trkpt lat="46.301234967885776" lon="12.930997328076808"><ele>373.0</ele><time>2026-04-26T11:12:14Z</time></trkpt><trkpt lat="46.30143976799119" lon="12.930939337334161"><ele>373.0</ele><time>2026-04-26T11:12:15Z</time></trkpt><trkpt lat="46.301628360459674" lon="12.930871838098208"><ele>375.0</ele><time>2026-04-26T11:12:16Z</time></trkpt><trkpt lat="46.30180683190344" lon="12.9308786724141"><ele>377.0</ele><time>2026-04-26T11:12:17Z</time></trkpt><trkpt lat="46.301984777429865" lon="12.930886705887294"><ele>379.0</ele><time>2026-04-26T11:12:18Z</time></trkpt><trkpt lat="46.302172919429545" lon="12.930981113858845"><ele>378.66666666666663</ele><time>2026-04-26T11:12:19Z</time></trkpt><trkpt lat="46.30237626563873" lon="12.931060649266472"><ele>378.3333333333333</ele><time>2026-04-26T11:12:20Z</time></trkpt><trkpt lat="46.30259426338951" lon="12.93115142364491"><ele>378.0</ele><time>2026-04-26T11:12:21Z</time></trkpt><trkpt lat="46.302822310162746" lon="12.931247218443227"><ele>378.0</ele><time>2026-04-26T11:12:22Z</time></trkpt><trkpt lat="46.303061746060905" lon="12.931325592333259"><ele>378.0</ele><time>2026-04-26T11:12:23Z</time></trkpt><trkpt lat="46.303296711255236" lon="12.93142118132198"><ele>374.5</ele><time>2026-04-26T11:12:24Z</time></trkpt><trkpt lat="46.30353289830764" lon="12.931497102638703"><ele>371.0</ele><time>2026-04-26T11:12:25Z</time></trkpt><trkpt lat="46.30376958132309" lon="12.931540469504007"><ele>371.0</ele><time>2026-04-26T11:12:26Z</time></trkpt><trkpt lat="46.3040093100668" lon="12.93154317122149"><ele>371.0</ele><time>2026-04-26T11:12:27Z</time></trkpt><trkpt lat="46.30425078152601" lon="12.931523761621806"><ele>371.0</ele><time>2026-04-26T11:12:28Z</time></trkpt><trkpt lat="46.30449757718844" lon="12.931534536096235"><ele>371.0</ele><time>2026-04-26T11:12:29Z</time></trkpt><trkpt lat="46.304747396872735" lon="12.93157421877139"><ele>370.0</ele><time>2026-04-26T11:12:30.001Z</time></trkpt><trkpt lat="46.30500317436637" lon="12.931632642127527"><ele>369.0</ele><time>2026-04-26T11:12:31.001Z</time></trkpt><trkpt lat="46.305253295270035" lon="12.931679320510261"><ele>383.0</ele><time>2026-04-26T11:12:32Z</time></trkpt><trkpt lat="46.30549113344709" lon="12.931744362771811"><ele>397.0</ele><time>2026-04-26T11:12:33Z</time></trkpt><trkpt lat="46.305733224243355" lon="12.931773261426592"><ele>397.0</ele><time>2026-04-26T11:12:34Z</time></trkpt><trkpt lat="46.30595549303501" lon="12.931835736108118"><ele>397.0</ele><time>2026-04-26T11:12:35Z</time></trkpt><trkpt lat="46.30618344071263" lon="12.931930521673511"><ele>397.0</ele><time>2026-04-26T11:12:36Z</time></trkpt><trkpt lat="46.30639885378518" lon="12.932072787760827"><ele>397.0</ele><time>2026-04-26T11:12:37Z</time></trkpt><trkpt lat="46.30658799379113" lon="12.932226474389282"><ele>392.6666666666667</ele><time>2026-04-26T11:12:38Z</time></trkpt><trkpt lat="46.30677788902755" lon="12.932380774696528"><ele>388.33333333333337</ele><time>2026-04-26T11:12:39Z</time></trkpt><trkpt lat="46.306968109206245" lon="12.932534422285345"><ele>384.0</ele><time>2026-04-26T11:12:40Z</time></trkpt><trkpt lat="46.30713620639569" lon="12.932657429666508"><ele>385.0</ele><time>2026-04-26T11:12:41Z</time></trkpt><trkpt lat="46.3073448245584" lon="12.932809851445226"><ele>386.0</ele><time>2026-04-26T11:12:42Z</time></trkpt><trkpt lat="46.307541947384856" lon="12.93296837462423"><ele>386.0</ele><time>2026-04-26T11:12:43Z</time></trkpt><trkpt lat="46.307720611775025" lon="12.93310900630204"><ele>386.0</ele><time>2026-04-26T11:12:44Z</time></trkpt><trkpt lat="46.307893636751906" lon="12.933235379842783"><ele>386.0</ele><time>2026-04-26T11:12:45Z</time></trkpt><trkpt lat="46.30805242893947" lon="12.933388441476074"><ele>383.66666666666663</ele><time>2026-04-26T11:12:46Z</time></trkpt><trkpt lat="46.30819773065474" lon="12.933578066874244"><ele>381.3333333333333</ele><time>2026-04-26T11:12:47Z</time></trkpt><trkpt lat="46.30834668712702" lon="12.933755349129683"><ele>379.0</ele><time>2026-04-26T11:12:48Z</time></trkpt><trkpt lat="46.308499746629586" lon="12.93393362710046"><ele>379.0</ele><time>2026-04-26T11:12:49Z</time></trkpt><trkpt lat="46.30865691197954" lon="12.934104899360525"><ele>379.0</ele><time>2026-04-26T11:12:50Z</time></trkpt><trkpt lat="46.3088116375236" lon="12.934302746203839"><ele>379.0</ele><time>2026-04-26T11:12:51Z</time></trkpt><trkpt lat="46.30902580507388" lon="12.93443067003472"><ele>382.5</ele><time>2026-04-26T11:12:52Z</time></trkpt><trkpt lat="46.30920299195305" lon="12.934626137615702"><ele>386.0</ele><time>2026-04-26T11:12:53Z</time></trkpt><trkpt lat="46.309375497763504" lon="12.934842375612948"><ele>386.0</ele><time>2026-04-26T11:12:54Z</time></trkpt><trkpt lat="46.309537068958655" lon="12.93507551132388"><ele>386.0</ele><time>2026-04-26T11:12:55Z</time></trkpt><trkpt lat="46.30968336685164" lon="12.935294686063038"><ele>386.0</ele><time>2026-04-26T11:12:56Z</time></trkpt><trkpt lat="46.30980444750957" lon="12.935487470985482"><ele>386.0</ele><time>2026-04-26T11:12:57Z</time></trkpt><trkpt lat="46.30993512902221" lon="12.935641264660008"><ele>386.0</ele><time>2026-04-26T11:12:58Z</time></trkpt><trkpt lat="46.31007800448456" lon="12.935733434340323"><ele>386.0</ele><time>2026-04-26T11:12:59Z</time></trkpt><trkpt lat="46.31023612080601" lon="12.935746723448796"><ele>386.0</ele><time>2026-04-26T11:13:00Z</time></trkpt><trkpt lat="46.31040223736288" lon="12.935738755735647"><ele>386.0</ele><time>2026-04-26T11:13:01Z</time></trkpt><trkpt lat="46.310568697393464" lon="12.935736334153626"><ele>386.0</ele><time>2026-04-26T11:13:02Z</time></trkpt><trkpt lat="46.310731796474165" lon="12.935741005245054"><ele>384.3333333333333</ele><time>2026-04-26T11:13:03Z</time></trkpt><trkpt lat="46.310905898646716" lon="12.93574339640967"><ele>382.66666666666663</ele><time>2026-04-26T11:13:04Z</time></trkpt><trkpt lat="46.31107833395534" lon="12.93574018574174"><ele>381.0</ele><time>2026-04-26T11:13:05Z</time></trkpt><trkpt lat="46.311241248481466" lon="12.935757242269213"><ele>381.0</ele><time>2026-04-26T11:13:06Z</time></trkpt><trkpt lat="46.311385986446254" lon="12.935799905453674"><ele>381.0</ele><time>2026-04-26T11:13:07Z</time></trkpt><trkpt lat="46.31152388668057" lon="12.935864652924058"><ele>381.0</ele><time>2026-04-26T11:13:08Z</time></trkpt><trkpt lat="46.31165805050299" lon="12.935936836518223"><ele>381.0</ele><time>2026-04-26T11:13:09Z</time></trkpt><trkpt lat="46.3117930310888" lon="12.936017951800922"><ele>385.0</ele><time>2026-04-26T11:13:10Z</time></trkpt><trkpt lat="46.31193044996477" lon="12.936067402319953"><ele>389.0</ele><time>2026-04-26T11:13:11Z</time></trkpt><trkpt lat="46.3120719130384" lon="12.936132945178432"><ele>393.0</ele><time>2026-04-26T11:13:12Z</time></trkpt><trkpt lat="46.312204469559795" lon="12.936206451060542"><ele>397.0</ele><time>2026-04-26T11:13:13Z</time></trkpt><trkpt lat="46.31233037279494" lon="12.936287830936507"><ele>398.75</ele><time>2026-04-26T11:13:14Z</time></trkpt><trkpt lat="46.31245531629839" lon="12.936388335697709"><ele>400.5</ele><time>2026-04-26T11:13:15Z</time></trkpt><trkpt lat="46.312585961985604" lon="12.936452444524951"><ele>402.25</ele><time>2026-04-26T11:13:16Z</time></trkpt><trkpt lat="46.312739190055446" lon="12.93650374519973"><ele>404.0</ele><time>2026-04-26T11:13:17Z</time></trkpt><trkpt lat="46.3128840830564" lon="12.936557142160986"><ele>404.0</ele><time>2026-04-26T11:13:18Z</time></trkpt><trkpt lat="46.31303650858838" lon="12.93661749732173"><ele>404.0</ele><time>2026-04-26T11:13:19Z</time></trkpt><trkpt lat="46.313189950669155" lon="12.936682806497979"><ele>404.0</ele><time>2026-04-26T11:13:20Z</time></trkpt><trkpt lat="46.31334962182681" lon="12.93676375108875"><ele>408.66666666666663</ele><time>2026-04-26T11:13:21Z</time></trkpt><trkpt lat="46.31349404410868" lon="12.936841554695462"><ele>413.33333333333337</ele><time>2026-04-26T11:13:22Z</time></trkpt><trkpt lat="46.313648751355245" lon="12.93690395913701"><ele>418.0</ele><time>2026-04-26T11:13:23Z</time></trkpt><trkpt lat="46.31382881949107" lon="12.936919011938997"><ele>413.6666666666667</ele><time>2026-04-26T11:13:24Z</time></trkpt><trkpt lat="46.3140159878561" lon="12.936923355083538"><ele>409.33333333333337</ele><time>2026-04-26T11:13:25Z</time></trkpt><trkpt lat="46.31421473735604" lon="12.936938934617677"><ele>405.0</ele><time>2026-04-26T11:13:26Z</time></trkpt><trkpt lat="46.31439470480209" lon="12.936985365012317"><ele>405.0</ele><time>2026-04-26T11:13:27Z</time></trkpt><trkpt lat="46.314572327874465" lon="12.93706220688668"><ele>405.0</ele><time>2026-04-26T11:13:28Z</time></trkpt><trkpt lat="46.3147399210969" lon="12.937164963955317"><ele>405.0</ele><time>2026-04-26T11:13:29Z</time></trkpt><trkpt lat="46.31490100906947" lon="12.937270180797965"><ele>401.33333333333337</ele><time>2026-04-26T11:13:30Z</time></trkpt><trkpt lat="46.31506423005064" lon="12.937359375400113"><ele>397.6666666666667</ele><time>2026-04-26T11:13:31Z</time></trkpt><trkpt lat="46.31523731901471" lon="12.937435279778201"><ele>394.0</ele><time>2026-04-26T11:13:32Z</time></trkpt><trkpt lat="46.315407516174226" lon="12.937510325489926"><ele>396.6666666666667</ele><time>2026-04-26T11:13:33Z</time></trkpt><trkpt lat="46.3155797825026" lon="12.937580644462793"><ele>399.33333333333337</ele><time>2026-04-26T11:13:34Z</time></trkpt><trkpt lat="46.31575186855123" lon="12.93765250309113"><ele>402.0</ele><time>2026-04-26T11:13:35Z</time></trkpt><trkpt lat="46.31590554620743" lon="12.93772417159124"><ele>402.0</ele><time>2026-04-26T11:13:36Z</time></trkpt><trkpt lat="46.316044001030605" lon="12.937784701557757"><ele>402.0</ele><time>2026-04-26T11:13:37Z</time></trkpt><trkpt lat="46.316174156740786" lon="12.937849419734718"><ele>402.0</ele><time>2026-04-26T11:13:38Z</time></trkpt><trkpt lat="46.31629966432375" lon="12.937953158331164"><ele>402.0</ele><time>2026-04-26T11:13:39Z</time></trkpt><trkpt lat="46.31641065820788" lon="12.938100334109212"><ele>402.33333333333337</ele><time>2026-04-26T11:13:40Z</time></trkpt><trkpt lat="46.316523724059124" lon="12.93825070872275"><ele>402.6666666666667</ele><time>2026-04-26T11:13:41Z</time></trkpt><trkpt lat="46.316636663615405" lon="12.938403772329934"><ele>403.0</ele><time>2026-04-26T11:13:42Z</time></trkpt><trkpt lat="46.316763592414205" lon="12.938556806113887"><ele>403.0</ele><time>2026-04-26T11:13:43Z</time></trkpt><trkpt lat="46.316888664173156" lon="12.938709401547417"><ele>403.0</ele><time>2026-04-26T11:13:44Z</time></trkpt><trkpt lat="46.31701340523977" lon="12.938862769983848"><ele>403.0</ele><time>2026-04-26T11:13:45Z</time></trkpt><trkpt lat="46.317137692222765" lon="12.939012755298489"><ele>401.0</ele><time>2026-04-26T11:13:46Z</time></trkpt><trkpt lat="46.31726417225178" lon="12.93916719822317"><ele>399.0</ele><time>2026-04-26T11:13:47Z</time></trkpt><trkpt lat="46.317395776412155" lon="12.939304799973614"><ele>397.0</ele><time>2026-04-26T11:13:48Z</time></trkpt><trkpt lat="46.317542142421935" lon="12.939424037955147"><ele>401.6666666666667</ele><time>2026-04-26T11:13:49Z</time></trkpt><trkpt lat="46.31769253499033" lon="12.93952695131525"><ele>406.33333333333337</ele><time>2026-04-26T11:13:50Z</time></trkpt><trkpt lat="46.31784379121078" lon="12.9395975545144"><ele>411.0</ele><time>2026-04-26T11:13:51Z</time></trkpt><trkpt lat="46.31799728832316" lon="12.939632798809361"><ele>408.5</ele><time>2026-04-26T11:13:52Z</time></trkpt><trkpt lat="46.31813802829561" lon="12.939641038712313"><ele>406.0</ele><time>2026-04-26T11:13:53Z</time></trkpt><trkpt lat="46.318263919576275" lon="12.939683656753452"><ele>403.5</ele><time>2026-04-26T11:13:54Z</time></trkpt><trkpt lat="46.31836918588956" lon="12.939768843533214"><ele>401.0</ele><time>2026-04-26T11:13:55Z</time></trkpt><trkpt lat="46.31847666359481" lon="12.939831525989295"><ele>401.0</ele><time>2026-04-26T11:13:56Z</time></trkpt><trkpt lat="46.31860971592629" lon="12.939832266299714"><ele>401.0</ele><time>2026-04-26T11:13:57Z</time></trkpt><trkpt lat="46.31875688361748" lon="12.939787238653594"><ele>401.0</ele><time>2026-04-26T11:13:58Z</time></trkpt><trkpt lat="46.31891487094277" lon="12.939743488607935"><ele>401.0</ele><time>2026-04-26T11:13:59Z</time></trkpt><trkpt lat="46.31908636179787" lon="12.939708006189372"><ele>401.66666666666663</ele><time>2026-04-26T11:14:00Z</time></trkpt><trkpt lat="46.31926758082849" lon="12.939662055502877"><ele>402.33333333333337</ele><time>2026-04-26T11:14:01Z</time></trkpt><trkpt lat="46.319450954929074" lon="12.939625081498727"><ele>403.0</ele><time>2026-04-26T11:14:02Z</time></trkpt><trkpt lat="46.319625830010274" lon="12.93960132329539"><ele>403.33333333333337</ele><time>2026-04-26T11:14:03Z</time></trkpt><trkpt lat="46.3197954501759" lon="12.939645851272424"><ele>403.66666666666663</ele><time>2026-04-26T11:14:04Z</time></trkpt><trkpt lat="46.31996632575715" lon="12.93968621051672"><ele>404.0</ele><time>2026-04-26T11:14:05Z</time></trkpt><trkpt lat="46.320139136036666" lon="12.93976325985848"><ele>404.0</ele><time>2026-04-26T11:14:06Z</time></trkpt><trkpt lat="46.32031269058277" lon="12.939872527071662"><ele>404.0</ele><time>2026-04-26T11:14:07Z</time></trkpt><trkpt lat="46.3205032097795" lon="12.939987667688104"><ele>404.0</ele><time>2026-04-26T11:14:08Z</time></trkpt><trkpt lat="46.32068764252407" lon="12.940129823955802"><ele>413.0</ele><time>2026-04-26T11:14:09Z</time></trkpt><trkpt lat="46.32085863381224" lon="12.940253580532875"><ele>422.0</ele><time>2026-04-26T11:14:10Z</time></trkpt><trkpt lat="46.32103983117279" lon="12.940372534152443"><ele>431.0</ele><time>2026-04-26T11:14:11Z</time></trkpt><trkpt lat="46.32123190869529" lon="12.940442338070227"><ele>428.66666666666663</ele><time>2026-04-26T11:14:12Z</time></trkpt><trkpt lat="46.32143078852066" lon="12.940462757676316"><ele>426.33333333333337</ele><time>2026-04-26T11:14:13Z</time></trkpt><trkpt lat="46.321601157758124" lon="12.940486164082085"><ele>424.0</ele><time>2026-04-26T11:14:14Z</time></trkpt><trkpt lat="46.321730516155526" lon="12.940559871134369"><ele>424.0</ele><time>2026-04-26T11:14:15Z</time></trkpt><trkpt lat="46.32186048762879" lon="12.940676211093608"><ele>424.0</ele><time>2026-04-26T11:14:16Z</time></trkpt><trkpt lat="46.3219696019998" lon="12.940797445144042"><ele>424.0</ele><time>2026-04-26T11:14:17Z</time></trkpt><trkpt lat="46.322085723904266" lon="12.940898573905772"><ele>424.0</ele><time>2026-04-26T11:14:18Z</time></trkpt><trkpt lat="46.322215837991024" lon="12.940943455899635"><ele>423.6666666666667</ele><time>2026-04-26T11:14:19Z</time></trkpt><trkpt lat="46.32236176472776" lon="12.9408968476721"><ele>423.33333333333337</ele><time>2026-04-26T11:14:20Z</time></trkpt><trkpt lat="46.32250868017864" lon="12.94078799779647"><ele>423.0</ele><time>2026-04-26T11:14:21Z</time></trkpt><trkpt lat="46.32264265000334" lon="12.940721699029718"><ele>423.0</ele><time>2026-04-26T11:14:22Z</time></trkpt><trkpt lat="46.32275294440806" lon="12.940679589318066"><ele>423.0</ele><time>2026-04-26T11:14:23Z</time></trkpt><trkpt lat="46.32287603713695" lon="12.940677239189226"><ele>423.0</ele><time>2026-04-26T11:14:24Z</time></trkpt><trkpt lat="46.32301665100864" lon="12.940753086045516"><ele>423.0</ele><time>2026-04-26T11:14:25Z</time></trkpt><trkpt lat="46.32318462276759" lon="12.94076716459323"><ele>425.66666666666663</ele><time>2026-04-26T11:14:26Z</time></trkpt><trkpt lat="46.32334556230888" lon="12.940729707533055"><ele>428.3333333333333</ele><time>2026-04-26T11:14:27Z</time></trkpt><trkpt lat="46.32351203856199" lon="12.940636269772899"><ele>431.0</ele><time>2026-04-26T11:14:28Z</time></trkpt><trkpt lat="46.32368228332588" lon="12.94052633696904"><ele>431.0</ele><time>2026-04-26T11:14:29Z</time></trkpt><trkpt lat="46.32382481501775" lon="12.940413611847665"><ele>431.0</ele><time>2026-04-26T11:14:30.001Z</time></trkpt><trkpt lat="46.323973985097375" lon="12.940367672275602"><ele>431.0</ele><time>2026-04-26T11:14:31.001Z</time></trkpt><trkpt lat="46.3241444998898" lon="12.94035389817446"><ele>436.66666666666663</ele><time>2026-04-26T11:14:32.001Z</time></trkpt><trkpt lat="46.32431503814433" lon="12.940341216110973"><ele>442.33333333333337</ele><time>2026-04-26T11:14:33.001Z</time></trkpt><trkpt lat="46.324502178516134" lon="12.940277788395278"><ele>448.0</ele><time>2026-04-26T11:14:34.001Z</time></trkpt><trkpt lat="46.32468201217814" lon="12.94018943417852"><ele>453.5</ele><time>2026-04-26T11:14:35.001Z</time></trkpt><trkpt lat="46.32482960684263" lon="12.94011046719021"><ele>459.0</ele><time>2026-04-26T11:14:36.001Z</time></trkpt><trkpt lat="46.32495764912014" lon="12.9400635871591"><ele>464.5</ele><time>2026-04-26T11:14:37.001Z</time></trkpt><trkpt lat="46.32507901838014" lon="12.940074903608153"><ele>470.0</ele><time>2026-04-26T11:14:38Z</time></trkpt><trkpt lat="46.325251938752544" lon="12.940158709053325"><ele>470.0</ele><time>2026-04-26T11:14:39Z</time></trkpt><trkpt lat="46.32542632082474" lon="12.940202506295522"><ele>470.0</ele><time>2026-04-26T11:14:40Z</time></trkpt><trkpt lat="46.32561387191946" lon="12.940212064951531"><ele>470.0</ele><time>2026-04-26T11:14:41Z</time></trkpt><trkpt lat="46.32578669373219" lon="12.940211760902827"><ele>472.75</ele><time>2026-04-26T11:14:42Z</time></trkpt><trkpt lat="46.325928374806765" lon="12.940180063124204"><ele>475.5</ele><time>2026-04-26T11:14:43Z</time></trkpt><trkpt lat="46.32604895846635" lon="12.940120777651961"><ele>478.25</ele><time>2026-04-26T11:14:44Z</time></trkpt><trkpt lat="46.32615380648159" lon="12.940008561515242"><ele>481.0</ele><time>2026-04-26T11:14:45Z</time></trkpt><trkpt lat="46.326240682631216" lon="12.939906532954717"><ele>478.25</ele><time>2026-04-26T11:14:46Z</time></trkpt><trkpt lat="46.32635212742301" lon="12.939885670227467"><ele>475.5</ele><time>2026-04-26T11:14:47Z</time></trkpt><trkpt lat="46.32646143378962" lon="12.939833173447555"><ele>472.75</ele><time>2026-04-26T11:14:48Z</time></trkpt><trkpt lat="46.326550242525876" lon="12.939756893910229"><ele>470.0</ele><time>2026-04-26T11:14:49Z</time></trkpt><trkpt lat="46.32660365416652" lon="12.939576106838938"><ele>470.0</ele><time>2026-04-26T11:14:50Z</time></trkpt><trkpt lat="46.326686827632955" lon="12.939354246609541"><ele>470.0</ele><time>2026-04-26T11:14:51Z</time></trkpt><trkpt lat="46.326796991088365" lon="12.939177406062145"><ele>470.0</ele><time>2026-04-26T11:14:52Z</time></trkpt><trkpt lat="46.326905146517134" lon="12.939051761419133"><ele>470.3333333333333</ele><time>2026-04-26T11:14:53Z</time></trkpt><trkpt lat="46.32704338812926" lon="12.938987065283277"><ele>470.66666666666663</ele><time>2026-04-26T11:14:54Z</time></trkpt><trkpt lat="46.32723727699124" lon="12.9389670154187"><ele>471.0</ele><time>2026-04-26T11:14:55Z</time></trkpt><trkpt lat="46.32739665174175" lon="12.938939665441893"><ele>471.0</ele><time>2026-04-26T11:14:56Z</time></trkpt><trkpt lat="46.3275450994909" lon="12.938930052953058"><ele>471.0</ele><time>2026-04-26T11:14:57Z</time></trkpt><trkpt lat="46.327668985525776" lon="12.938873466141073"><ele>471.0</ele><time>2026-04-26T11:14:58Z</time></trkpt><trkpt lat="46.32778369383815" lon="12.93873102342504"><ele>471.0</ele><time>2026-04-26T11:14:59Z</time></trkpt><trkpt lat="46.32789585215801" lon="12.938534207728539"><ele>468.33333333333337</ele><time>2026-04-26T11:15:00Z</time></trkpt><trkpt lat="46.32798598479783" lon="12.938292711887538"><ele>465.6666666666667</ele><time>2026-04-26T11:15:01Z</time></trkpt><trkpt lat="46.32808153525343" lon="12.938133262825978"><ele>463.0</ele><time>2026-04-26T11:15:02Z</time></trkpt><trkpt lat="46.328185778671106" lon="12.938040017483159"><ele>463.0</ele><time>2026-04-26T11:15:03Z</time></trkpt><trkpt lat="46.32829993551737" lon="12.93799304649044"><ele>463.0</ele><time>2026-04-26T11:15:04Z</time></trkpt><trkpt lat="46.32843755079798" lon="12.937997328662272"><ele>463.0</ele><time>2026-04-26T11:15:05Z</time></trkpt><trkpt lat="46.32859213732488" lon="12.938053133733675"><ele>463.0</ele><time>2026-04-26T11:15:06Z</time></trkpt><trkpt lat="46.32876658456235" lon="12.938128689373098"><ele>464.6666666666667</ele><time>2026-04-26T11:15:07Z</time></trkpt><trkpt lat="46.328960192818705" lon="12.938191838856032"><ele>466.33333333333337</ele><time>2026-04-26T11:15:08Z</time></trkpt><trkpt lat="46.32914191097965" lon="12.938212228747211"><ele>468.0</ele><time>2026-04-26T11:15:09Z</time></trkpt><trkpt lat="46.329325660079355" lon="12.93822144951508"><ele>468.0</ele><time>2026-04-26T11:15:10Z</time></trkpt><trkpt lat="46.329512931502336" lon="12.938186447388345"><ele>468.0</ele><time>2026-04-26T11:15:11Z</time></trkpt><trkpt lat="46.329707178038745" lon="12.938135461260172"><ele>468.0</ele><time>2026-04-26T11:15:12Z</time></trkpt><trkpt lat="46.32988338394601" lon="12.938112953268766"><ele>471.75</ele><time>2026-04-26T11:15:13Z</time></trkpt><trkpt lat="46.330039072273046" lon="12.938100486861341"><ele>475.5</ele><time>2026-04-26T11:15:14Z</time></trkpt><trkpt lat="46.33017934618431" lon="12.93810577241235"><ele>479.25</ele><time>2026-04-26T11:15:15Z</time></trkpt><trkpt lat="46.33031489760505" lon="12.938075433056412"><ele>483.0</ele><time>2026-04-26T11:15:16Z</time></trkpt><trkpt lat="46.330452981924594" lon="12.9379614641533"><ele>487.25</ele><time>2026-04-26T11:15:17Z</time></trkpt><trkpt lat="46.33059172516817" lon="12.937864322480511"><ele>491.5</ele><time>2026-04-26T11:15:18Z</time></trkpt><trkpt lat="46.33072210361755" lon="12.937820793351946"><ele>495.75</ele><time>2026-04-26T11:15:19Z</time></trkpt><trkpt lat="46.33083484531749" lon="12.937833573848966"><ele>500.0</ele><time>2026-04-26T11:15:20Z</time></trkpt><trkpt lat="46.33099925339537" lon="12.937911535184421"><ele>500.0</ele><time>2026-04-26T11:15:21Z</time></trkpt><trkpt lat="46.33116278451371" lon="12.937980270938567"><ele>500.0</ele><time>2026-04-26T11:15:22Z</time></trkpt><trkpt lat="46.33133057482881" lon="12.937975725094063"><ele>500.0</ele><time>2026-04-26T11:15:23Z</time></trkpt><trkpt lat="46.331522630452056" lon="12.937917256794757"><ele>500.0</ele><time>2026-04-26T11:15:24Z</time></trkpt><trkpt lat="46.331721175651865" lon="12.937881728215283"><ele>500.0</ele><time>2026-04-26T11:15:25Z</time></trkpt><trkpt lat="46.33191495475489" lon="12.937895969324996"><ele>500.0</ele><time>2026-04-26T11:15:26Z</time></trkpt><trkpt lat="46.33207771061089" lon="12.937900265961412"><ele>500.0</ele><time>2026-04-26T11:15:27Z</time></trkpt><trkpt lat="46.33222206855175" lon="12.937971581240385"><ele>500.0</ele><time>2026-04-26T11:15:28Z</time></trkpt><trkpt lat="46.33235231697262" lon="12.938065297814466"><ele>500.0</ele><time>2026-04-26T11:15:29Z</time></trkpt><trkpt lat="46.332452461282394" lon="12.938177947214992"><ele>500.0</ele><time>2026-04-26T11:15:30Z</time></trkpt><trkpt lat="46.33258335831913" lon="12.938347373363143"><ele>502.66666666666663</ele><time>2026-04-26T11:15:31Z</time></trkpt><trkpt lat="46.332687235445455" lon="12.938542341207064"><ele>505.33333333333337</ele><time>2026-04-26T11:15:32Z</time></trkpt><trkpt lat="46.33275643104666" lon="12.938756780168687"><ele>508.0</ele><time>2026-04-26T11:15:33Z</time></trkpt><trkpt lat="46.33281237662436" lon="12.938967979336894"><ele>508.0</ele><time>2026-04-26T11:15:34Z</time></trkpt><trkpt lat="46.33292011827796" lon="12.93912236306434"><ele>508.0</ele><time>2026-04-26T11:15:35Z</time></trkpt><trkpt lat="46.33306944957706" lon="12.939239554703985"><ele>508.0</ele><time>2026-04-26T11:15:36Z</time></trkpt><trkpt lat="46.33321624481723" lon="12.939366334766545"><ele>504.0</ele><time>2026-04-26T11:15:37Z</time></trkpt><trkpt lat="46.333365304502514" lon="12.939481368255013"><ele>500.0</ele><time>2026-04-26T11:15:38Z</time></trkpt><trkpt lat="46.33349822484748" lon="12.939566452511592"><ele>496.0</ele><time>2026-04-26T11:15:39Z</time></trkpt><trkpt lat="46.333638429024106" lon="12.939593653235859"><ele>496.0</ele><time>2026-04-26T11:15:40Z</time></trkpt><trkpt lat="46.33379369848597" lon="12.939558595118752"><ele>496.0</ele><time>2026-04-26T11:15:41Z</time></trkpt><trkpt lat="46.33395028098845" lon="12.939479071193578"><ele>496.0</ele><time>2026-04-26T11:15:42Z</time></trkpt><trkpt lat="46.3341001384576" lon="12.93936078483872"><ele>495.25</ele><time>2026-04-26T11:15:43Z</time></trkpt><trkpt lat="46.334238803583354" lon="12.939282022000187"><ele>494.5</ele><time>2026-04-26T11:15:44Z</time></trkpt><trkpt lat="46.334364568519334" lon="12.939219814476887"><ele>493.75</ele><time>2026-04-26T11:15:45Z</time></trkpt><trkpt lat="46.334473480671974" lon="12.939102872191643"><ele>493.0</ele><time>2026-04-26T11:15:46Z</time></trkpt><trkpt lat="46.33455068655006" lon="12.93891210968259"><ele>489.33333333333337</ele><time>2026-04-26T11:15:47Z</time></trkpt><trkpt lat="46.33462117448541" lon="12.938684097194573"><ele>485.66666666666663</ele><time>2026-04-26T11:15:48Z</time></trkpt><trkpt lat="46.334690158086225" lon="12.938463753233675"><ele>482.0</ele><time>2026-04-26T11:15:49Z</time></trkpt><trkpt lat="46.334762856406975" lon="12.938285249853589"><ele>489.66666666666663</ele><time>2026-04-26T11:15:50Z</time></trkpt><trkpt lat="46.334870997812494" lon="12.938128036974357"><ele>497.33333333333337</ele><time>2026-04-26T11:15:51Z</time></trkpt><trkpt lat="46.33497164665072" lon="12.937967396371873"><ele>505.0</ele><time>2026-04-26T11:15:52Z</time></trkpt><trkpt lat="46.335048185204045" lon="12.93775037876085"><ele>502.33333333333337</ele><time>2026-04-26T11:15:53Z</time></trkpt><trkpt lat="46.33508393362671" lon="12.937509315125617"><ele>499.66666666666663</ele><time>2026-04-26T11:15:54Z</time></trkpt><trkpt lat="46.335101472104206" lon="12.937251595031816"><ele>497.0</ele><time>2026-04-26T11:15:55Z</time></trkpt><trkpt lat="46.335137535804726" lon="12.936988556554478"><ele>497.0</ele><time>2026-04-26T11:15:56Z</time></trkpt><trkpt lat="46.33519411408734" lon="12.936727319879687"><ele>497.0</ele><time>2026-04-26T11:15:57Z</time></trkpt><trkpt lat="46.335271413385826" lon="12.936463470703428"><ele>497.0</ele><time>2026-04-26T11:15:58Z</time></trkpt><trkpt lat="46.33535934994801" lon="12.936211433863093"><ele>494.3333333333333</ele><time>2026-04-26T11:15:59Z</time></trkpt><trkpt lat="46.335459591069075" lon="12.93596742231257"><ele>491.66666666666663</ele><time>2026-04-26T11:16:00Z</time></trkpt><trkpt lat="46.335564100383614" lon="12.935728670420529"><ele>489.0</ele><time>2026-04-26T11:16:01Z</time></trkpt><trkpt lat="46.33566991063555" lon="12.935495250065152"><ele>497.0</ele><time>2026-04-26T11:16:02Z</time></trkpt><trkpt lat="46.335777423691475" lon="12.935298279066554"><ele>505.0</ele><time>2026-04-26T11:16:03Z</time></trkpt><trkpt lat="46.33587169601972" lon="12.935087502558114"><ele>513.0</ele><time>2026-04-26T11:16:04Z</time></trkpt><trkpt lat="46.33593703564179" lon="12.93484366264463"><ele>513.0</ele><time>2026-04-26T11:16:05Z</time></trkpt><trkpt lat="46.33598094584395" lon="12.934606031827936"><ele>513.0</ele><time>2026-04-26T11:16:06Z</time></trkpt><trkpt lat="46.33601466036096" lon="12.93440691955145"><ele>513.0</ele><time>2026-04-26T11:16:07Z</time></trkpt><trkpt lat="46.3360774423996" lon="12.934247707244136"><ele>513.0</ele><time>2026-04-26T11:16:08Z</time></trkpt><trkpt lat="46.33617783043085" lon="12.93413337755916"><ele>509.0</ele><time>2026-04-26T11:16:09Z</time></trkpt><trkpt lat="46.336296058241594" lon="12.934016745349911"><ele>505.0</ele><time>2026-04-26T11:16:10Z</time></trkpt><trkpt lat="46.336412160688255" lon="12.933864859365475"><ele>501.0</ele><time>2026-04-26T11:16:11Z</time></trkpt><trkpt lat="46.33653428906219" lon="12.933711725583626"><ele>514.6666666666666</ele><time>2026-04-26T11:16:12Z</time></trkpt><trkpt lat="46.33668276196371" lon="12.933596550895906"><ele>528.3333333333333</ele><time>2026-04-26T11:16:13Z</time></trkpt><trkpt lat="46.33684595602773" lon="12.933519157801161"><ele>542.0</ele><time>2026-04-26T11:16:14Z</time></trkpt><trkpt lat="46.33700433305241" lon="12.933422592677811"><ele>541.75</ele><time>2026-04-26T11:16:15Z</time></trkpt><trkpt lat="46.337130721018276" lon="12.933324612044219"><ele>541.5</ele><time>2026-04-26T11:16:16Z</time></trkpt><trkpt lat="46.33725444344558" lon="12.933272799772427"><ele>541.25</ele><time>2026-04-26T11:16:17Z</time></trkpt><trkpt lat="46.33739445777946" lon="12.933284161296536"><ele>541.0</ele><time>2026-04-26T11:16:18Z</time></trkpt><trkpt lat="46.33752204846406" lon="12.933251742574987"><ele>541.0</ele><time>2026-04-26T11:16:19Z</time></trkpt><trkpt lat="46.337651102664324" lon="12.933159810762893"><ele>541.0</ele><time>2026-04-26T11:16:20Z</time></trkpt><trkpt lat="46.337741150515484" lon="12.932977089695857"><ele>541.0</ele><time>2026-04-26T11:16:21Z</time></trkpt><trkpt lat="46.33782945389824" lon="12.932771589608537"><ele>544.0</ele><time>2026-04-26T11:16:22Z</time></trkpt><trkpt lat="46.33793923718759" lon="12.932554602335827"><ele>547.0</ele><time>2026-04-26T11:16:23Z</time></trkpt><trkpt lat="46.33807750546187" lon="12.932350059460834"><ele>550.0</ele><time>2026-04-26T11:16:24Z</time></trkpt><trkpt lat="46.33822669542675" lon="12.93217654136587"><ele>550.0</ele><time>2026-04-26T11:16:25Z</time></trkpt><trkpt lat="46.338381803984554" lon="12.932032492208812"><ele>550.0</ele><time>2026-04-26T11:16:26Z</time></trkpt><trkpt lat="46.33852588772188" lon="12.931900078327555"><ele>550.0</ele><time>2026-04-26T11:16:27Z</time></trkpt><trkpt lat="46.338660583762184" lon="12.931779739322314"><ele>553.0</ele><time>2026-04-26T11:16:28Z</time></trkpt><trkpt lat="46.33880550013598" lon="12.931679550844926"><ele>556.0</ele><time>2026-04-26T11:16:29Z</time></trkpt><trkpt lat="46.33894083991247" lon="12.931615704641452"><ele>559.0</ele><time>2026-04-26T11:16:30Z</time></trkpt><trkpt lat="46.339046779354035" lon="12.931507098118223"><ele>562.0</ele><time>2026-04-26T11:16:31Z</time></trkpt><trkpt lat="46.33913912530957" lon="12.931351368733004"><ele>562.0</ele><time>2026-04-26T11:16:32Z</time></trkpt><trkpt lat="46.339262427628896" lon="12.931211784160245"><ele>562.0</ele><time>2026-04-26T11:16:33Z</time></trkpt><trkpt lat="46.339403446511824" lon="12.931085369708793"><ele>562.0</ele><time>2026-04-26T11:16:34Z</time></trkpt><trkpt lat="46.33951590712648" lon="12.930901859916915"><ele>567.3333333333334</ele><time>2026-04-26T11:16:35Z</time></trkpt><trkpt lat="46.33960987135572" lon="12.930661254956583"><ele>572.6666666666666</ele><time>2026-04-26T11:16:36Z</time></trkpt><trkpt lat="46.33971936198343" lon="12.930427548630039"><ele>578.0</ele><time>2026-04-26T11:16:37Z</time></trkpt><trkpt lat="46.33982795627465" lon="12.93023613279772"><ele>567.0</ele><time>2026-04-26T11:16:38Z</time></trkpt><trkpt lat="46.339919347295464" lon="12.930053330023588"><ele>556.0</ele><time>2026-04-26T11:16:39Z</time></trkpt><trkpt lat="46.34001786957681" lon="12.929892405211145"><ele>545.0</ele><time>2026-04-26T11:16:40Z</time></trkpt><trkpt lat="46.34015342657335" lon="12.929763879578058"><ele>545.0</ele><time>2026-04-26T11:16:41Z</time></trkpt><trkpt lat="46.340315269702046" lon="12.929663103236246"><ele>545.0</ele><time>2026-04-26T11:16:42Z</time></trkpt><trkpt lat="46.34047536106044" lon="12.92950985009514"><ele>545.0</ele><time>2026-04-26T11:16:43Z</time></trkpt><trkpt lat="46.340630322589966" lon="12.929333610290152"><ele>551.0</ele><time>2026-04-26T11:16:44Z</time></trkpt><trkpt lat="46.34080055013314" lon="12.929186643781314"><ele>557.0</ele><time>2026-04-26T11:16:45Z</time></trkpt><trkpt lat="46.34094474526019" lon="12.929056937651197"><ele>563.0</ele><time>2026-04-26T11:16:46Z</time></trkpt><trkpt lat="46.34106728894959" lon="12.928945318431099"><ele>563.0</ele><time>2026-04-26T11:16:47Z</time></trkpt><trkpt lat="46.341173951851815" lon="12.928820944408738"><ele>563.0</ele><time>2026-04-26T11:16:48Z</time></trkpt><trkpt lat="46.34125082713833" lon="12.928657294111783"><ele>563.0</ele><time>2026-04-26T11:16:49Z</time></trkpt><trkpt lat="46.341299180721315" lon="12.928469343699973"><ele>563.0</ele><time>2026-04-26T11:16:50Z</time></trkpt><trkpt lat="46.34135541981953" lon="12.9282995301549"><ele>567.6</ele><time>2026-04-26T11:16:51Z</time></trkpt><trkpt lat="46.34142759845928" lon="12.928190963458249"><ele>572.1999999999999</ele><time>2026-04-26T11:16:52Z</time></trkpt><trkpt lat="46.34151943623639" lon="12.928152216203678"><ele>576.8</ele><time>2026-04-26T11:16:53Z</time></trkpt><trkpt lat="46.34159763853746" lon="12.928035224131074"><ele>581.4</ele><time>2026-04-26T11:16:54Z</time></trkpt><trkpt lat="46.34162355806769" lon="12.927862247950793"><ele>586.0</ele><time>2026-04-26T11:16:55Z</time></trkpt><trkpt lat="46.34163722009589" lon="12.927675567630807"><ele>581.0</ele><time>2026-04-26T11:16:56Z</time></trkpt><trkpt lat="46.34169102097058" lon="12.927484423503818"><ele>576.0</ele><time>2026-04-26T11:16:57Z</time></trkpt><trkpt lat="46.3417810798354" lon="12.927280212098507"><ele>571.0</ele><time>2026-04-26T11:16:58Z</time></trkpt><trkpt lat="46.34188105774494" lon="12.927055438908393"><ele>571.0</ele><time>2026-04-26T11:16:59Z</time></trkpt><trkpt lat="46.34196528591099" lon="12.926842971719545"><ele>571.0</ele><time>2026-04-26T11:17:00Z</time></trkpt><trkpt lat="46.34203964878566" lon="12.926623594804916"><ele>571.0</ele><time>2026-04-26T11:17:01Z</time></trkpt><trkpt lat="46.34210832264281" lon="12.926411657841316"><ele>572.0</ele><time>2026-04-26T11:17:02Z</time></trkpt><trkpt lat="46.342172272359136" lon="12.926219503996546"><ele>573.0</ele><time>2026-04-26T11:17:03Z</time></trkpt><trkpt lat="46.34222411071328" lon="12.926043802284694"><ele>574.0</ele><time>2026-04-26T11:17:04Z</time></trkpt><trkpt lat="46.34224475015991" lon="12.925871123956279"><ele>575.0</ele><time>2026-04-26T11:17:05Z</time></trkpt><trkpt lat="46.34225414057074" lon="12.925727332292462"><ele>578.0</ele><time>2026-04-26T11:17:06Z</time></trkpt><trkpt lat="46.34227047602826" lon="12.92561986389429"><ele>581.0</ele><time>2026-04-26T11:17:07Z</time></trkpt><trkpt lat="46.3423221804465" lon="12.92554622913026"><ele>584.0</ele><time>2026-04-26T11:17:08Z</time></trkpt><trkpt lat="46.34240570089709" lon="12.925567295795577"><ele>587.0</ele><time>2026-04-26T11:17:09Z</time></trkpt><trkpt lat="46.34246016864869" lon="12.925684370939269"><ele>590.0</ele><time>2026-04-26T11:17:10Z</time></trkpt><trkpt lat="46.34240543986809" lon="12.92583037264306"><ele>593.0</ele><time>2026-04-26T11:17:11Z</time></trkpt><trkpt lat="46.34236297412644" lon="12.925985880099999"><ele>596.6666666666666</ele><time>2026-04-26T11:17:12Z</time></trkpt><trkpt lat="46.34231476855634" lon="12.926189934248905"><ele>600.3333333333334</ele><time>2026-04-26T11:17:13Z</time></trkpt><trkpt lat="46.34230586803439" lon="12.926416568139729"><ele>604.0</ele><time>2026-04-26T11:17:14Z</time></trkpt><trkpt lat="46.34226128629729" lon="12.926638144700654"><ele>593.0</ele><time>2026-04-26T11:17:15Z</time></trkpt><trkpt lat="46.342211448762725" lon="12.926874718083695"><ele>582.0</ele><time>2026-04-26T11:17:16Z</time></trkpt><trkpt lat="46.34212999194958" lon="12.927102215258683"><ele>571.0</ele><time>2026-04-26T11:17:17Z</time></trkpt><trkpt lat="46.34205159714395" lon="12.927342166333338"><ele>576.0</ele><time>2026-04-26T11:17:18Z</time></trkpt><trkpt lat="46.342004066948775" lon="12.927586089489807"><ele>581.0</ele><time>2026-04-26T11:17:19Z</time></trkpt><trkpt lat="46.341918283649306" lon="12.927824855672123"><ele>586.0</ele><time>2026-04-26T11:17:20Z</time></trkpt><trkpt lat="46.34182644051284" lon="12.928072661508871"><ele>586.0</ele><time>2026-04-26T11:17:21Z</time></trkpt><trkpt lat="46.34174763859627" lon="12.928297790298071"><ele>586.0</ele><time>2026-04-26T11:17:22Z</time></trkpt><trkpt lat="46.34167105862098" lon="12.928478925876153"><ele>586.0</ele><time>2026-04-26T11:17:23Z</time></trkpt><trkpt lat="46.341582842557415" lon="12.928663555058908"><ele>592.0</ele><time>2026-04-26T11:17:24Z</time></trkpt><trkpt lat="46.341523687502715" lon="12.92889255411509"><ele>598.0</ele><time>2026-04-26T11:17:25Z</time></trkpt><trkpt lat="46.341521969224466" lon="12.92913716217251"><ele>604.0</ele><time>2026-04-26T11:17:26Z</time></trkpt><trkpt lat="46.34151979171431" lon="12.929347946435282"><ele>601.6</ele><time>2026-04-26T11:17:27Z</time></trkpt><trkpt lat="46.34150555642593" lon="12.929501520281812"><ele>599.2</ele><time>2026-04-26T11:17:28Z</time></trkpt><trkpt lat="46.34146327829481" lon="12.929597822687647"><ele>596.8000000000001</ele><time>2026-04-26T11:17:29Z</time></trkpt><trkpt lat="46.341365060068824" lon="12.929647546658236"><ele>594.4</ele><time>2026-04-26T11:17:30Z</time></trkpt><trkpt lat="46.3412519596657" lon="12.929716352267146"><ele>592.0</ele><time>2026-04-26T11:17:31Z</time></trkpt><trkpt lat="46.34117495602024" lon="12.929840198981545"><ele>592.0</ele><time>2026-04-26T11:17:32Z</time></trkpt><trkpt lat="46.34117647611504" lon="12.930000563425153"><ele>592.0</ele><time>2026-04-26T11:17:33Z</time></trkpt><trkpt lat="46.341227122676614" lon="12.93013556385505"><ele>592.0</ele><time>2026-04-26T11:17:34Z</time></trkpt><trkpt lat="46.341321226161185" lon="12.930228295147101"><ele>592.0</ele><time>2026-04-26T11:17:35Z</time></trkpt><trkpt lat="46.34143389122799" lon="12.930231545014484"><ele>592.0</ele><time>2026-04-26T11:17:36Z</time></trkpt><trkpt lat="46.34152542633207" lon="12.930159066554051"><ele>600.0</ele><time>2026-04-26T11:17:37Z</time></trkpt><trkpt lat="46.341580806273356" lon="12.930023614305417"><ele>608.0</ele><time>2026-04-26T11:17:38Z</time></trkpt><trkpt lat="46.341580297086125" lon="12.929846774211546"><ele>616.0</ele><time>2026-04-26T11:17:39Z</time></trkpt><trkpt lat="46.341578298409985" lon="12.929648321552127"><ele>624.0</ele><time>2026-04-26T11:17:40Z</time></trkpt><trkpt lat="46.34162274608428" lon="12.929437854771244"><ele>624.0</ele><time>2026-04-26T11:17:41Z</time></trkpt><trkpt lat="46.34168531460861" lon="12.929227711950913"><ele>624.0</ele><time>2026-04-26T11:17:42Z</time></trkpt><trkpt lat="46.34171021697378" lon="12.929035587517069"><ele>624.0</ele><time>2026-04-26T11:17:43Z</time></trkpt><trkpt lat="46.341746964534785" lon="12.928874847255633"><ele>624.0</ele><time>2026-04-26T11:17:44Z</time></trkpt><trkpt lat="46.341853802351885" lon="12.928740052272406"><ele>617.3333333333334</ele><time>2026-04-26T11:17:45Z</time></trkpt><trkpt lat="46.34199452804003" lon="12.928604877399271"><ele>610.6666666666667</ele><time>2026-04-26T11:17:46Z</time></trkpt><trkpt lat="46.34211261180738" lon="12.92839765478349"><ele>604.0</ele><time>2026-04-26T11:17:47Z</time></trkpt><trkpt lat="46.342214364391296" lon="12.928155781852245"><ele>616.0</ele><time>2026-04-26T11:17:48Z</time></trkpt><trkpt lat="46.342323634708464" lon="12.92795769206845"><ele>628.0</ele><time>2026-04-26T11:17:49Z</time></trkpt><trkpt lat="46.34242997895544" lon="12.927759924132669"><ele>640.0</ele><time>2026-04-26T11:17:50Z</time></trkpt><trkpt lat="46.34252244347902" lon="12.927593995237833"><ele>635.5</ele><time>2026-04-26T11:17:51Z</time></trkpt><trkpt lat="46.34261333144874" lon="12.92745624055263"><ele>631.0</ele><time>2026-04-26T11:17:52Z</time></trkpt><trkpt lat="46.34271358343317" lon="12.927346249619626"><ele>626.5</ele><time>2026-04-26T11:17:53Z</time></trkpt><trkpt lat="46.3428100314505" lon="12.927244164934153"><ele>622.0</ele><time>2026-04-26T11:17:54Z</time></trkpt><trkpt lat="46.34286403475359" lon="12.927075276975321"><ele>622.0</ele><time>2026-04-26T11:17:55Z</time></trkpt><trkpt lat="46.342886850217525" lon="12.926840960307576"><ele>622.0</ele><time>2026-04-26T11:17:56Z</time></trkpt><trkpt lat="46.34290344669191" lon="12.92659228786774"><ele>622.0</ele><time>2026-04-26T11:17:57Z</time></trkpt><trkpt lat="46.34293601061952" lon="12.926328808785811"><ele>616.0</ele><time>2026-04-26T11:17:58Z</time></trkpt><trkpt lat="46.34297086205013" lon="12.926077893555599"><ele>610.0</ele><time>2026-04-26T11:17:59Z</time></trkpt><trkpt lat="46.34300167636727" lon="12.925852948333496"><ele>604.0</ele><time>2026-04-26T11:18:00Z</time></trkpt><trkpt lat="46.343040179248995" lon="12.92566205373024"><ele>620.3333333333334</ele><time>2026-04-26T11:18:01Z</time></trkpt><trkpt lat="46.34310573324942" lon="12.92549686148553"><ele>636.6666666666666</ele><time>2026-04-26T11:18:02Z</time></trkpt><trkpt lat="46.343230501582326" lon="12.925365742601283"><ele>653.0</ele><time>2026-04-26T11:18:03Z</time></trkpt><trkpt lat="46.34333537658527" lon="12.925175979920795"><ele>642.6666666666666</ele><time>2026-04-26T11:18:04Z</time></trkpt><trkpt lat="46.343484882952566" lon="12.925021187342814"><ele>632.3333333333334</ele><time>2026-04-26T11:18:05Z</time></trkpt><trkpt lat="46.34362526826689" lon="12.92487435484083"><ele>622.0</ele><time>2026-04-26T11:18:06Z</time></trkpt><trkpt lat="46.343754528421364" lon="12.924712784832533"><ele>622.0</ele><time>2026-04-26T11:18:07Z</time></trkpt><trkpt lat="46.34386287838032" lon="12.924520558756504"><ele>622.0</ele><time>2026-04-26T11:18:08Z</time></trkpt><trkpt lat="46.34398213016117" lon="12.924303309816375"><ele>622.0</ele><time>2026-04-26T11:18:09Z</time></trkpt><trkpt lat="46.34410056184398" lon="12.924063607193355"><ele>622.3333333333334</ele><time>2026-04-26T11:18:10Z</time></trkpt><trkpt lat="46.34421224301207" lon="12.923842651225975"><ele>622.6666666666666</ele><time>2026-04-26T11:18:11Z</time></trkpt><trkpt lat="46.34434566389129" lon="12.9235786842806"><ele>623.0</ele><time>2026-04-26T11:18:12Z</time></trkpt><trkpt lat="46.34447325457118" lon="12.923325007016258"><ele>623.0</ele><time>2026-04-26T11:18:13Z</time></trkpt><trkpt lat="46.344590430262436" lon="12.923089729808064"><ele>623.0</ele><time>2026-04-26T11:18:14Z</time></trkpt><trkpt lat="46.344698084345936" lon="12.922872581939696"><ele>623.0</ele><time>2026-04-26T11:18:15Z</time></trkpt><trkpt lat="46.34479688506339" lon="12.922674878037078"><ele>633.3333333333333</ele><time>2026-04-26T11:18:16Z</time></trkpt><trkpt lat="46.34490677456671" lon="12.922485701232452"><ele>643.6666666666666</ele><time>2026-04-26T11:18:17Z</time></trkpt><trkpt lat="46.34503951054787" lon="12.922314306739983"><ele>654.0</ele><time>2026-04-26T11:18:18Z</time></trkpt><trkpt lat="46.34519375653625" lon="12.922149888115953"><ele>654.0</ele><time>2026-04-26T11:18:19Z</time></trkpt><trkpt lat="46.34534989363101" lon="12.921973127903343"><ele>654.0</ele><time>2026-04-26T11:18:20Z</time></trkpt><trkpt lat="46.3454779300747" lon="12.921768758274178"><ele>654.0</ele><time>2026-04-26T11:18:21Z</time></trkpt><trkpt lat="46.34557984291542" lon="12.921567440317988"><ele>653.25</ele><time>2026-04-26T11:18:22Z</time></trkpt><trkpt lat="46.345659834822996" lon="12.92135079843438"><ele>652.5</ele><time>2026-04-26T11:18:23Z</time></trkpt><trkpt lat="46.345713739903736" lon="12.92113758658261"><ele>651.75</ele><time>2026-04-26T11:18:24Z</time></trkpt><trkpt lat="46.34575623669197" lon="12.920999816471422"><ele>651.0</ele><time>2026-04-26T11:18:25Z</time></trkpt><trkpt lat="46.34582067043127" lon="12.920877540983508"><ele>651.0</ele><time>2026-04-26T11:18:26Z</time></trkpt><trkpt lat="46.34591623543624" lon="12.92076670634512"><ele>651.0</ele><time>2026-04-26T11:18:27Z</time></trkpt><trkpt lat="46.34603756973827" lon="12.92068179433957"><ele>651.0</ele><time>2026-04-26T11:18:28Z</time></trkpt><trkpt lat="46.34617270489925" lon="12.920594648584064"><ele>651.0</ele><time>2026-04-26T11:18:29Z</time></trkpt><trkpt lat="46.34630817610202" lon="12.920486928684365"><ele>655.75</ele><time>2026-04-26T11:18:30Z</time></trkpt><trkpt lat="46.34642933703884" lon="12.920343613240643"><ele>660.5</ele><time>2026-04-26T11:18:31Z</time></trkpt><trkpt lat="46.34654226637926" lon="12.920208095971683"><ele>665.25</ele><time>2026-04-26T11:18:32Z</time></trkpt><trkpt lat="46.3466415168419" lon="12.92006125638106"><ele>670.0</ele><time>2026-04-26T11:18:33Z</time></trkpt><trkpt lat="46.34672627438491" lon="12.91991702675097"><ele>670.0</ele><time>2026-04-26T11:18:34Z</time></trkpt><trkpt lat="46.346816610776784" lon="12.919794316095665"><ele>670.0</ele><time>2026-04-26T11:18:35Z</time></trkpt><trkpt lat="46.34692212013578" lon="12.919663712143786"><ele>670.0</ele><time>2026-04-26T11:18:36Z</time></trkpt><trkpt lat="46.347026227850996" lon="12.919514466038759"><ele>670.0</ele><time>2026-04-26T11:18:37Z</time></trkpt><trkpt lat="46.3470673284409" lon="12.919279879889315"><ele>666.25</ele><time>2026-04-26T11:18:38Z</time></trkpt><trkpt lat="46.34713105113481" lon="12.91907706123877"><ele>662.5</ele><time>2026-04-26T11:18:39Z</time></trkpt><trkpt lat="46.34720154857545" lon="12.9188985800609"><ele>658.75</ele><time>2026-04-26T11:18:40Z</time></trkpt><trkpt lat="46.347268691110884" lon="12.918712928142506"><ele>655.0</ele><time>2026-04-26T11:18:41Z</time></trkpt><trkpt lat="46.34732444067787" lon="12.918518812253101"><ele>669.0</ele><time>2026-04-26T11:18:42Z</time></trkpt><trkpt lat="46.347368151723074" lon="12.91832114469084"><ele>683.0</ele><time>2026-04-26T11:18:43Z</time></trkpt><trkpt lat="46.34740050334887" lon="12.918118989068844"><ele>697.0</ele><time>2026-04-26T11:18:44Z</time></trkpt><trkpt lat="46.347433210284635" lon="12.91792645981574"><ele>711.0</ele><time>2026-04-26T11:18:45Z</time></trkpt><trkpt lat="46.3474590965644" lon="12.917729891189476"><ele>704.25</ele><time>2026-04-26T11:18:46Z</time></trkpt><trkpt lat="46.34748482907038" lon="12.917530750928995"><ele>697.5</ele><time>2026-04-26T11:18:47Z</time></trkpt><trkpt lat="46.34752772720817" lon="12.917332787437239"><ele>690.75</ele><time>2026-04-26T11:18:48Z</time></trkpt><trkpt lat="46.34758831984621" lon="12.91718118627586"><ele>684.0</ele><time>2026-04-26T11:18:49Z</time></trkpt><trkpt lat="46.34764944901951" lon="12.917013165783615"><ele>684.0</ele><time>2026-04-26T11:18:50Z</time></trkpt><trkpt lat="46.34772789319491" lon="12.916858276112125"><ele>684.0</ele><time>2026-04-26T11:18:51Z</time></trkpt><trkpt lat="46.347814706169665" lon="12.916698076086396"><ele>684.0</ele><time>2026-04-26T11:18:52Z</time></trkpt><trkpt lat="46.34789755888193" lon="12.916538210280281"><ele>684.0</ele><time>2026-04-26T11:18:53Z</time></trkpt><trkpt lat="46.34797867284374" lon="12.9163808690967"><ele>684.5</ele><time>2026-04-26T11:18:54Z</time></trkpt><trkpt lat="46.348070195832506" lon="12.91621658046412"><ele>685.0</ele><time>2026-04-26T11:18:55Z</time></trkpt><trkpt lat="46.348168046630775" lon="12.916061042593906"><ele>685.5</ele><time>2026-04-26T11:18:56Z</time></trkpt><trkpt lat="46.34826937636126" lon="12.91591301651911"><ele>686.0</ele><time>2026-04-26T11:18:57Z</time></trkpt><trkpt lat="46.348375707765825" lon="12.915759416959007"><ele>686.0</ele><time>2026-04-26T11:18:58Z</time></trkpt><trkpt lat="46.34846738367036" lon="12.91561535466468"><ele>686.0</ele><time>2026-04-26T11:18:59Z</time></trkpt><trkpt lat="46.34855431627631" lon="12.915474583641162"><ele>686.0</ele><time>2026-04-26T11:19:00Z</time></trkpt><trkpt lat="46.348633174963126" lon="12.91533775184007"><ele>686.0</ele><time>2026-04-26T11:19:01Z</time></trkpt><trkpt lat="46.348709743369746" lon="12.915219141946714"><ele>686.0</ele><time>2026-04-26T11:19:02Z</time></trkpt><trkpt lat="46.34879081967581" lon="12.915103541634805"><ele>686.0</ele><time>2026-04-26T11:19:03Z</time></trkpt><trkpt lat="46.34887945302368" lon="12.914995694089102"><ele>686.0</ele><time>2026-04-26T11:19:04Z</time></trkpt><trkpt lat="46.34897663350278" lon="12.914884065029986"><ele>686.0</ele><time>2026-04-26T11:19:05Z</time></trkpt><trkpt lat="46.349081041333356" lon="12.914780029591675"><ele>690.75</ele><time>2026-04-26T11:19:06Z</time></trkpt><trkpt lat="46.349188255388114" lon="12.91469314837387"><ele>695.5</ele><time>2026-04-26T11:19:07Z</time></trkpt><trkpt lat="46.34929897062222" lon="12.914611141430472"><ele>700.25</ele><time>2026-04-26T11:19:08Z</time></trkpt><trkpt lat="46.349403789275016" lon="12.914541708180032"><ele>705.0</ele><time>2026-04-26T11:19:09Z</time></trkpt><trkpt lat="46.34948752013359" lon="12.914472142064056"><ele>705.0</ele><time>2026-04-26T11:19:10Z</time></trkpt><trkpt lat="46.34956786428663" lon="12.914390532755556"><ele>705.0</ele><time>2026-04-26T11:19:11Z</time></trkpt><trkpt lat="46.34964553879532" lon="12.914272002066594"><ele>705.0</ele><time>2026-04-26T11:19:12Z</time></trkpt><trkpt lat="46.349731820412835" lon="12.914110762482192"><ele>705.0</ele><time>2026-04-26T11:19:13Z</time></trkpt><trkpt lat="46.34982889411913" lon="12.913948345076673"><ele>704.8</ele><time>2026-04-26T11:19:14Z</time></trkpt><trkpt lat="46.34989443669606" lon="12.913780600538962"><ele>704.6</ele><time>2026-04-26T11:19:15Z</time></trkpt><trkpt lat="46.34994224987759" lon="12.913635091806551"><ele>704.4000000000001</ele><time>2026-04-26T11:19:16Z</time></trkpt><trkpt lat="46.34999143818463" lon="12.913516950027548"><ele>704.2</ele><time>2026-04-26T11:19:17Z</time></trkpt><trkpt lat="46.35003906208531" lon="12.913391092337632"><ele>704.0</ele><time>2026-04-26T11:19:18Z</time></trkpt><trkpt lat="46.350076726829535" lon="12.91328867903709"><ele>704.0</ele><time>2026-04-26T11:19:19Z</time></trkpt><trkpt lat="46.35011700682868" lon="12.91316815762525"><ele>704.0</ele><time>2026-04-26T11:19:20Z</time></trkpt><trkpt lat="46.350152060789696" lon="12.91302806524549"><ele>704.0</ele><time>2026-04-26T11:19:21Z</time></trkpt><trkpt lat="46.350164563834234" lon="12.912894946094587"><ele>704.0</ele><time>2026-04-26T11:19:22Z</time></trkpt><trkpt lat="46.35016436476931" lon="12.912786519760047"><ele>704.0</ele><time>2026-04-26T11:19:23Z</time></trkpt><trkpt lat="46.350165130009664" lon="12.912694334032087"><ele>704.0</ele><time>2026-04-26T11:19:24Z</time></trkpt><trkpt lat="46.35024058660913" lon="12.91260984417336"><ele>704.0</ele><time>2026-04-26T11:19:26Z</time></trkpt><trkpt lat="46.3503047862995" lon="12.912722879977375"><ele>704.0</ele><time>2026-04-26T11:19:28Z</time></trkpt><trkpt lat="46.350275326499364" lon="12.912836729131303"><ele>704.0</ele><time>2026-04-26T11:19:29Z</time></trkpt><trkpt lat="46.35021760186521" lon="12.912957702495852"><ele>704.0</ele><time>2026-04-26T11:19:30Z</time></trkpt><trkpt lat="46.350170267966554" lon="12.913137710341319"><ele>704.0</ele><time>2026-04-26T11:19:31Z</time></trkpt><trkpt lat="46.350129057684796" lon="12.9133646597711"><ele>708.75</ele><time>2026-04-26T11:19:32Z</time></trkpt><trkpt lat="46.3500952455747" lon="12.913555038751785"><ele>713.5</ele><time>2026-04-26T11:19:33Z</time></trkpt><trkpt lat="46.350065425959784" lon="12.913761755521032"><ele>718.25</ele><time>2026-04-26T11:19:34Z</time></trkpt><trkpt lat="46.35003988332532" lon="12.913970679147113"><ele>723.0</ele><time>2026-04-26T11:19:35Z</time></trkpt><trkpt lat="46.35000628599712" lon="12.91416638747576"><ele>728.75</ele><time>2026-04-26T11:19:36Z</time></trkpt><trkpt lat="46.349967578077596" lon="12.914323660577576"><ele>734.5</ele><time>2026-04-26T11:19:37Z</time></trkpt><trkpt lat="46.3499157285128" lon="12.914464611407038"><ele>740.25</ele><time>2026-04-26T11:19:38Z</time></trkpt><trkpt lat="46.34984324881913" lon="12.914604861593773"><ele>746.0</ele><time>2026-04-26T11:19:39Z</time></trkpt><trkpt lat="46.34975492063986" lon="12.914735298782864"><ele>742.75</ele><time>2026-04-26T11:19:40Z</time></trkpt><trkpt lat="46.34965084020127" lon="12.914860693458703"><ele>739.5</ele><time>2026-04-26T11:19:41Z</time></trkpt><trkpt lat="46.34952873024604" lon="12.91498342132154"><ele>736.25</ele><time>2026-04-26T11:19:42Z</time></trkpt><trkpt lat="46.3493985476494" lon="12.915122534137216"><ele>733.0</ele><time>2026-04-26T11:19:43Z</time></trkpt><trkpt lat="46.34926535446212" lon="12.915262345942976"><ele>733.0</ele><time>2026-04-26T11:19:44Z</time></trkpt><trkpt lat="46.34914457896675" lon="12.915409391969543"><ele>733.0</ele><time>2026-04-26T11:19:45Z</time></trkpt><trkpt lat="46.34905351512461" lon="12.915579945296304"><ele>733.0</ele><time>2026-04-26T11:19:46Z</time></trkpt><trkpt lat="46.348984131132134" lon="12.915788835101178"><ele>736.25</ele><time>2026-04-26T11:19:47Z</time></trkpt><trkpt lat="46.34891445430825" lon="12.916000905647957"><ele>739.5</ele><time>2026-04-26T11:19:48Z</time></trkpt><trkpt lat="46.3488621443161" lon="12.916177569113618"><ele>742.75</ele><time>2026-04-26T11:19:49Z</time></trkpt><trkpt lat="46.34881848680771" lon="12.916334611136914"><ele>746.0</ele><time>2026-04-26T11:19:50Z</time></trkpt><trkpt lat="46.348819434242735" lon="12.916501117512851"><ele>746.0</ele><time>2026-04-26T11:19:51Z</time></trkpt><trkpt lat="46.34887793047483" lon="12.91670851263939"><ele>746.0</ele><time>2026-04-26T11:19:52Z</time></trkpt><trkpt lat="46.34892165045655" lon="12.91691439218323"><ele>746.0</ele><time>2026-04-26T11:19:53Z</time></trkpt><trkpt lat="46.348953426456504" lon="12.917081432384993"><ele>746.0</ele><time>2026-04-26T11:19:54Z</time></trkpt><trkpt lat="46.34894399350198" lon="12.917263270724373"><ele>750.25</ele><time>2026-04-26T11:19:55Z</time></trkpt><trkpt lat="46.34894533344752" lon="12.917476599973941"><ele>754.5</ele><time>2026-04-26T11:19:56Z</time></trkpt><trkpt lat="46.34894517126683" lon="12.917666997077594"><ele>758.75</ele><time>2026-04-26T11:19:57Z</time></trkpt><trkpt lat="46.34892683996159" lon="12.917822054533106"><ele>763.0</ele><time>2026-04-26T11:19:58Z</time></trkpt><trkpt lat="46.34891974456287" lon="12.917943290028415"><ele>767.1666666666667</ele><time>2026-04-26T11:19:59Z</time></trkpt><trkpt lat="46.34894909922643" lon="12.9180385135722"><ele>771.3333333333334</ele><time>2026-04-26T11:20:00Z</time></trkpt><trkpt lat="46.349003358051604" lon="12.918110817710998"><ele>775.5</ele><time>2026-04-26T11:20:01Z</time></trkpt><trkpt lat="46.34910687797828" lon="12.918101761670691"><ele>779.6666666666667</ele><time>2026-04-26T11:20:02Z</time></trkpt><trkpt lat="46.34918626616313" lon="12.918022049096285"><ele>783.8333333333334</ele><time>2026-04-26T11:20:03Z</time></trkpt><trkpt lat="46.349223722518445" lon="12.91791694047252"><ele>788.0</ele><time>2026-04-26T11:20:04Z</time></trkpt><trkpt lat="46.34921763224481" lon="12.917799635575994"><ele>788.0</ele><time>2026-04-26T11:20:05Z</time></trkpt><trkpt lat="46.34916887381094" lon="12.917670957096627"><ele>788.0</ele><time>2026-04-26T11:20:06Z</time></trkpt><trkpt lat="46.349098853247604" lon="12.917516622966684"><ele>788.0</ele><time>2026-04-26T11:20:07Z</time></trkpt><trkpt lat="46.34905993164474" lon="12.917332797572643"><ele>788.0</ele><time>2026-04-26T11:20:08Z</time></trkpt><trkpt lat="46.34906856917929" lon="12.917138082717871"><ele>781.75</ele><time>2026-04-26T11:20:09Z</time></trkpt><trkpt lat="46.349087451141706" lon="12.916940329953572"><ele>775.5</ele><time>2026-04-26T11:20:10Z</time></trkpt><trkpt lat="46.34910074115814" lon="12.916770913270557"><ele>769.25</ele><time>2026-04-26T11:20:11Z</time></trkpt><trkpt lat="46.349126379541545" lon="12.916595831903871"><ele>763.0</ele><time>2026-04-26T11:20:12Z</time></trkpt><trkpt lat="46.34918021436695" lon="12.916429822159897"><ele>758.75</ele><time>2026-04-26T11:20:13Z</time></trkpt><trkpt lat="46.34926075067971" lon="12.916269825346284"><ele>754.5</ele><time>2026-04-26T11:20:14Z</time></trkpt><trkpt lat="46.34934816209683" lon="12.91609822827545"><ele>750.25</ele><time>2026-04-26T11:20:15Z</time></trkpt><trkpt lat="46.34943861966577" lon="12.915933229699535"><ele>746.0</ele><time>2026-04-26T11:20:16Z</time></trkpt><trkpt lat="46.34953784772441" lon="12.91581781208977"><ele>742.75</ele><time>2026-04-26T11:20:17Z</time></trkpt><trkpt lat="46.34966329426968" lon="12.915746589812455"><ele>739.5</ele><time>2026-04-26T11:20:18Z</time></trkpt><trkpt lat="46.34980839654172" lon="12.915680743969553"><ele>736.25</ele><time>2026-04-26T11:20:19Z</time></trkpt><trkpt lat="46.34995362358872" lon="12.91558716700892"><ele>733.0</ele><time>2026-04-26T11:20:20Z</time></trkpt><trkpt lat="46.35009695246173" lon="12.915455363772214"><ele>737.3333333333334</ele><time>2026-04-26T11:20:21Z</time></trkpt><trkpt lat="46.35023602974478" lon="12.91529446373509"><ele>741.6666666666666</ele><time>2026-04-26T11:20:22Z</time></trkpt><trkpt lat="46.35035415108587" lon="12.915144644417431"><ele>746.0</ele><time>2026-04-26T11:20:23Z</time></trkpt><trkpt lat="46.35047101115391" lon="12.914966951603093"><ele>761.3333333333333</ele><time>2026-04-26T11:20:24Z</time></trkpt><trkpt lat="46.350574677476395" lon="12.914781687496676"><ele>776.6666666666666</ele><time>2026-04-26T11:20:25Z</time></trkpt><trkpt lat="46.350678057587636" lon="12.914611363459356"><ele>792.0</ele><time>2026-04-26T11:20:26Z</time></trkpt><trkpt lat="46.350759104671916" lon="12.914414026691595"><ele>786.3333333333333</ele><time>2026-04-26T11:20:27Z</time></trkpt><trkpt lat="46.350811698235795" lon="12.91418691324856"><ele>780.6666666666666</ele><time>2026-04-26T11:20:28Z</time></trkpt><trkpt lat="46.350848361590806" lon="12.913958385889206"><ele>775.0</ele><time>2026-04-26T11:20:29Z</time></trkpt><trkpt lat="46.35088756828732" lon="12.913765968224032"><ele>775.0</ele><time>2026-04-26T11:20:30Z</time></trkpt><trkpt lat="46.3509252789319" lon="12.91358744959992"><ele>775.0</ele><time>2026-04-26T11:20:31Z</time></trkpt><trkpt lat="46.350958215909536" lon="12.91338945297287"><ele>775.0</ele><time>2026-04-26T11:20:32Z</time></trkpt><trkpt lat="46.350956194500654" lon="12.913188432276785"><ele>775.0</ele><time>2026-04-26T11:20:33Z</time></trkpt><trkpt lat="46.35093786571441" lon="12.91303083625826"><ele>775.0</ele><time>2026-04-26T11:20:34Z</time></trkpt><trkpt lat="46.35098477247245" lon="12.912896686218568"><ele>775.0</ele><time>2026-04-26T11:20:36Z</time></trkpt><trkpt lat="46.35107747261093" lon="12.913003698483124"><ele>775.0</ele><time>2026-04-26T11:20:38Z</time></trkpt><trkpt lat="46.35104918057443" lon="12.913143171260762"><ele>775.0</ele><time>2026-04-26T11:20:39Z</time></trkpt><trkpt lat="46.35100617296171" lon="12.91330133859091"><ele>775.0</ele><time>2026-04-26T11:20:40Z</time></trkpt><trkpt lat="46.35098470244088" lon="12.913492263154708"><ele>775.0</ele><time>2026-04-26T11:20:41Z</time></trkpt><trkpt lat="46.350972892054436" lon="12.913729738297723"><ele>775.0</ele><time>2026-04-26T11:20:42Z</time></trkpt><trkpt lat="46.35096491454536" lon="12.913940810445007"><ele>775.0</ele><time>2026-04-26T11:20:43Z</time></trkpt><trkpt lat="46.35095109297052" lon="12.91416721885352"><ele>780.6666666666666</ele><time>2026-04-26T11:20:44Z</time></trkpt><trkpt lat="46.35094020008351" lon="12.914391159137207"><ele>786.3333333333333</ele><time>2026-04-26T11:20:45Z</time></trkpt><trkpt lat="46.35091557025914" lon="12.914612172616684"><ele>792.0</ele><time>2026-04-26T11:20:46Z</time></trkpt><trkpt lat="46.35085532800635" lon="12.914833762461758"><ele>792.0</ele><time>2026-04-26T11:20:47Z</time></trkpt><trkpt lat="46.350771696857066" lon="12.915049994926486"><ele>792.0</ele><time>2026-04-26T11:20:48Z</time></trkpt><trkpt lat="46.35067608424695" lon="12.915267039037651"><ele>792.0</ele><time>2026-04-26T11:20:49Z</time></trkpt><trkpt lat="46.35058905691861" lon="12.915468748721155"><ele>793.3333333333333</ele><time>2026-04-26T11:20:50Z</time></trkpt><trkpt lat="46.35050859421648" lon="12.9156878972816"><ele>794.6666666666666</ele><time>2026-04-26T11:20:51Z</time></trkpt><trkpt lat="46.35042496418346" lon="12.915910947867436"><ele>796.0</ele><time>2026-04-26T11:20:52Z</time></trkpt><trkpt lat="46.350315088790545" lon="12.916126881149616"><ele>796.0</ele><time>2026-04-26T11:20:53Z</time></trkpt><trkpt lat="46.350182522544145" lon="12.916324470976143"><ele>796.0</ele><time>2026-04-26T11:20:54Z</time></trkpt><trkpt lat="46.35004766142799" lon="12.916525741809558"><ele>796.0</ele><time>2026-04-26T11:20:55Z</time></trkpt><trkpt lat="46.34992877983847" lon="12.916740044224532"><ele>800.0</ele><time>2026-04-26T11:20:56Z</time></trkpt><trkpt lat="46.34983130363392" lon="12.916952703787338"><ele>804.0</ele><time>2026-04-26T11:20:57Z</time></trkpt><trkpt lat="46.349748954706754" lon="12.917140066087255"><ele>808.0</ele><time>2026-04-26T11:20:58Z</time></trkpt><trkpt lat="46.349686915509466" lon="12.91731444105532"><ele>801.3333333333333</ele><time>2026-04-26T11:20:59Z</time></trkpt><trkpt lat="46.349647792549234" lon="12.917492202182284"><ele>794.6666666666667</ele><time>2026-04-26T11:21:00Z</time></trkpt><trkpt lat="46.349649169199466" lon="12.917710020260692"><ele>788.0</ele><time>2026-04-26T11:21:01Z</time></trkpt><trkpt lat="46.349676949523925" lon="12.917954671526335"><ele>788.0</ele><time>2026-04-26T11:21:02Z</time></trkpt><trkpt lat="46.34969813467447" lon="12.918219954500582"><ele>788.0</ele><time>2026-04-26T11:21:03Z</time></trkpt><trkpt lat="46.34971042117785" lon="12.918484319770235"><ele>788.0</ele><time>2026-04-26T11:21:04Z</time></trkpt><trkpt lat="46.34973242086895" lon="12.918723619317804"><ele>795.5</ele><time>2026-04-26T11:21:05Z</time></trkpt><trkpt lat="46.349762048478524" lon="12.918933297240594"><ele>803.0</ele><time>2026-04-26T11:21:06Z</time></trkpt><trkpt lat="46.34979280910985" lon="12.919100420014653"><ele>810.5</ele><time>2026-04-26T11:21:07Z</time></trkpt><trkpt lat="46.34985273980698" lon="12.919228416915747"><ele>818.0</ele><time>2026-04-26T11:21:08Z</time></trkpt><trkpt lat="46.34994128853914" lon="12.91931848596166"><ele>821.5</ele><time>2026-04-26T11:21:09Z</time></trkpt><trkpt lat="46.35005572242606" lon="12.919413463716449"><ele>825.0</ele><time>2026-04-26T11:21:10Z</time></trkpt><trkpt lat="46.350147975029294" lon="12.919563778863855"><ele>828.5</ele><time>2026-04-26T11:21:11Z</time></trkpt><trkpt lat="46.35020323056326" lon="12.919764060962837"><ele>832.0</ele><time>2026-04-26T11:21:12Z</time></trkpt><trkpt lat="46.35023123268171" lon="12.919984175740936"><ele>840.25</ele><time>2026-04-26T11:21:13Z</time></trkpt><trkpt lat="46.35026161490915" lon="12.920223647750817"><ele>848.5</ele><time>2026-04-26T11:21:14Z</time></trkpt><trkpt lat="46.350302616873726" lon="12.920444715573234"><ele>856.75</ele><time>2026-04-26T11:21:15Z</time></trkpt><trkpt lat="46.350331688272284" lon="12.92059156218577"><ele>865.0</ele><time>2026-04-26T11:21:16Z</time></trkpt><trkpt lat="46.3503650436468" lon="12.920690503982657"><ele>864.9999999999999</ele><time>2026-04-26T11:21:17Z</time></trkpt><trkpt lat="46.350430776541685" lon="12.920740309894372"><ele>865.0</ele><time>2026-04-26T11:21:18Z</time></trkpt><trkpt lat="46.350524928046774" lon="12.920733443302137"><ele>865.0</ele><time>2026-04-26T11:21:19Z</time></trkpt><trkpt lat="46.35059473448182" lon="12.920653497749214"><ele>865.0</ele><time>2026-04-26T11:21:20Z</time></trkpt><trkpt lat="46.350620823438405" lon="12.920533773196677"><ele>864.9999999999999</ele><time>2026-04-26T11:21:21Z</time></trkpt><trkpt lat="46.35059744387674" lon="12.920390652630985"><ele>865.0</ele><time>2026-04-26T11:21:22Z</time></trkpt><trkpt lat="46.350541222161105" lon="12.920213169297307"><ele>858.3333333333333</ele><time>2026-04-26T11:21:23Z</time></trkpt><trkpt lat="46.35052543291926" lon="12.919991443096364"><ele>851.6666666666667</ele><time>2026-04-26T11:21:24Z</time></trkpt><trkpt lat="46.35055734849396" lon="12.91975057295054"><ele>845.0</ele><time>2026-04-26T11:21:25Z</time></trkpt><trkpt lat="46.35058910276888" lon="12.919536850668354"><ele>845.0</ele><time>2026-04-26T11:21:26Z</time></trkpt><trkpt lat="46.3505676665992" lon="12.91932027844221"><ele>845.0</ele><time>2026-04-26T11:21:27Z</time></trkpt><trkpt lat="46.350503465737326" lon="12.919114760486183"><ele>845.0</ele><time>2026-04-26T11:21:28Z</time></trkpt><trkpt lat="46.35047324590803" lon="12.918930219830209"><ele>845.0</ele><time>2026-04-26T11:21:29Z</time></trkpt><trkpt lat="46.350480133257015" lon="12.918748362447424"><ele>844.5</ele><time>2026-04-26T11:21:30Z</time></trkpt><trkpt lat="46.35052652630412" lon="12.918568242014874"><ele>844.0</ele><time>2026-04-26T11:21:31Z</time></trkpt><trkpt lat="46.35061653714841" lon="12.918392088809973"><ele>843.5</ele><time>2026-04-26T11:21:32Z</time></trkpt><trkpt lat="46.350716786315274" lon="12.918202564592002"><ele>843.0</ele><time>2026-04-26T11:21:33Z</time></trkpt><trkpt lat="46.350819711914426" lon="12.917978871046547"><ele>843.0</ele><time>2026-04-26T11:21:34Z</time></trkpt><trkpt lat="46.35092693111287" lon="12.917736918974748"><ele>843.0</ele><time>2026-04-26T11:21:35Z</time></trkpt><trkpt lat="46.35102245753295" lon="12.917507797875054"><ele>843.0</ele><time>2026-04-26T11:21:36Z</time></trkpt><trkpt lat="46.351116630015895" lon="12.917283202357526"><ele>841.6666666666667</ele><time>2026-04-26T11:21:37Z</time></trkpt><trkpt lat="46.35121676341495" lon="12.917039634812417"><ele>840.3333333333334</ele><time>2026-04-26T11:21:38Z</time></trkpt><trkpt lat="46.351318812609755" lon="12.916771867366549"><ele>839.0</ele><time>2026-04-26T11:21:39Z</time></trkpt><trkpt lat="46.35140394273887" lon="12.916538276572314"><ele>844.0</ele><time>2026-04-26T11:21:40Z</time></trkpt><trkpt lat="46.35147351562517" lon="12.916374180941983"><ele>849.0</ele><time>2026-04-26T11:21:41Z</time></trkpt><trkpt lat="46.351518509962865" lon="12.91622742732841"><ele>854.0000000000001</ele><time>2026-04-26T11:21:42Z</time></trkpt><trkpt lat="46.35151823320335" lon="12.916069066757917"><ele>859.0</ele><time>2026-04-26T11:21:43Z</time></trkpt><trkpt lat="46.35150819615737" lon="12.915944522268552"><ele>864.0</ele><time>2026-04-26T11:21:44Z</time></trkpt><trkpt lat="46.351554579134984" lon="12.91580224099892"><ele>864.0</ele><time>2026-04-26T11:21:46Z</time></trkpt><trkpt lat="46.35161992944229" lon="12.915830111704812"><ele>864.0000000000001</ele><time>2026-04-26T11:21:47Z</time></trkpt><trkpt lat="46.35166193776595" lon="12.915915326856027"><ele>864.0000000000001</ele><time>2026-04-26T11:21:48Z</time></trkpt><trkpt lat="46.351651249958174" lon="12.916011577673848"><ele>864.0</ele><time>2026-04-26T11:21:49Z</time></trkpt><trkpt lat="46.351593094696455" lon="12.916174547177372"><ele>864.0</ele><time>2026-04-26T11:21:50Z</time></trkpt><trkpt lat="46.35153627234591" lon="12.916381543205203"><ele>867.3333333333333</ele><time>2026-04-26T11:21:51Z</time></trkpt><trkpt lat="46.35149900658777" lon="12.916599492745725"><ele>870.6666666666666</ele><time>2026-04-26T11:21:52Z</time></trkpt><trkpt lat="46.35147210896032" lon="12.916812790466368"><ele>874.0</ele><time>2026-04-26T11:21:53Z</time></trkpt><trkpt lat="46.351438953223344" lon="12.917066942516334"><ele>875.6666666666666</ele><time>2026-04-26T11:21:54Z</time></trkpt><trkpt lat="46.35142373615728" lon="12.917342746854601"><ele>877.3333333333333</ele><time>2026-04-26T11:21:55Z</time></trkpt><trkpt lat="46.35138966630159" lon="12.917573826284233"><ele>879.0</ele><time>2026-04-26T11:21:56Z</time></trkpt><trkpt lat="46.351400292994946" lon="12.917803725178032"><ele>879.0</ele><time>2026-04-26T11:21:57Z</time></trkpt><trkpt lat="46.351443774429875" lon="12.918047343204698"><ele>879.0</ele><time>2026-04-26T11:21:58Z</time></trkpt><trkpt lat="46.35147627515593" lon="12.918319102636396"><ele>879.0</ele><time>2026-04-26T11:21:59Z</time></trkpt><trkpt lat="46.351502550265515" lon="12.9185832766471"><ele>879.0</ele><time>2026-04-26T11:22:00Z</time></trkpt><trkpt lat="46.35153744282485" lon="12.918840384580516"><ele>879.0</ele><time>2026-04-26T11:22:01Z</time></trkpt><trkpt lat="46.351595516897746" lon="12.919086884098233"><ele>879.0</ele><time>2026-04-26T11:22:02Z</time></trkpt><trkpt lat="46.35169369164996" lon="12.919315602220964"><ele>877.6666666666667</ele><time>2026-04-26T11:22:03Z</time></trkpt><trkpt lat="46.351801850079454" lon="12.919548831525299"><ele>876.3333333333334</ele><time>2026-04-26T11:22:04Z</time></trkpt><trkpt lat="46.351866027960455" lon="12.91981931280037"><ele>875.0</ele><time>2026-04-26T11:22:05Z</time></trkpt><trkpt lat="46.35190988397324" lon="12.920105316977054"><ele>874.6666666666667</ele><time>2026-04-26T11:22:06Z</time></trkpt><trkpt lat="46.351921542029835" lon="12.920390161390484"><ele>874.3333333333333</ele><time>2026-04-26T11:22:07Z</time></trkpt><trkpt lat="46.35193143470346" lon="12.920661705002399"><ele>874.0</ele><time>2026-04-26T11:22:08Z</time></trkpt><trkpt lat="46.35193953848272" lon="12.920948016573607"><ele>875.6666666666666</ele><time>2026-04-26T11:22:09Z</time></trkpt><trkpt lat="46.35193058973521" lon="12.92125101473681"><ele>877.3333333333333</ele><time>2026-04-26T11:22:10Z</time></trkpt><trkpt lat="46.35191069226848" lon="12.921550044511507"><ele>879.0</ele><time>2026-04-26T11:22:11Z</time></trkpt><trkpt lat="46.3518995249059" lon="12.921826402970137"><ele>880.3333333333333</ele><time>2026-04-26T11:22:12Z</time></trkpt><trkpt lat="46.35189827699847" lon="12.922092728303149"><ele>881.6666666666666</ele><time>2026-04-26T11:22:13Z</time></trkpt><trkpt lat="46.35192558498291" lon="12.922352747421595"><ele>883.0</ele><time>2026-04-26T11:22:14Z</time></trkpt><trkpt lat="46.35198643742642" lon="12.922587873073192"><ele>883.3333333333333</ele><time>2026-04-26T11:22:15Z</time></trkpt><trkpt lat="46.35204727181549" lon="12.922816998606272"><ele>883.6666666666667</ele><time>2026-04-26T11:22:16Z</time></trkpt><trkpt lat="46.35205248016331" lon="12.923069572316297"><ele>884.0</ele><time>2026-04-26T11:22:17Z</time></trkpt><trkpt lat="46.352029258205484" lon="12.923308585798528"><ele>886.75</ele><time>2026-04-26T11:22:18Z</time></trkpt><trkpt lat="46.3520244047708" lon="12.923515886659365"><ele>889.5</ele><time>2026-04-26T11:22:19Z</time></trkpt><trkpt lat="46.35206047452264" lon="12.923706635185095"><ele>892.25</ele><time>2026-04-26T11:22:20Z</time></trkpt><trkpt lat="46.35214758233108" lon="12.923855299861955"><ele>895.0</ele><time>2026-04-26T11:22:21Z</time></trkpt><trkpt lat="46.352205822408685" lon="12.924015967284268"><ele>895.0</ele><time>2026-04-26T11:22:22Z</time></trkpt><trkpt lat="46.35220264935201" lon="12.924198792853936"><ele>895.0</ele><time>2026-04-26T11:22:23Z</time></trkpt><trkpt lat="46.35216828687103" lon="12.924375550344253"><ele>895.0</ele><time>2026-04-26T11:22:24Z</time></trkpt><trkpt lat="46.35219275721145" lon="12.924558328117532"><ele>895.0</ele><time>2026-04-26T11:22:25Z</time></trkpt><trkpt lat="46.35227203907525" lon="12.92472324324524"><ele>899.6666666666666</ele><time>2026-04-26T11:22:26Z</time></trkpt><trkpt lat="46.35238096639556" lon="12.924863138135766"><ele>904.3333333333333</ele><time>2026-04-26T11:22:27Z</time></trkpt><trkpt lat="46.352477149832225" lon="12.925037568675169"><ele>909.0</ele><time>2026-04-26T11:22:28Z</time></trkpt><trkpt lat="46.35254105301034" lon="12.925253318997317"><ele>909.0</ele><time>2026-04-26T11:22:29Z</time></trkpt><trkpt lat="46.35258016097938" lon="12.925485905883885"><ele>909.0</ele><time>2026-04-26T11:22:30Z</time></trkpt><trkpt lat="46.352609246338105" lon="12.92571437393696"><ele>909.0</ele><time>2026-04-26T11:22:31Z</time></trkpt><trkpt lat="46.35262537459729" lon="12.925944378350872"><ele>910.3333333333333</ele><time>2026-04-26T11:22:32Z</time></trkpt><trkpt lat="46.35259783557203" lon="12.926166005664617"><ele>911.6666666666666</ele><time>2026-04-26T11:22:33Z</time></trkpt><trkpt lat="46.35253073700144" lon="12.926378033297581"><ele>913.0</ele><time>2026-04-26T11:22:34Z</time></trkpt><trkpt lat="46.35246033194634" lon="12.926572604010614"><ele>913.6666666666666</ele><time>2026-04-26T11:22:35Z</time></trkpt><trkpt lat="46.35244504551372" lon="12.926782180313397"><ele>914.3333333333333</ele><time>2026-04-26T11:22:36Z</time></trkpt><trkpt lat="46.3524796164477" lon="12.927008967804385"><ele>915.0</ele><time>2026-04-26T11:22:37Z</time></trkpt><trkpt lat="46.352528793693544" lon="12.927235723061184"><ele>915.0</ele><time>2026-04-26T11:22:38Z</time></trkpt><trkpt lat="46.352644346761934" lon="12.927454262869801"><ele>915.0</ele><time>2026-04-26T11:22:39Z</time></trkpt><trkpt lat="46.352737454189445" lon="12.92768403737051"><ele>915.0</ele><time>2026-04-26T11:22:40Z</time></trkpt><trkpt lat="46.35282891365446" lon="12.927915205612985"><ele>918.0</ele><time>2026-04-26T11:22:41Z</time></trkpt><trkpt lat="46.35292213615733" lon="12.928146829954965"><ele>921.0</ele><time>2026-04-26T11:22:42Z</time></trkpt><trkpt lat="46.353012146568354" lon="12.92836999193468"><ele>924.0</ele><time>2026-04-26T11:22:43Z</time></trkpt><trkpt lat="46.353099496104434" lon="12.928592354717692"><ele>927.0</ele><time>2026-04-26T11:22:44Z</time></trkpt><trkpt lat="46.35317252783933" lon="12.928793051867396"><ele>930.0</ele><time>2026-04-26T11:22:45Z</time></trkpt><trkpt lat="46.35321703590897" lon="12.92899487040779"><ele>933.0</ele><time>2026-04-26T11:22:46Z</time></trkpt><trkpt lat="46.35322465797612" lon="12.929239678187994"><ele>933.0</ele><time>2026-04-26T11:22:47Z</time></trkpt><trkpt lat="46.3532125174216" lon="12.929480584828868"><ele>933.0</ele><time>2026-04-26T11:22:48Z</time></trkpt><trkpt lat="46.35320413679912" lon="12.92972996502421"><ele>933.0</ele><time>2026-04-26T11:22:49Z</time></trkpt><trkpt lat="46.35320192399536" lon="12.929982363893489"><ele>933.0</ele><time>2026-04-26T11:22:50Z</time></trkpt><trkpt lat="46.353199700224955" lon="12.930228795738543"><ele>933.0</ele><time>2026-04-26T11:22:51.001Z</time></trkpt><trkpt lat="46.3532242145421" lon="12.930457285640399"><ele>933.0</ele><time>2026-04-26T11:22:52.001Z</time></trkpt><trkpt lat="46.353279347655814" lon="12.930666940796492"><ele>933.0</ele><time>2026-04-26T11:22:53.001Z</time></trkpt><trkpt lat="46.353342412046004" lon="12.930872859920703"><ele>933.0</ele><time>2026-04-26T11:22:54.001Z</time></trkpt><trkpt lat="46.353412051431555" lon="12.93107758621366"><ele>933.0</ele><time>2026-04-26T11:22:55.001Z</time></trkpt><trkpt lat="46.35350369684026" lon="12.931233247812113"><ele>934.3333333333333</ele><time>2026-04-26T11:22:56.001Z</time></trkpt><trkpt lat="46.35362254849231" lon="12.931343638634543"><ele>935.6666666666666</ele><time>2026-04-26T11:22:57.001Z</time></trkpt><trkpt lat="46.353773794570095" lon="12.931397518327634"><ele>937.0</ele><time>2026-04-26T11:22:58.001Z</time></trkpt><trkpt lat="46.35393520099556" lon="12.931414840765768"><ele>939.6666666666666</ele><time>2026-04-26T11:22:59.001Z</time></trkpt><trkpt lat="46.3540954097825" lon="12.931444558004847"><ele>942.3333333333333</ele><time>2026-04-26T11:23:00.001Z</time></trkpt><trkpt lat="46.3542694213481" lon="12.931479976951277"><ele>945.0</ele><time>2026-04-26T11:23:01.001Z</time></trkpt><trkpt lat="46.35445612289442" lon="12.931518896189592"><ele>945.0</ele><time>2026-04-26T11:23:02Z</time></trkpt><trkpt lat="46.35463193449308" lon="12.931557013294253"><ele>945.0</ele><time>2026-04-26T11:23:03Z</time></trkpt><trkpt lat="46.35480883355647" lon="12.931594548691741"><ele>945.0</ele><time>2026-04-26T11:23:04Z</time></trkpt><trkpt lat="46.354979529355276" lon="12.931632589372224"><ele>944.6666666666667</ele><time>2026-04-26T11:23:05Z</time></trkpt><trkpt lat="46.35514778572787" lon="12.931675188835463"><ele>944.3333333333334</ele><time>2026-04-26T11:23:06Z</time></trkpt><trkpt lat="46.3553103084469" lon="12.931752662992773"><ele>944.0</ele><time>2026-04-26T11:23:07Z</time></trkpt><trkpt lat="46.35545521083323" lon="12.931880476111004"><ele>947.0</ele><time>2026-04-26T11:23:08Z</time></trkpt><trkpt lat="46.35557869774782" lon="12.932044133737033"><ele>950.0</ele><time>2026-04-26T11:23:09Z</time></trkpt><trkpt lat="46.355687291748254" lon="12.932234060977736"><ele>953.0</ele><time>2026-04-26T11:23:10Z</time></trkpt><trkpt lat="46.355804995641435" lon="12.93241785084962"><ele>950.6666666666667</ele><time>2026-04-26T11:23:11Z</time></trkpt><trkpt lat="46.35591974094958" lon="12.932609506780647"><ele>948.3333333333333</ele><time>2026-04-26T11:23:12Z</time></trkpt><trkpt lat="46.35599250987445" lon="12.932793282550858"><ele>946.0</ele><time>2026-04-26T11:23:13Z</time></trkpt><trkpt lat="46.35604552478314" lon="12.933043044039644"><ele>946.0</ele><time>2026-04-26T11:23:14Z</time></trkpt><trkpt lat="46.356075151281296" lon="12.933290379381871"><ele>946.0</ele><time>2026-04-26T11:23:15Z</time></trkpt><trkpt lat="46.35611632950483" lon="12.933529807151917"><ele>946.0</ele><time>2026-04-26T11:23:16Z</time></trkpt><trkpt lat="46.356159310033426" lon="12.933772196086762"><ele>946.0</ele><time>2026-04-26T11:23:17Z</time></trkpt><trkpt lat="46.35620025603316" lon="12.934012698361448"><ele>946.0</ele><time>2026-04-26T11:23:18Z</time></trkpt><trkpt lat="46.356249859962226" lon="12.93424015803003"><ele>946.0</ele><time>2026-04-26T11:23:19Z</time></trkpt><trkpt lat="46.356331275941976" lon="12.934431651995983"><ele>946.6666666666666</ele><time>2026-04-26T11:23:20Z</time></trkpt><trkpt lat="46.35644055959808" lon="12.934604351404705"><ele>947.3333333333333</ele><time>2026-04-26T11:23:21Z</time></trkpt><trkpt lat="46.3565780110537" lon="12.934731390462192"><ele>948.0</ele><time>2026-04-26T11:23:22Z</time></trkpt><trkpt lat="46.35673757207181" lon="12.934820632597438"><ele>948.0</ele><time>2026-04-26T11:23:23Z</time></trkpt><trkpt lat="46.35691497200019" lon="12.934892318402257"><ele>948.0</ele><time>2026-04-26T11:23:24Z</time></trkpt><trkpt lat="46.357096024500336" lon="12.934981067122925"><ele>948.0</ele><time>2026-04-26T11:23:25Z</time></trkpt><trkpt lat="46.35725918266536" lon="12.93509574120133"><ele>949.0</ele><time>2026-04-26T11:23:26Z</time></trkpt><trkpt lat="46.35739583157751" lon="12.935253995854502"><ele>950.0</ele><time>2026-04-26T11:23:27Z</time></trkpt><trkpt lat="46.357523620418156" lon="12.935453674481243"><ele>951.0</ele><time>2026-04-26T11:23:28Z</time></trkpt><trkpt lat="46.35766799754008" lon="12.935654228473934"><ele>951.0</ele><time>2026-04-26T11:23:29Z</time></trkpt><trkpt lat="46.35781629093384" lon="12.935846791936385"><ele>951.0</ele><time>2026-04-26T11:23:30Z</time></trkpt><trkpt lat="46.35796500871885" lon="12.9360419099656"><ele>951.0</ele><time>2026-04-26T11:23:31Z</time></trkpt><trkpt lat="46.35810205595446" lon="12.936247137170486"><ele>951.3333333333333</ele><time>2026-04-26T11:23:32Z</time></trkpt><trkpt lat="46.35820503353905" lon="12.936476539794114"><ele>951.6666666666666</ele><time>2026-04-26T11:23:33Z</time></trkpt><trkpt lat="46.358269091492154" lon="12.93671285144616"><ele>952.0</ele><time>2026-04-26T11:23:34Z</time></trkpt><trkpt lat="46.35832207733675" lon="12.936946433868144"><ele>952.0</ele><time>2026-04-26T11:23:35Z</time></trkpt><trkpt lat="46.358368481654814" lon="12.937169697713344"><ele>952.0</ele><time>2026-04-26T11:23:36Z</time></trkpt><trkpt lat="46.35842477933133" lon="12.937388437618228"><ele>952.0</ele><time>2026-04-26T11:23:37Z</time></trkpt><trkpt lat="46.35848096282525" lon="12.937615943938612"><ele>950.0</ele><time>2026-04-26T11:23:38Z</time></trkpt><trkpt lat="46.35853365174063" lon="12.937846555747011"><ele>948.0</ele><time>2026-04-26T11:23:39Z</time></trkpt><trkpt lat="46.35858826881503" lon="12.93807315660455"><ele>946.0</ele><time>2026-04-26T11:23:40Z</time></trkpt><trkpt lat="46.3586413962872" lon="12.938298808117132"><ele>944.6666666666666</ele><time>2026-04-26T11:23:41Z</time></trkpt><trkpt lat="46.358693876268525" lon="12.93852792549215"><ele>943.3333333333333</ele><time>2026-04-26T11:23:42Z</time></trkpt><trkpt lat="46.35874145504786" lon="12.938757738661229"><ele>942.0</ele><time>2026-04-26T11:23:43Z</time></trkpt><trkpt lat="46.35878837409357" lon="12.93897778176917"><ele>942.0</ele><time>2026-04-26T11:23:44Z</time></trkpt><trkpt lat="46.358835348816044" lon="12.939191136435028"><ele>942.0</ele><time>2026-04-26T11:23:45Z</time></trkpt><trkpt lat="46.358883158004936" lon="12.93940580774826"><ele>942.0</ele><time>2026-04-26T11:23:46Z</time></trkpt><trkpt lat="46.35893468512146" lon="12.939615254255456"><ele>944.3333333333333</ele><time>2026-04-26T11:23:47Z</time></trkpt><trkpt lat="46.35898580973194" lon="12.939826283372563"><ele>946.6666666666666</ele><time>2026-04-26T11:23:48Z</time></trkpt><trkpt lat="46.359035817911305" lon="12.940032394102184"><ele>949.0</ele><time>2026-04-26T11:23:49Z</time></trkpt><trkpt lat="46.35908520123012" lon="12.94023412816534"><ele>949.4000000000001</ele><time>2026-04-26T11:23:50Z</time></trkpt><trkpt lat="46.359125460222344" lon="12.940414511870424"><ele>949.8000000000001</ele><time>2026-04-26T11:23:51Z</time></trkpt><trkpt lat="46.359159216306494" lon="12.940577636213765"><ele>950.1999999999999</ele><time>2026-04-26T11:23:52Z</time></trkpt><trkpt lat="46.35919120474866" lon="12.940719993582197"><ele>950.5999999999999</ele><time>2026-04-26T11:23:53Z</time></trkpt><trkpt lat="46.35921572142286" lon="12.94084808814781"><ele>951.0</ele><time>2026-04-26T11:23:54Z</time></trkpt><trkpt lat="46.35922827155903" lon="12.940957762805533"><ele>951.8</ele><time>2026-04-26T11:23:55Z</time></trkpt><trkpt lat="46.35924637539849" lon="12.941109339903162"><ele>952.5999999999999</ele><time>2026-04-26T11:23:57Z</time></trkpt><trkpt lat="46.35924666308329" lon="12.941206257636315"><ele>953.4</ele><time>2026-04-26T11:24:00Z</time></trkpt><trkpt lat="46.359314085048524" lon="12.941353939404602"><ele>954.2</ele><time>2026-04-26T11:26:15Z</time></trkpt><trkpt lat="46.35937019279989" lon="12.941407547488048"><ele>955.0</ele><time>2026-04-26T11:26:16Z</time></trkpt><trkpt lat="46.35944863714237" lon="12.941487449308474"><ele>955.0</ele><time>2026-04-26T11:26:17Z</time></trkpt><trkpt lat="46.35950896308722" lon="12.94160833202723"><ele>955.0</ele><time>2026-04-26T11:26:18Z</time></trkpt><trkpt lat="46.35956075095204" lon="12.941733272235028"><ele>955.0</ele><time>2026-04-26T11:26:19Z</time></trkpt><trkpt lat="46.359634838913266" lon="12.94186700036205"><ele>955.0</ele><time>2026-04-26T11:26:20Z</time></trkpt><trkpt lat="46.35970746047959" lon="12.942032185992046"><ele>953.0</ele><time>2026-04-26T11:26:21Z</time></trkpt><trkpt lat="46.35981133794134" lon="12.942194293700572"><ele>951.0</ele><time>2026-04-26T11:26:22Z</time></trkpt><trkpt lat="46.359902749913054" lon="12.942364311413497"><ele>949.0</ele><time>2026-04-26T11:26:23Z</time></trkpt><trkpt lat="46.35997614548899" lon="12.942509126646785"><ele>947.0</ele><time>2026-04-26T11:26:24Z</time></trkpt><trkpt lat="46.36004657830684" lon="12.942653696684742"><ele>945.25</ele><time>2026-04-26T11:26:25Z</time></trkpt><trkpt lat="46.36013157355485" lon="12.94280502687471"><ele>943.5</ele><time>2026-04-26T11:26:26Z</time></trkpt><trkpt lat="46.36023387790633" lon="12.942959811433902"><ele>941.75</ele><time>2026-04-26T11:26:27Z</time></trkpt><trkpt lat="46.36030446092122" lon="12.943137741694201"><ele>940.0</ele><time>2026-04-26T11:26:28Z</time></trkpt><trkpt lat="46.36034176084431" lon="12.943312065198686"><ele>939.75</ele><time>2026-04-26T11:26:29Z</time></trkpt><trkpt lat="46.36035091704826" lon="12.943533085084892"><ele>939.5</ele><time>2026-04-26T11:26:30Z</time></trkpt><trkpt lat="46.36035182134586" lon="12.943742570091056"><ele>939.25</ele><time>2026-04-26T11:26:31Z</time></trkpt><trkpt lat="46.36035769473191" lon="12.94390953916051"><ele>939.0</ele><time>2026-04-26T11:26:32Z</time></trkpt><trkpt lat="46.360387735399605" lon="12.944074355885608"><ele>939.2</ele><time>2026-04-26T11:26:33Z</time></trkpt><trkpt lat="46.36043324395435" lon="12.944232807491606"><ele>939.4000000000001</ele><time>2026-04-26T11:26:34Z</time></trkpt><trkpt lat="46.360487832380414" lon="12.944379843523762"><ele>939.6</ele><time>2026-04-26T11:26:35Z</time></trkpt><trkpt lat="46.36054689207849" lon="12.944492284225415"><ele>939.8</ele><time>2026-04-26T11:26:36Z</time></trkpt><trkpt lat="46.360607475405786" lon="12.944610336520416"><ele>940.0</ele><time>2026-04-26T11:26:37Z</time></trkpt><trkpt lat="46.36067605226993" lon="12.944761027055876"><ele>939.0</ele><time>2026-04-26T11:26:38Z</time></trkpt><trkpt lat="46.360768309980514" lon="12.944944128797596"><ele>938.0</ele><time>2026-04-26T11:26:39Z</time></trkpt><trkpt lat="46.36086586629438" lon="12.945147344046903"><ele>937.0</ele><time>2026-04-26T11:26:40Z</time></trkpt><trkpt lat="46.36093614442333" lon="12.94534264576193"><ele>935.6666666666666</ele><time>2026-04-26T11:26:41Z</time></trkpt><trkpt lat="46.36101770365613" lon="12.94552860305829"><ele>934.3333333333333</ele><time>2026-04-26T11:26:42Z</time></trkpt><trkpt lat="46.36111167528281" lon="12.94573459687353"><ele>933.0</ele><time>2026-04-26T11:26:43Z</time></trkpt><trkpt lat="46.361223676280005" lon="12.945935162288965"><ele>932.3333333333333</ele><time>2026-04-26T11:26:44Z</time></trkpt><trkpt lat="46.361332305693054" lon="12.946139521110123"><ele>931.6666666666666</ele><time>2026-04-26T11:26:45Z</time></trkpt><trkpt lat="46.36143465855544" lon="12.946331981100432"><ele>931.0</ele><time>2026-04-26T11:26:46Z</time></trkpt><trkpt lat="46.36153566155795" lon="12.946526687130584"><ele>931.0</ele><time>2026-04-26T11:26:47Z</time></trkpt><trkpt lat="46.361663015901286" lon="12.946702937368524"><ele>931.0</ele><time>2026-04-26T11:26:48Z</time></trkpt><trkpt lat="46.36180053612738" lon="12.946860141640029"><ele>931.0</ele><time>2026-04-26T11:26:49Z</time></trkpt><trkpt lat="46.3619387487455" lon="12.946994379893349"><ele>929.5</ele><time>2026-04-26T11:26:50Z</time></trkpt><trkpt lat="46.36206011462187" lon="12.947134684325437"><ele>928.0</ele><time>2026-04-26T11:26:51Z</time></trkpt><trkpt lat="46.36218317155835" lon="12.947209995692923"><ele>926.5</ele><time>2026-04-26T11:26:52Z</time></trkpt><trkpt lat="46.36229304755875" lon="12.947360598161723"><ele>925.0</ele><time>2026-04-26T11:26:53Z</time></trkpt><trkpt lat="46.362394548793695" lon="12.947548496176912"><ele>922.3333333333333</ele><time>2026-04-26T11:26:54Z</time></trkpt><trkpt lat="46.36248488907391" lon="12.947755743331"><ele>919.6666666666667</ele><time>2026-04-26T11:26:55Z</time></trkpt><trkpt lat="46.362566209283614" lon="12.947946740369698"><ele>917.0</ele><time>2026-04-26T11:26:56Z</time></trkpt><trkpt lat="46.36263518402598" lon="12.948132015877789"><ele>917.0</ele><time>2026-04-26T11:26:57Z</time></trkpt><trkpt lat="46.36270625341236" lon="12.948303716328388"><ele>917.0</ele><time>2026-04-26T11:26:58Z</time></trkpt><trkpt lat="46.36275487157008" lon="12.948512843836525"><ele>917.0</ele><time>2026-04-26T11:26:59Z</time></trkpt><trkpt lat="46.36279642872029" lon="12.94871770219355"><ele>917.0</ele><time>2026-04-26T11:27:00Z</time></trkpt><trkpt lat="46.362849190799786" lon="12.948899845738751"><ele>915.25</ele><time>2026-04-26T11:27:01Z</time></trkpt><trkpt lat="46.362908258822756" lon="12.949076078542465"><ele>913.5</ele><time>2026-04-26T11:27:02Z</time></trkpt><trkpt lat="46.3629661996431" lon="12.949249366886576"><ele>911.75</ele><time>2026-04-26T11:27:03Z</time></trkpt><trkpt lat="46.36302631832401" lon="12.949411769729654"><ele>910.0</ele><time>2026-04-26T11:27:04Z</time></trkpt><trkpt lat="46.36308094734345" lon="12.949595469427019"><ele>910.0</ele><time>2026-04-26T11:27:05Z</time></trkpt><trkpt lat="46.363145055022" lon="12.949807005549241"><ele>910.0</ele><time>2026-04-26T11:27:06Z</time></trkpt><trkpt lat="46.3632190882855" lon="12.95003389458104"><ele>910.0</ele><time>2026-04-26T11:27:07Z</time></trkpt><trkpt lat="46.3632865942835" lon="12.950262463449777"><ele>907.6666666666666</ele><time>2026-04-26T11:27:08Z</time></trkpt><trkpt lat="46.363343010292155" lon="12.950477923352352"><ele>905.3333333333333</ele><time>2026-04-26T11:27:09Z</time></trkpt><trkpt lat="46.3633743200163" lon="12.950680405576769"><ele>903.0</ele><time>2026-04-26T11:27:10Z</time></trkpt><trkpt lat="46.363378982892485" lon="12.950912356119897"><ele>900.0</ele><time>2026-04-26T11:27:11Z</time></trkpt><trkpt lat="46.36335154266576" lon="12.951130769577096"><ele>897.0</ele><time>2026-04-26T11:27:12Z</time></trkpt><trkpt lat="46.36331857248429" lon="12.951334999714195"><ele>894.0</ele><time>2026-04-26T11:27:13Z</time></trkpt><trkpt lat="46.36332183377001" lon="12.951523627082318"><ele>891.0</ele><time>2026-04-26T11:27:13.999Z</time></trkpt><trkpt lat="46.36338795416188" lon="12.951683191475801"><ele>886.6666666666667</ele><time>2026-04-26T11:27:14.999Z</time></trkpt><trkpt lat="46.363497844671436" lon="12.951836443349626"><ele>882.3333333333334</ele><time>2026-04-26T11:27:15.999Z</time></trkpt><trkpt lat="46.36361723626298" lon="12.952010150721337"><ele>878.0</ele><time>2026-04-26T11:27:16.999Z</time></trkpt><trkpt lat="46.36372655067918" lon="12.95218825483208"><ele>878.0</ele><time>2026-04-26T11:27:17.999Z</time></trkpt><trkpt lat="46.363823942444945" lon="12.952357227843864"><ele>878.0</ele><time>2026-04-26T11:27:18.999Z</time></trkpt><trkpt lat="46.36392899658388" lon="12.952515535746608"><ele>878.0</ele><time>2026-04-26T11:27:19.999Z</time></trkpt><trkpt lat="46.3640484969488" lon="12.952675232477906"><ele>878.6666666666667</ele><time>2026-04-26T11:27:20.999Z</time></trkpt><trkpt lat="46.364200795617954" lon="12.952800535325636"><ele>879.3333333333333</ele><time>2026-04-26T11:27:21.999Z</time></trkpt><trkpt lat="46.36437844188258" lon="12.952921093971508"><ele>880.0</ele><time>2026-04-26T11:27:22.999Z</time></trkpt><trkpt lat="46.36454720439734" lon="12.953085068706205"><ele>880.0</ele><time>2026-04-26T11:27:23.999Z</time></trkpt><trkpt lat="46.36468985090274" lon="12.95329501886619"><ele>880.0</ele><time>2026-04-26T11:27:25Z</time></trkpt><trkpt lat="46.364825868955855" lon="12.953508817857688"><ele>880.0</ele><time>2026-04-26T11:27:26Z</time></trkpt><trkpt lat="46.36496979986448" lon="12.953711869275308"><ele>876.6666666666666</ele><time>2026-04-26T11:27:27Z</time></trkpt><trkpt lat="46.36511242932626" lon="12.953907133873773"><ele>873.3333333333333</ele><time>2026-04-26T11:27:28Z</time></trkpt><trkpt lat="46.365254684694875" lon="12.95408735006777"><ele>870.0</ele><time>2026-04-26T11:27:29Z</time></trkpt><trkpt lat="46.36540030463576" lon="12.954263307090441"><ele>871.6666666666667</ele><time>2026-04-26T11:27:30Z</time></trkpt><trkpt lat="46.36555644607499" lon="12.954453449019434"><ele>873.3333333333334</ele><time>2026-04-26T11:27:31Z</time></trkpt><trkpt lat="46.365718233115814" lon="12.954650606773495"><ele>875.0</ele><time>2026-04-26T11:27:32Z</time></trkpt><trkpt lat="46.365876956469954" lon="12.954840035012953"><ele>875.0</ele><time>2026-04-26T11:27:33Z</time></trkpt><trkpt lat="46.36603042870471" lon="12.955014193026173"><ele>875.0</ele><time>2026-04-26T11:27:34Z</time></trkpt><trkpt lat="46.36617900371385" lon="12.955184829038757"><ele>875.0</ele><time>2026-04-26T11:27:35Z</time></trkpt><trkpt lat="46.36633121334051" lon="12.955362057004937"><ele>871.0</ele><time>2026-04-26T11:27:36Z</time></trkpt><trkpt lat="46.36647903787717" lon="12.95554138427831"><ele>867.0</ele><time>2026-04-26T11:27:37Z</time></trkpt><trkpt lat="46.36662045948242" lon="12.955706757101979"><ele>863.0</ele><time>2026-04-26T11:27:38Z</time></trkpt><trkpt lat="46.366758878867856" lon="12.955861230774804"><ele>858.0</ele><time>2026-04-26T11:27:39Z</time></trkpt><trkpt lat="46.36689663039861" lon="12.955997889621267"><ele>853.0</ele><time>2026-04-26T11:27:40Z</time></trkpt><trkpt lat="46.36703249094433" lon="12.956115035828882"><ele>848.0</ele><time>2026-04-26T11:27:41Z</time></trkpt><trkpt lat="46.36715422923821" lon="12.956211652311612"><ele>852.2</ele><time>2026-04-26T11:27:42Z</time></trkpt><trkpt lat="46.36725791854328" lon="12.956286345730865"><ele>856.4</ele><time>2026-04-26T11:27:43Z</time></trkpt><trkpt lat="46.367336762164484" lon="12.956356250795555"><ele>860.6000000000001</ele><time>2026-04-26T11:27:44Z</time></trkpt><trkpt lat="46.36737126191047" lon="12.956462980043145"><ele>864.8000000000001</ele><time>2026-04-26T11:27:45Z</time></trkpt><trkpt lat="46.367350259367214" lon="12.956580380270253"><ele>869.0</ele><time>2026-04-26T11:27:46Z</time></trkpt><trkpt lat="46.36727596928378" lon="12.956687627096189"><ele>863.75</ele><time>2026-04-26T11:27:47Z</time></trkpt><trkpt lat="46.36717665452192" lon="12.956702108361945"><ele>858.5</ele><time>2026-04-26T11:27:48Z</time></trkpt><trkpt lat="46.36709829565238" lon="12.95660053460866"><ele>853.25</ele><time>2026-04-26T11:27:49Z</time></trkpt><trkpt lat="46.367004637605724" lon="12.956496396492666"><ele>848.0</ele><time>2026-04-26T11:27:50Z</time></trkpt><trkpt lat="46.366888229698176" lon="12.956369235835641"><ele>848.0</ele><time>2026-04-26T11:27:51Z</time></trkpt><trkpt lat="46.36676902045676" lon="12.956230612201711"><ele>848.0</ele><time>2026-04-26T11:27:52Z</time></trkpt><trkpt lat="46.36662799845371" lon="12.95610592375654"><ele>848.0</ele><time>2026-04-26T11:27:53Z</time></trkpt><trkpt lat="46.36645079170294" lon="12.956029617290616"><ele>845.6666666666667</ele><time>2026-04-26T11:27:54Z</time></trkpt><trkpt lat="46.36625059769713" lon="12.955983558571026"><ele>843.3333333333333</ele><time>2026-04-26T11:27:55Z</time></trkpt><trkpt lat="46.366051524753324" lon="12.955933115138388"><ele>841.0</ele><time>2026-04-26T11:27:56Z</time></trkpt><trkpt lat="46.365855046068745" lon="12.955918866630903"><ele>842.0</ele><time>2026-04-26T11:27:57Z</time></trkpt><trkpt lat="46.365670855787975" lon="12.955848666889922"><ele>843.0</ele><time>2026-04-26T11:27:58Z</time></trkpt><trkpt lat="46.365472450791245" lon="12.955792061824809"><ele>844.0</ele><time>2026-04-26T11:27:59Z</time></trkpt><trkpt lat="46.36526708478716" lon="12.955673627810366"><ele>844.0</ele><time>2026-04-26T11:28:00Z</time></trkpt><trkpt lat="46.36508171324089" lon="12.955557088921639"><ele>844.0</ele><time>2026-04-26T11:28:01Z</time></trkpt><trkpt lat="46.36491002074515" lon="12.955445218724114"><ele>844.0</ele><time>2026-04-26T11:28:02Z</time></trkpt><trkpt lat="46.36475246972559" lon="12.955355950288409"><ele>844.5</ele><time>2026-04-26T11:28:03Z</time></trkpt><trkpt lat="46.36460482938367" lon="12.955267044252167"><ele>845.0</ele><time>2026-04-26T11:28:04Z</time></trkpt><trkpt lat="46.36447863661697" lon="12.95518810763496"><ele>845.5</ele><time>2026-04-26T11:28:05Z</time></trkpt><trkpt lat="46.36438259578438" lon="12.955125504169407"><ele>846.0</ele><time>2026-04-26T11:28:06Z</time></trkpt><trkpt lat="46.36429706933487" lon="12.955116976495393"><ele>846.0</ele><time>2026-04-26T11:28:07Z</time></trkpt><trkpt lat="46.36422199752358" lon="12.95518223524748"><ele>846.0</ele><time>2026-04-26T11:28:08Z</time></trkpt><trkpt lat="46.364175812937695" lon="12.95528739039698"><ele>846.0</ele><time>2026-04-26T11:28:09Z</time></trkpt><trkpt lat="46.364174265850366" lon="12.95542753718748"><ele>846.0</ele><time>2026-04-26T11:28:10Z</time></trkpt><trkpt lat="46.364226624645426" lon="12.955547259178129"><ele>846.0</ele><time>2026-04-26T11:28:11Z</time></trkpt><trkpt lat="46.364328826875" lon="12.95562588700085"><ele>846.0</ele><time>2026-04-26T11:28:12Z</time></trkpt><trkpt lat="46.36446784332572" lon="12.955709561640154"><ele>846.0</ele><time>2026-04-26T11:28:13Z</time></trkpt><trkpt lat="46.36461715098508" lon="12.955846109885895"><ele>846.0</ele><time>2026-04-26T11:28:14Z</time></trkpt><trkpt lat="46.364753964883846" lon="12.956015103086447"><ele>843.3333333333333</ele><time>2026-04-26T11:28:15Z</time></trkpt><trkpt lat="46.364896825337695" lon="12.956225789897886"><ele>840.6666666666666</ele><time>2026-04-26T11:28:16Z</time></trkpt><trkpt lat="46.36502905774602" lon="12.956423895915925"><ele>838.0</ele><time>2026-04-26T11:28:17Z</time></trkpt><trkpt lat="46.3651801637555" lon="12.956583108837698"><ele>838.0</ele><time>2026-04-26T11:28:18Z</time></trkpt><trkpt lat="46.365351311880836" lon="12.956731822665922"><ele>838.0</ele><time>2026-04-26T11:28:19Z</time></trkpt><trkpt lat="46.36554491395829" lon="12.956863946025347"><ele>838.0</ele><time>2026-04-26T11:28:20Z</time></trkpt><trkpt lat="46.365761121528536" lon="12.956980637106783"><ele>834.3333333333333</ele><time>2026-04-26T11:28:21Z</time></trkpt><trkpt lat="46.365963713127826" lon="12.95707990516133"><ele>830.6666666666667</ele><time>2026-04-26T11:28:22Z</time></trkpt><trkpt lat="46.36613796527698" lon="12.95717532864663"><ele>827.0</ele><time>2026-04-26T11:28:23Z</time></trkpt><trkpt lat="46.36629338233074" lon="12.957276951402578"><ele>828.3333333333334</ele><time>2026-04-26T11:28:24Z</time></trkpt><trkpt lat="46.3664207310317" lon="12.9574492328318"><ele>829.6666666666667</ele><time>2026-04-26T11:28:25Z</time></trkpt><trkpt lat="46.3665449362472" lon="12.957669586671116"><ele>831.0</ele><time>2026-04-26T11:28:26Z</time></trkpt><trkpt lat="46.36668063475236" lon="12.957867527085028"><ele>826.3333333333333</ele><time>2026-04-26T11:28:27Z</time></trkpt><trkpt lat="46.366784422827656" lon="12.958082864615363"><ele>821.6666666666666</ele><time>2026-04-26T11:28:28Z</time></trkpt><trkpt lat="46.366858839848646" lon="12.958340825697768"><ele>817.0</ele><time>2026-04-26T11:28:29Z</time></trkpt><trkpt lat="46.36691973352015" lon="12.958604467285216"><ele>813.3333333333333</ele><time>2026-04-26T11:28:30Z</time></trkpt><trkpt lat="46.366959617912876" lon="12.958849164034289"><ele>809.6666666666667</ele><time>2026-04-26T11:28:31Z</time></trkpt><trkpt lat="46.367025651169214" lon="12.959070242359271"><ele>806.0</ele><time>2026-04-26T11:28:32Z</time></trkpt><trkpt lat="46.36706723885086" lon="12.959288443270575"><ele>802.6666666666667</ele><time>2026-04-26T11:28:33Z</time></trkpt><trkpt lat="46.36708836969707" lon="12.959510357998436"><ele>799.3333333333333</ele><time>2026-04-26T11:28:34Z</time></trkpt><trkpt lat="46.367079234382224" lon="12.95973571255159"><ele>796.0</ele><time>2026-04-26T11:28:35Z</time></trkpt><trkpt lat="46.3670327665677" lon="12.959958101999916"><ele>796.25</ele><time>2026-04-26T11:28:36Z</time></trkpt><trkpt lat="46.36695913590178" lon="12.960154964769577"><ele>796.5</ele><time>2026-04-26T11:28:37Z</time></trkpt><trkpt lat="46.36689297054369" lon="12.960313254472977"><ele>796.75</ele><time>2026-04-26T11:28:38Z</time></trkpt><trkpt lat="46.36686746801113" lon="12.960444238198576"><ele>797.0</ele><time>2026-04-26T11:28:39Z</time></trkpt><trkpt lat="46.36689723993626" lon="12.96057936816086"><ele>797.0</ele><time>2026-04-26T11:28:40Z</time></trkpt><trkpt lat="46.36697433809929" lon="12.960674078634742"><ele>797.0</ele><time>2026-04-26T11:28:41Z</time></trkpt><trkpt lat="46.36709226500631" lon="12.960715963348779"><ele>797.0</ele><time>2026-04-26T11:28:42Z</time></trkpt><trkpt lat="46.36719925384132" lon="12.960746155252934"><ele>797.0</ele><time>2026-04-26T11:28:43Z</time></trkpt><trkpt lat="46.367272056257235" lon="12.960802578311323"><ele>797.0</ele><time>2026-04-26T11:28:44Z</time></trkpt><trkpt lat="46.367298804827165" lon="12.960900253098611"><ele>798.0</ele><time>2026-04-26T11:28:45Z</time></trkpt><trkpt lat="46.36728036697743" lon="12.961030776112285"><ele>799.0</ele><time>2026-04-26T11:28:46Z</time></trkpt><trkpt lat="46.36720565732346" lon="12.961116735090679"><ele>800.0</ele><time>2026-04-26T11:28:47Z</time></trkpt><trkpt lat="46.367122490451735" lon="12.961124100062891"><ele>801.0</ele><time>2026-04-26T11:28:48Z</time></trkpt><trkpt lat="46.36702082164003" lon="12.961130225881037"><ele>802.0</ele><time>2026-04-26T11:28:49Z</time></trkpt><trkpt lat="46.36693523934371" lon="12.961150848970195"><ele>801.9999999999999</ele><time>2026-04-26T11:28:50Z</time></trkpt><trkpt lat="46.36684416260978" lon="12.961153062030396"><ele>802.0</ele><time>2026-04-26T11:28:51Z</time></trkpt><trkpt lat="46.36675760824242" lon="12.961116812865045"><ele>802.0</ele><time>2026-04-26T11:28:52Z</time></trkpt><trkpt lat="46.366668885309586" lon="12.961098071442292"><ele>802.0</ele><time>2026-04-26T11:28:53Z</time></trkpt><trkpt lat="46.36658391871605" lon="12.961101597636748"><ele>801.9999999999999</ele><time>2026-04-26T11:28:54Z</time></trkpt><trkpt lat="46.366498930211804" lon="12.961111860633567"><ele>802.0</ele><time>2026-04-26T11:28:55Z</time></trkpt><trkpt lat="46.3664080961055" lon="12.961176570081749"><ele>799.6</ele><time>2026-04-26T11:28:56Z</time></trkpt><trkpt lat="46.366349790946124" lon="12.961277908568947"><ele>797.2</ele><time>2026-04-26T11:28:57Z</time></trkpt><trkpt lat="46.36630929196511" lon="12.96140115302663"><ele>794.8</ele><time>2026-04-26T11:28:58Z</time></trkpt><trkpt lat="46.36627093589184" lon="12.961513117679278"><ele>792.4</ele><time>2026-04-26T11:28:59Z</time></trkpt><trkpt lat="46.366222501647805" lon="12.961624702356042"><ele>790.0</ele><time>2026-04-26T11:29:00Z</time></trkpt><trkpt lat="46.3661539201835" lon="12.961726578485411"><ele>790.0</ele><time>2026-04-26T11:29:01Z</time></trkpt><trkpt lat="46.36606162436659" lon="12.961832048537033"><ele>790.0</ele><time>2026-04-26T11:29:02Z</time></trkpt><trkpt lat="46.365974146929" lon="12.961909265804982"><ele>790.0</ele><time>2026-04-26T11:29:03Z</time></trkpt><trkpt lat="46.36588218358418" lon="12.96199179293535"><ele>790.0</ele><time>2026-04-26T11:29:04Z</time></trkpt><trkpt lat="46.36581026326683" lon="12.962115412053599"><ele>790.0</ele><time>2026-04-26T11:29:05.001Z</time></trkpt><trkpt lat="46.36573272396825" lon="12.96230351433147"><ele>792.3333333333333</ele><time>2026-04-26T11:29:06.001Z</time></trkpt><trkpt lat="46.365668227038284" lon="12.962555028516974"><ele>794.6666666666667</ele><time>2026-04-26T11:29:07.001Z</time></trkpt><trkpt lat="46.3655844921077" lon="12.962838434971292"><ele>797.0</ele><time>2026-04-26T11:29:08.001Z</time></trkpt><trkpt lat="46.36551213862585" lon="12.96310547584817"><ele>783.3333333333334</ele><time>2026-04-26T11:29:09.001Z</time></trkpt><trkpt lat="46.36541614336013" lon="12.9633909211623"><ele>769.6666666666667</ele><time>2026-04-26T11:29:10.001Z</time></trkpt><trkpt lat="46.36531781692458" lon="12.963669818963059"><ele>756.0</ele><time>2026-04-26T11:29:11.001Z</time></trkpt><trkpt lat="46.365248455213425" lon="12.963912378990363"><ele>756.0</ele><time>2026-04-26T11:29:12.001Z</time></trkpt><trkpt lat="46.365226738208584" lon="12.964133603399794"><ele>756.0</ele><time>2026-04-26T11:29:13.001Z</time></trkpt><trkpt lat="46.36516638061815" lon="12.964360937658435"><ele>756.0</ele><time>2026-04-26T11:29:14.001Z</time></trkpt><trkpt lat="46.36511220057741" lon="12.964564887863528"><ele>754.5</ele><time>2026-04-26T11:29:15.001Z</time></trkpt><trkpt lat="46.36509027672608" lon="12.96476458077874"><ele>753.0</ele><time>2026-04-26T11:29:16.001Z</time></trkpt><trkpt lat="46.365123491807886" lon="12.964962861830507"><ele>751.5</ele><time>2026-04-26T11:29:17.001Z</time></trkpt><trkpt lat="46.3652097278297" lon="12.9651338644467"><ele>750.0</ele><time>2026-04-26T11:29:18.001Z</time></trkpt><trkpt lat="46.36534303894574" lon="12.965258856654653"><ele>747.6666666666666</ele><time>2026-04-26T11:29:19.001Z</time></trkpt><trkpt lat="46.365495917957396" lon="12.96529404297452"><ele>745.3333333333333</ele><time>2026-04-26T11:29:20Z</time></trkpt><trkpt lat="46.36566498965424" lon="12.965278860269594"><ele>743.0</ele><time>2026-04-26T11:29:21Z</time></trkpt><trkpt lat="46.36585556674589" lon="12.965222870175449"><ele>743.0</ele><time>2026-04-26T11:29:22Z</time></trkpt><trkpt lat="46.366069865878785" lon="12.965186197754836"><ele>743.0</ele><time>2026-04-26T11:29:23Z</time></trkpt><trkpt lat="46.36628826932148" lon="12.96518486625652"><ele>743.0</ele><time>2026-04-26T11:29:24Z</time></trkpt><trkpt lat="46.36650768523599" lon="12.965210178379202"><ele>741.3333333333333</ele><time>2026-04-26T11:29:25Z</time></trkpt><trkpt lat="46.36671351127769" lon="12.96528733158851"><ele>739.6666666666666</ele><time>2026-04-26T11:29:26Z</time></trkpt><trkpt lat="46.3669254109074" lon="12.965354085199126"><ele>738.0</ele><time>2026-04-26T11:29:27Z</time></trkpt><trkpt lat="46.36714166274759" lon="12.965372775173135"><ele>733.0</ele><time>2026-04-26T11:29:28Z</time></trkpt><trkpt lat="46.367361500260884" lon="12.965384794122544"><ele>728.0</ele><time>2026-04-26T11:29:29Z</time></trkpt><trkpt lat="46.367595854681426" lon="12.965393138100294"><ele>728.0</ele><time>2026-04-26T11:29:30Z</time></trkpt><trkpt lat="46.36783445167432" lon="12.965390414276674"><ele>728.0</ele><time>2026-04-26T11:29:31Z</time></trkpt><trkpt lat="46.36806486644929" lon="12.965371829395444"><ele>726.6666666666666</ele><time>2026-04-26T11:29:32Z</time></trkpt><trkpt lat="46.368277650531276" lon="12.965358117525112"><ele>725.3333333333334</ele><time>2026-04-26T11:29:33Z</time></trkpt><trkpt lat="46.368492815543746" lon="12.965383848229386"><ele>724.0</ele><time>2026-04-26T11:29:34Z</time></trkpt><trkpt lat="46.36870765769984" lon="12.965404007761009"><ele>722.0</ele><time>2026-04-26T11:29:35Z</time></trkpt><trkpt lat="46.3689261551076" lon="12.965420141927506"><ele>720.0</ele><time>2026-04-26T11:29:36Z</time></trkpt><trkpt lat="46.36914640697726" lon="12.96545606131721"><ele>718.0</ele><time>2026-04-26T11:29:37Z</time></trkpt><trkpt lat="46.369355140918145" lon="12.965509086990707"><ele>718.0</ele><time>2026-04-26T11:29:38Z</time></trkpt><trkpt lat="46.36956631943423" lon="12.965541258203478"><ele>718.0</ele><time>2026-04-26T11:29:39Z</time></trkpt><trkpt lat="46.369767047803016" lon="12.965598890975713"><ele>718.0</ele><time>2026-04-26T11:29:40Z</time></trkpt><trkpt lat="46.369954918062554" lon="12.965648893099168"><ele>719.0</ele><time>2026-04-26T11:29:41Z</time></trkpt><trkpt lat="46.370149361962724" lon="12.9657378548124"><ele>720.0</ele><time>2026-04-26T11:29:42Z</time></trkpt><trkpt lat="46.37030515073121" lon="12.965847764962152"><ele>721.0</ele><time>2026-04-26T11:29:43Z</time></trkpt><trkpt lat="46.37042709567683" lon="12.96593950341523"><ele>713.0</ele><time>2026-04-26T11:29:44Z</time></trkpt><trkpt lat="46.370542055019044" lon="12.966018579703674"><ele>705.0</ele><time>2026-04-26T11:29:45Z</time></trkpt><trkpt lat="46.37068834164567" lon="12.966093034377979"><ele>697.0</ele><time>2026-04-26T11:29:46Z</time></trkpt><trkpt lat="46.37087801626197" lon="12.966092661959934"><ele>697.0</ele><time>2026-04-26T11:29:47Z</time></trkpt><trkpt lat="46.37108652259362" lon="12.966050525366281"><ele>697.0</ele><time>2026-04-26T11:29:48Z</time></trkpt><trkpt lat="46.371300968937284" lon="12.966013659374287"><ele>697.0</ele><time>2026-04-26T11:29:49Z</time></trkpt><trkpt lat="46.37149569476313" lon="12.96600315016194"><ele>694.6666666666667</ele><time>2026-04-26T11:29:50Z</time></trkpt><trkpt lat="46.371688493119684" lon="12.965984094585503"><ele>692.3333333333334</ele><time>2026-04-26T11:29:51Z</time></trkpt><trkpt lat="46.37187718087362" lon="12.965965275009482"><ele>690.0</ele><time>2026-04-26T11:29:52Z</time></trkpt><trkpt lat="46.37206226133428" lon="12.965937613391429"><ele>692.0</ele><time>2026-04-26T11:29:53Z</time></trkpt><trkpt lat="46.37224407284938" lon="12.965849164870283"><ele>694.0</ele><time>2026-04-26T11:29:54Z</time></trkpt><trkpt lat="46.372412129253966" lon="12.965699663636347"><ele>696.0</ele><time>2026-04-26T11:29:55Z</time></trkpt><trkpt lat="46.372564133196974" lon="12.965493767278444"><ele>696.0</ele><time>2026-04-26T11:29:56Z</time></trkpt><trkpt lat="46.37272211850555" lon="12.965291887006439"><ele>696.0</ele><time>2026-04-26T11:29:57Z</time></trkpt><trkpt lat="46.37288437116208" lon="12.965137751265319"><ele>696.0</ele><time>2026-04-26T11:29:58Z</time></trkpt><trkpt lat="46.37305387108672" lon="12.965020607825783"><ele>693.6666666666666</ele><time>2026-04-26T11:29:59Z</time></trkpt><trkpt lat="46.373238254681134" lon="12.964927380962633"><ele>691.3333333333333</ele><time>2026-04-26T11:30:00Z</time></trkpt><trkpt lat="46.37339084124083" lon="12.964836537576504"><ele>689.0</ele><time>2026-04-26T11:30:01Z</time></trkpt><trkpt lat="46.3735186024008" lon="12.964748192493648"><ele>689.0</ele><time>2026-04-26T11:30:02Z</time></trkpt><trkpt lat="46.37361591726131" lon="12.964629483616594"><ele>689.0</ele><time>2026-04-26T11:30:03Z</time></trkpt><trkpt lat="46.37367079438868" lon="12.964483830032174"><ele>689.0</ele><time>2026-04-26T11:30:04Z</time></trkpt><trkpt lat="46.37367787371209" lon="12.964325558331286"><ele>689.0</ele><time>2026-04-26T11:30:05Z</time></trkpt><trkpt lat="46.37362815594928" lon="12.964192166799062"><ele>691.6</ele><time>2026-04-26T11:30:06Z</time></trkpt><trkpt lat="46.37355156515044" lon="12.96407031692405"><ele>694.2</ele><time>2026-04-26T11:30:07Z</time></trkpt><trkpt lat="46.373496773629036" lon="12.963955716610778"><ele>696.8000000000001</ele><time>2026-04-26T11:30:08Z</time></trkpt><trkpt lat="46.373478186146876" lon="12.963847724134373"><ele>699.4000000000001</ele><time>2026-04-26T11:30:09Z</time></trkpt><trkpt lat="46.37350506907059" lon="12.963718454002526"><ele>702.0</ele><time>2026-04-26T11:30:10Z</time></trkpt><trkpt lat="46.37359116490971" lon="12.96359316451899"><ele>702.0</ele><time>2026-04-26T11:30:11Z</time></trkpt><trkpt lat="46.3736840908927" lon="12.963433884789204"><ele>702.0</ele><time>2026-04-26T11:30:12Z</time></trkpt><trkpt lat="46.373766131743224" lon="12.9633185277481"><ele>702.0</ele><time>2026-04-26T11:30:13Z</time></trkpt><trkpt lat="46.37381931452262" lon="12.96319107106989"><ele>702.0</ele><time>2026-04-26T11:30:14Z</time></trkpt><trkpt lat="46.37383810320478" lon="12.963037308524667"><ele>703.8</ele><time>2026-04-26T11:30:15Z</time></trkpt><trkpt lat="46.37379632043921" lon="12.962871365382348"><ele>705.6</ele><time>2026-04-26T11:30:16Z</time></trkpt><trkpt lat="46.37374098605409" lon="12.962731621280085"><ele>707.4</ele><time>2026-04-26T11:30:17Z</time></trkpt><trkpt lat="46.373697711000396" lon="12.96263809021013"><ele>709.1999999999999</ele><time>2026-04-26T11:30:18Z</time></trkpt><trkpt lat="46.37371082009792" lon="12.962492846792806"><ele>711.0</ele><time>2026-04-26T11:30:20Z</time></trkpt><trkpt lat="46.37376687114371" lon="12.962407359309328"><ele>711.0</ele><time>2026-04-26T11:30:21Z</time></trkpt><trkpt lat="46.37384865747283" lon="12.96237049003057"><ele>711.0</ele><time>2026-04-26T11:30:22Z</time></trkpt><trkpt lat="46.373929342032795" lon="12.962369215327508"><ele>711.0</ele><time>2026-04-26T11:30:23Z</time></trkpt><trkpt lat="46.37400810404585" lon="12.962366088633944"><ele>711.0</ele><time>2026-04-26T11:30:24Z</time></trkpt><trkpt lat="46.37410647178176" lon="12.962363728037742"><ele>711.0</ele><time>2026-04-26T11:30:25Z</time></trkpt><trkpt lat="46.37418438257607" lon="12.962347736278028"><ele>711.0</ele><time>2026-04-26T11:30:26Z</time></trkpt><trkpt lat="46.37428249058843" lon="12.962339839377808"><ele>705.1666666666666</ele><time>2026-04-26T11:30:27Z</time></trkpt><trkpt lat="46.37437228039915" lon="12.962354421240493"><ele>699.3333333333334</ele><time>2026-04-26T11:30:28Z</time></trkpt><trkpt lat="46.37445053550914" lon="12.962389381611596"><ele>693.5</ele><time>2026-04-26T11:30:29Z</time></trkpt><trkpt lat="46.37452281478381" lon="12.962480233971794"><ele>687.6666666666667</ele><time>2026-04-26T11:30:30Z</time></trkpt><trkpt lat="46.37460511899357" lon="12.962503968866205"><ele>681.8333333333334</ele><time>2026-04-26T11:30:31Z</time></trkpt><trkpt lat="46.37469134019645" lon="12.962508825020826"><ele>676.0</ele><time>2026-04-26T11:30:32Z</time></trkpt><trkpt lat="46.374791928917475" lon="12.962512521232826"><ele>673.0</ele><time>2026-04-26T11:30:33Z</time></trkpt><trkpt lat="46.37489848702377" lon="12.962471827908375"><ele>670.0</ele><time>2026-04-26T11:30:34Z</time></trkpt><trkpt lat="46.37504505635419" lon="12.96242100125928"><ele>667.0</ele><time>2026-04-26T11:30:35Z</time></trkpt><trkpt lat="46.375185318435854" lon="12.96236271296145"><ele>664.0</ele><time>2026-04-26T11:30:36Z</time></trkpt><trkpt lat="46.37531711866797" lon="12.962292880748953"><ele>664.0</ele><time>2026-04-26T11:30:37Z</time></trkpt><trkpt lat="46.3754290967795" lon="12.96227124957849"><ele>664.0</ele><time>2026-04-26T11:30:38Z</time></trkpt><trkpt lat="46.37553456423156" lon="12.962228989808684"><ele>664.0</ele><time>2026-04-26T11:30:39Z</time></trkpt><trkpt lat="46.37565158102966" lon="12.96214983975764"><ele>664.0</ele><time>2026-04-26T11:30:40Z</time></trkpt><trkpt lat="46.37574675565814" lon="12.962098275133627"><ele>663.0</ele><time>2026-04-26T11:30:41Z</time></trkpt><trkpt lat="46.375773533671584" lon="12.961959488845386"><ele>662.0</ele><time>2026-04-26T11:30:42Z</time></trkpt><trkpt lat="46.3757508421892" lon="12.961814785350775"><ele>661.0</ele><time>2026-04-26T11:30:43Z</time></trkpt><trkpt lat="46.3757255964098" lon="12.961665617205682"><ele>660.0</ele><time>2026-04-26T11:30:44Z</time></trkpt><trkpt lat="46.375724600190324" lon="12.961482535225665"><ele>659.0</ele><time>2026-04-26T11:30:45Z</time></trkpt><trkpt lat="46.37577784271108" lon="12.961327056447482"><ele>659.0</ele><time>2026-04-26T11:30:46Z</time></trkpt><trkpt lat="46.3758755156162" lon="12.961202420831965"><ele>659.0</ele><time>2026-04-26T11:30:47Z</time></trkpt><trkpt lat="46.375984651611894" lon="12.961148394412229"><ele>659.0</ele><time>2026-04-26T11:30:48Z</time></trkpt><trkpt lat="46.376107288111065" lon="12.961154974796557"><ele>659.0</ele><time>2026-04-26T11:30:49.001Z</time></trkpt><trkpt lat="46.37629505416493" lon="12.961254190417527"><ele>651.3333333333333</ele><time>2026-04-26T11:30:50.001Z</time></trkpt><trkpt lat="46.37640323530768" lon="12.961316944237065"><ele>643.6666666666666</ele><time>2026-04-26T11:30:51.001Z</time></trkpt><trkpt lat="46.37660049222093" lon="12.961288696557727"><ele>636.0</ele><time>2026-04-26T11:30:52.001Z</time></trkpt><trkpt lat="46.37677147630383" lon="12.961268648886243"><ele>636.0</ele><time>2026-04-26T11:30:53.001Z</time></trkpt><trkpt lat="46.376946079240724" lon="12.961221558948099"><ele>636.0</ele><time>2026-04-26T11:30:54.001Z</time></trkpt><trkpt lat="46.37714306479286" lon="12.96111703744371"><ele>636.0</ele><time>2026-04-26T11:30:55.001Z</time></trkpt><trkpt lat="46.377343609652385" lon="12.9610393403788"><ele>629.0</ele><time>2026-04-26T11:30:56.001Z</time></trkpt><trkpt lat="46.37752900744026" lon="12.961011859791585"><ele>622.0</ele><time>2026-04-26T11:30:57.001Z</time></trkpt><trkpt lat="46.37766736781552" lon="12.96098648530279"><ele>615.0</ele><time>2026-04-26T11:30:58.001Z</time></trkpt><trkpt lat="46.377828289735206" lon="12.960957452551664"><ele>615.0</ele><time>2026-04-26T11:30:59.001Z</time></trkpt><trkpt lat="46.37800671827169" lon="12.960968234590183"><ele>615.0</ele><time>2026-04-26T11:31:00.001Z</time></trkpt><trkpt lat="46.37818141999901" lon="12.96102435851859"><ele>615.0</ele><time>2026-04-26T11:31:01.001Z</time></trkpt><trkpt lat="46.378277175287344" lon="12.961077141874302"><ele>612.6666666666666</ele><time>2026-04-26T11:31:02.001Z</time></trkpt><trkpt lat="46.37845698507782" lon="12.961043497237274"><ele>610.3333333333333</ele><time>2026-04-26T11:31:03.001Z</time></trkpt><trkpt lat="46.378654496388364" lon="12.960901206169051"><ele>608.0</ele><time>2026-04-26T11:31:04.001Z</time></trkpt><trkpt lat="46.37883458374817" lon="12.960775465806341"><ele>611.6666666666666</ele><time>2026-04-26T11:31:05.001Z</time></trkpt><trkpt lat="46.37902124432134" lon="12.960615471261086"><ele>615.3333333333334</ele><time>2026-04-26T11:31:06.001Z</time></trkpt><trkpt lat="46.37920765409743" lon="12.960497357395226"><ele>619.0</ele><time>2026-04-26T11:31:07.001Z</time></trkpt><trkpt lat="46.37938461967671" lon="12.96039553090276"><ele>619.0</ele><time>2026-04-26T11:31:08.001Z</time></trkpt><trkpt lat="46.379542460907665" lon="12.96030163062815"><ele>619.0</ele><time>2026-04-26T11:31:09.001Z</time></trkpt><trkpt lat="46.379716524765136" lon="12.960203844164257"><ele>619.0</ele><time>2026-04-26T11:31:10.001Z</time></trkpt><trkpt lat="46.3798966802977" lon="12.96012241557275"><ele>620.0</ele><time>2026-04-26T11:31:11.001Z</time></trkpt><trkpt lat="46.38014817405911" lon="12.960026465898821"><ele>621.0</ele><time>2026-04-26T11:31:12.001Z</time></trkpt><trkpt lat="46.38034915569076" lon="12.959946084999126"><ele>615.3333333333334</ele><time>2026-04-26T11:31:13.001Z</time></trkpt><trkpt lat="46.38052287800269" lon="12.959867422146276"><ele>609.6666666666667</ele><time>2026-04-26T11:31:14.001Z</time></trkpt><trkpt lat="46.380723424719946" lon="12.959760359730005"><ele>604.0</ele><time>2026-04-26T11:31:15.001Z</time></trkpt><trkpt lat="46.38091410220788" lon="12.959646557938637"><ele>604.0</ele><time>2026-04-26T11:31:16.001Z</time></trkpt><trkpt lat="46.38109002369731" lon="12.959533434426108"><ele>604.0</ele><time>2026-04-26T11:31:17.001Z</time></trkpt><trkpt lat="46.38125454835095" lon="12.959423396533477"><ele>604.0</ele><time>2026-04-26T11:31:18.001Z</time></trkpt><trkpt lat="46.38138846456125" lon="12.959317801456109"><ele>604.2</ele><time>2026-04-26T11:31:19.001Z</time></trkpt><trkpt lat="46.381484408245875" lon="12.959183250852016"><ele>604.4</ele><time>2026-04-26T11:31:20.001Z</time></trkpt><trkpt lat="46.38159867262691" lon="12.959074755387787"><ele>604.6</ele><time>2026-04-26T11:31:21.001Z</time></trkpt><trkpt lat="46.38167994345765" lon="12.95900289213109"><ele>604.8</ele><time>2026-04-26T11:31:22.001Z</time></trkpt><trkpt lat="46.381744385892034" lon="12.959072940446628"><ele>605.0</ele><time>2026-04-26T11:31:24.001Z</time></trkpt><trkpt lat="46.38172800921388" lon="12.959242093328859"><ele>604.6666666666666</ele><time>2026-04-26T11:31:26Z</time></trkpt><trkpt lat="46.38160967616948" lon="12.959310039519936"><ele>604.3333333333334</ele><time>2026-04-26T11:31:27Z</time></trkpt><trkpt lat="46.381454060110755" lon="12.959401841054655"><ele>604.0</ele><time>2026-04-26T11:31:28Z</time></trkpt><trkpt lat="46.38129286934679" lon="12.959517886269824"><ele>604.0</ele><time>2026-04-26T11:31:29Z</time></trkpt><trkpt lat="46.38115432318076" lon="12.959641443259626"><ele>604.0</ele><time>2026-04-26T11:31:30Z</time></trkpt><trkpt lat="46.38102990198292" lon="12.9598206499895"><ele>604.0</ele><time>2026-04-26T11:31:31Z</time></trkpt><trkpt lat="46.380928919330835" lon="12.960067867607522"><ele>599.3333333333334</ele><time>2026-04-26T11:31:32Z</time></trkpt><trkpt lat="46.38084625838497" lon="12.960295741886352"><ele>594.6666666666666</ele><time>2026-04-26T11:31:33Z</time></trkpt><trkpt lat="46.38072637603072" lon="12.960457191128773"><ele>590.0</ele><time>2026-04-26T11:31:34Z</time></trkpt><trkpt lat="46.380562319369844" lon="12.960587966115678"><ele>589.6666666666666</ele><time>2026-04-26T11:31:35Z</time></trkpt><trkpt lat="46.38043423374748" lon="12.960737471725743"><ele>589.3333333333334</ele><time>2026-04-26T11:31:36Z</time></trkpt><trkpt lat="46.38028252313339" lon="12.960919839674274"><ele>589.0</ele><time>2026-04-26T11:31:37Z</time></trkpt><trkpt lat="46.38018584202797" lon="12.961152849865536"><ele>589.0</ele><time>2026-04-26T11:31:38Z</time></trkpt><trkpt lat="46.380067211137586" lon="12.961412451981419"><ele>589.0</ele><time>2026-04-26T11:31:39Z</time></trkpt><trkpt lat="46.37994513445656" lon="12.961687672308935"><ele>589.0</ele><time>2026-04-26T11:31:40Z</time></trkpt><trkpt lat="46.37983015603652" lon="12.961941825537165"><ele>587.3333333333334</ele><time>2026-04-26T11:31:41Z</time></trkpt><trkpt lat="46.379717646433264" lon="12.962159038376567"><ele>585.6666666666666</ele><time>2026-04-26T11:31:42Z</time></trkpt><trkpt lat="46.37960179666676" lon="12.962356933412819"><ele>584.0</ele><time>2026-04-26T11:31:43Z</time></trkpt><trkpt lat="46.379463334579135" lon="12.962539695466326"><ele>579.0</ele><time>2026-04-26T11:31:44Z</time></trkpt><trkpt lat="46.3792910653215" lon="12.962674733672973"><ele>574.0</ele><time>2026-04-26T11:31:45Z</time></trkpt><trkpt lat="46.37911046088831" lon="12.962741740961922"><ele>569.0</ele><time>2026-04-26T11:31:46Z</time></trkpt><trkpt lat="46.37893717369447" lon="12.962803920256183"><ele>565.5</ele><time>2026-04-26T11:31:47Z</time></trkpt><trkpt lat="46.378787577054894" lon="12.9628716522202"><ele>562.0</ele><time>2026-04-26T11:31:48Z</time></trkpt><trkpt lat="46.378696940341186" lon="12.962902844930554"><ele>558.5</ele><time>2026-04-26T11:31:49Z</time></trkpt><trkpt lat="46.37859379111942" lon="12.963001413169463"><ele>555.0</ele><time>2026-04-26T11:31:50Z</time></trkpt><trkpt lat="46.378548350643925" lon="12.963187338483388"><ele>555.75</ele><time>2026-04-26T11:31:51Z</time></trkpt><trkpt lat="46.37855440504292" lon="12.963422546635233"><ele>556.5</ele><time>2026-04-26T11:31:52Z</time></trkpt><trkpt lat="46.37860990344858" lon="12.963609950413156"><ele>557.25</ele><time>2026-04-26T11:31:53Z</time></trkpt><trkpt lat="46.37871148558143" lon="12.96376262676067"><ele>558.0</ele><time>2026-04-26T11:31:54Z</time></trkpt><trkpt lat="46.37885491269228" lon="12.963842015598754"><ele>558.0</ele><time>2026-04-26T11:31:55Z</time></trkpt><trkpt lat="46.37904693453878" lon="12.963874763033493"><ele>558.0</ele><time>2026-04-26T11:31:56Z</time></trkpt><trkpt lat="46.37924770921547" lon="12.963926805588123"><ele>558.0</ele><time>2026-04-26T11:31:57Z</time></trkpt><trkpt lat="46.379449245543704" lon="12.9640084756928"><ele>558.0</ele><time>2026-04-26T11:31:58Z</time></trkpt><trkpt lat="46.379654491147235" lon="12.964105364700401"><ele>558.0</ele><time>2026-04-26T11:31:59Z</time></trkpt><trkpt lat="46.37985431853522" lon="12.964206635984716"><ele>558.0</ele><time>2026-04-26T11:32:00Z</time></trkpt><trkpt lat="46.380054415663764" lon="12.964304867679392"><ele>554.6666666666666</ele><time>2026-04-26T11:32:01Z</time></trkpt><trkpt lat="46.38024950913057" lon="12.964363087352917"><ele>551.3333333333333</ele><time>2026-04-26T11:32:02Z</time></trkpt><trkpt lat="46.38043830989768" lon="12.964455063914038"><ele>548.0</ele><time>2026-04-26T11:32:03Z</time></trkpt><trkpt lat="46.38061910777809" lon="12.964524559421182"><ele>542.6666666666666</ele><time>2026-04-26T11:32:04Z</time></trkpt><trkpt lat="46.3808071931996" lon="12.964553396769867"><ele>537.3333333333334</ele><time>2026-04-26T11:32:05Z</time></trkpt><trkpt lat="46.380980839990784" lon="12.96454462403087"><ele>532.0</ele><time>2026-04-26T11:32:06Z</time></trkpt><trkpt lat="46.381128266188426" lon="12.964499178971312"><ele>532.0</ele><time>2026-04-26T11:32:07Z</time></trkpt><trkpt lat="46.381294993832675" lon="12.964448232363672"><ele>532.0</ele><time>2026-04-26T11:32:08Z</time></trkpt><trkpt lat="46.38144526415944" lon="12.964452017576415"><ele>532.0</ele><time>2026-04-26T11:32:09Z</time></trkpt><trkpt lat="46.38154568116047" lon="12.964469277359822"><ele>532.0</ele><time>2026-04-26T11:32:10Z</time></trkpt><trkpt lat="46.38163969234579" lon="12.964534272150447"><ele>532.0</ele><time>2026-04-26T11:32:11Z</time></trkpt><trkpt lat="46.38167673088161" lon="12.964742087702424"><ele>532.0</ele><time>2026-04-26T11:32:12Z</time></trkpt><trkpt lat="46.38172667379869" lon="12.96497845689751"><ele>532.0</ele><time>2026-04-26T11:32:13Z</time></trkpt><trkpt lat="46.38179257591663" lon="12.96522336039586"><ele>525.0</ele><time>2026-04-26T11:32:14Z</time></trkpt><trkpt lat="46.381846904120664" lon="12.965446416040407"><ele>518.0</ele><time>2026-04-26T11:32:15Z</time></trkpt><trkpt lat="46.38193573616554" lon="12.96560641409193"><ele>511.0</ele><time>2026-04-26T11:32:16Z</time></trkpt><trkpt lat="46.38207898953395" lon="12.965723367983436"><ele>511.6666666666667</ele><time>2026-04-26T11:32:17Z</time></trkpt><trkpt lat="46.38223378214482" lon="12.965797970365976"><ele>512.3333333333334</ele><time>2026-04-26T11:32:18Z</time></trkpt><trkpt lat="46.38238325165647" lon="12.965828385484489"><ele>513.0</ele><time>2026-04-26T11:32:19Z</time></trkpt><trkpt lat="46.382561033136284" lon="12.965785531997778"><ele>513.0</ele><time>2026-04-26T11:32:20Z</time></trkpt><trkpt lat="46.382744342281036" lon="12.96566246653023"><ele>513.0</ele><time>2026-04-26T11:32:21Z</time></trkpt><trkpt lat="46.382903018450406" lon="12.965476862148567"><ele>513.0</ele><time>2026-04-26T11:32:22Z</time></trkpt><trkpt lat="46.38308354134655" lon="12.96528926675257"><ele>513.3333333333334</ele><time>2026-04-26T11:32:23Z</time></trkpt><trkpt lat="46.383268621553945" lon="12.965122866666928"><ele>513.6666666666667</ele><time>2026-04-26T11:32:24Z</time></trkpt><trkpt lat="46.383449212394616" lon="12.96493503719647"><ele>514.0</ele><time>2026-04-26T11:32:25Z</time></trkpt><trkpt lat="46.383596162558206" lon="12.964699594334549"><ele>514.0</ele><time>2026-04-26T11:32:26Z</time></trkpt><trkpt lat="46.38370999876077" lon="12.964476884843004"><ele>514.0</ele><time>2026-04-26T11:32:27Z</time></trkpt><trkpt lat="46.383805882143776" lon="12.964289882917317"><ele>514.0</ele><time>2026-04-26T11:32:28Z</time></trkpt><trkpt lat="46.383885237398" lon="12.964139953847912"><ele>510.25</ele><time>2026-04-26T11:32:29Z</time></trkpt><trkpt lat="46.383963997914336" lon="12.96403184851592"><ele>506.5</ele><time>2026-04-26T11:32:30Z</time></trkpt><trkpt lat="46.3840502195292" lon="12.96399910445793"><ele>502.75</ele><time>2026-04-26T11:32:31Z</time></trkpt><trkpt lat="46.38414760849501" lon="12.964130613208603"><ele>499.0</ele><time>2026-04-26T11:32:32Z</time></trkpt><trkpt lat="46.384281468730585" lon="12.964220358485655"><ele>498.75</ele><time>2026-04-26T11:32:33Z</time></trkpt><trkpt lat="46.384411159567186" lon="12.964320431291801"><ele>498.5</ele><time>2026-04-26T11:32:34Z</time></trkpt><trkpt lat="46.384491696187105" lon="12.964433319039953"><ele>498.25</ele><time>2026-04-26T11:32:35Z</time></trkpt><trkpt lat="46.38452078400943" lon="12.96458354538458"><ele>498.0</ele><time>2026-04-26T11:32:36Z</time></trkpt><trkpt lat="46.38447091980363" lon="12.964751433111436"><ele>498.0</ele><time>2026-04-26T11:32:37Z</time></trkpt><trkpt lat="46.384410089824556" lon="12.96498283831981"><ele>498.0</ele><time>2026-04-26T11:32:38Z</time></trkpt><trkpt lat="46.38433533792481" lon="12.965241458701403"><ele>498.0</ele><time>2026-04-26T11:32:39Z</time></trkpt><trkpt lat="46.38420524707638" lon="12.965479353552459"><ele>502.66666666666663</ele><time>2026-04-26T11:32:40.001Z</time></trkpt><trkpt lat="46.38409474488642" lon="12.96569081481475"><ele>507.3333333333333</ele><time>2026-04-26T11:32:41.001Z</time></trkpt><trkpt lat="46.383987230414384" lon="12.965900298069686"><ele>512.0</ele><time>2026-04-26T11:32:42.001Z</time></trkpt><trkpt lat="46.38390330962165" lon="12.966093499929606"><ele>513.6666666666666</ele><time>2026-04-26T11:32:43.001Z</time></trkpt><trkpt lat="46.38382664770412" lon="12.966273166116885"><ele>515.3333333333334</ele><time>2026-04-26T11:32:44.001Z</time></trkpt><trkpt lat="46.383791749959705" lon="12.966491668676134"><ele>517.0</ele><time>2026-04-26T11:32:45.001Z</time></trkpt><trkpt lat="46.3837435507856" lon="12.966720493599684"><ele>517.0</ele><time>2026-04-26T11:32:46.001Z</time></trkpt><trkpt lat="46.38369104496814" lon="12.966961339178244"><ele>517.0</ele><time>2026-04-26T11:32:47.001Z</time></trkpt><trkpt lat="46.38354193954696" lon="12.967124774445493"><ele>517.0</ele><time>2026-04-26T11:32:48.001Z</time></trkpt><trkpt lat="46.383409968650014" lon="12.967329598676812"><ele>515.3333333333334</ele><time>2026-04-26T11:32:49.001Z</time></trkpt><trkpt lat="46.38327777606341" lon="12.967549068981196"><ele>513.6666666666666</ele><time>2026-04-26T11:32:50.001Z</time></trkpt><trkpt lat="46.38311555241207" lon="12.967759484909939"><ele>512.0</ele><time>2026-04-26T11:32:51.001Z</time></trkpt><trkpt lat="46.38298860802686" lon="12.967993836677687"><ele>512.0</ele><time>2026-04-26T11:32:52.001Z</time></trkpt><trkpt lat="46.382848624504646" lon="12.968186376515197"><ele>512.0</ele><time>2026-04-26T11:32:53.001Z</time></trkpt><trkpt lat="46.382748620337196" lon="12.96839738305257"><ele>512.0</ele><time>2026-04-26T11:32:54.001Z</time></trkpt><trkpt lat="46.3826987855221" lon="12.968632795368219"><ele>521.3333333333333</ele><time>2026-04-26T11:32:55.001Z</time></trkpt><trkpt lat="46.38258536314569" lon="12.96877768041683"><ele>530.6666666666666</ele><time>2026-04-26T11:32:56.001Z</time></trkpt><trkpt lat="46.38244024159897" lon="12.968883832196592"><ele>540.0</ele><time>2026-04-26T11:32:57.001Z</time></trkpt><trkpt lat="46.382276529215424" lon="12.968916915390842"><ele>533.5</ele><time>2026-04-26T11:32:58.001Z</time></trkpt><trkpt lat="46.382129673310544" lon="12.968945234092423"><ele>527.0</ele><time>2026-04-26T11:32:59.001Z</time></trkpt><trkpt lat="46.382011150120135" lon="12.969005287407391"><ele>520.5</ele><time>2026-04-26T11:33:00.001Z</time></trkpt><trkpt lat="46.38190815405624" lon="12.969113781761154"><ele>514.0</ele><time>2026-04-26T11:33:01.001Z</time></trkpt><trkpt lat="46.381829780064564" lon="12.969289151672532"><ele>514.0</ele><time>2026-04-26T11:33:02.001Z</time></trkpt><trkpt lat="46.38178004177211" lon="12.96951896777388"><ele>514.0</ele><time>2026-04-26T11:33:03.001Z</time></trkpt><trkpt lat="46.38173602207543" lon="12.969757832045383"><ele>514.0</ele><time>2026-04-26T11:33:04.001Z</time></trkpt><trkpt lat="46.381721222670016" lon="12.969999258387967"><ele>515.0</ele><time>2026-04-26T11:33:05.001Z</time></trkpt><trkpt lat="46.38174653600826" lon="12.970281441931768"><ele>516.0</ele><time>2026-04-26T11:33:06.001Z</time></trkpt><trkpt lat="46.38177122144315" lon="12.970537473850358"><ele>517.0</ele><time>2026-04-26T11:33:07.001Z</time></trkpt><trkpt lat="46.38176604542956" lon="12.970763994858773"><ele>520.6666666666667</ele><time>2026-04-26T11:33:08.001Z</time></trkpt><trkpt lat="46.38173831931485" lon="12.970995213683041"><ele>524.3333333333334</ele><time>2026-04-26T11:33:09.001Z</time></trkpt><trkpt lat="46.381659190212815" lon="12.971207082283117"><ele>528.0</ele><time>2026-04-26T11:33:10.001Z</time></trkpt><trkpt lat="46.381559139372115" lon="12.971372239778356"><ele>528.0</ele><time>2026-04-26T11:33:11.001Z</time></trkpt><trkpt lat="46.381478279048046" lon="12.971513080388515"><ele>528.0</ele><time>2026-04-26T11:33:12.001Z</time></trkpt><trkpt lat="46.38142647294116" lon="12.971660901860618"><ele>528.0</ele><time>2026-04-26T11:33:13.001Z</time></trkpt><trkpt lat="46.38142564657735" lon="12.97180623821796"><ele>528.0</ele><time>2026-04-26T11:33:14.001Z</time></trkpt><trkpt lat="46.381473249044" lon="12.971960635780182"><ele>527.0</ele><time>2026-04-26T11:33:15.001Z</time></trkpt><trkpt lat="46.38155631166918" lon="12.972116995628623"><ele>526.0</ele><time>2026-04-26T11:33:16.001Z</time></trkpt><trkpt lat="46.381652569900005" lon="12.972273788098947"><ele>525.0</ele><time>2026-04-26T11:33:17.001Z</time></trkpt><trkpt lat="46.381745310527386" lon="12.97244504969181"><ele>524.0</ele><time>2026-04-26T11:33:18.001Z</time></trkpt><trkpt lat="46.38183063450474" lon="12.97262913394002"><ele>524.0</ele><time>2026-04-26T11:33:19.001Z</time></trkpt><trkpt lat="46.38192672294849" lon="12.97279952994869"><ele>524.0</ele><time>2026-04-26T11:33:20.001Z</time></trkpt><trkpt lat="46.38203246282495" lon="12.972937851229501"><ele>524.0</ele><time>2026-04-26T11:33:21.001Z</time></trkpt><trkpt lat="46.382144380882245" lon="12.973052416484968"><ele>524.0</ele><time>2026-04-26T11:33:22.001Z</time></trkpt><trkpt lat="46.382261707608706" lon="12.973151524918224"><ele>524.0</ele><time>2026-04-26T11:33:23.001Z</time></trkpt><trkpt lat="46.382386961247526" lon="12.973235432903273"><ele>524.0</ele><time>2026-04-26T11:33:24.001Z</time></trkpt><trkpt lat="46.382520594484845" lon="12.97330704640119"><ele>524.0</ele><time>2026-04-26T11:33:25.001Z</time></trkpt><trkpt lat="46.382661014371884" lon="12.97338538987692"><ele>524.0</ele><time>2026-04-26T11:33:26.001Z</time></trkpt><trkpt lat="46.3828031149696" lon="12.973471645622633"><ele>525.0</ele><time>2026-04-26T11:33:27.001Z</time></trkpt><trkpt lat="46.38293372365291" lon="12.973551799668384"><ele>526.0</ele><time>2026-04-26T11:33:28.001Z</time></trkpt><trkpt lat="46.38306295879531" lon="12.973636845933147"><ele>527.0</ele><time>2026-04-26T11:33:29.001Z</time></trkpt><trkpt lat="46.3831892430167" lon="12.973729591474891"><ele>528.0</ele><time>2026-04-26T11:33:30.001Z</time></trkpt><trkpt lat="46.38329326195997" lon="12.97386626732613"><ele>528.0</ele><time>2026-04-26T11:33:31.001Z</time></trkpt><trkpt lat="46.38339315926812" lon="12.974014260797924"><ele>528.0</ele><time>2026-04-26T11:33:32.001Z</time></trkpt><trkpt lat="46.38348509529472" lon="12.974186706715587"><ele>528.0</ele><time>2026-04-26T11:33:33.001Z</time></trkpt><trkpt lat="46.38355557785006" lon="12.97438126028832"><ele>528.0</ele><time>2026-04-26T11:33:34.001Z</time></trkpt><trkpt lat="46.38360363309086" lon="12.974581937337119"><ele>527.25</ele><time>2026-04-26T11:33:35.001Z</time></trkpt><trkpt lat="46.38362648732008" lon="12.974792381593186"><ele>526.5</ele><time>2026-04-26T11:33:36.001Z</time></trkpt><trkpt lat="46.38363262781135" lon="12.97500314127167"><ele>525.75</ele><time>2026-04-26T11:33:37.001Z</time></trkpt><trkpt lat="46.38361352880531" lon="12.97520762370595"><ele>525.0</ele><time>2026-04-26T11:33:38.001Z</time></trkpt><trkpt lat="46.3835735825815" lon="12.975411714154433"><ele>525.0</ele><time>2026-04-26T11:33:39.001Z</time></trkpt><trkpt lat="46.38352665776544" lon="12.975616632852077"><ele>525.0</ele><time>2026-04-26T11:33:40.001Z</time></trkpt><trkpt lat="46.383474880679245" lon="12.975828929826015"><ele>525.0</ele><time>2026-04-26T11:33:41.001Z</time></trkpt><trkpt lat="46.383426075816104" lon="12.976036350476065"><ele>525.0</ele><time>2026-04-26T11:33:42Z</time></trkpt><trkpt lat="46.38339314074327" lon="12.976245932183792"><ele>525.0</ele><time>2026-04-26T11:33:43Z</time></trkpt><trkpt lat="46.383338194065175" lon="12.976445783638978"><ele>525.0</ele><time>2026-04-26T11:33:44Z</time></trkpt><trkpt lat="46.38329151208654" lon="12.976649116205548"><ele>525.0</ele><time>2026-04-26T11:33:45Z</time></trkpt><trkpt lat="46.383243902337526" lon="12.976843085568824"><ele>524.5</ele><time>2026-04-26T11:33:46Z</time></trkpt><trkpt lat="46.3831827812896" lon="12.977039198837376"><ele>524.0</ele><time>2026-04-26T11:33:47Z</time></trkpt><trkpt lat="46.38314325777703" lon="12.97724936451625"><ele>523.5</ele><time>2026-04-26T11:33:48Z</time></trkpt><trkpt lat="46.38309793151906" lon="12.97742656843116"><ele>523.0</ele><time>2026-04-26T11:33:49Z</time></trkpt><trkpt lat="46.38305391760183" lon="12.977604523161125"><ele>523.0</ele><time>2026-04-26T11:33:50Z</time></trkpt><trkpt lat="46.383045841573775" lon="12.97778133617746"><ele>523.0</ele><time>2026-04-26T11:33:51Z</time></trkpt><trkpt lat="46.383083495544334" lon="12.9779324849077"><ele>523.0</ele><time>2026-04-26T11:33:52Z</time></trkpt><trkpt lat="46.38315694147017" lon="12.978070686246681"><ele>523.0</ele><time>2026-04-26T11:33:53Z</time></trkpt><trkpt lat="46.38326992648605" lon="12.978188311129534"><ele>523.0</ele><time>2026-04-26T11:33:54Z</time></trkpt><trkpt lat="46.38340891563726" lon="12.978308899448436"><ele>523.0</ele><time>2026-04-26T11:33:55Z</time></trkpt><trkpt lat="46.38353791787827" lon="12.978444724072375"><ele>523.0</ele><time>2026-04-26T11:33:56Z</time></trkpt><trkpt lat="46.3836490002076" lon="12.978568321860662"><ele>523.0</ele><time>2026-04-26T11:33:57Z</time></trkpt><trkpt lat="46.38376589551487" lon="12.978693768144462"><ele>523.0</ele><time>2026-04-26T11:33:58Z</time></trkpt><trkpt lat="46.38386425263525" lon="12.978815979968557"><ele>523.0</ele><time>2026-04-26T11:33:59Z</time></trkpt><trkpt lat="46.38393320370662" lon="12.978965750437867"><ele>523.0</ele><time>2026-04-26T11:34:00Z</time></trkpt><trkpt lat="46.3839622456267" lon="12.97915947133441"><ele>521.0</ele><time>2026-04-26T11:34:01Z</time></trkpt><trkpt lat="46.38392213222587" lon="12.979369136593455"><ele>519.0</ele><time>2026-04-26T11:34:02Z</time></trkpt><trkpt lat="46.38389681986213" lon="12.979605664858404"><ele>517.0</ele><time>2026-04-26T11:34:03Z</time></trkpt><trkpt lat="46.38385125833514" lon="12.979815500115285"><ele>514.0</ele><time>2026-04-26T11:34:04Z</time></trkpt><trkpt lat="46.383815258782704" lon="12.980035565446336"><ele>511.0</ele><time>2026-04-26T11:34:05Z</time></trkpt><trkpt lat="46.383776639573895" lon="12.980261420401003"><ele>508.0</ele><time>2026-04-26T11:34:06Z</time></trkpt><trkpt lat="46.38373549091454" lon="12.980493195654462"><ele>508.0</ele><time>2026-04-26T11:34:07Z</time></trkpt><trkpt lat="46.383690500652655" lon="12.980737769573702"><ele>508.0</ele><time>2026-04-26T11:34:08Z</time></trkpt><trkpt lat="46.38364249022293" lon="12.980983514200943"><ele>508.0</ele><time>2026-04-26T11:34:09Z</time></trkpt><trkpt lat="46.38359652326289" lon="12.981232335421707"><ele>507.0</ele><time>2026-04-26T11:34:10Z</time></trkpt><trkpt lat="46.3835568227025" lon="12.98149219999067"><ele>506.0</ele><time>2026-04-26T11:34:11Z</time></trkpt><trkpt lat="46.383534160168566" lon="12.981752151178716"><ele>505.0</ele><time>2026-04-26T11:34:12Z</time></trkpt><trkpt lat="46.38351345291902" lon="12.982016478695124"><ele>503.6666666666667</ele><time>2026-04-26T11:34:13Z</time></trkpt><trkpt lat="46.38349120794666" lon="12.982282020538534"><ele>502.33333333333337</ele><time>2026-04-26T11:34:14Z</time></trkpt><trkpt lat="46.38347146956459" lon="12.9825541459251"><ele>501.0</ele><time>2026-04-26T11:34:15Z</time></trkpt><trkpt lat="46.38344002160533" lon="12.982815413946474"><ele>498.0</ele><time>2026-04-26T11:34:16Z</time></trkpt><trkpt lat="46.383409909925206" lon="12.983056129925536"><ele>495.0</ele><time>2026-04-26T11:34:17Z</time></trkpt><trkpt lat="46.38338125619097" lon="12.983292014499659"><ele>492.0</ele><time>2026-04-26T11:34:18Z</time></trkpt><trkpt lat="46.38336180216697" lon="12.98353211426487"><ele>491.33333333333337</ele><time>2026-04-26T11:34:19Z</time></trkpt><trkpt lat="46.38333828177879" lon="12.983758936354787"><ele>490.6666666666667</ele><time>2026-04-26T11:34:20Z</time></trkpt><trkpt lat="46.38331605133758" lon="12.983982536036143"><ele>490.0</ele><time>2026-04-26T11:34:21Z</time></trkpt><trkpt lat="46.38329529108138" lon="12.984201168081645"><ele>490.0</ele><time>2026-04-26T11:34:22Z</time></trkpt><trkpt lat="46.38325958233584" lon="12.98441225190231"><ele>490.0</ele><time>2026-04-26T11:34:23Z</time></trkpt><trkpt lat="46.383188530460814" lon="12.984623046713835"><ele>490.0</ele><time>2026-04-26T11:34:24Z</time></trkpt><trkpt lat="46.3830839333695" lon="12.984829084255937"><ele>484.6666666666667</ele><time>2026-04-26T11:34:25Z</time></trkpt><trkpt lat="46.38297409774558" lon="12.985018975267336"><ele>479.33333333333337</ele><time>2026-04-26T11:34:26Z</time></trkpt><trkpt lat="46.3828905014378" lon="12.98521035382804"><ele>474.0</ele><time>2026-04-26T11:34:27Z</time></trkpt><trkpt lat="46.38282850674635" lon="12.98544075605383"><ele>474.0</ele><time>2026-04-26T11:34:28.001Z</time></trkpt><trkpt lat="46.382787656205096" lon="12.98569476540215"><ele>474.0</ele><time>2026-04-26T11:34:29.001Z</time></trkpt><trkpt lat="46.38275680601205" lon="12.985920039756735"><ele>474.0</ele><time>2026-04-26T11:34:30.001Z</time></trkpt><trkpt lat="46.38271965868718" lon="12.986128911925404"><ele>474.25</ele><time>2026-04-26T11:34:31.001Z</time></trkpt><trkpt lat="46.38268076543822" lon="12.98634303960701"><ele>474.5</ele><time>2026-04-26T11:34:32.001Z</time></trkpt><trkpt lat="46.382643922935344" lon="12.986544777177652"><ele>474.75</ele><time>2026-04-26T11:34:33.001Z</time></trkpt><trkpt lat="46.38263266389015" lon="12.986750119051386"><ele>475.0</ele><time>2026-04-26T11:34:34.001Z</time></trkpt><trkpt lat="46.382649100268246" lon="12.986996967353667"><ele>475.33333333333337</ele><time>2026-04-26T11:34:35.001Z</time></trkpt><trkpt lat="46.38268253094144" lon="12.987269564563492"><ele>475.66666666666663</ele><time>2026-04-26T11:34:36.001Z</time></trkpt><trkpt lat="46.3827112246559" lon="12.987563435746432"><ele>476.0</ele><time>2026-04-26T11:34:37.001Z</time></trkpt><trkpt lat="46.38273561856797" lon="12.987858659380196"><ele>475.3333333333333</ele><time>2026-04-26T11:34:38.001Z</time></trkpt><trkpt lat="46.382756526166595" lon="12.988129114560236"><ele>474.66666666666663</ele><time>2026-04-26T11:34:39.001Z</time></trkpt><trkpt lat="46.382775223927105" lon="12.988386467791806"><ele>474.0</ele><time>2026-04-26T11:34:40.001Z</time></trkpt><trkpt lat="46.382787714899855" lon="12.98863585073851"><ele>473.33333333333337</ele><time>2026-04-26T11:34:41.001Z</time></trkpt><trkpt lat="46.38277776830096" lon="12.988881737370596"><ele>472.6666666666667</ele><time>2026-04-26T11:34:42.001Z</time></trkpt><trkpt lat="46.382742202228016" lon="12.989118029349674"><ele>472.0</ele><time>2026-04-26T11:34:43.001Z</time></trkpt><trkpt lat="46.382692525387384" lon="12.989356926700996"><ele>470.6666666666667</ele><time>2026-04-26T11:34:44.001Z</time></trkpt><trkpt lat="46.38262943707818" lon="12.98958625669143"><ele>469.33333333333337</ele><time>2026-04-26T11:34:45.001Z</time></trkpt><trkpt lat="46.382566632577486" lon="12.989789174829612"><ele>468.0</ele><time>2026-04-26T11:34:46.001Z</time></trkpt><trkpt lat="46.38254383923692" lon="12.989985641324926"><ele>465.66666666666663</ele><time>2026-04-26T11:34:47.001Z</time></trkpt><trkpt lat="46.38256748516851" lon="12.990195673144683"><ele>463.3333333333333</ele><time>2026-04-26T11:34:48.001Z</time></trkpt><trkpt lat="46.38262715221315" lon="12.990415378061451"><ele>461.0</ele><time>2026-04-26T11:34:49.001Z</time></trkpt><trkpt lat="46.382708339629886" lon="12.990630089163732"><ele>461.0</ele><time>2026-04-26T11:34:50.001Z</time></trkpt><trkpt lat="46.38277511958733" lon="12.99081978399943"><ele>461.0</ele><time>2026-04-26T11:34:51.001Z</time></trkpt><trkpt lat="46.3828499942914" lon="12.991013454239534"><ele>461.0</ele><time>2026-04-26T11:34:52.001Z</time></trkpt><trkpt lat="46.382910811647506" lon="12.99120741685384"><ele>461.0</ele><time>2026-04-26T11:34:53.001Z</time></trkpt><trkpt lat="46.383000895436155" lon="12.991383708853657"><ele>458.5</ele><time>2026-04-26T11:34:54.001Z</time></trkpt><trkpt lat="46.38309974680787" lon="12.991527505629263"><ele>456.0</ele><time>2026-04-26T11:34:55.001Z</time></trkpt><trkpt lat="46.383208008446175" lon="12.991618227089885"><ele>453.5</ele><time>2026-04-26T11:34:56.001Z</time></trkpt><trkpt lat="46.38332247413197" lon="12.991733369732328"><ele>451.0</ele><time>2026-04-26T11:34:57.001Z</time></trkpt><trkpt lat="46.38344941646241" lon="12.991860793032295"><ele>451.0</ele><time>2026-04-26T11:34:58.001Z</time></trkpt><trkpt lat="46.38357033360202" lon="12.991984743689446"><ele>451.0</ele><time>2026-04-26T11:34:59.001Z</time></trkpt><trkpt lat="46.38369489668834" lon="12.992091960697037"><ele>451.0</ele><time>2026-04-26T11:35:00.001Z</time></trkpt><trkpt lat="46.38383447181812" lon="12.992145536105086"><ele>451.0</ele><time>2026-04-26T11:35:01.001Z</time></trkpt><trkpt lat="46.38397104674331" lon="12.992144354476107"><ele>450.0</ele><time>2026-04-26T11:35:02.001Z</time></trkpt><trkpt lat="46.38410296851762" lon="12.992147436041062"><ele>449.0</ele><time>2026-04-26T11:35:03.001Z</time></trkpt><trkpt lat="46.38423497333884" lon="12.992120117319812"><ele>448.0</ele><time>2026-04-26T11:35:04.001Z</time></trkpt><trkpt lat="46.38438350437719" lon="12.99208863365068"><ele>447.0</ele><time>2026-04-26T11:35:05.001Z</time></trkpt><trkpt lat="46.38452514900723" lon="12.992059100514156"><ele>447.0</ele><time>2026-04-26T11:35:06.001Z</time></trkpt><trkpt lat="46.38466392592315" lon="12.992040481554222"><ele>447.0</ele><time>2026-04-26T11:35:07.001Z</time></trkpt><trkpt lat="46.38479960443867" lon="12.992050229777266"><ele>447.0</ele><time>2026-04-26T11:35:08.001Z</time></trkpt><trkpt lat="46.38493260741707" lon="12.9921307018321"><ele>447.0</ele><time>2026-04-26T11:35:09.001Z</time></trkpt><trkpt lat="46.38506337652595" lon="12.99226168181259"><ele>446.33333333333337</ele><time>2026-04-26T11:35:10.001Z</time></trkpt><trkpt lat="46.385207805338084" lon="12.992389322002362"><ele>445.6666666666667</ele><time>2026-04-26T11:35:11.001Z</time></trkpt><trkpt lat="46.385346025893526" lon="12.9925402454107"><ele>445.0</ele><time>2026-04-26T11:35:12.001Z</time></trkpt><trkpt lat="46.38550071284104" lon="12.992665738168805"><ele>445.0</ele><time>2026-04-26T11:35:13.001Z</time></trkpt><trkpt lat="46.38568047454327" lon="12.99275977808285"><ele>445.0</ele><time>2026-04-26T11:35:14.001Z</time></trkpt><trkpt lat="46.38586176658583" lon="12.992823887923754"><ele>445.0</ele><time>2026-04-26T11:35:15.001Z</time></trkpt><trkpt lat="46.38603641942557" lon="12.992891152639128"><ele>445.0</ele><time>2026-04-26T11:35:16.001Z</time></trkpt><trkpt lat="46.38620320717601" lon="12.992961621648464"><ele>445.0</ele><time>2026-04-26T11:35:17.001Z</time></trkpt><trkpt lat="46.386361563519024" lon="12.993031407148738"><ele>445.0</ele><time>2026-04-26T11:35:18.001Z</time></trkpt><trkpt lat="46.38652237961331" lon="12.993097188560586"><ele>440.0</ele><time>2026-04-26T11:35:19.001Z</time></trkpt><trkpt lat="46.386690380121415" lon="12.993127765861688"><ele>435.0</ele><time>2026-04-26T11:35:20.001Z</time></trkpt><trkpt lat="46.38686931792732" lon="12.9930944590303"><ele>430.0</ele><time>2026-04-26T11:35:21.001Z</time></trkpt><trkpt lat="46.38705053317042" lon="12.993085910102822"><ele>426.0</ele><time>2026-04-26T11:35:22.001Z</time></trkpt><trkpt lat="46.387223659505516" lon="12.993083398387617"><ele>422.0</ele><time>2026-04-26T11:35:23.001Z</time></trkpt><trkpt lat="46.38739105089416" lon="12.993075706860775"><ele>418.0</ele><time>2026-04-26T11:35:24.001Z</time></trkpt><trkpt lat="46.38755320790954" lon="12.993108605215543"><ele>418.0</ele><time>2026-04-26T11:35:25.001Z</time></trkpt><trkpt lat="46.387707540966986" lon="12.99313743482816"><ele>418.0</ele><time>2026-04-26T11:35:26.001Z</time></trkpt><trkpt lat="46.387835873152596" lon="12.993147394415116"><ele>418.0</ele><time>2026-04-26T11:35:27.001Z</time></trkpt><trkpt lat="46.38795691286756" lon="12.993112947371367"><ele>418.0</ele><time>2026-04-26T11:35:28.001Z</time></trkpt><trkpt lat="46.388064903769475" lon="12.99299660344359"><ele>416.4</ele><time>2026-04-26T11:35:29.001Z</time></trkpt><trkpt lat="46.38816592781759" lon="12.992867598471518"><ele>414.79999999999995</ele><time>2026-04-26T11:35:30.001Z</time></trkpt><trkpt lat="46.38826109467418" lon="12.992758566484923"><ele>413.2</ele><time>2026-04-26T11:35:31.001Z</time></trkpt><trkpt lat="46.38835495700679" lon="12.992719927349052"><ele>411.6</ele><time>2026-04-26T11:35:32.001Z</time></trkpt><trkpt lat="46.38843753396863" lon="12.992702421082132"><ele>410.0</ele><time>2026-04-26T11:35:33.001Z</time></trkpt><trkpt lat="46.388505464703" lon="12.992790769469114"><ele>410.0</ele><time>2026-04-26T11:35:34.001Z</time></trkpt><trkpt lat="46.38856216769037" lon="12.99292904413968"><ele>410.0</ele><time>2026-04-26T11:35:35.001Z</time></trkpt><trkpt lat="46.3886358952485" lon="12.993088274270123"><ele>410.0</ele><time>2026-04-26T11:35:36.001Z</time></trkpt><trkpt lat="46.38871425146156" lon="12.993265964807003"><ele>410.0</ele><time>2026-04-26T11:35:37.001Z</time></trkpt><trkpt lat="46.3888015388604" lon="12.993462520914584"><ele>408.25</ele><time>2026-04-26T11:35:38.001Z</time></trkpt><trkpt lat="46.38888870447594" lon="12.993657570648693"><ele>406.5</ele><time>2026-04-26T11:35:39.001Z</time></trkpt><trkpt lat="46.388967267970834" lon="12.993832867917808"><ele>404.75</ele><time>2026-04-26T11:35:40.001Z</time></trkpt><trkpt lat="46.38903963292186" lon="12.994004633615056"><ele>403.0</ele><time>2026-04-26T11:35:41.001Z</time></trkpt><trkpt lat="46.389106408773074" lon="12.994157464765038"><ele>403.25</ele><time>2026-04-26T11:35:42Z</time></trkpt><trkpt lat="46.389181391654816" lon="12.994320961747839"><ele>403.5</ele><time>2026-04-26T11:35:43Z</time></trkpt><trkpt lat="46.38923328677829" lon="12.99451248043184"><ele>403.75</ele><time>2026-04-26T11:35:44Z</time></trkpt><trkpt lat="46.389231311015806" lon="12.994751836406635"><ele>404.0</ele><time>2026-04-26T11:35:45Z</time></trkpt><trkpt lat="46.38917952497365" lon="12.995011773395095"><ele>413.3333333333333</ele><time>2026-04-26T11:35:46Z</time></trkpt><trkpt lat="46.389109705745625" lon="12.995271623958924"><ele>422.66666666666663</ele><time>2026-04-26T11:35:47Z</time></trkpt><trkpt lat="46.388989807737104" lon="12.995492246105956"><ele>432.0</ele><time>2026-04-26T11:35:48Z</time></trkpt><trkpt lat="46.388861620917176" lon="12.995672680946988"><ele>423.66666666666663</ele><time>2026-04-26T11:35:49Z</time></trkpt><trkpt lat="46.38867667189526" lon="12.9957842397764"><ele>415.3333333333333</ele><time>2026-04-26T11:35:50Z</time></trkpt><trkpt lat="46.38848039016931" lon="12.995925318040594"><ele>407.0</ele><time>2026-04-26T11:35:51Z</time></trkpt><trkpt lat="46.388289474056116" lon="12.996027540597533"><ele>410.66666666666663</ele><time>2026-04-26T11:35:52Z</time></trkpt><trkpt lat="46.38810428685223" lon="12.996102689971647"><ele>414.33333333333337</ele><time>2026-04-26T11:35:53Z</time></trkpt><trkpt lat="46.38790472419201" lon="12.996153760226099"><ele>418.0</ele><time>2026-04-26T11:35:54Z</time></trkpt><trkpt lat="46.38771829719954" lon="12.99620493680243"><ele>418.0</ele><time>2026-04-26T11:35:55Z</time></trkpt><trkpt lat="46.38754181687102" lon="12.99631323247452"><ele>418.0</ele><time>2026-04-26T11:35:56Z</time></trkpt><trkpt lat="46.38740725329169" lon="12.99651083179211"><ele>418.0</ele><time>2026-04-26T11:35:57Z</time></trkpt><trkpt lat="46.387291591720924" lon="12.996742885478954"><ele>415.6666666666667</ele><time>2026-04-26T11:35:58Z</time></trkpt><trkpt lat="46.387185767287775" lon="12.996992867737449"><ele>413.33333333333337</ele><time>2026-04-26T11:35:59Z</time></trkpt><trkpt lat="46.3871065819144" lon="12.997278247389035"><ele>411.0</ele><time>2026-04-26T11:36:00Z</time></trkpt><trkpt lat="46.38703891758685" lon="12.997574016797675"><ele>410.0</ele><time>2026-04-26T11:36:01Z</time></trkpt><trkpt lat="46.38699681729669" lon="12.997887170714117"><ele>409.0</ele><time>2026-04-26T11:36:02Z</time></trkpt><trkpt lat="46.386956223216565" lon="12.998210334603684"><ele>408.0</ele><time>2026-04-26T11:36:03Z</time></trkpt><trkpt lat="46.38691330407664" lon="12.998479274700909"><ele>408.0</ele><time>2026-04-26T11:36:04Z</time></trkpt><trkpt lat="46.38685122921837" lon="12.998716123064845"><ele>408.0</ele><time>2026-04-26T11:36:05Z</time></trkpt><trkpt lat="46.38674749136641" lon="12.998923345503265"><ele>408.0</ele><time>2026-04-26T11:36:06Z</time></trkpt><trkpt lat="46.38664126932486" lon="12.999139179929728"><ele>408.66666666666663</ele><time>2026-04-26T11:36:07Z</time></trkpt><trkpt lat="46.38655250070849" lon="12.99932962879253"><ele>409.3333333333333</ele><time>2026-04-26T11:36:08Z</time></trkpt><trkpt lat="46.38649864444417" lon="12.999578629611252"><ele>410.0</ele><time>2026-04-26T11:36:09Z</time></trkpt><trkpt lat="46.38644012410096" lon="12.999856822781156"><ele>410.0</ele><time>2026-04-26T11:36:10Z</time></trkpt><trkpt lat="46.38638397725186" lon="13.000160046643407"><ele>410.0</ele><time>2026-04-26T11:36:11Z</time></trkpt><trkpt lat="46.386340599910426" lon="13.000473881668745"><ele>410.0</ele><time>2026-04-26T11:36:12Z</time></trkpt><trkpt lat="46.38628644280181" lon="13.000748765123134"><ele>413.66666666666663</ele><time>2026-04-26T11:36:13Z</time></trkpt><trkpt lat="46.38625157668467" lon="13.001020763004577"><ele>417.33333333333337</ele><time>2026-04-26T11:36:14Z</time></trkpt><trkpt lat="46.38626306279973" lon="13.00129833406816"><ele>421.0</ele><time>2026-04-26T11:36:15Z</time></trkpt><trkpt lat="46.386309122160604" lon="13.001572813627828"><ele>417.0</ele><time>2026-04-26T11:36:16Z</time></trkpt><trkpt lat="46.38638510149713" lon="13.001845205235801"><ele>413.0</ele><time>2026-04-26T11:36:17Z</time></trkpt><trkpt lat="46.38648748246241" lon="13.002117680647421"><ele>409.0</ele><time>2026-04-26T11:36:18Z</time></trkpt><trkpt lat="46.38655876434983" lon="13.002418986709499"><ele>407.6666666666667</ele><time>2026-04-26T11:36:19Z</time></trkpt><trkpt lat="46.386597850038726" lon="13.002710522111682"><ele>406.33333333333337</ele><time>2026-04-26T11:36:20Z</time></trkpt><trkpt lat="46.38662363036572" lon="13.00297936630317"><ele>405.0</ele><time>2026-04-26T11:36:21Z</time></trkpt><trkpt lat="46.386647245712055" lon="13.003228954634897"><ele>403.66666666666663</ele><time>2026-04-26T11:36:22Z</time></trkpt><trkpt lat="46.38671338683097" lon="13.003462151588227"><ele>402.3333333333333</ele><time>2026-04-26T11:36:23Z</time></trkpt><trkpt lat="46.386821713130146" lon="13.003673259760689"><ele>401.0</ele><time>2026-04-26T11:36:24Z</time></trkpt><trkpt lat="46.38691109223346" lon="13.003853347236774"><ele>401.0</ele><time>2026-04-26T11:36:25Z</time></trkpt><trkpt lat="46.38697415716443" lon="13.004004848090961"><ele>401.0</ele><time>2026-04-26T11:36:26Z</time></trkpt><trkpt lat="46.38703909550845" lon="13.004112729708208"><ele>401.0</ele><time>2026-04-26T11:36:27Z</time></trkpt><trkpt lat="46.38713490303851" lon="13.004167563098287"><ele>401.0</ele><time>2026-04-26T11:36:28Z</time></trkpt><trkpt lat="46.38724191291808" lon="13.004133531639503"><ele>401.0</ele><time>2026-04-26T11:36:29Z</time></trkpt><trkpt lat="46.38735867060115" lon="13.003994541113311"><ele>406.0</ele><time>2026-04-26T11:36:30Z</time></trkpt><trkpt lat="46.38752028854236" lon="13.003877942427845"><ele>411.0</ele><time>2026-04-26T11:36:31Z</time></trkpt><trkpt lat="46.38767499388609" lon="13.00378051881633"><ele>416.0</ele><time>2026-04-26T11:36:32Z</time></trkpt><trkpt lat="46.38781702585573" lon="13.003780999026192"><ele>416.0</ele><time>2026-04-26T11:36:33Z</time></trkpt><trkpt lat="46.38799718815897" lon="13.003776020181437"><ele>416.0</ele><time>2026-04-26T11:36:34Z</time></trkpt><trkpt lat="46.38816041619505" lon="13.003804242257614"><ele>416.0</ele><time>2026-04-26T11:36:35Z</time></trkpt><trkpt lat="46.38830777088658" lon="13.003842569284444"><ele>412.0</ele><time>2026-04-26T11:36:36Z</time></trkpt><trkpt lat="46.388443123082034" lon="13.003948889845459"><ele>408.0</ele><time>2026-04-26T11:36:37Z</time></trkpt><trkpt lat="46.388601624659" lon="13.004080368582"><ele>404.0</ele><time>2026-04-26T11:36:38Z</time></trkpt><trkpt lat="46.38872261104254" lon="13.004307235463669"><ele>393.0</ele><time>2026-04-26T11:36:39Z</time></trkpt><trkpt lat="46.38884367205794" lon="13.004489999365484"><ele>382.0</ele><time>2026-04-26T11:36:40Z</time></trkpt><trkpt lat="46.38894677791763" lon="13.004670090451095"><ele>371.0</ele><time>2026-04-26T11:36:41Z</time></trkpt><trkpt lat="46.389039632661266" lon="13.00481857723587"><ele>371.0</ele><time>2026-04-26T11:36:42Z</time></trkpt><trkpt lat="46.389100762714044" lon="13.004941275038506"><ele>371.0</ele><time>2026-04-26T11:36:43Z</time></trkpt><trkpt lat="46.38911478790892" lon="13.00506709264876"><ele>371.0</ele><time>2026-04-26T11:36:44Z</time></trkpt><trkpt lat="46.389069443324956" lon="13.005182710321233"><ele>371.0</ele><time>2026-04-26T11:36:45Z</time></trkpt><trkpt lat="46.388982814951135" lon="13.005227009572488"><ele>371.0</ele><time>2026-04-26T11:36:46Z</time></trkpt><trkpt lat="46.388875402569994" lon="13.00518085346232"><ele>372.0</ele><time>2026-04-26T11:36:47Z</time></trkpt><trkpt lat="46.38881566382146" lon="13.00502790334456"><ele>373.0</ele><time>2026-04-26T11:36:48Z</time></trkpt><trkpt lat="46.38872883897696" lon="13.00486462195908"><ele>374.0</ele><time>2026-04-26T11:36:49Z</time></trkpt><trkpt lat="46.388629418674554" lon="13.004707737546193"><ele>375.0</ele><time>2026-04-26T11:36:50Z</time></trkpt><trkpt lat="46.38849691866929" lon="13.00458622476145"><ele>375.0</ele><time>2026-04-26T11:36:51Z</time></trkpt><trkpt lat="46.38834277587357" lon="13.004541114044132"><ele>375.0</ele><time>2026-04-26T11:36:52Z</time></trkpt><trkpt lat="46.388176887262674" lon="13.004560982327776"><ele>375.0</ele><time>2026-04-26T11:36:53Z</time></trkpt><trkpt lat="46.388011800148504" lon="13.004584850569287"><ele>377.0</ele><time>2026-04-26T11:36:54Z</time></trkpt><trkpt lat="46.38787256505577" lon="13.00458526393935"><ele>379.0</ele><time>2026-04-26T11:36:55Z</time></trkpt><trkpt lat="46.38774648469961" lon="13.004576704249246"><ele>381.0</ele><time>2026-04-26T11:36:56Z</time></trkpt><trkpt lat="46.38764022503237" lon="13.004613447689715"><ele>383.0</ele><time>2026-04-26T11:36:57Z</time></trkpt><trkpt lat="46.38756086706371" lon="13.004732930763108"><ele>383.0</ele><time>2026-04-26T11:36:58Z</time></trkpt><trkpt lat="46.38752849772574" lon="13.004901575759725"><ele>383.0</ele><time>2026-04-26T11:36:59Z</time></trkpt><trkpt lat="46.38755793840926" lon="13.005072304097613"><ele>383.0</ele><time>2026-04-26T11:37:00Z</time></trkpt><trkpt lat="46.38763463113287" lon="13.005242761390914"><ele>383.0</ele><time>2026-04-26T11:37:01Z</time></trkpt><trkpt lat="46.38776329805219" lon="13.005393722753167"><ele>375.33333333333337</ele><time>2026-04-26T11:37:02Z</time></trkpt><trkpt lat="46.387909614766855" lon="13.00551193336138"><ele>367.6666666666667</ele><time>2026-04-26T11:37:03Z</time></trkpt><trkpt lat="46.38806834080552" lon="13.005629203262226"><ele>360.0</ele><time>2026-04-26T11:37:04Z</time></trkpt><trkpt lat="46.388193309279146" lon="13.00570469802794"><ele>359.75</ele><time>2026-04-26T11:37:05Z</time></trkpt><trkpt lat="46.3883144602003" lon="13.005808611538972"><ele>359.5</ele><time>2026-04-26T11:37:06Z</time></trkpt><trkpt lat="46.38842766237277" lon="13.005916601653283"><ele>359.25</ele><time>2026-04-26T11:37:07Z</time></trkpt><trkpt lat="46.38852293092564" lon="13.006043134149463"><ele>359.0</ele><time>2026-04-26T11:37:08Z</time></trkpt><trkpt lat="46.38854192524254" lon="13.006248476406979"><ele>354.33333333333337</ele><time>2026-04-26T11:37:09Z</time></trkpt><trkpt lat="46.38856289779781" lon="13.006476614489827"><ele>349.6666666666667</ele><time>2026-04-26T11:37:10Z</time></trkpt><trkpt lat="46.38860026262237" lon="13.00672412591674"><ele>345.0</ele><time>2026-04-26T11:37:11Z</time></trkpt><trkpt lat="46.38862165070939" lon="13.00698704139059"><ele>342.3333333333333</ele><time>2026-04-26T11:37:12Z</time></trkpt><trkpt lat="46.388649115237456" lon="13.00723779471983"><ele>339.66666666666663</ele><time>2026-04-26T11:37:13Z</time></trkpt><trkpt lat="46.3886520945244" lon="13.007470031900198"><ele>337.0</ele><time>2026-04-26T11:37:14Z</time></trkpt><trkpt lat="46.38865563572594" lon="13.007691694886947"><ele>334.66666666666663</ele><time>2026-04-26T11:37:15Z</time></trkpt><trkpt lat="46.38863666748542" lon="13.007927717025606"><ele>332.3333333333333</ele><time>2026-04-26T11:37:16Z</time></trkpt><trkpt lat="46.388624178015164" lon="13.00815672612745"><ele>330.0</ele><time>2026-04-26T11:37:17Z</time></trkpt><trkpt lat="46.38860328913821" lon="13.008362135578862"><ele>329.0</ele><time>2026-04-26T11:37:18Z</time></trkpt><trkpt lat="46.3886292068177" lon="13.008559280135259"><ele>328.0</ele><time>2026-04-26T11:37:19Z</time></trkpt><trkpt lat="46.388682658531586" lon="13.00878142351866"><ele>327.0</ele><time>2026-04-26T11:37:20Z</time></trkpt><trkpt lat="46.3887316334286" lon="13.009021453527618"><ele>323.6666666666667</ele><time>2026-04-26T11:37:21Z</time></trkpt><trkpt lat="46.3887611309449" lon="13.009291420537114"><ele>320.33333333333337</ele><time>2026-04-26T11:37:22Z</time></trkpt><trkpt lat="46.388741110053964" lon="13.009570770836726"><ele>317.0</ele><time>2026-04-26T11:37:23Z</time></trkpt><trkpt lat="46.388705733037156" lon="13.00981070170876"><ele>315.75</ele><time>2026-04-26T11:37:24Z</time></trkpt><trkpt lat="46.38867291422612" lon="13.010026499265438"><ele>314.5</ele><time>2026-04-26T11:37:25Z</time></trkpt><trkpt lat="46.388668694110834" lon="13.010224369711288"><ele>313.25</ele><time>2026-04-26T11:37:26Z</time></trkpt><trkpt lat="46.388654993440795" lon="13.010396552967133"><ele>312.0</ele><time>2026-04-26T11:37:27Z</time></trkpt><trkpt lat="46.388638003676924" lon="13.010533993129908"><ele>312.0</ele><time>2026-04-26T11:37:28Z</time></trkpt><trkpt lat="46.38858711172524" lon="13.010635834800576"><ele>312.0</ele><time>2026-04-26T11:37:29Z</time></trkpt><trkpt lat="46.38852741865277" lon="13.01069824164882"><ele>312.0</ele><time>2026-04-26T11:37:30Z</time></trkpt><trkpt lat="46.38840199391318" lon="13.010719134449957"><ele>312.0</ele><time>2026-04-26T11:37:31Z</time></trkpt><trkpt lat="46.38831532697104" lon="13.010804625466655"><ele>312.0</ele><time>2026-04-26T11:37:32Z</time></trkpt><trkpt lat="46.38827038151286" lon="13.010955444838668"><ele>311.0</ele><time>2026-04-26T11:37:33Z</time></trkpt><trkpt lat="46.38822224069009" lon="13.011107379794126"><ele>310.0</ele><time>2026-04-26T11:37:34Z</time></trkpt><trkpt lat="46.38812092526982" lon="13.011223883429984"><ele>309.0</ele><time>2026-04-26T11:37:35Z</time></trkpt><trkpt lat="46.387977929064306" lon="13.011312469897817"><ele>308.0</ele><time>2026-04-26T11:37:36Z</time></trkpt><trkpt lat="46.38783693154107" lon="13.01136539089146"><ele>308.0</ele><time>2026-04-26T11:37:37Z</time></trkpt><trkpt lat="46.38768960364009" lon="13.011416855808502"><ele>308.0</ele><time>2026-04-26T11:37:38Z</time></trkpt><trkpt lat="46.38753749657222" lon="13.011459067436398"><ele>308.0</ele><time>2026-04-26T11:37:39Z</time></trkpt><trkpt lat="46.38738777754279" lon="13.011493369055502"><ele>308.0</ele><time>2026-04-26T11:37:40Z</time></trkpt><trkpt lat="46.38724281283962" lon="13.0115401460697"><ele>308.0</ele><time>2026-04-26T11:37:41Z</time></trkpt><trkpt lat="46.38709468224184" lon="13.011580907062765"><ele>308.0</ele><time>2026-04-26T11:37:42Z</time></trkpt><trkpt lat="46.386944184857505" lon="13.011619558367608"><ele>311.6666666666667</ele><time>2026-04-26T11:37:43Z</time></trkpt><trkpt lat="46.386784726653424" lon="13.011645022166679"><ele>315.3333333333333</ele><time>2026-04-26T11:37:44Z</time></trkpt><trkpt lat="46.3866079030583" lon="13.011627402773096"><ele>319.0</ele><time>2026-04-26T11:37:45Z</time></trkpt><trkpt lat="46.386435220284675" lon="13.011574562003963"><ele>315.3333333333333</ele><time>2026-04-26T11:37:46Z</time></trkpt><trkpt lat="46.386277881114545" lon="13.011513567522119"><ele>311.6666666666667</ele><time>2026-04-26T11:37:47Z</time></trkpt><trkpt lat="46.3861132870499" lon="13.011465379077352"><ele>308.0</ele><time>2026-04-26T11:37:48Z</time></trkpt><trkpt lat="46.385952815780094" lon="13.01141439036728"><ele>308.0</ele><time>2026-04-26T11:37:49Z</time></trkpt><trkpt lat="46.38578596572093" lon="13.011362188549274"><ele>308.0</ele><time>2026-04-26T11:37:50Z</time></trkpt><trkpt lat="46.38561908604982" lon="13.011318844047407"><ele>308.0</ele><time>2026-04-26T11:37:51Z</time></trkpt><trkpt lat="46.3854468353508" lon="13.011317311774546"><ele>308.6666666666667</ele><time>2026-04-26T11:37:52Z</time></trkpt><trkpt lat="46.38527654631843" lon="13.011384828794805"><ele>309.3333333333333</ele><time>2026-04-26T11:37:53Z</time></trkpt><trkpt lat="46.38511802230614" lon="13.011499965659645"><ele>310.0</ele><time>2026-04-26T11:37:54Z</time></trkpt><trkpt lat="46.38498125953258" lon="13.01167454352508"><ele>308.3333333333333</ele><time>2026-04-26T11:37:55Z</time></trkpt><trkpt lat="46.38486208628287" lon="13.011900120378703"><ele>306.6666666666667</ele><time>2026-04-26T11:37:56Z</time></trkpt><trkpt lat="46.384749378181446" lon="13.012137895597553"><ele>305.0</ele><time>2026-04-26T11:37:57Z</time></trkpt><trkpt lat="46.38463344501315" lon="13.012373585905445"><ele>313.0</ele><time>2026-04-26T11:37:58Z</time></trkpt><trkpt lat="46.38451422233471" lon="13.01261698180016"><ele>321.0</ele><time>2026-04-26T11:37:59Z</time></trkpt><trkpt lat="46.384402573213954" lon="13.012862702039955"><ele>329.0</ele><time>2026-04-26T11:38:00Z</time></trkpt><trkpt lat="46.38431557594521" lon="13.013104076624096"><ele>327.6666666666667</ele><time>2026-04-26T11:38:01Z</time></trkpt><trkpt lat="46.3842729633763" lon="13.01334409888951"><ele>326.3333333333333</ele><time>2026-04-26T11:38:02Z</time></trkpt><trkpt lat="46.384280406303354" lon="13.013632323651082"><ele>325.0</ele><time>2026-04-26T11:38:03Z</time></trkpt><trkpt lat="46.38426418904532" lon="13.013921547442612"><ele>323.3333333333333</ele><time>2026-04-26T11:38:04Z</time></trkpt><trkpt lat="46.384240140416416" lon="13.01422009960979"><ele>321.6666666666667</ele><time>2026-04-26T11:38:05Z</time></trkpt><trkpt lat="46.38419581964622" lon="13.014519909575599"><ele>320.0</ele><time>2026-04-26T11:38:06Z</time></trkpt><trkpt lat="46.38412941698564" lon="13.014829394689551"><ele>316.33333333333337</ele><time>2026-04-26T11:38:07Z</time></trkpt><trkpt lat="46.38404271828406" lon="13.015119677766922"><ele>312.6666666666667</ele><time>2026-04-26T11:38:08Z</time></trkpt><trkpt lat="46.3839400308452" lon="13.015389952609747"><ele>309.0</ele><time>2026-04-26T11:38:09Z</time></trkpt><trkpt lat="46.38381653250534" lon="13.01565381588909"><ele>313.0</ele><time>2026-04-26T11:38:10Z</time></trkpt><trkpt lat="46.3836902099231" lon="13.015882104362351"><ele>317.0</ele><time>2026-04-26T11:38:11Z</time></trkpt><trkpt lat="46.38356607944326" lon="13.01607937702954"><ele>321.0</ele><time>2026-04-26T11:38:12Z</time></trkpt><trkpt lat="46.38344241136824" lon="13.016266344875207"><ele>321.0</ele><time>2026-04-26T11:38:13Z</time></trkpt><trkpt lat="46.383311680966855" lon="13.01646212793993"><ele>321.0</ele><time>2026-04-26T11:38:14Z</time></trkpt><trkpt lat="46.38316078550111" lon="13.016628463477996"><ele>321.0</ele><time>2026-04-26T11:38:15Z</time></trkpt><trkpt lat="46.38298515638005" lon="13.016737026649636"><ele>316.0</ele><time>2026-04-26T11:38:16Z</time></trkpt><trkpt lat="46.382813161287324" lon="13.016851978381968"><ele>311.0</ele><time>2026-04-26T11:38:17Z</time></trkpt><trkpt lat="46.38265000427223" lon="13.016968256592168"><ele>306.0</ele><time>2026-04-26T11:38:18Z</time></trkpt><trkpt lat="46.382489065143226" lon="13.017095765539663"><ele>306.0</ele><time>2026-04-26T11:38:19Z</time></trkpt><trkpt lat="46.3823317916288" lon="13.017257211346662"><ele>306.0</ele><time>2026-04-26T11:38:20Z</time></trkpt><trkpt lat="46.382177619428326" lon="13.01742728821942"><ele>306.0</ele><time>2026-04-26T11:38:21Z</time></trkpt><trkpt lat="46.382022771357484" lon="13.017597294830393"><ele>305.6666666666667</ele><time>2026-04-26T11:38:22Z</time></trkpt><trkpt lat="46.38186159499391" lon="13.01777068760129"><ele>305.33333333333337</ele><time>2026-04-26T11:38:23Z</time></trkpt><trkpt lat="46.38169772373183" lon="13.01794575971847"><ele>305.0</ele><time>2026-04-26T11:38:24Z</time></trkpt><trkpt lat="46.38153142997753" lon="13.018116432109968"><ele>305.0</ele><time>2026-04-26T11:38:25Z</time></trkpt><trkpt lat="46.38137258259367" lon="13.018278409024177"><ele>305.0</ele><time>2026-04-26T11:38:26Z</time></trkpt><trkpt lat="46.38123200060593" lon="13.018418473849136"><ele>305.0</ele><time>2026-04-26T11:38:27Z</time></trkpt><trkpt lat="46.38110861805863" lon="13.018585992162896"><ele>309.33333333333337</ele><time>2026-04-26T11:38:28Z</time></trkpt><trkpt lat="46.381015817235195" lon="13.018810285012554"><ele>313.6666666666667</ele><time>2026-04-26T11:38:29Z</time></trkpt><trkpt lat="46.3809472814253" lon="13.019073952220372"><ele>318.0</ele><time>2026-04-26T11:38:30Z</time></trkpt><trkpt lat="46.38087139596683" lon="13.019339960622206"><ele>319.6666666666667</ele><time>2026-04-26T11:38:31Z</time></trkpt><trkpt lat="46.38079082348199" lon="13.019571137079433"><ele>321.33333333333337</ele><time>2026-04-26T11:38:32Z</time></trkpt><trkpt lat="46.3807414314788" lon="13.019776275864121"><ele>323.0</ele><time>2026-04-26T11:38:33Z</time></trkpt><trkpt lat="46.38073858737157" lon="13.019989201508992"><ele>323.0</ele><time>2026-04-26T11:38:34Z</time></trkpt><trkpt lat="46.38079210312863" lon="13.020187175050898"><ele>323.0</ele><time>2026-04-26T11:38:35Z</time></trkpt><trkpt lat="46.380888550077884" lon="13.020362352214578"><ele>323.0</ele><time>2026-04-26T11:38:36Z</time></trkpt><trkpt lat="46.381034391940084" lon="13.02051795017049"><ele>323.0</ele><time>2026-04-26T11:38:37Z</time></trkpt><trkpt lat="46.381170600860756" lon="13.020664178315258"><ele>323.0</ele><time>2026-04-26T11:38:38Z</time></trkpt><trkpt lat="46.38127697143056" lon="13.020802883828916"><ele>323.0</ele><time>2026-04-26T11:38:39Z</time></trkpt><trkpt lat="46.38134719885851" lon="13.020963664368931"><ele>323.0</ele><time>2026-04-26T11:38:40Z</time></trkpt><trkpt lat="46.38136827505961" lon="13.02116370413597"><ele>325.5</ele><time>2026-04-26T11:38:41Z</time></trkpt><trkpt lat="46.38132868046852" lon="13.021343338483545"><ele>328.0</ele><time>2026-04-26T11:38:42Z</time></trkpt><trkpt lat="46.3812408048352" lon="13.02150150726993"><ele>330.5</ele><time>2026-04-26T11:38:43Z</time></trkpt><trkpt lat="46.381132935363645" lon="13.021663316393562"><ele>333.0</ele><time>2026-04-26T11:38:44Z</time></trkpt><trkpt lat="46.38100467608848" lon="13.021850036877558"><ele>333.6666666666667</ele><time>2026-04-26T11:38:45Z</time></trkpt><trkpt lat="46.38088114156869" lon="13.022034920613226"><ele>334.33333333333337</ele><time>2026-04-26T11:38:46Z</time></trkpt><trkpt lat="46.38076824197382" lon="13.022205675029353"><ele>335.0</ele><time>2026-04-26T11:38:47Z</time></trkpt><trkpt lat="46.38062830740143" lon="13.022357718742791"><ele>337.6666666666667</ele><time>2026-04-26T11:38:48Z</time></trkpt><trkpt lat="46.380458385375746" lon="13.022487604288118"><ele>340.3333333333333</ele><time>2026-04-26T11:38:49Z</time></trkpt><trkpt lat="46.38031997258887" lon="13.022633842985437"><ele>343.0</ele><time>2026-04-26T11:38:50Z</time></trkpt><trkpt lat="46.380195081661" lon="13.022779183786337"><ele>343.0</ele><time>2026-04-26T11:38:51Z</time></trkpt><trkpt lat="46.380087472694704" lon="13.02297118126577"><ele>343.0</ele><time>2026-04-26T11:38:52Z</time></trkpt><trkpt lat="46.38001402026442" lon="13.023213603710719"><ele>343.0</ele><time>2026-04-26T11:38:53Z</time></trkpt><trkpt lat="46.37994638038881" lon="13.02349970326383"><ele>336.0</ele><time>2026-04-26T11:38:54Z</time></trkpt><trkpt lat="46.37985747897177" lon="13.02380345155116"><ele>329.0</ele><time>2026-04-26T11:38:55Z</time></trkpt><trkpt lat="46.37976520071497" lon="13.024118082633503"><ele>333.33333333333337</ele><time>2026-04-26T11:38:56Z</time></trkpt><trkpt lat="46.37968147950638" lon="13.024397639695849"><ele>337.6666666666667</ele><time>2026-04-26T11:38:57Z</time></trkpt><trkpt lat="46.37960467615616" lon="13.024656460958907"><ele>342.0</ele><time>2026-04-26T11:38:58Z</time></trkpt><trkpt lat="46.37955222388223" lon="13.024911437590937"><ele>334.6666666666667</ele><time>2026-04-26T11:38:59Z</time></trkpt><trkpt lat="46.37953061948527" lon="13.025178828030361"><ele>327.33333333333337</ele><time>2026-04-26T11:39:00Z</time></trkpt><trkpt lat="46.37954037953943" lon="13.025427012437422"><ele>320.0</ele><time>2026-04-26T11:39:01Z</time></trkpt><trkpt lat="46.37955642591556" lon="13.025657705558691"><ele>316.75</ele><time>2026-04-26T11:39:02Z</time></trkpt><trkpt lat="46.3795749556383" lon="13.02588473449979"><ele>313.5</ele><time>2026-04-26T11:39:03Z</time></trkpt><trkpt lat="46.3795495714425" lon="13.026079920970325"><ele>310.25</ele><time>2026-04-26T11:39:04Z</time></trkpt><trkpt lat="46.379462998042044" lon="13.026220517699622"><ele>307.0</ele><time>2026-04-26T11:39:05Z</time></trkpt><trkpt lat="46.379329477684045" lon="13.02632346667833"><ele>307.0</ele><time>2026-04-26T11:39:06Z</time></trkpt><trkpt lat="46.37919986734341" lon="13.026408970308893"><ele>307.0</ele><time>2026-04-26T11:39:07Z</time></trkpt><trkpt lat="46.37910010374596" lon="13.026570201224413"><ele>307.0</ele><time>2026-04-26T11:39:08Z</time></trkpt><trkpt lat="46.37898791191648" lon="13.026773936600598"><ele>308.0</ele><time>2026-04-26T11:39:09Z</time></trkpt><trkpt lat="46.378867042969276" lon="13.026971883951523"><ele>309.0</ele><time>2026-04-26T11:39:10Z</time></trkpt><trkpt lat="46.37876007893961" lon="13.027143095797092"><ele>310.0</ele><time>2026-04-26T11:39:11Z</time></trkpt><trkpt lat="46.378661322533354" lon="13.0273099644616"><ele>305.3333333333333</ele><time>2026-04-26T11:39:12Z</time></trkpt><trkpt lat="46.378613854308156" lon="13.027543694866422"><ele>300.6666666666667</ele><time>2026-04-26T11:39:13Z</time></trkpt><trkpt lat="46.37858026891013" lon="13.027804956118578"><ele>296.0</ele><time>2026-04-26T11:39:14Z</time></trkpt><trkpt lat="46.378534457522065" lon="13.028072190695205"><ele>296.0</ele><time>2026-04-26T11:39:15Z</time></trkpt><trkpt lat="46.3784867798381" lon="13.028306876963697"><ele>296.0</ele><time>2026-04-26T11:39:16Z</time></trkpt><trkpt lat="46.37842788843573" lon="13.028524198060689"><ele>296.0</ele><time>2026-04-26T11:39:17Z</time></trkpt><trkpt lat="46.37833616538401" lon="13.028727201643123"><ele>296.33333333333337</ele><time>2026-04-26T11:39:18Z</time></trkpt><trkpt lat="46.37820396128583" lon="13.028894907219495"><ele>296.6666666666667</ele><time>2026-04-26T11:39:19Z</time></trkpt><trkpt lat="46.378019142216" lon="13.029025806646583"><ele>297.0</ele><time>2026-04-26T11:39:20Z</time></trkpt><trkpt lat="46.37782013354551" lon="13.029130288229876"><ele>297.0</ele><time>2026-04-26T11:39:21Z</time></trkpt><trkpt lat="46.37762250097075" lon="13.02926080085559"><ele>297.0</ele><time>2026-04-26T11:39:22Z</time></trkpt><trkpt lat="46.377434196825206" lon="13.029373985366536"><ele>297.0</ele><time>2026-04-26T11:39:23Z</time></trkpt><trkpt lat="46.37725655795792" lon="13.029492014479214"><ele>294.3333333333333</ele><time>2026-04-26T11:39:24Z</time></trkpt><trkpt lat="46.37708202319361" lon="13.029614258037638"><ele>291.66666666666663</ele><time>2026-04-26T11:39:25Z</time></trkpt><trkpt lat="46.37688944790831" lon="13.029676379241483"><ele>289.0</ele><time>2026-04-26T11:39:26Z</time></trkpt><trkpt lat="46.376700814053216" lon="13.029707289184971"><ele>289.0</ele><time>2026-04-26T11:39:27Z</time></trkpt><trkpt lat="46.37652748124124" lon="13.029719007996658"><ele>289.0</ele><time>2026-04-26T11:39:28Z</time></trkpt><trkpt lat="46.37633012748818" lon="13.02973067410079"><ele>289.0</ele><time>2026-04-26T11:39:29Z</time></trkpt><trkpt lat="46.37614682967803" lon="13.029740338169676"><ele>290.66666666666663</ele><time>2026-04-26T11:39:30Z</time></trkpt><trkpt lat="46.37594215244272" lon="13.029751129435427"><ele>292.3333333333333</ele><time>2026-04-26T11:39:31Z</time></trkpt><trkpt lat="46.375737291242004" lon="13.029762021004085"><ele>294.0</ele><time>2026-04-26T11:39:32Z</time></trkpt><trkpt lat="46.37555371584637" lon="13.029772857616642"><ele>294.3333333333333</ele><time>2026-04-26T11:39:33Z</time></trkpt><trkpt lat="46.37536485370688" lon="13.029784886594342"><ele>294.66666666666663</ele><time>2026-04-26T11:39:34Z</time></trkpt><trkpt lat="46.37516454403247" lon="13.029804382007443"><ele>295.0</ele><time>2026-04-26T11:39:35Z</time></trkpt><trkpt lat="46.37496914646156" lon="13.029826887764221"><ele>295.0</ele><time>2026-04-26T11:39:36Z</time></trkpt><trkpt lat="46.3747780181383" lon="13.029851875329852"><ele>295.0</ele><time>2026-04-26T11:39:37Z</time></trkpt><trkpt lat="46.37458588072112" lon="13.029879627344531"><ele>295.0</ele><time>2026-04-26T11:39:38Z</time></trkpt><trkpt lat="46.37439095292789" lon="13.02990767336681"><ele>294.0</ele><time>2026-04-26T11:39:39Z</time></trkpt><trkpt lat="46.374200335955436" lon="13.029934201588047"><ele>293.0</ele><time>2026-04-26T11:39:40Z</time></trkpt><trkpt lat="46.37401856380149" lon="13.029959498870324"><ele>292.0</ele><time>2026-04-26T11:39:41Z</time></trkpt><trkpt lat="46.37381735858322" lon="13.029991270403741"><ele>291.66666666666663</ele><time>2026-04-26T11:39:42Z</time></trkpt><trkpt lat="46.37362588000945" lon="13.03005142739137"><ele>291.3333333333333</ele><time>2026-04-26T11:39:43Z</time></trkpt><trkpt lat="46.37343569392932" lon="13.030109022607931"><ele>291.0</ele><time>2026-04-26T11:39:44Z</time></trkpt><trkpt lat="46.373244671324514" lon="13.030193269342774"><ele>291.0</ele><time>2026-04-26T11:39:45Z</time></trkpt><trkpt lat="46.37306619311322" lon="13.030290565535386"><ele>291.0</ele><time>2026-04-26T11:39:46Z</time></trkpt><trkpt lat="46.372882083542656" lon="13.030404149491329"><ele>291.0</ele><time>2026-04-26T11:39:47Z</time></trkpt><trkpt lat="46.37269504972072" lon="13.030507881684024"><ele>289.3333333333333</ele><time>2026-04-26T11:39:48Z</time></trkpt><trkpt lat="46.372505554889045" lon="13.030606343625022"><ele>287.66666666666663</ele><time>2026-04-26T11:39:49Z</time></trkpt><trkpt lat="46.372315586047584" lon="13.030710981493284"><ele>286.0</ele><time>2026-04-26T11:39:50Z</time></trkpt><trkpt lat="46.372127091240266" lon="13.030819839095367"><ele>285.66666666666663</ele><time>2026-04-26T11:39:51Z</time></trkpt><trkpt lat="46.371949626996404" lon="13.030921724474965"><ele>285.3333333333333</ele><time>2026-04-26T11:39:52Z</time></trkpt><trkpt lat="46.371781331940774" lon="13.03101354508441"><ele>285.0</ele><time>2026-04-26T11:39:53Z</time></trkpt><trkpt lat="46.37160589822964" lon="13.031115291816352"><ele>285.0</ele><time>2026-04-26T11:39:54Z</time></trkpt><trkpt lat="46.37142629529041" lon="13.031222157617693"><ele>285.0</ele><time>2026-04-26T11:39:55Z</time></trkpt><trkpt lat="46.371234748739674" lon="13.03130703282844"><ele>285.0</ele><time>2026-04-26T11:39:56Z</time></trkpt><trkpt lat="46.3710727442705" lon="13.031414134226814"><ele>285.0</ele><time>2026-04-26T11:39:57Z</time></trkpt><trkpt lat="46.370920777077124" lon="13.031515143041771"><ele>285.0</ele><time>2026-04-26T11:39:58Z</time></trkpt><trkpt lat="46.37076415110838" lon="13.031593374948674"><ele>285.0</ele><time>2026-04-26T11:39:59Z</time></trkpt><trkpt lat="46.370609283351605" lon="13.03167124438496"><ele>286.3333333333333</ele><time>2026-04-26T11:40:00Z</time></trkpt><trkpt lat="46.37045048856521" lon="13.031756855701163"><ele>287.66666666666663</ele><time>2026-04-26T11:40:01Z</time></trkpt><trkpt lat="46.37027474753145" lon="13.031850795781029"><ele>289.0</ele><time>2026-04-26T11:40:02Z</time></trkpt><trkpt lat="46.37014403966403" lon="13.03200311875332"><ele>289.0</ele><time>2026-04-26T11:40:03Z</time></trkpt><trkpt lat="46.37002861250336" lon="13.032199807461335"><ele>289.0</ele><time>2026-04-26T11:40:04Z</time></trkpt><trkpt lat="46.36992812656102" lon="13.032401604640816"><ele>289.0</ele><time>2026-04-26T11:40:05Z</time></trkpt><trkpt lat="46.36979393980176" lon="13.032531532094998"><ele>288.66666666666663</ele><time>2026-04-26T11:40:06Z</time></trkpt><trkpt lat="46.36964888352117" lon="13.03260286192115"><ele>288.3333333333333</ele><time>2026-04-26T11:40:07Z</time></trkpt><trkpt lat="46.369502655956154" lon="13.032656149536617"><ele>288.0</ele><time>2026-04-26T11:40:08Z</time></trkpt><trkpt lat="46.369345918067445" lon="13.032719429519206"><ele>288.0</ele><time>2026-04-26T11:40:09Z</time></trkpt><trkpt lat="46.36918321667953" lon="13.032769108672497"><ele>288.0</ele><time>2026-04-26T11:40:10Z</time></trkpt><trkpt lat="46.36901287176728" lon="13.032830180065245"><ele>288.0</ele><time>2026-04-26T11:40:11Z</time></trkpt><trkpt lat="46.36884240445771" lon="13.032893600941833"><ele>286.6666666666667</ele><time>2026-04-26T11:40:12Z</time></trkpt><trkpt lat="46.368669793834535" lon="13.032956889673356"><ele>285.33333333333337</ele><time>2026-04-26T11:40:13Z</time></trkpt><trkpt lat="46.36849048186483" lon="13.033015275668355"><ele>284.0</ele><time>2026-04-26T11:40:14Z</time></trkpt><trkpt lat="46.36832048461451" lon="13.03308338479049"><ele>284.0</ele><time>2026-04-26T11:40:15Z</time></trkpt><trkpt lat="46.3681470623428" lon="13.033148388430966"><ele>284.0</ele><time>2026-04-26T11:40:16Z</time></trkpt><trkpt lat="46.36797199104463" lon="13.033211870936228"><ele>284.0</ele><time>2026-04-26T11:40:17Z</time></trkpt><trkpt lat="46.36780005834412" lon="13.03328514635212"><ele>284.6666666666667</ele><time>2026-04-26T11:40:18Z</time></trkpt><trkpt lat="46.367627085663656" lon="13.033374234141787"><ele>285.3333333333333</ele><time>2026-04-26T11:40:19Z</time></trkpt><trkpt lat="46.367456273067226" lon="13.033474012474827"><ele>286.0</ele><time>2026-04-26T11:40:20Z</time></trkpt><trkpt lat="46.36728757817733" lon="13.033586606854229"><ele>285.0</ele><time>2026-04-26T11:40:21Z</time></trkpt><trkpt lat="46.36711841467816" lon="13.033711469573257"><ele>284.0</ele><time>2026-04-26T11:40:22Z</time></trkpt><trkpt lat="46.366951224164765" lon="13.0338493288906"><ele>283.0</ele><time>2026-04-26T11:40:23Z</time></trkpt><trkpt lat="46.36679612787706" lon="13.033999390731"><ele>283.3333333333333</ele><time>2026-04-26T11:40:24Z</time></trkpt><trkpt lat="46.366651685185765" lon="13.034165190219873"><ele>283.6666666666667</ele><time>2026-04-26T11:40:25Z</time></trkpt><trkpt lat="46.366513162527724" lon="13.034346216685247"><ele>284.0</ele><time>2026-04-26T11:40:26Z</time></trkpt><trkpt lat="46.36637843899703" lon="13.034543465791247"><ele>285.0</ele><time>2026-04-26T11:40:27Z</time></trkpt><trkpt lat="46.36624377233335" lon="13.034749642115274"><ele>286.0</ele><time>2026-04-26T11:40:28Z</time></trkpt><trkpt lat="46.3661173308638" lon="13.034968115267452"><ele>287.0</ele><time>2026-04-26T11:40:29Z</time></trkpt><trkpt lat="46.3659993312137" lon="13.035192095605161"><ele>287.33333333333337</ele><time>2026-04-26T11:40:30Z</time></trkpt><trkpt lat="46.3658875486238" lon="13.035419999272898"><ele>287.6666666666667</ele><time>2026-04-26T11:40:31Z</time></trkpt><trkpt lat="46.365780397683224" lon="13.035660928944889"><ele>288.0</ele><time>2026-04-26T11:40:32Z</time></trkpt><trkpt lat="46.36568583348069" lon="13.035916608862296"><ele>288.0</ele><time>2026-04-26T11:40:33Z</time></trkpt><trkpt lat="46.36560169563574" lon="13.036185800891868"><ele>288.0</ele><time>2026-04-26T11:40:34Z</time></trkpt><trkpt lat="46.3655286640143" lon="13.036464628778736"><ele>288.0</ele><time>2026-04-26T11:40:35Z</time></trkpt><trkpt lat="46.365457799967835" lon="13.03674514900017"><ele>288.0</ele><time>2026-04-26T11:40:36Z</time></trkpt><trkpt lat="46.36538033402614" lon="13.037025723113945"><ele>288.0</ele><time>2026-04-26T11:40:37Z</time></trkpt><trkpt lat="46.3653020503272" lon="13.037304162341162"><ele>288.0</ele><time>2026-04-26T11:40:38Z</time></trkpt><trkpt lat="46.365224766251806" lon="13.037579544614228"><ele>287.6666666666667</ele><time>2026-04-26T11:40:39Z</time></trkpt><trkpt lat="46.36514804923483" lon="13.037856701742749"><ele>287.33333333333337</ele><time>2026-04-26T11:40:40Z</time></trkpt><trkpt lat="46.365070240486205" lon="13.038129549080155"><ele>287.0</ele><time>2026-04-26T11:40:41Z</time></trkpt><trkpt lat="46.36499195505924" lon="13.038406125842155"><ele>286.6666666666667</ele><time>2026-04-26T11:40:42Z</time></trkpt><trkpt lat="46.36491107980822" lon="13.03868120190963"><ele>286.3333333333333</ele><time>2026-04-26T11:40:43Z</time></trkpt><trkpt lat="46.364834666465725" lon="13.038960988500953"><ele>286.0</ele><time>2026-04-26T11:40:44Z</time></trkpt><trkpt lat="46.36475874094828" lon="13.039238149431794"><ele>290.0</ele><time>2026-04-26T11:40:45Z</time></trkpt><trkpt lat="46.36468445532705" lon="13.039513098308115"><ele>294.0</ele><time>2026-04-26T11:40:46Z</time></trkpt><trkpt lat="46.3646032113878" lon="13.039784906373324"><ele>298.0</ele><time>2026-04-26T11:40:47Z</time></trkpt><trkpt lat="46.36452532268513" lon="13.040057699329235"><ele>298.0</ele><time>2026-04-26T11:40:48Z</time></trkpt><trkpt lat="46.36445124021209" lon="13.040330845907999"><ele>298.0</ele><time>2026-04-26T11:40:49Z</time></trkpt><trkpt lat="46.36437941589471" lon="13.040595267983402"><ele>298.0</ele><time>2026-04-26T11:40:50Z</time></trkpt><trkpt lat="46.36430201308884" lon="13.040845209580063"><ele>295.66666666666663</ele><time>2026-04-26T11:40:51Z</time></trkpt><trkpt lat="46.36421813764511" lon="13.041083542481342"><ele>293.3333333333333</ele><time>2026-04-26T11:40:52Z</time></trkpt><trkpt lat="46.36411592516503" lon="13.041304359706789"><ele>291.0</ele><time>2026-04-26T11:40:53Z</time></trkpt><trkpt lat="46.36402962494475" lon="13.041547091655923"><ele>290.3333333333333</ele><time>2026-04-26T11:40:54Z</time></trkpt><trkpt lat="46.36393443127229" lon="13.041775808414409"><ele>289.66666666666663</ele><time>2026-04-26T11:40:55Z</time></trkpt><trkpt lat="46.36383900384877" lon="13.042016597343833"><ele>289.0</ele><time>2026-04-26T11:40:56Z</time></trkpt><trkpt lat="46.363744769714465" lon="13.042266526609563"><ele>296.0</ele><time>2026-04-26T11:40:57Z</time></trkpt><trkpt lat="46.36364882634669" lon="13.04250753086777"><ele>303.0</ele><time>2026-04-26T11:40:58Z</time></trkpt><trkpt lat="46.363552202178425" lon="13.042744414433013"><ele>310.0</ele><time>2026-04-26T11:40:59Z</time></trkpt><trkpt lat="46.36345188530648" lon="13.04297458107462"><ele>310.0</ele><time>2026-04-26T11:41:00Z</time></trkpt><trkpt lat="46.36334523037397" lon="13.04319690544731"><ele>310.0</ele><time>2026-04-26T11:41:01Z</time></trkpt><trkpt lat="46.363225405681206" lon="13.043407061041732"><ele>310.0</ele><time>2026-04-26T11:41:02Z</time></trkpt><trkpt lat="46.36309096710761" lon="13.043601448373247"><ele>311.3333333333333</ele><time>2026-04-26T11:41:03Z</time></trkpt><trkpt lat="46.362940547255434" lon="13.043794202247952"><ele>312.6666666666667</ele><time>2026-04-26T11:41:04Z</time></trkpt><trkpt lat="46.36279941519956" lon="13.043968580408222"><ele>314.0</ele><time>2026-04-26T11:41:05Z</time></trkpt><trkpt lat="46.36267413532332" lon="13.044151451330325"><ele>310.33333333333337</ele><time>2026-04-26T11:41:06Z</time></trkpt><trkpt lat="46.36255142232983" lon="13.044320245528308"><ele>306.6666666666667</ele><time>2026-04-26T11:41:07Z</time></trkpt><trkpt lat="46.36244030619718" lon="13.044473707454765"><ele>303.0</ele><time>2026-04-26T11:41:08Z</time></trkpt><trkpt lat="46.36232441646193" lon="13.04462763419385"><ele>303.0</ele><time>2026-04-26T11:41:09Z</time></trkpt><trkpt lat="46.36222103645155" lon="13.044774437955914"><ele>303.0</ele><time>2026-04-26T11:41:10Z</time></trkpt><trkpt lat="46.36210191207464" lon="13.044885558903095"><ele>303.0</ele><time>2026-04-26T11:41:11Z</time></trkpt><trkpt lat="46.36195579956716" lon="13.04503561560067"><ele>305.6666666666667</ele><time>2026-04-26T11:41:12Z</time></trkpt><trkpt lat="46.36178994718564" lon="13.045128347635465"><ele>308.33333333333337</ele><time>2026-04-26T11:41:13Z</time></trkpt><trkpt lat="46.361642706797745" lon="13.045226552712315"><ele>311.0</ele><time>2026-04-26T11:41:14Z</time></trkpt><trkpt lat="46.36146070870379" lon="13.045293235303811"><ele>309.0</ele><time>2026-04-26T11:41:15Z</time></trkpt><trkpt lat="46.361305908128855" lon="13.045361300975046"><ele>307.0</ele><time>2026-04-26T11:41:16Z</time></trkpt><trkpt lat="46.36114900168402" lon="13.04543354731668"><ele>305.0</ele><time>2026-04-26T11:41:17Z</time></trkpt><trkpt lat="46.36103486371268" lon="13.045486426322192"><ele>303.0</ele><time>2026-04-26T11:41:18Z</time></trkpt><trkpt lat="46.36092184886535" lon="13.0455403620009"><ele>303.0</ele><time>2026-04-26T11:41:19Z</time></trkpt><trkpt lat="46.36080426832388" lon="13.04562662847752"><ele>303.0</ele><time>2026-04-26T11:41:20Z</time></trkpt><trkpt lat="46.36075468461009" lon="13.045702342947306"><ele>303.0</ele><time>2026-04-26T11:41:21Z</time></trkpt><trkpt lat="46.36070800400035" lon="13.045825858912004"><ele>303.0</ele><time>2026-04-26T11:41:22Z</time></trkpt><trkpt lat="46.3606898149689" lon="13.04600523291577"><ele>303.0</ele><time>2026-04-26T11:41:23Z</time></trkpt><trkpt lat="46.36066317828739" lon="13.046222915679937"><ele>303.0</ele><time>2026-04-26T11:41:24Z</time></trkpt><trkpt lat="46.360623366025266" lon="13.046504096544844"><ele>303.0</ele><time>2026-04-26T11:41:25Z</time></trkpt><trkpt lat="46.360590079966684" lon="13.046811645485265"><ele>303.0</ele><time>2026-04-26T11:41:26Z</time></trkpt><trkpt lat="46.360528340177424" lon="13.047070675225239"><ele>295.6666666666667</ele><time>2026-04-26T11:41:27Z</time></trkpt><trkpt lat="46.3604633534556" lon="13.047316839075227"><ele>288.33333333333337</ele><time>2026-04-26T11:41:28Z</time></trkpt><trkpt lat="46.36038539183931" lon="13.047564825682858"><ele>281.0</ele><time>2026-04-26T11:41:29Z</time></trkpt><trkpt lat="46.36032623327554" lon="13.047832007394348"><ele>281.0</ele><time>2026-04-26T11:41:30Z</time></trkpt><trkpt lat="46.36026306013999" lon="13.0481059147152"><ele>281.0</ele><time>2026-04-26T11:41:31Z</time></trkpt><trkpt lat="46.36020455195424" lon="13.04836354273409"><ele>281.0</ele><time>2026-04-26T11:41:32Z</time></trkpt><trkpt lat="46.36018882611394" lon="13.048669271560964"><ele>283.0</ele><time>2026-04-26T11:41:33Z</time></trkpt><trkpt lat="46.36014447200549" lon="13.048964247790884"><ele>285.0</ele><time>2026-04-26T11:41:34Z</time></trkpt><trkpt lat="46.36009526192317" lon="13.049239842717617"><ele>287.0</ele><time>2026-04-26T11:41:35Z</time></trkpt><trkpt lat="46.36004766678168" lon="13.04951317728021"><ele>287.6666666666667</ele><time>2026-04-26T11:41:36Z</time></trkpt><trkpt lat="46.360001987949445" lon="13.049791832063901"><ele>288.3333333333333</ele><time>2026-04-26T11:41:37Z</time></trkpt><trkpt lat="46.35995664945076" lon="13.050069415040118"><ele>289.0</ele><time>2026-04-26T11:41:38Z</time></trkpt><trkpt lat="46.359916546208275" lon="13.050287743383407"><ele>291.3333333333333</ele><time>2026-04-26T11:41:39Z</time></trkpt><trkpt lat="46.35986904676402" lon="13.050550639605344"><ele>293.6666666666667</ele><time>2026-04-26T11:41:40Z</time></trkpt><trkpt lat="46.35982190661326" lon="13.050799405536191"><ele>296.0</ele><time>2026-04-26T11:41:41Z</time></trkpt><trkpt lat="46.35977120374523" lon="13.051015831183467"><ele>289.0</ele><time>2026-04-26T11:41:42Z</time></trkpt><trkpt lat="46.359698616353" lon="13.051212461422908"><ele>282.0</ele><time>2026-04-26T11:41:43Z</time></trkpt><trkpt lat="46.35961462552262" lon="13.051394422792349"><ele>275.0</ele><time>2026-04-26T11:41:44Z</time></trkpt><trkpt lat="46.3595260417384" lon="13.051568318263634"><ele>276.33333333333337</ele><time>2026-04-26T11:41:45Z</time></trkpt><trkpt lat="46.35944460122319" lon="13.051761796513782"><ele>277.6666666666667</ele><time>2026-04-26T11:41:46Z</time></trkpt><trkpt lat="46.35935332348969" lon="13.051935284099047"><ele>279.0</ele><time>2026-04-26T11:41:47Z</time></trkpt><trkpt lat="46.35925989555546" lon="13.052099510351942"><ele>279.0</ele><time>2026-04-26T11:41:48Z</time></trkpt><trkpt lat="46.35917230626175" lon="13.052261112231808"><ele>279.0</ele><time>2026-04-26T11:41:49Z</time></trkpt><trkpt lat="46.35907265326459" lon="13.05241763379606"><ele>279.0</ele><time>2026-04-26T11:41:50Z</time></trkpt><trkpt lat="46.35896152778032" lon="13.052563573796673"><ele>279.0</ele><time>2026-04-26T11:41:51Z</time></trkpt><trkpt lat="46.358854539730466" lon="13.052710953113957"><ele>278.6666666666667</ele><time>2026-04-26T11:41:52Z</time></trkpt><trkpt lat="46.35873722356401" lon="13.052859861891552"><ele>278.33333333333337</ele><time>2026-04-26T11:41:53Z</time></trkpt><trkpt lat="46.35861427639154" lon="13.05300950009605"><ele>278.0</ele><time>2026-04-26T11:41:54Z</time></trkpt><trkpt lat="46.358481114335454" lon="13.053155986462638"><ele>280.0</ele><time>2026-04-26T11:41:55Z</time></trkpt><trkpt lat="46.35834583270056" lon="13.053313781640423"><ele>282.0</ele><time>2026-04-26T11:41:56Z</time></trkpt><trkpt lat="46.358197306163206" lon="13.053475531244176"><ele>284.0</ele><time>2026-04-26T11:41:57Z</time></trkpt><trkpt lat="46.358035033882786" lon="13.053623535658723"><ele>287.6666666666667</ele><time>2026-04-26T11:41:58Z</time></trkpt><trkpt lat="46.35785563519474" lon="13.053761070588962"><ele>291.3333333333333</ele><time>2026-04-26T11:41:59Z</time></trkpt><trkpt lat="46.35767054554855" lon="13.053900848339564"><ele>295.0</ele><time>2026-04-26T11:42:00Z</time></trkpt><trkpt lat="46.35749636316488" lon="13.054070742047175"><ele>294.0</ele><time>2026-04-26T11:42:01Z</time></trkpt><trkpt lat="46.357362429023304" lon="13.054254396452437"><ele>293.0</ele><time>2026-04-26T11:42:02Z</time></trkpt><trkpt lat="46.35727702882532" lon="13.054449132263134"><ele>292.0</ele><time>2026-04-26T11:42:03Z</time></trkpt><trkpt lat="46.35725425433958" lon="13.054646984022718"><ele>292.0</ele><time>2026-04-26T11:42:04Z</time></trkpt><trkpt lat="46.35724819482235" lon="13.05492264776302"><ele>292.0</ele><time>2026-04-26T11:42:05Z</time></trkpt><trkpt lat="46.357259311967184" lon="13.055218763317024"><ele>292.0</ele><time>2026-04-26T11:42:06Z</time></trkpt><trkpt lat="46.35729560004026" lon="13.055539706094482"><ele>295.66666666666663</ele><time>2026-04-26T11:42:07Z</time></trkpt><trkpt lat="46.35730375785316" lon="13.055842087185848"><ele>299.3333333333333</ele><time>2026-04-26T11:42:08Z</time></trkpt><trkpt lat="46.357293440876006" lon="13.056113501501892"><ele>303.0</ele><time>2026-04-26T11:42:09Z</time></trkpt><trkpt lat="46.35725345164921" lon="13.05635211952521"><ele>314.0</ele><time>2026-04-26T11:42:10Z</time></trkpt><trkpt lat="46.35720100482928" lon="13.056631749762193"><ele>325.0</ele><time>2026-04-26T11:42:11Z</time></trkpt><trkpt lat="46.35713106368274" lon="13.0569009718475"><ele>336.0</ele><time>2026-04-26T11:42:12Z</time></trkpt><trkpt lat="46.35706985599224" lon="13.057146992283693"><ele>336.0</ele><time>2026-04-26T11:42:13Z</time></trkpt><trkpt lat="46.35700571352677" lon="13.057367661395178"><ele>336.0</ele><time>2026-04-26T11:42:14Z</time></trkpt><trkpt lat="46.35693664792493" lon="13.057599363204515"><ele>336.0</ele><time>2026-04-26T11:42:15Z</time></trkpt><trkpt lat="46.35689722015429" lon="13.057840761771576"><ele>335.3333333333333</ele><time>2026-04-26T11:42:16Z</time></trkpt><trkpt lat="46.35684697859841" lon="13.058091861546831"><ele>334.66666666666663</ele><time>2026-04-26T11:42:17Z</time></trkpt><trkpt lat="46.35680732856548" lon="13.058356098194126"><ele>334.0</ele><time>2026-04-26T11:42:18Z</time></trkpt><trkpt lat="46.356753344217076" lon="13.05861987887308"><ele>332.66666666666663</ele><time>2026-04-26T11:42:19Z</time></trkpt><trkpt lat="46.35671071894902" lon="13.058877333904174"><ele>331.3333333333333</ele><time>2026-04-26T11:42:20Z</time></trkpt><trkpt lat="46.35665004533197" lon="13.059138266358064"><ele>330.0</ele><time>2026-04-26T11:42:21Z</time></trkpt><trkpt lat="46.35657722545983" lon="13.059415385876358"><ele>326.6666666666667</ele><time>2026-04-26T11:42:22Z</time></trkpt><trkpt lat="46.35649147290054" lon="13.0596910518688"><ele>323.33333333333337</ele><time>2026-04-26T11:42:23Z</time></trkpt><trkpt lat="46.35641069324742" lon="13.059954490914844"><ele>320.0</ele><time>2026-04-26T11:42:24Z</time></trkpt><trkpt lat="46.35633529435761" lon="13.060223257247864"><ele>314.6666666666667</ele><time>2026-04-26T11:42:25Z</time></trkpt><trkpt lat="46.35627591141304" lon="13.060502563873232"><ele>309.3333333333333</ele><time>2026-04-26T11:42:26Z</time></trkpt><trkpt lat="46.356201348868495" lon="13.060779606579008"><ele>304.0</ele><time>2026-04-26T11:42:27Z</time></trkpt><trkpt lat="46.3561387626786" lon="13.061110624649967"><ele>299.0</ele><time>2026-04-26T11:42:28Z</time></trkpt><trkpt lat="46.356081080573695" lon="13.06141570494972"><ele>294.0</ele><time>2026-04-26T11:42:29Z</time></trkpt><trkpt lat="46.35603703882406" lon="13.061704164318227"><ele>289.0</ele><time>2026-04-26T11:42:30Z</time></trkpt><trkpt lat="46.35598815144897" lon="13.061975513284876"><ele>288.3333333333333</ele><time>2026-04-26T11:42:31Z</time></trkpt><trkpt lat="46.355936687200305" lon="13.0622243992837"><ele>287.6666666666667</ele><time>2026-04-26T11:42:32Z</time></trkpt><trkpt lat="46.355897806222686" lon="13.06247629443982"><ele>287.0</ele><time>2026-04-26T11:42:33Z</time></trkpt><trkpt lat="46.35587130323603" lon="13.062710523507134"><ele>287.0</ele><time>2026-04-26T11:42:34Z</time></trkpt><trkpt lat="46.35585246254499" lon="13.062937298855944"><ele>287.0</ele><time>2026-04-26T11:42:35Z</time></trkpt><trkpt lat="46.35584320965384" lon="13.063147386102917"><ele>287.0</ele><time>2026-04-26T11:42:36Z</time></trkpt><trkpt lat="46.355821069453455" lon="13.063336499779755"><ele>287.0</ele><time>2026-04-26T11:42:37Z</time></trkpt><trkpt lat="46.355775605440314" lon="13.063478449631608"><ele>287.0</ele><time>2026-04-26T11:42:38Z</time></trkpt><trkpt lat="46.355692762213074" lon="13.06359275175374"><ele>287.0</ele><time>2026-04-26T11:42:39Z</time></trkpt><trkpt lat="46.35556977675839" lon="13.063626998717023"><ele>287.0</ele><time>2026-04-26T11:42:40Z</time></trkpt><trkpt lat="46.355444539933245" lon="13.063564397957098"><ele>287.0</ele><time>2026-04-26T11:42:41Z</time></trkpt><trkpt lat="46.3553474293194" lon="13.06341688082708"><ele>283.0</ele><time>2026-04-26T11:42:42Z</time></trkpt><trkpt lat="46.355271553313386" lon="13.063210686457598"><ele>279.0</ele><time>2026-04-26T11:42:43Z</time></trkpt><trkpt lat="46.35518682429289" lon="13.063046451920078"><ele>275.0</ele><time>2026-04-26T11:42:44Z</time></trkpt><trkpt lat="46.3550759124783" lon="13.062909747224124"><ele>271.0</ele><time>2026-04-26T11:42:45Z</time></trkpt><trkpt lat="46.35493344633166" lon="13.06285076628137"><ele>271.0</ele><time>2026-04-26T11:42:46Z</time></trkpt><trkpt lat="46.354770231842245" lon="13.062855714796187"><ele>271.0</ele><time>2026-04-26T11:42:47Z</time></trkpt><trkpt lat="46.35456749568339" lon="13.06286797090381"><ele>271.0</ele><time>2026-04-26T11:42:48Z</time></trkpt><trkpt lat="46.35439679172606" lon="13.062867866952752"><ele>270.66666666666663</ele><time>2026-04-26T11:42:49Z</time></trkpt><trkpt lat="46.35422497642752" lon="13.062870550288885"><ele>270.3333333333333</ele><time>2026-04-26T11:42:50Z</time></trkpt><trkpt lat="46.354043863766215" lon="13.062898285170379"><ele>270.0</ele><time>2026-04-26T11:42:51Z</time></trkpt><trkpt lat="46.353853201212786" lon="13.062968409466883"><ele>270.0</ele><time>2026-04-26T11:42:52Z</time></trkpt><trkpt lat="46.35368184575854" lon="13.063059925046346"><ele>270.0</ele><time>2026-04-26T11:42:53Z</time></trkpt><trkpt lat="46.35351954079732" lon="13.063176108994293"><ele>270.0</ele><time>2026-04-26T11:42:54Z</time></trkpt><trkpt lat="46.35336852201545" lon="13.063320782458812"><ele>270.0</ele><time>2026-04-26T11:42:55Z</time></trkpt><trkpt lat="46.35322555417561" lon="13.06350155286983"><ele>270.0</ele><time>2026-04-26T11:42:56Z</time></trkpt><trkpt lat="46.35308405441068" lon="13.06367481461348"><ele>270.0</ele><time>2026-04-26T11:42:57Z</time></trkpt><trkpt lat="46.352949251860764" lon="13.06383921329838"><ele>270.0</ele><time>2026-04-26T11:42:58Z</time></trkpt><trkpt lat="46.352818517693066" lon="13.064012840672037"><ele>270.0</ele><time>2026-04-26T11:42:59Z</time></trkpt><trkpt lat="46.35270069253126" lon="13.064204570328222"><ele>270.0</ele><time>2026-04-26T11:43:00Z</time></trkpt><trkpt lat="46.35259150685161" lon="13.064414942381672"><ele>269.6666666666667</ele><time>2026-04-26T11:43:01Z</time></trkpt><trkpt lat="46.3524873873571" lon="13.064632330868934"><ele>269.33333333333337</ele><time>2026-04-26T11:43:02Z</time></trkpt><trkpt lat="46.35236765620491" lon="13.064836795129683"><ele>269.0</ele><time>2026-04-26T11:43:03Z</time></trkpt><trkpt lat="46.35225911100041" lon="13.065048353167635"><ele>267.0</ele><time>2026-04-26T11:43:04Z</time></trkpt><trkpt lat="46.35215448878839" lon="13.065260900874282"><ele>265.0</ele><time>2026-04-26T11:43:05Z</time></trkpt><trkpt lat="46.35202737988835" lon="13.06542336151188"><ele>263.0</ele><time>2026-04-26T11:43:06Z</time></trkpt><trkpt lat="46.351886748316055" lon="13.065532090719316"><ele>263.0</ele><time>2026-04-26T11:43:07Z</time></trkpt><trkpt lat="46.35171824917192" lon="13.065622135734476"><ele>263.0</ele><time>2026-04-26T11:43:08Z</time></trkpt><trkpt lat="46.35154490382881" lon="13.065718993719667"><ele>263.0</ele><time>2026-04-26T11:43:09Z</time></trkpt><trkpt lat="46.351373441144545" lon="13.065851662129548"><ele>264.0</ele><time>2026-04-26T11:43:10Z</time></trkpt><trkpt lat="46.351211144999866" lon="13.066003304854876"><ele>265.0</ele><time>2026-04-26T11:43:11Z</time></trkpt><trkpt lat="46.351055745628194" lon="13.066188561173416"><ele>266.0</ele><time>2026-04-26T11:43:12Z</time></trkpt><trkpt lat="46.35091053148096" lon="13.066366080786691"><ele>266.0</ele><time>2026-04-26T11:43:13Z</time></trkpt><trkpt lat="46.35076321607324" lon="13.066549819122748"><ele>266.0</ele><time>2026-04-26T11:43:14Z</time></trkpt><trkpt lat="46.350641427493976" lon="13.066725485977688"><ele>266.0</ele><time>2026-04-26T11:43:15Z</time></trkpt><trkpt lat="46.35052880950412" lon="13.06693669463902"><ele>260.0</ele><time>2026-04-26T11:43:16Z</time></trkpt><trkpt lat="46.350442248079474" lon="13.0671592545305"><ele>254.0</ele><time>2026-04-26T11:43:17Z</time></trkpt><trkpt lat="46.35033471056962" lon="13.067349065699295"><ele>248.0</ele><time>2026-04-26T11:43:18Z</time></trkpt><trkpt lat="46.350175757137386" lon="13.0674476690566"><ele>246.0</ele><time>2026-04-26T11:43:19Z</time></trkpt><trkpt lat="46.35000847584466" lon="13.067519656843968"><ele>244.0</ele><time>2026-04-26T11:43:20Z</time></trkpt><trkpt lat="46.34982575848539" lon="13.067582404032507"><ele>242.0</ele><time>2026-04-26T11:43:21Z</time></trkpt><trkpt lat="46.34965020654268" lon="13.067645794205173"><ele>238.0</ele><time>2026-04-26T11:43:22Z</time></trkpt><trkpt lat="46.34948932024307" lon="13.067698398437106"><ele>234.0</ele><time>2026-04-26T11:43:23Z</time></trkpt><trkpt lat="46.34934606776738" lon="13.067742102596242"><ele>230.0</ele><time>2026-04-26T11:43:24Z</time></trkpt><trkpt lat="46.349212513484005" lon="13.06778134109206"><ele>226.0</ele><time>2026-04-26T11:43:25Z</time></trkpt><trkpt lat="46.349099130099454" lon="13.067811332263746"><ele>225.99999999999997</ele><time>2026-04-26T11:43:26Z</time></trkpt><trkpt lat="46.349012153702205" lon="13.067822590152378"><ele>226.0</ele><time>2026-04-26T11:43:27Z</time></trkpt><trkpt lat="46.348949063997935" lon="13.067791743443271"><ele>226.0</ele><time>2026-04-26T11:43:28Z</time></trkpt><trkpt lat="46.34890604865959" lon="13.067721742563887"><ele>226.0</ele><time>2026-04-26T11:43:29Z</time></trkpt><trkpt lat="46.34890612908791" lon="13.067588661893208"><ele>225.99999999999997</ele><time>2026-04-26T11:43:30Z</time></trkpt><trkpt lat="46.348978968319265" lon="13.067491895156207"><ele>226.0</ele><time>2026-04-26T11:43:31Z</time></trkpt><trkpt lat="46.349062569404325" lon="13.06738841916625"><ele>227.0</ele><time>2026-04-26T11:43:32Z</time></trkpt><trkpt lat="46.3491132668331" lon="13.067287106242132"><ele>228.00000000000003</ele><time>2026-04-26T11:43:33Z</time></trkpt><trkpt lat="46.34912315604394" lon="13.06716041375148"><ele>229.00000000000003</ele><time>2026-04-26T11:43:34Z</time></trkpt><trkpt lat="46.349112859617165" lon="13.067033137802898"><ele>230.0</ele><time>2026-04-26T11:43:35Z</time></trkpt><trkpt lat="46.34905515139717" lon="13.066882761194607"><ele>231.0</ele><time>2026-04-26T11:43:36Z</time></trkpt><trkpt lat="46.34898845991617" lon="13.066744417088081"><ele>231.0</ele><time>2026-04-26T11:43:37Z</time></trkpt><trkpt lat="46.348928322272954" lon="13.066619668729658"><ele>231.0</ele><time>2026-04-26T11:43:38Z</time></trkpt><trkpt lat="46.348861488449856" lon="13.066482596561869"><ele>231.0</ele><time>2026-04-26T11:43:39Z</time></trkpt><trkpt lat="46.34877276206346" lon="13.066312748520007"><ele>231.0</ele><time>2026-04-26T11:43:40Z</time></trkpt><trkpt lat="46.348623918184906" lon="13.066140601107275"><ele>229.66666666666669</ele><time>2026-04-26T11:43:41Z</time></trkpt><trkpt lat="46.3484254239504" lon="13.066039851137862"><ele>228.33333333333334</ele><time>2026-04-26T11:43:42Z</time></trkpt><trkpt lat="46.34826933546393" lon="13.06603391941623"><ele>227.0</ele><time>2026-04-26T11:43:43Z</time></trkpt><trkpt lat="46.348133430873254" lon="13.06607871062872"><ele>227.0</ele><time>2026-04-26T11:43:44Z</time></trkpt><trkpt lat="46.34804641374769" lon="13.0661368593604"><ele>227.0</ele><time>2026-04-26T11:43:45Z</time></trkpt><trkpt lat="46.34797269469462" lon="13.066214920296144"><ele>227.0</ele><time>2026-04-26T11:43:46Z</time></trkpt><trkpt lat="46.3478979353427" lon="13.066314183178168"><ele>227.0</ele><time>2026-04-26T11:43:48Z</time></trkpt><trkpt lat="46.3478183061253" lon="13.06640801332974"><ele>227.0</ele><time>2026-04-26T11:43:49Z</time></trkpt><trkpt lat="46.34773565517758" lon="13.06650458048959"><ele>223.8</ele><time>2026-04-26T11:43:50Z</time></trkpt><trkpt lat="46.3476533404071" lon="13.066591858893075"><ele>220.6</ele><time>2026-04-26T11:43:51Z</time></trkpt><trkpt lat="46.347567725317674" lon="13.066679448166504"><ele>217.4</ele><time>2026-04-26T11:43:52Z</time></trkpt><trkpt lat="46.34747575402765" lon="13.066769779824705"><ele>214.20000000000002</ele><time>2026-04-26T11:43:53Z</time></trkpt><trkpt lat="46.34738121854851" lon="13.066861917712675"><ele>211.0</ele><time>2026-04-26T11:43:54Z</time></trkpt><trkpt lat="46.34729325414608" lon="13.066946621808535"><ele>209.33333333333331</ele><time>2026-04-26T11:43:55Z</time></trkpt><trkpt lat="46.34720991602389" lon="13.067023264038625"><ele>207.66666666666666</ele><time>2026-04-26T11:43:56Z</time></trkpt><trkpt lat="46.347130896031146" lon="13.067095251015228"><ele>206.0</ele><time>2026-04-26T11:43:57Z</time></trkpt><trkpt lat="46.347068744143726" lon="13.067153328179874"><ele>204.33333333333331</ele><time>2026-04-26T11:43:58Z</time></trkpt><trkpt lat="46.347017923335464" lon="13.067235281452238"><ele>202.66666666666666</ele><time>2026-04-26T11:43:59Z</time></trkpt><trkpt lat="46.346941507658975" lon="13.067306701563545"><ele>201.0</ele><time>2026-04-26T11:44:00Z</time></trkpt><trkpt lat="46.346851735834065" lon="13.06740029051168"><ele>201.0</ele><time>2026-04-26T11:44:01Z</time></trkpt><trkpt lat="46.346785474902106" lon="13.067470106886766"><ele>201.0</ele><time>2026-04-26T11:44:02Z</time></trkpt><trkpt lat="46.34667203746247" lon="13.067500863149581"><ele>201.0</ele><time>2026-04-26T11:44:04Z</time></trkpt><trkpt lat="46.346609594913666" lon="13.067462139948839"><ele>201.0</ele><time>2026-04-26T11:44:05Z</time></trkpt><trkpt lat="46.34654004298588" lon="13.067355109106249"><ele>201.0</ele><time>2026-04-26T11:44:06Z</time></trkpt><trkpt lat="46.34643695172742" lon="13.067277736540522"><ele>200.25</ele><time>2026-04-26T11:44:07Z</time></trkpt><trkpt lat="46.346337216478915" lon="13.06718490948437"><ele>199.5</ele><time>2026-04-26T11:44:08Z</time></trkpt><trkpt lat="46.3462569421945" lon="13.067079622752365"><ele>198.75</ele><time>2026-04-26T11:44:09Z</time></trkpt><trkpt lat="46.3461681918571" lon="13.066934001862972"><ele>198.0</ele><time>2026-04-26T11:44:10Z</time></trkpt><trkpt lat="46.34608435823332" lon="13.06677485130372"><ele>198.0</ele><time>2026-04-26T11:44:11Z</time></trkpt><trkpt lat="46.346002177824325" lon="13.066625993882388"><ele>198.0</ele><time>2026-04-26T11:44:12Z</time></trkpt><trkpt lat="46.345918006786306" lon="13.066491284145807"><ele>198.0</ele><time>2026-04-26T11:44:13Z</time></trkpt><trkpt lat="46.34582184732523" lon="13.066355590400716"><ele>198.0</ele><time>2026-04-26T11:44:14Z</time></trkpt><trkpt lat="46.345713784569" lon="13.06623801139371"><ele>198.0</ele><time>2026-04-26T11:44:15Z</time></trkpt><trkpt lat="46.34560756379063" lon="13.06616019923295"><ele>198.0</ele><time>2026-04-26T11:44:16Z</time></trkpt><trkpt lat="46.345493405824" lon="13.06612334638114"><ele>198.0</ele><time>2026-04-26T11:44:17Z</time></trkpt><trkpt lat="46.34537635751118" lon="13.066091755102828"><ele>198.0</ele><time>2026-04-26T11:44:18Z</time></trkpt><trkpt lat="46.345247620627376" lon="13.066088355245949"><ele>198.5</ele><time>2026-04-26T11:44:19Z</time></trkpt><trkpt lat="46.345117320829786" lon="13.066078815436324"><ele>199.0</ele><time>2026-04-26T11:44:20Z</time></trkpt><trkpt lat="46.344985707308254" lon="13.066101475824885"><ele>199.5</ele><time>2026-04-26T11:44:21Z</time></trkpt><trkpt lat="46.34486194387962" lon="13.066126673119546"><ele>200.0</ele><time>2026-04-26T11:44:22Z</time></trkpt><trkpt lat="46.34473159520442" lon="13.066168969217049"><ele>200.0</ele><time>2026-04-26T11:44:23Z</time></trkpt><trkpt lat="46.34460817808724" lon="13.066241008085774"><ele>200.0</ele><time>2026-04-26T11:44:24Z</time></trkpt><trkpt lat="46.34449792520788" lon="13.066346606922508"><ele>200.0</ele><time>2026-04-26T11:44:25Z</time></trkpt><trkpt lat="46.34438137475882" lon="13.066443485615675"><ele>200.0</ele><time>2026-04-26T11:44:26Z</time></trkpt><trkpt lat="46.34426802892879" lon="13.06652408183178"><ele>200.0</ele><time>2026-04-26T11:44:27Z</time></trkpt><trkpt lat="46.34414756113062" lon="13.066626945385693"><ele>200.0</ele><time>2026-04-26T11:44:28Z</time></trkpt><trkpt lat="46.34404307456791" lon="13.066710272529285"><ele>200.0</ele><time>2026-04-26T11:44:29Z</time></trkpt><trkpt lat="46.34391618072293" lon="13.066828735322002"><ele>200.0</ele><time>2026-04-26T11:44:30Z</time></trkpt><trkpt lat="46.34376624075348" lon="13.066961704171227"><ele>200.0</ele><time>2026-04-26T11:44:31Z</time></trkpt><trkpt lat="46.34361463494741" lon="13.067094055097499"><ele>200.0</ele><time>2026-04-26T11:44:32Z</time></trkpt><trkpt lat="46.343479889091995" lon="13.067208185484988"><ele>200.0</ele><time>2026-04-26T11:44:33Z</time></trkpt><trkpt lat="46.34334595720506" lon="13.067324621457072"><ele>200.0</ele><time>2026-04-26T11:44:34Z</time></trkpt><trkpt lat="46.343214127248444" lon="13.067440594095222"><ele>200.0</ele><time>2026-04-26T11:44:35Z</time></trkpt><trkpt lat="46.34307845720689" lon="13.067555852748756"><ele>200.0</ele><time>2026-04-26T11:44:36Z</time></trkpt><trkpt lat="46.342943832295674" lon="13.067671094046975"><ele>200.33333333333334</ele><time>2026-04-26T11:44:37Z</time></trkpt><trkpt lat="46.342810170811966" lon="13.067785959280338"><ele>200.66666666666669</ele><time>2026-04-26T11:44:38Z</time></trkpt><trkpt lat="46.34267685930229" lon="13.067902197393254"><ele>201.0</ele><time>2026-04-26T11:44:39Z</time></trkpt><trkpt lat="46.342543344503675" lon="13.06801594489291"><ele>201.0</ele><time>2026-04-26T11:44:40Z</time></trkpt><trkpt lat="46.34240000250457" lon="13.068115339643763"><ele>201.0</ele><time>2026-04-26T11:44:41Z</time></trkpt><trkpt lat="46.34223573257933" lon="13.068201765953397"><ele>201.0</ele><time>2026-04-26T11:44:42Z</time></trkpt><trkpt lat="46.342059272781185" lon="13.068281024297274"><ele>200.33333333333331</ele><time>2026-04-26T11:44:43Z</time></trkpt><trkpt lat="46.34187117614474" lon="13.068367019029793"><ele>199.66666666666666</ele><time>2026-04-26T11:44:44Z</time></trkpt><trkpt lat="46.34166767204216" lon="13.06844752551415"><ele>199.0</ele><time>2026-04-26T11:44:45Z</time></trkpt><trkpt lat="46.34149252246504" lon="13.068571786429455"><ele>211.33333333333331</ele><time>2026-04-26T11:44:46Z</time></trkpt><trkpt lat="46.34133022691487" lon="13.068677024397884"><ele>223.66666666666669</ele><time>2026-04-26T11:44:47Z</time></trkpt><trkpt lat="46.341182580309" lon="13.068825258823006"><ele>236.0</ele><time>2026-04-26T11:44:48Z</time></trkpt><trkpt lat="46.34103535615335" lon="13.068997261462156"><ele>226.0</ele><time>2026-04-26T11:44:49Z</time></trkpt><trkpt lat="46.34089492157487" lon="13.069145488287525"><ele>216.0</ele><time>2026-04-26T11:44:50Z</time></trkpt><trkpt lat="46.34075954158509" lon="13.069277360377278"><ele>206.0</ele><time>2026-04-26T11:44:51Z</time></trkpt><trkpt lat="46.340620072327795" lon="13.069401762347747"><ele>216.0</ele><time>2026-04-26T11:44:52Z</time></trkpt><trkpt lat="46.34046710500971" lon="13.069496572142505"><ele>226.0</ele><time>2026-04-26T11:44:53Z</time></trkpt><trkpt lat="46.340287657604385" lon="13.069578206449707"><ele>236.0</ele><time>2026-04-26T11:44:54Z</time></trkpt><trkpt lat="46.34011357447658" lon="13.06962267462297"><ele>236.0</ele><time>2026-04-26T11:44:55Z</time></trkpt><trkpt lat="46.33993351108576" lon="13.069648497928771"><ele>236.0</ele><time>2026-04-26T11:44:56Z</time></trkpt><trkpt lat="46.33975206342419" lon="13.06967836668833"><ele>236.0</ele><time>2026-04-26T11:44:57Z</time></trkpt><trkpt lat="46.339575520876714" lon="13.069763142702584"><ele>231.33333333333334</ele><time>2026-04-26T11:44:58Z</time></trkpt><trkpt lat="46.339422760432655" lon="13.069871914803757"><ele>226.66666666666669</ele><time>2026-04-26T11:44:59Z</time></trkpt><trkpt lat="46.33926472822788" lon="13.06996329815882"><ele>222.0</ele><time>2026-04-26T11:45:00Z</time></trkpt><trkpt lat="46.33908541239072" lon="13.069994236793308"><ele>222.0</ele><time>2026-04-26T11:45:01Z</time></trkpt><trkpt lat="46.33890674168864" lon="13.07004055599123"><ele>222.0</ele><time>2026-04-26T11:45:02Z</time></trkpt><trkpt lat="46.33872206704554" lon="13.070101124399521"><ele>222.0</ele><time>2026-04-26T11:45:03Z</time></trkpt><trkpt lat="46.33855639127507" lon="13.07014287609973"><ele>224.0</ele><time>2026-04-26T11:45:04Z</time></trkpt><trkpt lat="46.338420742065104" lon="13.070166359208482"><ele>226.0</ele><time>2026-04-26T11:45:05Z</time></trkpt><trkpt lat="46.3382944267148" lon="13.070202690632792"><ele>228.0</ele><time>2026-04-26T11:45:06Z</time></trkpt><trkpt lat="46.33818079804411" lon="13.070267160194541"><ele>230.0</ele><time>2026-04-26T11:45:07Z</time></trkpt><trkpt lat="46.33806907704645" lon="13.070388268123953"><ele>230.5</ele><time>2026-04-26T11:45:08Z</time></trkpt><trkpt lat="46.33796794403111" lon="13.070538376401027"><ele>231.0</ele><time>2026-04-26T11:45:09Z</time></trkpt><trkpt lat="46.33791250061886" lon="13.070667548743923"><ele>231.5</ele><time>2026-04-26T11:45:10Z</time></trkpt><trkpt lat="46.337877582028426" lon="13.07085511270146"><ele>232.0</ele><time>2026-04-26T11:45:11Z</time></trkpt><trkpt lat="46.33781310455797" lon="13.071033051980397"><ele>232.0</ele><time>2026-04-26T11:45:12Z</time></trkpt><trkpt lat="46.337762285581526" lon="13.071184869541707"><ele>232.0</ele><time>2026-04-26T11:45:13Z</time></trkpt><trkpt lat="46.337696122426124" lon="13.071277514915286"><ele>232.0</ele><time>2026-04-26T11:45:14Z</time></trkpt><trkpt lat="46.33762908096225" lon="13.071369863118813"><ele>232.0</ele><time>2026-04-26T11:45:15Z</time></trkpt><trkpt lat="46.3375294815258" lon="13.071492886086995"><ele>232.0</ele><time>2026-04-26T11:45:16Z</time></trkpt><trkpt lat="46.33740974579601" lon="13.071650417495658"><ele>227.75</ele><time>2026-04-26T11:45:17Z</time></trkpt><trkpt lat="46.33731814225375" lon="13.071774648690255"><ele>223.5</ele><time>2026-04-26T11:45:18Z</time></trkpt><trkpt lat="46.3372258989056" lon="13.071925048611257"><ele>219.25</ele><time>2026-04-26T11:45:19Z</time></trkpt><trkpt lat="46.33712491302922" lon="13.07209960827447"><ele>215.0</ele><time>2026-04-26T11:45:20Z</time></trkpt><trkpt lat="46.33706350349696" lon="13.072275016462187"><ele>219.5</ele><time>2026-04-26T11:45:21Z</time></trkpt><trkpt lat="46.33698726550814" lon="13.072459671823966"><ele>224.0</ele><time>2026-04-26T11:45:22Z</time></trkpt><trkpt lat="46.33691339627746" lon="13.072643568061926"><ele>228.5</ele><time>2026-04-26T11:45:23Z</time></trkpt><trkpt lat="46.3368620023959" lon="13.072789092311092"><ele>233.0</ele><time>2026-04-26T11:45:24Z</time></trkpt><trkpt lat="46.33683192114539" lon="13.07296852307301"><ele>233.0</ele><time>2026-04-26T11:45:25Z</time></trkpt><trkpt lat="46.33675970086549" lon="13.073148164277965"><ele>233.0</ele><time>2026-04-26T11:45:26Z</time></trkpt><trkpt lat="46.33666139138074" lon="13.07327624206068"><ele>233.0</ele><time>2026-04-26T11:45:27Z</time></trkpt><trkpt lat="46.33656170980373" lon="13.07340693415808"><ele>233.0</ele><time>2026-04-26T11:45:28Z</time></trkpt><trkpt lat="46.33648736854622" lon="13.073559506211112"><ele>235.5</ele><time>2026-04-26T11:45:29Z</time></trkpt><trkpt lat="46.33642571252121" lon="13.07370047510758"><ele>238.0</ele><time>2026-04-26T11:45:30Z</time></trkpt><trkpt lat="46.33632925074258" lon="13.073801265813106"><ele>240.5</ele><time>2026-04-26T11:45:31Z</time></trkpt><trkpt lat="46.336216206221124" lon="13.073899882839354"><ele>243.0</ele><time>2026-04-26T11:45:32Z</time></trkpt><trkpt lat="46.33611181282112" lon="13.074008123145775"><ele>236.0</ele><time>2026-04-26T11:45:33Z</time></trkpt><trkpt lat="46.33600665374215" lon="13.074114491736712"><ele>229.0</ele><time>2026-04-26T11:45:34Z</time></trkpt><trkpt lat="46.33590003864807" lon="13.074225015827302"><ele>222.0</ele><time>2026-04-26T11:45:35Z</time></trkpt><trkpt lat="46.33577798503414" lon="13.074317268079028"><ele>215.0</ele><time>2026-04-26T11:45:36Z</time></trkpt><trkpt lat="46.33565060657911" lon="13.074399583969214"><ele>217.75</ele><time>2026-04-26T11:45:37Z</time></trkpt><trkpt lat="46.33552490710345" lon="13.074459677056433"><ele>220.5</ele><time>2026-04-26T11:45:38Z</time></trkpt><trkpt lat="46.33539830089455" lon="13.074510648403361"><ele>223.25</ele><time>2026-04-26T11:45:39Z</time></trkpt><trkpt lat="46.335275688749526" lon="13.074566975788372"><ele>226.0</ele><time>2026-04-26T11:45:40Z</time></trkpt><trkpt lat="46.33515428509654" lon="13.074606267554483"><ele>226.0</ele><time>2026-04-26T11:45:41Z</time></trkpt><trkpt lat="46.335027064594826" lon="13.074643976019571"><ele>226.0</ele><time>2026-04-26T11:45:42Z</time></trkpt><trkpt lat="46.334902361248126" lon="13.07468043960107"><ele>226.0</ele><time>2026-04-26T11:45:43Z</time></trkpt><trkpt lat="46.33478458176632" lon="13.074690161268368"><ele>226.0</ele><time>2026-04-26T11:45:44Z</time></trkpt><trkpt lat="46.33466681691167" lon="13.07466364159943"><ele>228.0</ele><time>2026-04-26T11:45:45Z</time></trkpt><trkpt lat="46.334542327433134" lon="13.074608701886698"><ele>230.0</ele><time>2026-04-26T11:45:46Z</time></trkpt><trkpt lat="46.334396941821815" lon="13.074604569584402"><ele>232.0</ele><time>2026-04-26T11:45:47Z</time></trkpt><trkpt lat="46.33425501170675" lon="13.074592102696979"><ele>234.0</ele><time>2026-04-26T11:45:48Z</time></trkpt><trkpt lat="46.33411552528403" lon="13.074592343251354"><ele>234.0</ele><time>2026-04-26T11:45:49Z</time></trkpt><trkpt lat="46.33397227991557" lon="13.074604685697658"><ele>234.0</ele><time>2026-04-26T11:45:50Z</time></trkpt><trkpt lat="46.33383346880037" lon="13.074613714535285"><ele>234.0</ele><time>2026-04-26T11:45:51Z</time></trkpt><trkpt lat="46.33369139997258" lon="13.07460991339037"><ele>234.0</ele><time>2026-04-26T11:45:52Z</time></trkpt><trkpt lat="46.33355240055302" lon="13.074609501659262"><ele>236.5</ele><time>2026-04-26T11:45:53Z</time></trkpt><trkpt lat="46.33340956912251" lon="13.074612831577028"><ele>239.0</ele><time>2026-04-26T11:45:54Z</time></trkpt><trkpt lat="46.33327063212291" lon="13.074610507065646"><ele>241.5</ele><time>2026-04-26T11:45:55Z</time></trkpt><trkpt lat="46.33312596548061" lon="13.074626405374117"><ele>244.0</ele><time>2026-04-26T11:45:56Z</time></trkpt><trkpt lat="46.33298533777897" lon="13.074664693348215"><ele>244.0</ele><time>2026-04-26T11:45:57Z</time></trkpt><trkpt lat="46.33285737280132" lon="13.07470571596164"><ele>244.0</ele><time>2026-04-26T11:45:58Z</time></trkpt><trkpt lat="46.3327258646664" lon="13.074757037889375"><ele>244.0</ele><time>2026-04-26T11:45:59Z</time></trkpt><trkpt lat="46.33259537845467" lon="13.074802405408697"><ele>244.0</ele><time>2026-04-26T11:46:00Z</time></trkpt><trkpt lat="46.33245964664804" lon="13.074813751431005"><ele>244.0</ele><time>2026-04-26T11:46:01Z</time></trkpt><trkpt lat="46.332328113958894" lon="13.074862076206378"><ele>244.0</ele><time>2026-04-26T11:46:02Z</time></trkpt><trkpt lat="46.332189183426614" lon="13.074841154763105"><ele>244.0</ele><time>2026-04-26T11:46:03Z</time></trkpt><trkpt lat="46.33205101153967" lon="13.074822176042112"><ele>244.0</ele><time>2026-04-26T11:46:04Z</time></trkpt><trkpt lat="46.331904834538825" lon="13.07479408224608"><ele>237.5</ele><time>2026-04-26T11:46:05Z</time></trkpt><trkpt lat="46.33177669434217" lon="13.07476945486853"><ele>231.0</ele><time>2026-04-26T11:46:06Z</time></trkpt><trkpt lat="46.33166290456181" lon="13.074747906090979"><ele>224.5</ele><time>2026-04-26T11:46:07Z</time></trkpt><trkpt lat="46.331562516131065" lon="13.074712506461653"><ele>218.0</ele><time>2026-04-26T11:46:08Z</time></trkpt><trkpt lat="46.33146389932211" lon="13.07465240775512"><ele>213.4</ele><time>2026-04-26T11:46:09Z</time></trkpt><trkpt lat="46.33138594341143" lon="13.074555701629354"><ele>208.8</ele><time>2026-04-26T11:46:10Z</time></trkpt><trkpt lat="46.33133505001603" lon="13.074442029141846"><ele>204.2</ele><time>2026-04-26T11:46:11Z</time></trkpt><trkpt lat="46.33131340140216" lon="13.074284645699246"><ele>199.6</ele><time>2026-04-26T11:46:12Z</time></trkpt><trkpt lat="46.331298529652464" lon="13.074102557783794"><ele>195.0</ele><time>2026-04-26T11:46:13Z</time></trkpt><trkpt lat="46.33130033446919" lon="13.073935324298953"><ele>195.0</ele><time>2026-04-26T11:46:14Z</time></trkpt><trkpt lat="46.33132130655473" lon="13.073770563240451"><ele>195.0</ele><time>2026-04-26T11:46:15Z</time></trkpt><trkpt lat="46.33135316872042" lon="13.073610096998943"><ele>195.0</ele><time>2026-04-26T11:46:16Z</time></trkpt><trkpt lat="46.33137787462551" lon="13.073459030487442"><ele>195.0</ele><time>2026-04-26T11:46:17Z</time></trkpt><trkpt lat="46.331406980645376" lon="13.073318484543844"><ele>195.0</ele><time>2026-04-26T11:46:18Z</time></trkpt><trkpt lat="46.3314390849544" lon="13.073168296507799"><ele>200.6</ele><time>2026-04-26T11:46:19Z</time></trkpt><trkpt lat="46.331472391180014" lon="13.073028291943462"><ele>206.2</ele><time>2026-04-26T11:46:20Z</time></trkpt><trkpt lat="46.33150172536407" lon="13.072887636395016"><ele>211.8</ele><time>2026-04-26T11:46:21Z</time></trkpt><trkpt lat="46.33151574652544" lon="13.072743085946035"><ele>217.4</ele><time>2026-04-26T11:46:22Z</time></trkpt><trkpt lat="46.331515429125474" lon="13.072615585161417"><ele>223.0</ele><time>2026-04-26T11:46:23Z</time></trkpt><trkpt lat="46.331506281400515" lon="13.072504562342658"><ele>222.16666666666666</ele><time>2026-04-26T11:46:24Z</time></trkpt><trkpt lat="46.331474752993564" lon="13.072414108296655"><ele>221.33333333333331</ele><time>2026-04-26T11:46:25Z</time></trkpt><trkpt lat="46.33141695016556" lon="13.072333207779344"><ele>220.5</ele><time>2026-04-26T11:46:26Z</time></trkpt><trkpt lat="46.331330133132255" lon="13.072282025752768"><ele>219.66666666666669</ele><time>2026-04-26T11:46:27Z</time></trkpt><trkpt lat="46.331233422918224" lon="13.072230781978204"><ele>218.83333333333334</ele><time>2026-04-26T11:46:28Z</time></trkpt><trkpt lat="46.3311558117547" lon="13.072169543634832"><ele>218.0</ele><time>2026-04-26T11:46:29Z</time></trkpt><trkpt lat="46.33107036136866" lon="13.072098863387298"><ele>218.0</ele><time>2026-04-26T11:46:30Z</time></trkpt><trkpt lat="46.33097895579096" lon="13.072002378685342"><ele>218.0</ele><time>2026-04-26T11:46:31Z</time></trkpt><trkpt lat="46.33088776200298" lon="13.071893303324776"><ele>218.0</ele><time>2026-04-26T11:46:32Z</time></trkpt><trkpt lat="46.33079966305783" lon="13.071789442249864"><ele>218.0</ele><time>2026-04-26T11:46:33Z</time></trkpt><trkpt lat="46.330717145615345" lon="13.071695252145657"><ele>220.2</ele><time>2026-04-26T11:46:34Z</time></trkpt><trkpt lat="46.33063143567147" lon="13.071595219982672"><ele>222.4</ele><time>2026-04-26T11:46:35Z</time></trkpt><trkpt lat="46.33055728431469" lon="13.071506627005474"><ele>224.59999999999997</ele><time>2026-04-26T11:46:36Z</time></trkpt><trkpt lat="46.330484286347485" lon="13.071426491317297"><ele>226.79999999999998</ele><time>2026-04-26T11:46:37Z</time></trkpt><trkpt lat="46.33043196151651" lon="13.071321333950975"><ele>229.0</ele><time>2026-04-26T11:46:38Z</time></trkpt><trkpt lat="46.33037118422097" lon="13.071226656276481"><ele>223.6</ele><time>2026-04-26T11:46:39Z</time></trkpt><trkpt lat="46.3303518930729" lon="13.071085542049728"><ele>218.2</ele><time>2026-04-26T11:46:40Z</time></trkpt><trkpt lat="46.33037567542352" lon="13.070933309584866"><ele>212.79999999999998</ele><time>2026-04-26T11:46:41Z</time></trkpt><trkpt lat="46.33037540754098" lon="13.070775804707392"><ele>207.39999999999998</ele><time>2026-04-26T11:46:42Z</time></trkpt><trkpt lat="46.330365683906344" lon="13.070646914242937"><ele>202.0</ele><time>2026-04-26T11:46:43Z</time></trkpt><trkpt lat="46.330329173189604" lon="13.070532594088109"><ele>201.66666666666666</ele><time>2026-04-26T11:46:44Z</time></trkpt><trkpt lat="46.33030036013399" lon="13.07043545152486"><ele>201.33333333333331</ele><time>2026-04-26T11:46:45Z</time></trkpt><trkpt lat="46.33023630244858" lon="13.070353981363555"><ele>201.0</ele><time>2026-04-26T11:46:46Z</time></trkpt><trkpt lat="46.3301907179182" lon="13.070255147029146"><ele>200.66666666666669</ele><time>2026-04-26T11:46:47Z</time></trkpt><trkpt lat="46.3301679361012" lon="13.070129955102411"><ele>200.33333333333334</ele><time>2026-04-26T11:46:48Z</time></trkpt><trkpt lat="46.330172336202885" lon="13.070012939385169"><ele>200.0</ele><time>2026-04-26T11:46:49Z</time></trkpt><trkpt lat="46.330220710248376" lon="13.069911938001585"><ele>201.33333333333334</ele><time>2026-04-26T11:46:50Z</time></trkpt><trkpt lat="46.330294771912115" lon="13.069865695859919"><ele>202.66666666666669</ele><time>2026-04-26T11:46:51Z</time></trkpt><trkpt lat="46.33037196770519" lon="13.06986752091834"><ele>204.0</ele><time>2026-04-26T11:46:52Z</time></trkpt><trkpt lat="46.33044463124831" lon="13.06985595649444"><ele>205.33333333333331</ele><time>2026-04-26T11:46:53Z</time></trkpt><trkpt lat="46.33051088491649" lon="13.069823393412923"><ele>206.66666666666666</ele><time>2026-04-26T11:46:54Z</time></trkpt><trkpt lat="46.33056246879031" lon="13.069755616501814"><ele>208.0</ele><time>2026-04-26T11:46:55Z</time></trkpt><trkpt lat="46.33060188775642" lon="13.069655282671185"><ele>207.99999999999997</ele><time>2026-04-26T11:46:56Z</time></trkpt><trkpt lat="46.3306206503913" lon="13.069564839807038"><ele>208.0</ele><time>2026-04-26T11:46:57Z</time></trkpt><trkpt lat="46.330616429972494" lon="13.069452621365306"><ele>208.0</ele><time>2026-04-26T11:46:58Z</time></trkpt><trkpt lat="46.3305781198194" lon="13.06935179936434"><ele>208.0</ele><time>2026-04-26T11:46:59Z</time></trkpt><trkpt lat="46.33053630214089" lon="13.069204378614492"><ele>207.99999999999997</ele><time>2026-04-26T11:47:00Z</time></trkpt><trkpt lat="46.33045375119461" lon="13.069085264263295"><ele>208.0</ele><time>2026-04-26T11:47:01Z</time></trkpt><trkpt lat="46.33037249334738" lon="13.06897089695452"><ele>208.75</ele><time>2026-04-26T11:47:02Z</time></trkpt><trkpt lat="46.33030078092043" lon="13.068866514411715"><ele>209.5</ele><time>2026-04-26T11:47:03Z</time></trkpt><trkpt lat="46.33021897569948" lon="13.06874744098948"><ele>210.25</ele><time>2026-04-26T11:47:04Z</time></trkpt><trkpt lat="46.330136970811935" lon="13.068621351403767"><ele>211.0</ele><time>2026-04-26T11:47:05Z</time></trkpt><trkpt lat="46.330052533485016" lon="13.068506231858956"><ele>211.0</ele><time>2026-04-26T11:47:06Z</time></trkpt><trkpt lat="46.32999412835831" lon="13.068355735705406"><ele>211.0</ele><time>2026-04-26T11:47:07Z</time></trkpt><trkpt lat="46.32992488816519" lon="13.06821399250721"><ele>211.0</ele><time>2026-04-26T11:47:08Z</time></trkpt><trkpt lat="46.32984356577402" lon="13.068082456584138"><ele>211.0</ele><time>2026-04-26T11:47:09Z</time></trkpt><trkpt lat="46.329775704627586" lon="13.067939178317776"><ele>205.5</ele><time>2026-04-26T11:47:10Z</time></trkpt><trkpt lat="46.32970747581223" lon="13.067804532974518"><ele>200.0</ele><time>2026-04-26T11:47:11Z</time></trkpt><trkpt lat="46.329643784628395" lon="13.067666512068408"><ele>194.5</ele><time>2026-04-26T11:47:12Z</time></trkpt><trkpt lat="46.32957043415433" lon="13.067537878864826"><ele>189.0</ele><time>2026-04-26T11:47:13Z</time></trkpt><trkpt lat="46.32949243016554" lon="13.067417192694261"><ele>189.0</ele><time>2026-04-26T11:47:14Z</time></trkpt><trkpt lat="46.32941055425291" lon="13.067299489396405"><ele>189.0</ele><time>2026-04-26T11:47:15Z</time></trkpt><trkpt lat="46.32932639915984" lon="13.06718532368437"><ele>189.0</ele><time>2026-04-26T11:47:16Z</time></trkpt><trkpt lat="46.3292402042882" lon="13.067071949072258"><ele>189.0</ele><time>2026-04-26T11:47:17Z</time></trkpt><trkpt lat="46.3291599331569" lon="13.066955582861265"><ele>194.2</ele><time>2026-04-26T11:47:18Z</time></trkpt><trkpt lat="46.32908514765003" lon="13.066839512548052"><ele>199.39999999999998</ele><time>2026-04-26T11:47:19Z</time></trkpt><trkpt lat="46.32901363700158" lon="13.066722616845746"><ele>204.6</ele><time>2026-04-26T11:47:20Z</time></trkpt><trkpt lat="46.32892573279928" lon="13.066625739919816"><ele>209.8</ele><time>2026-04-26T11:47:21Z</time></trkpt><trkpt lat="46.3288270433243" lon="13.066554557863537"><ele>215.0</ele><time>2026-04-26T11:47:22Z</time></trkpt><trkpt lat="46.32872998518834" lon="13.066494454138331"><ele>215.0</ele><time>2026-04-26T11:47:23Z</time></trkpt><trkpt lat="46.32863716793237" lon="13.066417968740694"><ele>215.0</ele><time>2026-04-26T11:47:24Z</time></trkpt><trkpt lat="46.328549114229126" lon="13.066321584086152"><ele>215.0</ele><time>2026-04-26T11:47:25Z</time></trkpt><trkpt lat="46.32846766792831" lon="13.066211173032105"><ele>215.0</ele><time>2026-04-26T11:47:26Z</time></trkpt><trkpt lat="46.32838973714647" lon="13.066095486554916"><ele>215.0</ele><time>2026-04-26T11:47:27Z</time></trkpt><trkpt lat="46.32830598446418" lon="13.06599797043395"><ele>215.0</ele><time>2026-04-26T11:47:28Z</time></trkpt><trkpt lat="46.32820932175526" lon="13.065910672659246"><ele>215.0</ele><time>2026-04-26T11:47:29Z</time></trkpt><trkpt lat="46.32810301514229" lon="13.065829911114884"><ele>215.0</ele><time>2026-04-26T11:47:30Z</time></trkpt><trkpt lat="46.3279940506146" lon="13.065745625236307"><ele>215.0</ele><time>2026-04-26T11:47:31Z</time></trkpt><trkpt lat="46.32789217822262" lon="13.065645904381281"><ele>217.25</ele><time>2026-04-26T11:47:32Z</time></trkpt><trkpt lat="46.3277872977271" lon="13.065552194603875"><ele>219.5</ele><time>2026-04-26T11:47:33Z</time></trkpt><trkpt lat="46.327681206148185" lon="13.06546606294502"><ele>221.75</ele><time>2026-04-26T11:47:34Z</time></trkpt><trkpt lat="46.32757476919239" lon="13.065385769311005"><ele>224.0</ele><time>2026-04-26T11:47:35Z</time></trkpt><trkpt lat="46.327481481086494" lon="13.065312119706315"><ele>224.0</ele><time>2026-04-26T11:47:36Z</time></trkpt><trkpt lat="46.32739407316236" lon="13.065247248136233"><ele>223.99999999999997</ele><time>2026-04-26T11:47:37Z</time></trkpt><trkpt lat="46.32731224057686" lon="13.065185583579009"><ele>223.99999999999997</ele><time>2026-04-26T11:47:38Z</time></trkpt><trkpt lat="46.32724108523422" lon="13.065106070645083"><ele>224.0</ele><time>2026-04-26T11:47:39Z</time></trkpt><trkpt lat="46.32718371158241" lon="13.065013536078267"><ele>224.0</ele><time>2026-04-26T11:47:40Z</time></trkpt><trkpt lat="46.32713159745366" lon="13.064900519549733"><ele>223.39999999999998</ele><time>2026-04-26T11:47:41Z</time></trkpt><trkpt lat="46.327090520064466" lon="13.064768479645853"><ele>222.79999999999998</ele><time>2026-04-26T11:47:42Z</time></trkpt><trkpt lat="46.327049147058716" lon="13.06463132819357"><ele>222.20000000000002</ele><time>2026-04-26T11:47:43Z</time></trkpt><trkpt lat="46.32699394850609" lon="13.064490888349646"><ele>221.60000000000002</ele><time>2026-04-26T11:47:44Z</time></trkpt><trkpt lat="46.32692088945128" lon="13.06435463072857"><ele>221.0</ele><time>2026-04-26T11:47:45Z</time></trkpt><trkpt lat="46.32683800506083" lon="13.06423588216782"><ele>221.0</ele><time>2026-04-26T11:47:46Z</time></trkpt><trkpt lat="46.32675164899775" lon="13.064120625093903"><ele>221.00000000000003</ele><time>2026-04-26T11:47:47Z</time></trkpt><trkpt lat="46.32667609666697" lon="13.064009601301663"><ele>221.00000000000003</ele><time>2026-04-26T11:47:48Z</time></trkpt><trkpt lat="46.32661900587469" lon="13.06390189438984"><ele>221.0</ele><time>2026-04-26T11:47:49Z</time></trkpt><trkpt lat="46.32656047896244" lon="13.063810198652744"><ele>221.0</ele><time>2026-04-26T11:47:50Z</time></trkpt><trkpt lat="46.32649531040988" lon="13.06371137434644"><ele>218.0</ele><time>2026-04-26T11:47:51Z</time></trkpt><trkpt lat="46.32643244103646" lon="13.063618856718827"><ele>215.00000000000003</ele><time>2026-04-26T11:47:52Z</time></trkpt><trkpt lat="46.32637078103341" lon="13.063536219092935"><ele>212.0</ele><time>2026-04-26T11:47:53Z</time></trkpt><trkpt lat="46.32629523305097" lon="13.063446993647634"><ele>209.0</ele><time>2026-04-26T11:47:54Z</time></trkpt><trkpt lat="46.326201903335836" lon="13.063388405901756"><ele>206.0</ele><time>2026-04-26T11:47:55Z</time></trkpt><trkpt lat="46.32608283886836" lon="13.063357451019431"><ele>206.0</ele><time>2026-04-26T11:47:56Z</time></trkpt><trkpt lat="46.32594101595142" lon="13.063322082776645"><ele>206.0</ele><time>2026-04-26T11:47:57Z</time></trkpt><trkpt lat="46.325780336241536" lon="13.063242389850881"><ele>206.0</ele><time>2026-04-26T11:47:58Z</time></trkpt><trkpt lat="46.32558146728206" lon="13.06319077985654"><ele>206.33333333333334</ele><time>2026-04-26T11:47:59Z</time></trkpt><trkpt lat="46.32541024175521" lon="13.063111119330673"><ele>206.66666666666669</ele><time>2026-04-26T11:48:00Z</time></trkpt><trkpt lat="46.325264376429146" lon="13.06303998330559"><ele>207.0</ele><time>2026-04-26T11:48:01Z</time></trkpt><trkpt lat="46.325125472045784" lon="13.062950890999009"><ele>207.0</ele><time>2026-04-26T11:48:02Z</time></trkpt><trkpt lat="46.324969442986195" lon="13.062853974505868"><ele>207.0</ele><time>2026-04-26T11:48:03Z</time></trkpt><trkpt lat="46.32480691059023" lon="13.062774315492042"><ele>207.0</ele><time>2026-04-26T11:48:04Z</time></trkpt><trkpt lat="46.32465085921378" lon="13.062708088427009"><ele>206.0</ele><time>2026-04-26T11:48:05Z</time></trkpt><trkpt lat="46.32449598906464" lon="13.062637762730143"><ele>205.0</ele><time>2026-04-26T11:48:06Z</time></trkpt><trkpt lat="46.32434258526398" lon="13.062572128293317"><ele>204.0</ele><time>2026-04-26T11:48:07Z</time></trkpt><trkpt lat="46.32419275498309" lon="13.062505460746133"><ele>204.25</ele><time>2026-04-26T11:48:08Z</time></trkpt><trkpt lat="46.32404829157387" lon="13.062439948636143"><ele>204.5</ele><time>2026-04-26T11:48:09Z</time></trkpt><trkpt lat="46.32392785368232" lon="13.06237251254932"><ele>204.75</ele><time>2026-04-26T11:48:10Z</time></trkpt><trkpt lat="46.3238349448076" lon="13.06226125479729"><ele>205.0</ele><time>2026-04-26T11:48:11Z</time></trkpt><trkpt lat="46.32377287462832" lon="13.06208771283275"><ele>205.0</ele><time>2026-04-26T11:48:12Z</time></trkpt><trkpt lat="46.323748943428775" lon="13.06189342511453"><ele>205.0</ele><time>2026-04-26T11:48:13Z</time></trkpt><trkpt lat="46.3237314205182" lon="13.061713095405324"><ele>205.0</ele><time>2026-04-26T11:48:14Z</time></trkpt><trkpt lat="46.323708632935976" lon="13.06155379346187"><ele>205.0</ele><time>2026-04-26T11:48:15Z</time></trkpt><trkpt lat="46.32368172733887" lon="13.061385047603862"><ele>205.0</ele><time>2026-04-26T11:48:16Z</time></trkpt><trkpt lat="46.323635308545306" lon="13.061229672488677"><ele>205.0</ele><time>2026-04-26T11:48:17Z</time></trkpt><trkpt lat="46.3235716580893" lon="13.061059000747193"><ele>205.0</ele><time>2026-04-26T11:48:18Z</time></trkpt><trkpt lat="46.3234930600951" lon="13.060888342516611"><ele>205.0</ele><time>2026-04-26T11:48:19Z</time></trkpt><trkpt lat="46.32339208991051" lon="13.060721212083855"><ele>204.66666666666666</ele><time>2026-04-26T11:48:20Z</time></trkpt><trkpt lat="46.32325496993383" lon="13.060593037263589"><ele>204.33333333333331</ele><time>2026-04-26T11:48:21Z</time></trkpt><trkpt lat="46.32309953943375" lon="13.060482691303553"><ele>204.0</ele><time>2026-04-26T11:48:22Z</time></trkpt><trkpt lat="46.3229269662351" lon="13.060351793690621"><ele>203.66666666666669</ele><time>2026-04-26T11:48:23Z</time></trkpt><trkpt lat="46.32277159345772" lon="13.060230997467086"><ele>203.33333333333334</ele><time>2026-04-26T11:48:24Z</time></trkpt><trkpt lat="46.32262575126275" lon="13.060117979535875"><ele>203.0</ele><time>2026-04-26T11:48:25Z</time></trkpt><trkpt lat="46.32248047012857" lon="13.060009038677377"><ele>202.75</ele><time>2026-04-26T11:48:26Z</time></trkpt><trkpt lat="46.32234735644649" lon="13.059871959168417"><ele>202.5</ele><time>2026-04-26T11:48:27Z</time></trkpt><trkpt lat="46.32221750757582" lon="13.059771811052018"><ele>202.25</ele><time>2026-04-26T11:48:28Z</time></trkpt><trkpt lat="46.322106711449635" lon="13.059659301358723"><ele>202.0</ele><time>2026-04-26T11:48:29Z</time></trkpt><trkpt lat="46.322001104224775" lon="13.059543811588897"><ele>202.66666666666666</ele><time>2026-04-26T11:48:30Z</time></trkpt><trkpt lat="46.32188639588172" lon="13.059418291573644"><ele>203.33333333333331</ele><time>2026-04-26T11:48:31Z</time></trkpt><trkpt lat="46.32174447498359" lon="13.059289458535309"><ele>204.0</ele><time>2026-04-26T11:48:32Z</time></trkpt><trkpt lat="46.32159226120078" lon="13.059117993930377"><ele>204.66666666666669</ele><time>2026-04-26T11:48:33Z</time></trkpt><trkpt lat="46.32142002805479" lon="13.058948727921841"><ele>205.33333333333334</ele><time>2026-04-26T11:48:34Z</time></trkpt><trkpt lat="46.32127550405043" lon="13.058796532713753"><ele>206.0</ele><time>2026-04-26T11:48:35Z</time></trkpt><trkpt lat="46.32116713426312" lon="13.058614354186298"><ele>205.0</ele><time>2026-04-26T11:48:36Z</time></trkpt><trkpt lat="46.32106981400569" lon="13.058403911877233"><ele>204.0</ele><time>2026-04-26T11:48:37Z</time></trkpt><trkpt lat="46.320979629300616" lon="13.058189200607098"><ele>203.0</ele><time>2026-04-26T11:48:38Z</time></trkpt><trkpt lat="46.32089275961378" lon="13.057977493861749"><ele>203.0</ele><time>2026-04-26T11:48:39Z</time></trkpt><trkpt lat="46.32081384958717" lon="13.057764419484895"><ele>203.0</ele><time>2026-04-26T11:48:40Z</time></trkpt><trkpt lat="46.32073860656681" lon="13.057561061417667"><ele>203.0</ele><time>2026-04-26T11:48:41Z</time></trkpt><trkpt lat="46.32065716008036" lon="13.057362943052727"><ele>203.0</ele><time>2026-04-26T11:48:42Z</time></trkpt><trkpt lat="46.320566707123334" lon="13.057156608507478"><ele>203.0</ele><time>2026-04-26T11:48:43Z</time></trkpt><trkpt lat="46.320474624918226" lon="13.056953467745384"><ele>203.0</ele><time>2026-04-26T11:48:44Z</time></trkpt><trkpt lat="46.320384378626606" lon="13.05677826512034"><ele>202.75</ele><time>2026-04-26T11:48:45Z</time></trkpt><trkpt lat="46.32028383668112" lon="13.056642155994844"><ele>202.5</ele><time>2026-04-26T11:48:46Z</time></trkpt><trkpt lat="46.32015227083863" lon="13.056541382713926"><ele>202.25</ele><time>2026-04-26T11:48:47Z</time></trkpt><trkpt lat="46.32000582347339" lon="13.056465327254012"><ele>202.0</ele><time>2026-04-26T11:48:48Z</time></trkpt><trkpt lat="46.319858255129404" lon="13.056368323126248"><ele>201.25</ele><time>2026-04-26T11:48:49Z</time></trkpt><trkpt lat="46.319726890828555" lon="13.056283086470483"><ele>200.5</ele><time>2026-04-26T11:48:50Z</time></trkpt><trkpt lat="46.319605570012" lon="13.056185430827417"><ele>199.75</ele><time>2026-04-26T11:48:51Z</time></trkpt><trkpt lat="46.31949660260721" lon="13.05605212833577"><ele>199.0</ele><time>2026-04-26T11:48:52Z</time></trkpt><trkpt lat="46.31939467757407" lon="13.055889310079591"><ele>201.33333333333331</ele><time>2026-04-26T11:48:53Z</time></trkpt><trkpt lat="46.319287742049674" lon="13.055717251327753"><ele>203.66666666666669</ele><time>2026-04-26T11:48:54Z</time></trkpt><trkpt lat="46.31916268242663" lon="13.055555485539756"><ele>206.0</ele><time>2026-04-26T11:48:55Z</time></trkpt><trkpt lat="46.31906038505372" lon="13.055398813474481"><ele>206.0</ele><time>2026-04-26T11:48:56Z</time></trkpt><trkpt lat="46.31894527533181" lon="13.055271491175402"><ele>206.0</ele><time>2026-04-26T11:48:57Z</time></trkpt><trkpt lat="46.31880952573778" lon="13.055180340052503"><ele>206.0</ele><time>2026-04-26T11:48:58Z</time></trkpt><trkpt lat="46.318659561508326" lon="13.05513381630039"><ele>206.0</ele><time>2026-04-26T11:48:59Z</time></trkpt><trkpt lat="46.31849814281907" lon="13.055118767207631"><ele>204.75</ele><time>2026-04-26T11:49:00Z</time></trkpt><trkpt lat="46.31833582872651" lon="13.055093604515971"><ele>203.5</ele><time>2026-04-26T11:49:01Z</time></trkpt><trkpt lat="46.31818816631879" lon="13.055069173892043"><ele>202.25</ele><time>2026-04-26T11:49:02Z</time></trkpt><trkpt lat="46.3180591896088" lon="13.055050029522238"><ele>201.0</ele><time>2026-04-26T11:49:03Z</time></trkpt><trkpt lat="46.3179439744034" lon="13.055020968024158"><ele>201.75</ele><time>2026-04-26T11:49:04Z</time></trkpt><trkpt lat="46.317849496822554" lon="13.054952547519617"><ele>202.5</ele><time>2026-04-26T11:49:05Z</time></trkpt><trkpt lat="46.31774568876823" lon="13.054857169312722"><ele>203.25</ele><time>2026-04-26T11:49:06Z</time></trkpt><trkpt lat="46.3176284971787" lon="13.054754312508813"><ele>204.0</ele><time>2026-04-26T11:49:07Z</time></trkpt><trkpt lat="46.317511806591774" lon="13.05463432620044"><ele>204.0</ele><time>2026-04-26T11:49:08Z</time></trkpt><trkpt lat="46.317417366023754" lon="13.05448664024425"><ele>204.0</ele><time>2026-04-26T11:49:09Z</time></trkpt><trkpt lat="46.31734195703276" lon="13.054340814726554"><ele>204.0</ele><time>2026-04-26T11:49:10Z</time></trkpt><trkpt lat="46.3172843047997" lon="13.054197036407682"><ele>204.0</ele><time>2026-04-26T11:49:11Z</time></trkpt><trkpt lat="46.31724180226836" lon="13.054024786433622"><ele>204.39999999999998</ele><time>2026-04-26T11:49:12Z</time></trkpt><trkpt lat="46.317211314561945" lon="13.053849757825546"><ele>204.8</ele><time>2026-04-26T11:49:13Z</time></trkpt><trkpt lat="46.31719684608939" lon="13.05369495175645"><ele>205.2</ele><time>2026-04-26T11:49:14Z</time></trkpt><trkpt lat="46.31715942942554" lon="13.053559907144708"><ele>205.60000000000002</ele><time>2026-04-26T11:49:15Z</time></trkpt><trkpt lat="46.31707800830144" lon="13.053462618842328"><ele>206.0</ele><time>2026-04-26T11:49:16Z</time></trkpt><trkpt lat="46.31695969231361" lon="13.053414616656902"><ele>206.0</ele><time>2026-04-26T11:49:17Z</time></trkpt><trkpt lat="46.31684722733747" lon="13.053401026677745"><ele>206.0</ele><time>2026-04-26T11:49:18Z</time></trkpt><trkpt lat="46.31672110897786" lon="13.053382332720219"><ele>206.0</ele><time>2026-04-26T11:49:19Z</time></trkpt><trkpt lat="46.31658656152926" lon="13.053315921850748"><ele>206.0</ele><time>2026-04-26T11:49:20Z</time></trkpt><trkpt lat="46.316454922585166" lon="13.053258470531945"><ele>205.75</ele><time>2026-04-26T11:49:21Z</time></trkpt><trkpt lat="46.31633846915628" lon="13.053194239479277"><ele>205.5</ele><time>2026-04-26T11:49:22Z</time></trkpt><trkpt lat="46.31620482560717" lon="13.053143823650565"><ele>205.25</ele><time>2026-04-26T11:49:23Z</time></trkpt><trkpt lat="46.31607614533327" lon="13.053086313620646"><ele>205.0</ele><time>2026-04-26T11:49:24Z</time></trkpt><trkpt lat="46.31596346369411" lon="13.053025791125073"><ele>205.0</ele><time>2026-04-26T11:49:25Z</time></trkpt><trkpt lat="46.31586111597483" lon="13.052942544529149"><ele>205.0</ele><time>2026-04-26T11:49:26Z</time></trkpt><trkpt lat="46.31574837806624" lon="13.052864064775253"><ele>205.0</ele><time>2026-04-26T11:49:27Z</time></trkpt><trkpt lat="46.31562869328104" lon="13.052783431258527"><ele>205.0</ele><time>2026-04-26T11:49:28Z</time></trkpt><trkpt lat="46.31550755974566" lon="13.05271352868103"><ele>204.75</ele><time>2026-04-26T11:49:29Z</time></trkpt><trkpt lat="46.31537135607198" lon="13.052665389662536"><ele>204.5</ele><time>2026-04-26T11:49:30Z</time></trkpt><trkpt lat="46.31520993261402" lon="13.052661020887438"><ele>204.25</ele><time>2026-04-26T11:49:31Z</time></trkpt><trkpt lat="46.31506729721989" lon="13.052693874351595"><ele>204.0</ele><time>2026-04-26T11:49:32Z</time></trkpt><trkpt lat="46.31490937600245" lon="13.05270993758342"><ele>204.0</ele><time>2026-04-26T11:49:33Z</time></trkpt><trkpt lat="46.314766364578894" lon="13.052753797096464"><ele>204.0</ele><time>2026-04-26T11:49:34Z</time></trkpt><trkpt lat="46.31466998499223" lon="13.05274840410267"><ele>204.0</ele><time>2026-04-26T11:49:35Z</time></trkpt><trkpt lat="46.31456053083082" lon="13.052740602576518"><ele>204.0</ele><time>2026-04-26T11:49:36Z</time></trkpt><trkpt lat="46.31445074947397" lon="13.052764596643813"><ele>203.75</ele><time>2026-04-26T11:49:37Z</time></trkpt><trkpt lat="46.3143211396578" lon="13.052789709938429"><ele>203.5</ele><time>2026-04-26T11:49:38Z</time></trkpt><trkpt lat="46.31419795621057" lon="13.0528592824421"><ele>203.25</ele><time>2026-04-26T11:49:39Z</time></trkpt><trkpt lat="46.31406059235957" lon="13.052935901252376"><ele>203.0</ele><time>2026-04-26T11:49:40Z</time></trkpt><trkpt lat="46.31394145892017" lon="13.053001277979895"><ele>202.5</ele><time>2026-04-26T11:49:41Z</time></trkpt><trkpt lat="46.31382632472255" lon="13.053064460259426"><ele>202.0</ele><time>2026-04-26T11:49:42Z</time></trkpt><trkpt lat="46.313706512042515" lon="13.0531320102785"><ele>201.5</ele><time>2026-04-26T11:49:43Z</time></trkpt><trkpt lat="46.31358497713749" lon="13.053201424707254"><ele>201.0</ele><time>2026-04-26T11:49:44Z</time></trkpt><trkpt lat="46.313461005846946" lon="13.053272230700152"><ele>201.5</ele><time>2026-04-26T11:49:45Z</time></trkpt><trkpt lat="46.31333797361007" lon="13.05336036318716"><ele>202.0</ele><time>2026-04-26T11:49:46Z</time></trkpt><trkpt lat="46.313207866701426" lon="13.053430037914156"><ele>202.5</ele><time>2026-04-26T11:49:47Z</time></trkpt><trkpt lat="46.31307805885795" lon="13.053509204201287"><ele>203.0</ele><time>2026-04-26T11:49:48Z</time></trkpt><trkpt lat="46.312949974397355" lon="13.053600555984449"><ele>203.0</ele><time>2026-04-26T11:49:49Z</time></trkpt><trkpt lat="46.31282234577842" lon="13.053704561679577"><ele>203.0</ele><time>2026-04-26T11:49:50Z</time></trkpt><trkpt lat="46.31270181708973" lon="13.053829686820764"><ele>203.0</ele><time>2026-04-26T11:49:51Z</time></trkpt><trkpt lat="46.312580996764616" lon="13.05395417793936"><ele>203.0</ele><time>2026-04-26T11:49:52Z</time></trkpt><trkpt lat="46.312464358030354" lon="13.054064527060842"><ele>202.5</ele><time>2026-04-26T11:49:53Z</time></trkpt><trkpt lat="46.31234370075969" lon="13.054173368153482"><ele>202.0</ele><time>2026-04-26T11:49:54Z</time></trkpt><trkpt lat="46.31222319746773" lon="13.054278565527646"><ele>201.5</ele><time>2026-04-26T11:49:55Z</time></trkpt><trkpt lat="46.31210107218544" lon="13.0543952526311"><ele>201.0</ele><time>2026-04-26T11:49:56Z</time></trkpt><trkpt lat="46.311977379246066" lon="13.054502267412465"><ele>200.75</ele><time>2026-04-26T11:49:57Z</time></trkpt><trkpt lat="46.31185346865967" lon="13.054616759294376"><ele>200.5</ele><time>2026-04-26T11:49:58Z</time></trkpt><trkpt lat="46.311732359722676" lon="13.054719511726402"><ele>200.25</ele><time>2026-04-26T11:49:59Z</time></trkpt><trkpt lat="46.31161426634772" lon="13.054819976014956"><ele>200.0</ele><time>2026-04-26T11:50:00Z</time></trkpt><trkpt lat="46.31149734705905" lon="13.054923841911874"><ele>200.0</ele><time>2026-04-26T11:50:01Z</time></trkpt><trkpt lat="46.311388931331145" lon="13.05501610750982"><ele>200.0</ele><time>2026-04-26T11:50:02Z</time></trkpt><trkpt lat="46.311285701411265" lon="13.055107229070265"><ele>200.0</ele><time>2026-04-26T11:50:03Z</time></trkpt><trkpt lat="46.311183022803725" lon="13.055197334922463"><ele>200.0</ele><time>2026-04-26T11:50:04Z</time></trkpt><trkpt lat="46.31106525571208" lon="13.055313233300883"><ele>200.0</ele><time>2026-04-26T11:50:05Z</time></trkpt><trkpt lat="46.31093760320481" lon="13.055431896818783"><ele>200.0</ele><time>2026-04-26T11:50:06Z</time></trkpt><trkpt lat="46.310802640484944" lon="13.055560149030839"><ele>200.0</ele><time>2026-04-26T11:50:07Z</time></trkpt><trkpt lat="46.3106289825972" lon="13.055726203258043"><ele>199.66666666666669</ele><time>2026-04-26T11:50:08Z</time></trkpt><trkpt lat="46.31047622777977" lon="13.055886757304616"><ele>199.33333333333331</ele><time>2026-04-26T11:50:09Z</time></trkpt><trkpt lat="46.31032397268987" lon="13.056029755660328"><ele>199.0</ele><time>2026-04-26T11:50:10Z</time></trkpt><trkpt lat="46.310208693290846" lon="13.056139855197182"><ele>199.0</ele><time>2026-04-26T11:50:11Z</time></trkpt><trkpt lat="46.31012480520062" lon="13.056222138344056"><ele>199.0</ele><time>2026-04-26T11:50:12Z</time></trkpt><trkpt lat="46.31006584120882" lon="13.056280640432652"><ele>199.0</ele><time>2026-04-26T11:50:13Z</time></trkpt><trkpt lat="46.31001893933706" lon="13.056402280422652"><ele>199.0</ele><time>2026-04-26T11:50:15Z</time></trkpt><trkpt lat="46.3100374116443" lon="13.05655311836706"><ele>199.0</ele><time>2026-04-26T11:50:17Z</time></trkpt><trkpt lat="46.31019670115813" lon="13.056626364317822"><ele>199.0</ele><time>2026-04-26T11:50:18Z</time></trkpt><trkpt lat="46.31032600090285" lon="13.0567174583914"><ele>199.0</ele><time>2026-04-26T11:50:19Z</time></trkpt><trkpt lat="46.310463920892595" lon="13.05686731263962"><ele>199.0</ele><time>2026-04-26T11:50:20Z</time></trkpt><trkpt lat="46.3105830995877" lon="13.057033841647408"><ele>199.0</ele><time>2026-04-26T11:50:21Z</time></trkpt><trkpt lat="46.310712667728914" lon="13.057207104338932"><ele>199.0</ele><time>2026-04-26T11:50:22Z</time></trkpt><trkpt lat="46.310864831633864" lon="13.057397146334662"><ele>199.0</ele><time>2026-04-26T11:50:23Z</time></trkpt><trkpt lat="46.31100299829303" lon="13.057578888775796"><ele>198.66666666666666</ele><time>2026-04-26T11:50:24Z</time></trkpt><trkpt lat="46.31115363393901" lon="13.057777671038114"><ele>198.33333333333331</ele><time>2026-04-26T11:50:25Z</time></trkpt><trkpt lat="46.31131334114862" lon="13.057987206684151"><ele>198.0</ele><time>2026-04-26T11:50:26Z</time></trkpt><trkpt lat="46.311473531571885" lon="13.05819273466053"><ele>197.33333333333331</ele><time>2026-04-26T11:50:27Z</time></trkpt><trkpt lat="46.31162070241015" lon="13.05838386467615"><ele>196.66666666666666</ele><time>2026-04-26T11:50:28Z</time></trkpt><trkpt lat="46.31177373338848" lon="13.058577918895057"><ele>196.0</ele><time>2026-04-26T11:50:29Z</time></trkpt><trkpt lat="46.31192794036893" lon="13.058774776237842"><ele>196.0</ele><time>2026-04-26T11:50:30Z</time></trkpt><trkpt lat="46.31208269634623" lon="13.058975564036913"><ele>196.0</ele><time>2026-04-26T11:50:31Z</time></trkpt><trkpt lat="46.312236808443664" lon="13.059179811665041"><ele>196.0</ele><time>2026-04-26T11:50:32Z</time></trkpt><trkpt lat="46.312397073148084" lon="13.059382509742942"><ele>197.0</ele><time>2026-04-26T11:50:33Z</time></trkpt><trkpt lat="46.31255214400151" lon="13.059583152305228"><ele>198.0</ele><time>2026-04-26T11:50:34Z</time></trkpt><trkpt lat="46.3127028622016" lon="13.059770580376819"><ele>199.0</ele><time>2026-04-26T11:50:35Z</time></trkpt><trkpt lat="46.31284903963435" lon="13.0599851871922"><ele>199.0</ele><time>2026-04-26T11:50:36.016Z</time></trkpt><trkpt lat="46.313001989688175" lon="13.060182038876654"><ele>199.0</ele><time>2026-04-26T11:50:37.016Z</time></trkpt><trkpt lat="46.31315368587653" lon="13.060377632303611"><ele>199.0</ele><time>2026-04-26T11:50:38Z</time></trkpt><trkpt lat="46.31331595371551" lon="13.060568150447684"><ele>199.0</ele><time>2026-04-26T11:50:39Z</time></trkpt><trkpt lat="46.31347883310485" lon="13.060775384033827"><ele>199.0</ele><time>2026-04-26T11:50:40Z</time></trkpt><trkpt lat="46.31363920629969" lon="13.060982291718258"><ele>199.0</ele><time>2026-04-26T11:50:41Z</time></trkpt><trkpt lat="46.313800814978684" lon="13.061191773666666"><ele>198.33333333333331</ele><time>2026-04-26T11:50:42Z</time></trkpt><trkpt lat="46.31396223343516" lon="13.06140183686214"><ele>197.66666666666669</ele><time>2026-04-26T11:50:43Z</time></trkpt><trkpt lat="46.314126214889654" lon="13.06161165616662"><ele>197.0</ele><time>2026-04-26T11:50:44Z</time></trkpt><trkpt lat="46.31429041285139" lon="13.0618194171463"><ele>197.0</ele><time>2026-04-26T11:50:45Z</time></trkpt><trkpt lat="46.31445200621858" lon="13.062025516196192"><ele>197.0</ele><time>2026-04-26T11:50:46Z</time></trkpt><trkpt lat="46.31461085568272" lon="13.062230495157664"><ele>197.0</ele><time>2026-04-26T11:50:47Z</time></trkpt><trkpt lat="46.314764910820806" lon="13.062428250202972"><ele>197.66666666666669</ele><time>2026-04-26T11:50:48Z</time></trkpt><trkpt lat="46.31490364885619" lon="13.06264854334002"><ele>198.33333333333331</ele><time>2026-04-26T11:50:49Z</time></trkpt><trkpt lat="46.31503099112118" lon="13.062881299234089"><ele>199.0</ele><time>2026-04-26T11:50:50Z</time></trkpt><trkpt lat="46.31515989539418" lon="13.063117109950383"><ele>199.66666666666666</ele><time>2026-04-26T11:50:51Z</time></trkpt><trkpt lat="46.315261153387176" lon="13.063385261865667"><ele>200.33333333333331</ele><time>2026-04-26T11:50:52Z</time></trkpt><trkpt lat="46.315356015049936" lon="13.063667451680933"><ele>201.0</ele><time>2026-04-26T11:50:53Z</time></trkpt><trkpt lat="46.315446311350726" lon="13.063964101848535"><ele>201.33333333333331</ele><time>2026-04-26T11:50:54Z</time></trkpt><trkpt lat="46.3155377835369" lon="13.06425359475933"><ele>201.66666666666666</ele><time>2026-04-26T11:50:55Z</time></trkpt><trkpt lat="46.315637172170796" lon="13.064527014857886"><ele>202.0</ele><time>2026-04-26T11:50:56Z</time></trkpt><trkpt lat="46.31575682373665" lon="13.064786491636312"><ele>201.33333333333331</ele><time>2026-04-26T11:50:57Z</time></trkpt><trkpt lat="46.31588596559365" lon="13.065008055329475"><ele>200.66666666666669</ele><time>2026-04-26T11:50:58Z</time></trkpt><trkpt lat="46.31602651249266" lon="13.065209869069962"><ele>200.0</ele><time>2026-04-26T11:50:59Z</time></trkpt><trkpt lat="46.316170497552896" lon="13.065404383314085"><ele>200.0</ele><time>2026-04-26T11:51:00Z</time></trkpt><trkpt lat="46.31631743748405" lon="13.065589435848862"><ele>200.0</ele><time>2026-04-26T11:51:01Z</time></trkpt><trkpt lat="46.31645242160972" lon="13.06579486138633"><ele>200.0</ele><time>2026-04-26T11:51:02Z</time></trkpt><trkpt lat="46.316584877250804" lon="13.065977714599843"><ele>200.33333333333334</ele><time>2026-04-26T11:51:03Z</time></trkpt><trkpt lat="46.31671514483918" lon="13.066128826502428"><ele>200.66666666666669</ele><time>2026-04-26T11:51:04Z</time></trkpt><trkpt lat="46.316821398440176" lon="13.066289755229215"><ele>201.0</ele><time>2026-04-26T11:51:05Z</time></trkpt><trkpt lat="46.31691757654942" lon="13.066465694105414"><ele>201.0</ele><time>2026-04-26T11:51:06Z</time></trkpt><trkpt lat="46.31702153715482" lon="13.066610737968142"><ele>201.0</ele><time>2026-04-26T11:51:07Z</time></trkpt><trkpt lat="46.31712785693731" lon="13.066732997389675"><ele>201.0</ele><time>2026-04-26T11:51:08Z</time></trkpt><trkpt lat="46.317214650165845" lon="13.066848946794076"><ele>201.0</ele><time>2026-04-26T11:51:09Z</time></trkpt><trkpt lat="46.31728614742467" lon="13.066951236498278"><ele>200.0</ele><time>2026-04-26T11:51:10Z</time></trkpt><trkpt lat="46.31734289822097" lon="13.067036950691094"><ele>199.0</ele><time>2026-04-26T11:51:11Z</time></trkpt><trkpt lat="46.3173862069417" lon="13.06711351071605"><ele>198.0</ele><time>2026-04-26T11:51:12Z</time></trkpt><trkpt lat="46.31755029126202" lon="13.067002336141433"><ele>197.0</ele><time>2026-04-26T11:51:14Z</time></trkpt><trkpt lat="46.317632039019436" lon="13.066934703811137"><ele>196.0</ele><time>2026-04-26T11:51:15Z</time></trkpt><trkpt lat="46.31773772646416" lon="13.066862112556791"><ele>196.0</ele><time>2026-04-26T11:51:16Z</time></trkpt><trkpt lat="46.317824598501495" lon="13.066743836423893"><ele>196.0</ele><time>2026-04-26T11:51:17Z</time></trkpt><trkpt lat="46.31793131823874" lon="13.06664911398024"><ele>196.0</ele><time>2026-04-26T11:51:18Z</time></trkpt><trkpt lat="46.31803909842012" lon="13.066535784113881"><ele>196.0</ele><time>2026-04-26T11:51:19Z</time></trkpt><trkpt lat="46.31814076500496" lon="13.066401916213856"><ele>196.0</ele><time>2026-04-26T11:51:20Z</time></trkpt><trkpt lat="46.31823283780146" lon="13.066240014147091"><ele>196.0</ele><time>2026-04-26T11:51:21Z</time></trkpt><trkpt lat="46.31829561632754" lon="13.066047597411623"><ele>196.0</ele><time>2026-04-26T11:51:22Z</time></trkpt><trkpt lat="46.31835216387478" lon="13.06584609457597"><ele>196.0</ele><time>2026-04-26T11:51:23Z</time></trkpt><trkpt lat="46.31840470835696" lon="13.065651630623677"><ele>196.0</ele><time>2026-04-26T11:51:24Z</time></trkpt><trkpt lat="46.3184574586187" lon="13.065456404963566"><ele>196.0</ele><time>2026-04-26T11:51:25Z</time></trkpt><trkpt lat="46.31851017630823" lon="13.065260305410524"><ele>196.0</ele><time>2026-04-26T11:51:26Z</time></trkpt><trkpt lat="46.31856124359733" lon="13.065070620227422"><ele>196.0</ele><time>2026-04-26T11:51:27Z</time></trkpt><trkpt lat="46.31861200174864" lon="13.064881646030866"><ele>196.0</ele><time>2026-04-26T11:51:28Z</time></trkpt><trkpt lat="46.31866812526134" lon="13.064704903751192"><ele>196.0</ele><time>2026-04-26T11:51:29Z</time></trkpt><trkpt lat="46.31872849661377" lon="13.064541055683003"><ele>196.0</ele><time>2026-04-26T11:51:30Z</time></trkpt><trkpt lat="46.318818372763616" lon="13.064409581725943"><ele>196.0</ele><time>2026-04-26T11:51:31Z</time></trkpt><trkpt lat="46.318924933439746" lon="13.064293388458564"><ele>195.5</ele><time>2026-04-26T11:51:32Z</time></trkpt><trkpt lat="46.31903451129699" lon="13.064210150934041"><ele>195.0</ele><time>2026-04-26T11:51:33Z</time></trkpt><trkpt lat="46.31914170599756" lon="13.064194600499784"><ele>194.5</ele><time>2026-04-26T11:51:34Z</time></trkpt><trkpt lat="46.31925593359652" lon="13.064166009187398"><ele>194.0</ele><time>2026-04-26T11:51:35Z</time></trkpt><trkpt lat="46.31939415982986" lon="13.06415118973873"><ele>194.0</ele><time>2026-04-26T11:51:36Z</time></trkpt><trkpt lat="46.31955647316288" lon="13.064138622538065"><ele>194.0</ele><time>2026-04-26T11:51:37Z</time></trkpt><trkpt lat="46.31971806541106" lon="13.064133204470366"><ele>194.0</ele><time>2026-04-26T11:51:38Z</time></trkpt><trkpt lat="46.31985888405022" lon="13.064142703074886"><ele>193.66666666666669</ele><time>2026-04-26T11:51:39Z</time></trkpt><trkpt lat="46.31999712836272" lon="13.064189927947703"><ele>193.33333333333331</ele><time>2026-04-26T11:51:40Z</time></trkpt><trkpt lat="46.320144275327095" lon="13.064258643676848"><ele>193.0</ele><time>2026-04-26T11:51:41Z</time></trkpt><trkpt lat="46.320289134284764" lon="13.06433593518755"><ele>193.0</ele><time>2026-04-26T11:51:42Z</time></trkpt><trkpt lat="46.32043511552928" lon="13.064397208911718"><ele>193.0</ele><time>2026-04-26T11:51:43Z</time></trkpt><trkpt lat="46.32058069447923" lon="13.064467598193309"><ele>193.0</ele><time>2026-04-26T11:51:44Z</time></trkpt><trkpt lat="46.32071821763381" lon="13.064538803624021"><ele>194.0</ele><time>2026-04-26T11:51:45Z</time></trkpt><trkpt lat="46.32086454588623" lon="13.064609313473072"><ele>195.0</ele><time>2026-04-26T11:51:46Z</time></trkpt><trkpt lat="46.32101395194661" lon="13.064675795972382"><ele>196.0</ele><time>2026-04-26T11:51:47Z</time></trkpt><trkpt lat="46.32116236739124" lon="13.06473808223453"><ele>196.0</ele><time>2026-04-26T11:51:48Z</time></trkpt><trkpt lat="46.32131300586062" lon="13.064794900341981"><ele>196.0</ele><time>2026-04-26T11:51:49Z</time></trkpt><trkpt lat="46.32147457562717" lon="13.064851923548485"><ele>196.0</ele><time>2026-04-26T11:51:50Z</time></trkpt><trkpt lat="46.321629146639495" lon="13.064898839699588"><ele>196.0</ele><time>2026-04-26T11:51:51Z</time></trkpt><trkpt lat="46.32177109941325" lon="13.064948311108763"><ele>196.0</ele><time>2026-04-26T11:51:52Z</time></trkpt><trkpt lat="46.321916144468176" lon="13.06498168751611"><ele>196.0</ele><time>2026-04-26T11:51:53Z</time></trkpt><trkpt lat="46.32207190927218" lon="13.065011104758963"><ele>196.0</ele><time>2026-04-26T11:51:54Z</time></trkpt><trkpt lat="46.322211934452454" lon="13.065037470141968"><ele>196.0</ele><time>2026-04-26T11:51:55Z</time></trkpt><trkpt lat="46.32234438666933" lon="13.065065517946929"><ele>196.0</ele><time>2026-04-26T11:51:56Z</time></trkpt><trkpt lat="46.32247564061985" lon="13.065097685170928"><ele>196.0</ele><time>2026-04-26T11:51:57Z</time></trkpt><trkpt lat="46.32259414384684" lon="13.065154925445624"><ele>196.25</ele><time>2026-04-26T11:51:58Z</time></trkpt><trkpt lat="46.32270074005773" lon="13.065217272824409"><ele>196.5</ele><time>2026-04-26T11:51:59Z</time></trkpt><trkpt lat="46.32281883737267" lon="13.065307755205026"><ele>196.75</ele><time>2026-04-26T11:52:00Z</time></trkpt><trkpt lat="46.32292289451136" lon="13.065411989758696"><ele>197.0</ele><time>2026-04-26T11:52:01Z</time></trkpt><trkpt lat="46.32301124472323" lon="13.06553365908884"><ele>196.75</ele><time>2026-04-26T11:52:02Z</time></trkpt><trkpt lat="46.32309424082682" lon="13.065652023602416"><ele>196.5</ele><time>2026-04-26T11:52:03Z</time></trkpt><trkpt lat="46.32319043444336" lon="13.065743172609055"><ele>196.25</ele><time>2026-04-26T11:52:04Z</time></trkpt><trkpt lat="46.32330656873936" lon="13.065792700354848"><ele>196.0</ele><time>2026-04-26T11:52:05Z</time></trkpt><trkpt lat="46.32341730861428" lon="13.06581867661869"><ele>195.60000000000002</ele><time>2026-04-26T11:52:06Z</time></trkpt><trkpt lat="46.32352200900236" lon="13.065838343060237"><ele>195.2</ele><time>2026-04-26T11:52:07Z</time></trkpt><trkpt lat="46.32361984578898" lon="13.065859534957433"><ele>194.8</ele><time>2026-04-26T11:52:08Z</time></trkpt><trkpt lat="46.32371953656175" lon="13.06588980289552"><ele>194.39999999999998</ele><time>2026-04-26T11:52:09Z</time></trkpt><trkpt lat="46.323815960121" lon="13.065923929645622"><ele>194.0</ele><time>2026-04-26T11:52:10Z</time></trkpt><trkpt lat="46.32389413671649" lon="13.065960697999206"><ele>194.00000000000003</ele><time>2026-04-26T11:52:11Z</time></trkpt><trkpt lat="46.32396519189382" lon="13.065999821443013"><ele>194.0</ele><time>2026-04-26T11:52:12Z</time></trkpt><trkpt lat="46.32402321093038" lon="13.066040424208252"><ele>194.0</ele><time>2026-04-26T11:52:13Z</time></trkpt><trkpt lat="46.32413124060602" lon="13.066102214292181"><ele>194.0</ele><time>2026-04-26T11:52:15Z</time></trkpt><trkpt lat="46.32421317007463" lon="13.066202695977687"><ele>194.00000000000003</ele><time>2026-04-26T11:52:17Z</time></trkpt><trkpt lat="46.32426419265692" lon="13.066284875904767"><ele>194.0</ele><time>2026-04-26T11:52:20Z</time></trkpt><trkpt lat="46.32424801761298" lon="13.066382619927747"><ele>194.0</ele><time>2026-04-26T11:56:32Z</time></trkpt><trkpt lat="46.324199345421135" lon="13.066447250550127"><ele>194.0</ele><time>2026-04-26T11:56:55Z</time></trkpt><trkpt lat="46.32415562970544" lon="13.066523812926992"><ele>194.0</ele><time>2026-04-26T11:57:30Z</time></trkpt><trkpt lat="46.324078089839944" lon="13.06652688153671"><ele>194.0</ele><time>2026-04-26T11:57:41Z</time></trkpt><trkpt lat="46.32400567003124" lon="13.066539602591142"><ele>194.0</ele><time>2026-04-26T11:57:47Z</time></trkpt></trkseg></trk></gpx>